<?xml version='1.0' encoding='UTF-8'?><gpx version="1.1" creator="JPX - https://github.com/jenetics/jpx" xmlns="http://www.topografix.com/GPX/1/1"><trk><trkseg><trkpt lat="45.63985" lon="9.665395"><ele>201.0</ele><time>2026-04-26T13:25:31.982Z</time></trkpt><trkpt lat="45.63994" lon="9.6654"><ele>201.0</ele><time>2026-04-26T13:25:32.982Z</time></trkpt><trkpt lat="45.6400467" lon="9.665395"><ele>201.0</ele><time>2026-04-26T13:25:33.982Z</time></trkpt><trkpt lat="45.64016" lon="9.6653967"><ele>201.0</ele><time>2026-04-26T13:25:34.982Z</time></trkpt><trkpt lat="45.6402867" lon="9.6653983"><ele>201.0</ele><time>2026-04-26T13:25:35.982Z</time></trkpt><trkpt lat="45.6404233" lon="9.6653967"><ele>201.25</ele><time>2026-04-26T13:25:36.982Z</time></trkpt><trkpt lat="45.640565" lon="9.665395"><ele>201.5</ele><time>2026-04-26T13:25:37.982Z</time></trkpt><trkpt lat="45.640705" lon="9.6654"><ele>201.75</ele><time>2026-04-26T13:25:38.982Z</time></trkpt><trkpt lat="45.6408467" lon="9.6654"><ele>202.0</ele><time>2026-04-26T13:25:39.982Z</time></trkpt><trkpt lat="45.6409867" lon="9.665385"><ele>202.25</ele><time>2026-04-26T13:25:40.982Z</time></trkpt><trkpt lat="45.6411333" lon="9.66536"><ele>202.5</ele><time>2026-04-26T13:25:41.982Z</time></trkpt><trkpt lat="45.64128" lon="9.6653367"><ele>202.75</ele><time>2026-04-26T13:25:42.982Z</time></trkpt><trkpt lat="45.6414183" lon="9.6653117"><ele>203.0</ele><time>2026-04-26T13:25:43.982Z</time></trkpt><trkpt lat="45.6415617" lon="9.6652867"><ele>203.0</ele><time>2026-04-26T13:25:44.982Z</time></trkpt><trkpt lat="45.6416967" lon="9.6652733"><ele>203.0</ele><time>2026-04-26T13:25:45.982Z</time></trkpt><trkpt lat="45.6418317" lon="9.6652583"><ele>203.0</ele><time>2026-04-26T13:25:46.982Z</time></trkpt><trkpt lat="45.6419633" lon="9.6652467"><ele>203.0</ele><time>2026-04-26T13:25:47.982Z</time></trkpt><trkpt lat="45.6421" lon="9.6652333"><ele>203.0</ele><time>2026-04-26T13:25:48.982Z</time></trkpt><trkpt lat="45.64224" lon="9.6652183"><ele>203.0</ele><time>2026-04-26T13:25:49.982Z</time></trkpt><trkpt lat="45.6423833" lon="9.665205"><ele>203.0</ele><time>2026-04-26T13:25:50.982Z</time></trkpt><trkpt lat="45.64253" lon="9.665185"><ele>203.0</ele><time>2026-04-26T13:25:51.982Z</time></trkpt><trkpt lat="45.6426767" lon="9.6651683"><ele>203.5</ele><time>2026-04-26T13:25:52.982Z</time></trkpt><trkpt lat="45.6428283" lon="9.6651567"><ele>204.0</ele><time>2026-04-26T13:25:53.982Z</time></trkpt><trkpt lat="45.642975" lon="9.6651533"><ele>204.5</ele><time>2026-04-26T13:25:54.982Z</time></trkpt><trkpt lat="45.6431233" lon="9.665145"><ele>205.0</ele><time>2026-04-26T13:25:55.982Z</time></trkpt><trkpt lat="45.6432717" lon="9.6651417"><ele>205.0</ele><time>2026-04-26T13:25:56.982Z</time></trkpt><trkpt lat="45.6434067" lon="9.665135"><ele>205.0</ele><time>2026-04-26T13:25:57.982Z</time></trkpt><trkpt lat="45.643545" lon="9.6651267"><ele>205.0</ele><time>2026-04-26T13:25:58.982Z</time></trkpt><trkpt lat="45.6436983" lon="9.6651233"><ele>205.0</ele><time>2026-04-26T13:25:59.982Z</time></trkpt><trkpt lat="45.6438617" lon="9.665125"><ele>205.0</ele><time>2026-04-26T13:26:00.982Z</time></trkpt><trkpt lat="45.6440283" lon="9.665125"><ele>205.0</ele><time>2026-04-26T13:26:01.982Z</time></trkpt><trkpt lat="45.6442083" lon="9.6651433"><ele>205.0</ele><time>2026-04-26T13:26:02.982Z</time></trkpt><trkpt lat="45.644395" lon="9.6651533"><ele>205.0</ele><time>2026-04-26T13:26:03.982Z</time></trkpt><trkpt lat="45.6445767" lon="9.66517"><ele>205.0</ele><time>2026-04-26T13:26:04.982Z</time></trkpt><trkpt lat="45.6447583" lon="9.665175"><ele>205.0</ele><time>2026-04-26T13:26:05.982Z</time></trkpt><trkpt lat="45.64493" lon="9.6651917"><ele>205.0</ele><time>2026-04-26T13:26:06.982Z</time></trkpt><trkpt lat="45.6450983" lon="9.6652033"><ele>205.0</ele><time>2026-04-26T13:26:07.982Z</time></trkpt><trkpt lat="45.6452667" lon="9.6652267"><ele>205.0</ele><time>2026-04-26T13:26:08.982Z</time></trkpt><trkpt lat="45.64543" lon="9.6652333"><ele>205.5</ele><time>2026-04-26T13:26:09.982Z</time></trkpt><trkpt lat="45.6455867" lon="9.6652483"><ele>206.0</ele><time>2026-04-26T13:26:10.982Z</time></trkpt><trkpt lat="45.6457267" lon="9.6652583"><ele>206.5</ele><time>2026-04-26T13:26:11.982Z</time></trkpt><trkpt lat="45.645865" lon="9.66527"><ele>207.0</ele><time>2026-04-26T13:26:12.982Z</time></trkpt><trkpt lat="45.6460033" lon="9.6652867"><ele>207.0</ele><time>2026-04-26T13:26:13.983Z</time></trkpt><trkpt lat="45.6461383" lon="9.6652967"><ele>207.0</ele><time>2026-04-26T13:26:14.982Z</time></trkpt><trkpt lat="45.6462667" lon="9.6652883"><ele>207.0</ele><time>2026-04-26T13:26:15.982Z</time></trkpt><trkpt lat="45.6463983" lon="9.6652617"><ele>207.0</ele><time>2026-04-26T13:26:16.982Z</time></trkpt><trkpt lat="45.6465217" lon="9.6652383"><ele>207.0</ele><time>2026-04-26T13:26:17.982Z</time></trkpt><trkpt lat="45.64663" lon="9.6652183"><ele>207.0</ele><time>2026-04-26T13:26:18.982Z</time></trkpt><trkpt lat="45.6467183" lon="9.66521"><ele>207.0</ele><time>2026-04-26T13:26:19.982Z</time></trkpt><trkpt lat="45.6467883" lon="9.6651983"><ele>207.0</ele><time>2026-04-26T13:26:20.982Z</time></trkpt><trkpt lat="45.6468717" lon="9.6651983"><ele>207.0</ele><time>2026-04-26T13:26:22.982Z</time></trkpt><trkpt lat="45.646955" lon="9.6651383"><ele>207.0</ele><time>2026-04-26T13:26:34.982Z</time></trkpt><trkpt lat="45.6469867" lon="9.66505"><ele>206.75</ele><time>2026-04-26T13:26:35.982Z</time></trkpt><trkpt lat="45.64702" lon="9.66492"><ele>206.5</ele><time>2026-04-26T13:26:36.982Z</time></trkpt><trkpt lat="45.647065" lon="9.6647717"><ele>206.25</ele><time>2026-04-26T13:26:37.982Z</time></trkpt><trkpt lat="45.64712" lon="9.664615"><ele>206.0</ele><time>2026-04-26T13:26:38.982Z</time></trkpt><trkpt lat="45.6471817" lon="9.664455"><ele>206.0</ele><time>2026-04-26T13:26:39.982Z</time></trkpt><trkpt lat="45.6472417" lon="9.6643"><ele>206.0</ele><time>2026-04-26T13:26:40.982Z</time></trkpt><trkpt lat="45.6473" lon="9.6641533"><ele>206.0</ele><time>2026-04-26T13:26:41.982Z</time></trkpt><trkpt lat="45.64736" lon="9.66404"><ele>206.0</ele><time>2026-04-26T13:26:42.982Z</time></trkpt><trkpt lat="45.6474167" lon="9.6639667"><ele>206.0</ele><time>2026-04-26T13:26:43.982Z</time></trkpt><trkpt lat="45.6474883" lon="9.6639"><ele>206.0</ele><time>2026-04-26T13:26:44.982Z</time></trkpt><trkpt lat="45.6475717" lon="9.6638517"><ele>206.0</ele><time>2026-04-26T13:26:45.982Z</time></trkpt><trkpt lat="45.6476533" lon="9.663785"><ele>206.0</ele><time>2026-04-26T13:26:46.982Z</time></trkpt><trkpt lat="45.6477233" lon="9.6636833"><ele>206.0</ele><time>2026-04-26T13:26:47.982Z</time></trkpt><trkpt lat="45.64776" lon="9.6635667"><ele>206.0</ele><time>2026-04-26T13:26:48.982Z</time></trkpt><trkpt lat="45.64778" lon="9.663445"><ele>206.0</ele><time>2026-04-26T13:26:49.982Z</time></trkpt><trkpt lat="45.6477733" lon="9.66331"><ele>206.0</ele><time>2026-04-26T13:26:50.982Z</time></trkpt><trkpt lat="45.6477617" lon="9.6631567"><ele>206.0</ele><time>2026-04-26T13:26:51.982Z</time></trkpt><trkpt lat="45.6477683" lon="9.6629883"><ele>206.0</ele><time>2026-04-26T13:26:52.982Z</time></trkpt><trkpt lat="45.6477917" lon="9.662805"><ele>207.33333333333334</ele><time>2026-04-26T13:26:53.982Z</time></trkpt><trkpt lat="45.6478333" lon="9.6626"><ele>208.66666666666669</ele><time>2026-04-26T13:26:54.982Z</time></trkpt><trkpt lat="45.6478833" lon="9.66239"><ele>210.0</ele><time>2026-04-26T13:26:55.982Z</time></trkpt><trkpt lat="45.64793" lon="9.6621817"><ele>210.0</ele><time>2026-04-26T13:26:56.982Z</time></trkpt><trkpt lat="45.647975" lon="9.66197"><ele>210.0</ele><time>2026-04-26T13:26:57.982Z</time></trkpt><trkpt lat="45.6480167" lon="9.6617783"><ele>210.0</ele><time>2026-04-26T13:26:58.982Z</time></trkpt><trkpt lat="45.6480483" lon="9.6616167"><ele>210.0</ele><time>2026-04-26T13:26:59.982Z</time></trkpt><trkpt lat="45.648085" lon="9.6614767"><ele>209.83333333333334</ele><time>2026-04-26T13:27:00.982Z</time></trkpt><trkpt lat="45.6480983" lon="9.6613617"><ele>209.66666666666669</ele><time>2026-04-26T13:27:01.982Z</time></trkpt><trkpt lat="45.6480917" lon="9.6612583"><ele>209.5</ele><time>2026-04-26T13:27:02.982Z</time></trkpt><trkpt lat="45.64806" lon="9.6611733"><ele>209.33333333333334</ele><time>2026-04-26T13:27:03.982Z</time></trkpt><trkpt lat="45.64799" lon="9.6611"><ele>209.16666666666669</ele><time>2026-04-26T13:27:04.982Z</time></trkpt><trkpt lat="45.647895" lon="9.6610583"><ele>209.0</ele><time>2026-04-26T13:27:05.982Z</time></trkpt><trkpt lat="45.6477833" lon="9.6610333"><ele>209.39999999999998</ele><time>2026-04-26T13:27:06.982Z</time></trkpt><trkpt lat="45.6476833" lon="9.6610183"><ele>209.8</ele><time>2026-04-26T13:27:07.982Z</time></trkpt><trkpt lat="45.64761" lon="9.6609833"><ele>210.2</ele><time>2026-04-26T13:27:08.982Z</time></trkpt><trkpt lat="45.64756" lon="9.6609267"><ele>210.60000000000002</ele><time>2026-04-26T13:27:09.982Z</time></trkpt><trkpt lat="45.6475483" lon="9.6607317"><ele>211.0</ele><time>2026-04-26T13:27:11.982Z</time></trkpt><trkpt lat="45.6475667" lon="9.660595"><ele>211.0</ele><time>2026-04-26T13:27:12.982Z</time></trkpt><trkpt lat="45.6475933" lon="9.6604317"><ele>211.0</ele><time>2026-04-26T13:27:13.982Z</time></trkpt><trkpt lat="45.64763" lon="9.660245"><ele>211.0</ele><time>2026-04-26T13:27:14.983Z</time></trkpt><trkpt lat="45.64767" lon="9.660035"><ele>211.0</ele><time>2026-04-26T13:27:15.982Z</time></trkpt><trkpt lat="45.6477033" lon="9.6598317"><ele>210.75</ele><time>2026-04-26T13:27:16.982Z</time></trkpt><trkpt lat="45.64773" lon="9.6596483"><ele>210.5</ele><time>2026-04-26T13:27:17.982Z</time></trkpt><trkpt lat="45.6477533" lon="9.659475"><ele>210.25</ele><time>2026-04-26T13:27:18.982Z</time></trkpt><trkpt lat="45.6477883" lon="9.6592983"><ele>210.0</ele><time>2026-04-26T13:27:19.982Z</time></trkpt><trkpt lat="45.647815" lon="9.659125"><ele>209.8</ele><time>2026-04-26T13:27:20.982Z</time></trkpt><trkpt lat="45.64784" lon="9.658965"><ele>209.6</ele><time>2026-04-26T13:27:21.982Z</time></trkpt><trkpt lat="45.647865" lon="9.6588183"><ele>209.39999999999998</ele><time>2026-04-26T13:27:22.982Z</time></trkpt><trkpt lat="45.64789" lon="9.6586967"><ele>209.2</ele><time>2026-04-26T13:27:23.982Z</time></trkpt><trkpt lat="45.6479117" lon="9.6585917"><ele>209.0</ele><time>2026-04-26T13:27:24.982Z</time></trkpt><trkpt lat="45.6479283" lon="9.6584833"><ele>208.75</ele><time>2026-04-26T13:27:26.981Z</time></trkpt><trkpt lat="45.6478667" lon="9.65837"><ele>208.5</ele><time>2026-04-26T13:27:29.981Z</time></trkpt><trkpt lat="45.6477217" lon="9.6583083"><ele>208.25</ele><time>2026-04-26T13:27:31.981Z</time></trkpt><trkpt lat="45.6476133" lon="9.6582817"><ele>208.0</ele><time>2026-04-26T13:27:32.981Z</time></trkpt><trkpt lat="45.64751" lon="9.6582617"><ele>208.0</ele><time>2026-04-26T13:27:33.981Z</time></trkpt><trkpt lat="45.6474133" lon="9.6582433"><ele>208.0</ele><time>2026-04-26T13:27:34.981Z</time></trkpt><trkpt lat="45.6473383" lon="9.6582283"><ele>208.0</ele><time>2026-04-26T13:27:35.981Z</time></trkpt><trkpt lat="45.6472467" lon="9.6581533"><ele>208.0</ele><time>2026-04-26T13:27:37.981Z</time></trkpt><trkpt lat="45.6472383" lon="9.6579683"><ele>208.0</ele><time>2026-04-26T13:27:39.981Z</time></trkpt><trkpt lat="45.6472683" lon="9.6577917"><ele>208.33333333333331</ele><time>2026-04-26T13:27:40.981Z</time></trkpt><trkpt lat="45.6473067" lon="9.6575883"><ele>208.66666666666669</ele><time>2026-04-26T13:27:41.981Z</time></trkpt><trkpt lat="45.6473383" lon="9.65737"><ele>209.0</ele><time>2026-04-26T13:27:42.981Z</time></trkpt><trkpt lat="45.6473683" lon="9.6571483"><ele>208.66666666666669</ele><time>2026-04-26T13:27:43.981Z</time></trkpt><trkpt lat="45.6474" lon="9.6569267"><ele>208.33333333333331</ele><time>2026-04-26T13:27:44.981Z</time></trkpt><trkpt lat="45.647445" lon="9.6566983"><ele>208.0</ele><time>2026-04-26T13:27:45.981Z</time></trkpt><trkpt lat="45.6474867" lon="9.6565"><ele>208.0</ele><time>2026-04-26T13:27:46.981Z</time></trkpt><trkpt lat="45.6475133" lon="9.6563183"><ele>208.0</ele><time>2026-04-26T13:27:47.981Z</time></trkpt><trkpt lat="45.6475417" lon="9.6561417"><ele>208.0</ele><time>2026-04-26T13:27:48.981Z</time></trkpt><trkpt lat="45.64757" lon="9.6559783"><ele>208.0</ele><time>2026-04-26T13:27:49.981Z</time></trkpt><trkpt lat="45.6475833" lon="9.6558467"><ele>207.83333333333331</ele><time>2026-04-26T13:27:50.981Z</time></trkpt><trkpt lat="45.6476017" lon="9.6557533"><ele>207.66666666666666</ele><time>2026-04-26T13:27:51.981Z</time></trkpt><trkpt lat="45.64762" lon="9.655645"><ele>207.5</ele><time>2026-04-26T13:27:53.981Z</time></trkpt><trkpt lat="45.6475417" lon="9.655575"><ele>207.33333333333331</ele><time>2026-04-26T13:28:00.981Z</time></trkpt><trkpt lat="45.64747" lon="9.65557"><ele>207.16666666666666</ele><time>2026-04-26T13:28:01.981Z</time></trkpt><trkpt lat="45.6473667" lon="9.6555933"><ele>207.0</ele><time>2026-04-26T13:28:02.981Z</time></trkpt><trkpt lat="45.64725" lon="9.6556183"><ele>207.0</ele><time>2026-04-26T13:28:03.981Z</time></trkpt><trkpt lat="45.6471233" lon="9.6556567"><ele>207.0</ele><time>2026-04-26T13:28:04.981Z</time></trkpt><trkpt lat="45.646995" lon="9.655685"><ele>207.0</ele><time>2026-04-26T13:28:05.981Z</time></trkpt><trkpt lat="45.646865" lon="9.655705"><ele>207.0</ele><time>2026-04-26T13:28:06.981Z</time></trkpt><trkpt lat="45.646745" lon="9.6557233"><ele>207.0</ele><time>2026-04-26T13:28:07.981Z</time></trkpt><trkpt lat="45.6466283" lon="9.6557383"><ele>207.0</ele><time>2026-04-26T13:28:08.981Z</time></trkpt><trkpt lat="45.6465117" lon="9.655755"><ele>207.0</ele><time>2026-04-26T13:28:09.981Z</time></trkpt><trkpt lat="45.646375" lon="9.6557817"><ele>207.0</ele><time>2026-04-26T13:28:10.981Z</time></trkpt><trkpt lat="45.646235" lon="9.6558167"><ele>207.0</ele><time>2026-04-26T13:28:11.981Z</time></trkpt><trkpt lat="45.64609" lon="9.655845"><ele>207.0</ele><time>2026-04-26T13:28:12.981Z</time></trkpt><trkpt lat="45.6459467" lon="9.6558633"><ele>207.0</ele><time>2026-04-26T13:28:13.981Z</time></trkpt><trkpt lat="45.6458017" lon="9.655875"><ele>207.0</ele><time>2026-04-26T13:28:14.981Z</time></trkpt><trkpt lat="45.6456717" lon="9.6559017"><ele>207.0</ele><time>2026-04-26T13:28:15.981Z</time></trkpt><trkpt lat="45.6455533" lon="9.655925"><ele>207.0</ele><time>2026-04-26T13:28:16.981Z</time></trkpt><trkpt lat="45.6454367" lon="9.65595"><ele>207.0</ele><time>2026-04-26T13:28:17.981Z</time></trkpt><trkpt lat="45.6453167" lon="9.65595"><ele>207.0</ele><time>2026-04-26T13:28:18.981Z</time></trkpt><trkpt lat="45.6451983" lon="9.655965"><ele>206.75</ele><time>2026-04-26T13:28:19.981Z</time></trkpt><trkpt lat="45.645085" lon="9.6560083"><ele>206.5</ele><time>2026-04-26T13:28:20.981Z</time></trkpt><trkpt lat="45.6449767" lon="9.65605"><ele>206.25</ele><time>2026-04-26T13:28:21.981Z</time></trkpt><trkpt lat="45.6448583" lon="9.6560733"><ele>206.0</ele><time>2026-04-26T13:28:22.981Z</time></trkpt><trkpt lat="45.6447383" lon="9.6560867"><ele>206.0</ele><time>2026-04-26T13:28:23.981Z</time></trkpt><trkpt lat="45.6446167" lon="9.656095"><ele>206.0</ele><time>2026-04-26T13:28:24.981Z</time></trkpt><trkpt lat="45.6445033" lon="9.6561067"><ele>206.0</ele><time>2026-04-26T13:28:25.981Z</time></trkpt><trkpt lat="45.6444033" lon="9.656125"><ele>206.0</ele><time>2026-04-26T13:28:26.981Z</time></trkpt><trkpt lat="45.644285" lon="9.6561517"><ele>205.75</ele><time>2026-04-26T13:28:27.981Z</time></trkpt><trkpt lat="45.64417" lon="9.6561717"><ele>205.5</ele><time>2026-04-26T13:28:28.981Z</time></trkpt><trkpt lat="45.6440483" lon="9.6562"><ele>205.25</ele><time>2026-04-26T13:28:29.981Z</time></trkpt><trkpt lat="45.6439383" lon="9.6562217"><ele>205.0</ele><time>2026-04-26T13:28:30.981Z</time></trkpt><trkpt lat="45.6438267" lon="9.6562433"><ele>205.0</ele><time>2026-04-26T13:28:31.981Z</time></trkpt><trkpt lat="45.6437117" lon="9.6562617"><ele>205.0</ele><time>2026-04-26T13:28:32.981Z</time></trkpt><trkpt lat="45.643595" lon="9.656285"><ele>205.0</ele><time>2026-04-26T13:28:33.981Z</time></trkpt><trkpt lat="45.6434917" lon="9.6563117"><ele>205.0</ele><time>2026-04-26T13:28:34.981Z</time></trkpt><trkpt lat="45.64339" lon="9.6563383"><ele>205.0</ele><time>2026-04-26T13:28:35.981Z</time></trkpt><trkpt lat="45.6432967" lon="9.6563583"><ele>204.49999999999997</ele><time>2026-04-26T13:28:36.981Z</time></trkpt><trkpt lat="45.6432067" lon="9.6563667"><ele>204.0</ele><time>2026-04-26T13:28:37.981Z</time></trkpt><trkpt lat="45.6431183" lon="9.656385"><ele>203.5</ele><time>2026-04-26T13:28:38.981Z</time></trkpt><trkpt lat="45.64303" lon="9.6564017"><ele>203.0</ele><time>2026-04-26T13:28:39.981Z</time></trkpt><trkpt lat="45.6429483" lon="9.6564233"><ele>202.49999999999997</ele><time>2026-04-26T13:28:40.981Z</time></trkpt><trkpt lat="45.6428733" lon="9.65644"><ele>202.0</ele><time>2026-04-26T13:28:41.981Z</time></trkpt><trkpt lat="45.6428" lon="9.6564567"><ele>201.66666666666666</ele><time>2026-04-26T13:28:42.981Z</time></trkpt><trkpt lat="45.6427283" lon="9.656475"><ele>201.33333333333331</ele><time>2026-04-26T13:28:43.981Z</time></trkpt><trkpt lat="45.6426567" lon="9.656485"><ele>201.0</ele><time>2026-04-26T13:28:44.981Z</time></trkpt><trkpt lat="45.6425867" lon="9.656475"><ele>200.66666666666669</ele><time>2026-04-26T13:28:45.981Z</time></trkpt><trkpt lat="45.6425167" lon="9.6564433"><ele>200.33333333333334</ele><time>2026-04-26T13:28:46.981Z</time></trkpt><trkpt lat="45.64245" lon="9.6563833"><ele>200.0</ele><time>2026-04-26T13:28:47.981Z</time></trkpt><trkpt lat="45.6423783" lon="9.6563133"><ele>200.00000000000003</ele><time>2026-04-26T13:28:48.981Z</time></trkpt><trkpt lat="45.642305" lon="9.6562667"><ele>200.0</ele><time>2026-04-26T13:28:49.981Z</time></trkpt><trkpt lat="45.64223" lon="9.6562283"><ele>200.0</ele><time>2026-04-26T13:28:50.981Z</time></trkpt><trkpt lat="45.6421517" lon="9.6562217"><ele>200.0</ele><time>2026-04-26T13:28:51.981Z</time></trkpt><trkpt lat="45.6420783" lon="9.6562483"><ele>200.00000000000003</ele><time>2026-04-26T13:28:52.981Z</time></trkpt><trkpt lat="45.6420133" lon="9.6563083"><ele>200.0</ele><time>2026-04-26T13:28:53.981Z</time></trkpt><trkpt lat="45.6419517" lon="9.6563917"><ele>200.0</ele><time>2026-04-26T13:28:54.981Z</time></trkpt><trkpt lat="45.6418767" lon="9.6565017"><ele>200.0</ele><time>2026-04-26T13:28:55.981Z</time></trkpt><trkpt lat="45.6417767" lon="9.6565983"><ele>200.0</ele><time>2026-04-26T13:28:56.981Z</time></trkpt><trkpt lat="45.64165" lon="9.6566517"><ele>200.0</ele><time>2026-04-26T13:28:57.981Z</time></trkpt><trkpt lat="45.6414967" lon="9.6566783"><ele>200.0</ele><time>2026-04-26T13:28:58.981Z</time></trkpt><trkpt lat="45.6413233" lon="9.656715"><ele>200.0</ele><time>2026-04-26T13:28:59.981Z</time></trkpt><trkpt lat="45.6411367" lon="9.6567467"><ele>200.0</ele><time>2026-04-26T13:29:00.981Z</time></trkpt><trkpt lat="45.6409383" lon="9.65679"><ele>200.33333333333334</ele><time>2026-04-26T13:29:01.981Z</time></trkpt><trkpt lat="45.64074" lon="9.65683"><ele>200.66666666666669</ele><time>2026-04-26T13:29:02.981Z</time></trkpt><trkpt lat="45.640535" lon="9.6568733"><ele>201.0</ele><time>2026-04-26T13:29:03.981Z</time></trkpt><trkpt lat="45.6403283" lon="9.6569133"><ele>201.0</ele><time>2026-04-26T13:29:04.981Z</time></trkpt><trkpt lat="45.640115" lon="9.6569567"><ele>201.0</ele><time>2026-04-26T13:29:05.981Z</time></trkpt><trkpt lat="45.6398967" lon="9.6569983"><ele>201.0</ele><time>2026-04-26T13:29:06.981Z</time></trkpt><trkpt lat="45.6396783" lon="9.6570467"><ele>199.5</ele><time>2026-04-26T13:29:07.981Z</time></trkpt><trkpt lat="45.6394533" lon="9.6570917"><ele>198.0</ele><time>2026-04-26T13:29:08.981Z</time></trkpt><trkpt lat="45.6392233" lon="9.6571383"><ele>198.0</ele><time>2026-04-26T13:29:09.981Z</time></trkpt><trkpt lat="45.6389933" lon="9.657185"><ele>198.0</ele><time>2026-04-26T13:29:10.981Z</time></trkpt><trkpt lat="45.6387717" lon="9.6572267"><ele>199.0</ele><time>2026-04-26T13:29:11.981Z</time></trkpt><trkpt lat="45.6385433" lon="9.6572683"><ele>200.0</ele><time>2026-04-26T13:29:12.981Z</time></trkpt><trkpt lat="45.6383183" lon="9.65731"><ele>200.0</ele><time>2026-04-26T13:29:13.981Z</time></trkpt><trkpt lat="45.6381017" lon="9.6573583"><ele>200.0</ele><time>2026-04-26T13:29:14.981Z</time></trkpt><trkpt lat="45.637885" lon="9.6574083"><ele>200.0</ele><time>2026-04-26T13:29:15.981Z</time></trkpt><trkpt lat="45.6376767" lon="9.6574517"><ele>199.33333333333334</ele><time>2026-04-26T13:29:16.981Z</time></trkpt><trkpt lat="45.6374617" lon="9.6574917"><ele>198.66666666666669</ele><time>2026-04-26T13:29:17.981Z</time></trkpt><trkpt lat="45.63725" lon="9.65754"><ele>198.0</ele><time>2026-04-26T13:29:18.981Z</time></trkpt><trkpt lat="45.63704" lon="9.6575883"><ele>197.66666666666669</ele><time>2026-04-26T13:29:19.981Z</time></trkpt><trkpt lat="45.6368283" lon="9.6576367"><ele>197.33333333333334</ele><time>2026-04-26T13:29:20.981Z</time></trkpt><trkpt lat="45.6366167" lon="9.65768"><ele>197.0</ele><time>2026-04-26T13:29:21.981Z</time></trkpt><trkpt lat="45.6364083" lon="9.6577167"><ele>197.0</ele><time>2026-04-26T13:29:22.981Z</time></trkpt><trkpt lat="45.6361933" lon="9.6577567"><ele>197.0</ele><time>2026-04-26T13:29:23.981Z</time></trkpt><trkpt lat="45.63598" lon="9.6578"><ele>197.0</ele><time>2026-04-26T13:29:24.981Z</time></trkpt><trkpt lat="45.6357633" lon="9.6578417"><ele>197.0</ele><time>2026-04-26T13:29:25.981Z</time></trkpt><trkpt lat="45.6355533" lon="9.6578883"><ele>197.0</ele><time>2026-04-26T13:29:26.981Z</time></trkpt><trkpt lat="45.6353367" lon="9.6579383"><ele>197.0</ele><time>2026-04-26T13:29:27.981Z</time></trkpt><trkpt lat="45.6351217" lon="9.6579783"><ele>196.66666666666669</ele><time>2026-04-26T13:29:28.981Z</time></trkpt><trkpt lat="45.6349233" lon="9.6580217"><ele>196.33333333333331</ele><time>2026-04-26T13:29:29.981Z</time></trkpt><trkpt lat="45.6347333" lon="9.6580517"><ele>196.0</ele><time>2026-04-26T13:29:30.981Z</time></trkpt><trkpt lat="45.634555" lon="9.6580883"><ele>195.66666666666666</ele><time>2026-04-26T13:29:31.981Z</time></trkpt><trkpt lat="45.6343817" lon="9.6581217"><ele>195.33333333333331</ele><time>2026-04-26T13:29:32.981Z</time></trkpt><trkpt lat="45.6342167" lon="9.6581517"><ele>195.0</ele><time>2026-04-26T13:29:33.981Z</time></trkpt><trkpt lat="45.634065" lon="9.65818"><ele>195.0</ele><time>2026-04-26T13:29:34.982Z</time></trkpt><trkpt lat="45.633915" lon="9.6582117"><ele>195.0</ele><time>2026-04-26T13:29:35.981Z</time></trkpt><trkpt lat="45.6337767" lon="9.6582383"><ele>195.0</ele><time>2026-04-26T13:29:36.981Z</time></trkpt><trkpt lat="45.63365" lon="9.658265"><ele>195.0</ele><time>2026-04-26T13:29:37.981Z</time></trkpt><trkpt lat="45.6335483" lon="9.65827"><ele>194.5</ele><time>2026-04-26T13:29:38.981Z</time></trkpt><trkpt lat="45.6334567" lon="9.65827"><ele>194.0</ele><time>2026-04-26T13:29:39.982Z</time></trkpt><trkpt lat="45.6333767" lon="9.6582567"><ele>193.5</ele><time>2026-04-26T13:29:40.981Z</time></trkpt><trkpt lat="45.633305" lon="9.658225"><ele>193.0</ele><time>2026-04-26T13:29:41.981Z</time></trkpt><trkpt lat="45.6332367" lon="9.6581617"><ele>192.5</ele><time>2026-04-26T13:29:42.981Z</time></trkpt><trkpt lat="45.6331717" lon="9.6580733"><ele>192.0</ele><time>2026-04-26T13:29:43.981Z</time></trkpt><trkpt lat="45.6330967" lon="9.657975"><ele>192.0</ele><time>2026-04-26T13:29:44.981Z</time></trkpt><trkpt lat="45.6330083" lon="9.65789"><ele>192.0</ele><time>2026-04-26T13:29:45.981Z</time></trkpt><trkpt lat="45.63292" lon="9.6578217"><ele>192.0</ele><time>2026-04-26T13:29:46.981Z</time></trkpt><trkpt lat="45.632825" lon="9.657775"><ele>192.0</ele><time>2026-04-26T13:29:47.981Z</time></trkpt><trkpt lat="45.6327267" lon="9.65775"><ele>192.0</ele><time>2026-04-26T13:29:48.981Z</time></trkpt><trkpt lat="45.6326283" lon="9.6577667"><ele>192.39999999999998</ele><time>2026-04-26T13:29:49.981Z</time></trkpt><trkpt lat="45.6325383" lon="9.6578167"><ele>192.79999999999998</ele><time>2026-04-26T13:29:50.981Z</time></trkpt><trkpt lat="45.63245" lon="9.65789"><ele>193.2</ele><time>2026-04-26T13:29:51.981Z</time></trkpt><trkpt lat="45.6323717" lon="9.657985"><ele>193.6</ele><time>2026-04-26T13:29:52.981Z</time></trkpt><trkpt lat="45.632315" lon="9.6581033"><ele>194.0</ele><time>2026-04-26T13:29:53.981Z</time></trkpt><trkpt lat="45.6322767" lon="9.6582367"><ele>194.0</ele><time>2026-04-26T13:29:54.981Z</time></trkpt><trkpt lat="45.63226" lon="9.6583783"><ele>194.0</ele><time>2026-04-26T13:29:55.981Z</time></trkpt><trkpt lat="45.6322667" lon="9.658525"><ele>194.0</ele><time>2026-04-26T13:29:56.981Z</time></trkpt><trkpt lat="45.63229" lon="9.658665"><ele>194.0</ele><time>2026-04-26T13:29:57.981Z</time></trkpt><trkpt lat="45.6323367" lon="9.6587967"><ele>194.0</ele><time>2026-04-26T13:29:58.981Z</time></trkpt><trkpt lat="45.6323967" lon="9.6589167"><ele>194.2</ele><time>2026-04-26T13:29:59.981Z</time></trkpt><trkpt lat="45.6324717" lon="9.6590183"><ele>194.39999999999998</ele><time>2026-04-26T13:30:00.981Z</time></trkpt><trkpt lat="45.6325717" lon="9.6590883"><ele>194.6</ele><time>2026-04-26T13:30:01.981Z</time></trkpt><trkpt lat="45.6326783" lon="9.6591167"><ele>194.8</ele><time>2026-04-26T13:30:02.981Z</time></trkpt><trkpt lat="45.6327867" lon="9.6591083"><ele>195.0</ele><time>2026-04-26T13:30:03.981Z</time></trkpt><trkpt lat="45.6328967" lon="9.6590633"><ele>195.2</ele><time>2026-04-26T13:30:04.981Z</time></trkpt><trkpt lat="45.6329933" lon="9.658995"><ele>195.4</ele><time>2026-04-26T13:30:05.982Z</time></trkpt><trkpt lat="45.6330767" lon="9.6589017"><ele>195.60000000000002</ele><time>2026-04-26T13:30:06.981Z</time></trkpt><trkpt lat="45.6331467" lon="9.6587783"><ele>195.8</ele><time>2026-04-26T13:30:07.981Z</time></trkpt><trkpt lat="45.633195" lon="9.6586417"><ele>196.0</ele><time>2026-04-26T13:30:08.981Z</time></trkpt><trkpt lat="45.6332217" lon="9.6584983"><ele>195.20000000000002</ele><time>2026-04-26T13:30:09.981Z</time></trkpt><trkpt lat="45.633215" lon="9.6583417"><ele>194.4</ele><time>2026-04-26T13:30:10.981Z</time></trkpt><trkpt lat="45.6331883" lon="9.658195"><ele>193.6</ele><time>2026-04-26T13:30:11.981Z</time></trkpt><trkpt lat="45.63314" lon="9.65806"><ele>192.8</ele><time>2026-04-26T13:30:12.981Z</time></trkpt><trkpt lat="45.6330733" lon="9.6579417"><ele>192.0</ele><time>2026-04-26T13:30:13.981Z</time></trkpt><trkpt lat="45.632985" lon="9.657845"><ele>192.5</ele><time>2026-04-26T13:30:14.981Z</time></trkpt><trkpt lat="45.6328833" lon="9.6577833"><ele>193.0</ele><time>2026-04-26T13:30:15.981Z</time></trkpt><trkpt lat="45.632775" lon="9.65775"><ele>193.5</ele><time>2026-04-26T13:30:16.981Z</time></trkpt><trkpt lat="45.6326583" lon="9.6577617"><ele>194.0</ele><time>2026-04-26T13:30:17.981Z</time></trkpt><trkpt lat="45.6325417" lon="9.6578133"><ele>194.0</ele><time>2026-04-26T13:30:18.981Z</time></trkpt><trkpt lat="45.6324417" lon="9.6578933"><ele>194.0</ele><time>2026-04-26T13:30:19.982Z</time></trkpt><trkpt lat="45.632365" lon="9.6580117"><ele>194.0</ele><time>2026-04-26T13:30:20.981Z</time></trkpt><trkpt lat="45.6323067" lon="9.6581567"><ele>194.0</ele><time>2026-04-26T13:30:21.981Z</time></trkpt><trkpt lat="45.63227" lon="9.6583133"><ele>194.0</ele><time>2026-04-26T13:30:22.981Z</time></trkpt><trkpt lat="45.6322667" lon="9.6584917"><ele>194.0</ele><time>2026-04-26T13:30:23.981Z</time></trkpt><trkpt lat="45.6322917" lon="9.6586833"><ele>194.0</ele><time>2026-04-26T13:30:24.981Z</time></trkpt><trkpt lat="45.63234" lon="9.65887"><ele>194.0</ele><time>2026-04-26T13:30:25.981Z</time></trkpt><trkpt lat="45.6323983" lon="9.65906"><ele>194.25</ele><time>2026-04-26T13:30:26.981Z</time></trkpt><trkpt lat="45.6324417" lon="9.6592583"><ele>194.5</ele><time>2026-04-26T13:30:27.981Z</time></trkpt><trkpt lat="45.6324617" lon="9.65946"><ele>194.75</ele><time>2026-04-26T13:30:28.981Z</time></trkpt><trkpt lat="45.632445" lon="9.6596783"><ele>195.0</ele><time>2026-04-26T13:30:29.981Z</time></trkpt><trkpt lat="45.6324083" lon="9.6599017"><ele>195.33333333333331</ele><time>2026-04-26T13:30:30.981Z</time></trkpt><trkpt lat="45.6323667" lon="9.6601383"><ele>195.66666666666666</ele><time>2026-04-26T13:30:31.981Z</time></trkpt><trkpt lat="45.6323183" lon="9.6603833"><ele>196.0</ele><time>2026-04-26T13:30:32.981Z</time></trkpt><trkpt lat="45.632265" lon="9.6606317"><ele>196.0</ele><time>2026-04-26T13:30:33.981Z</time></trkpt><trkpt lat="45.6322083" lon="9.6608817"><ele>196.0</ele><time>2026-04-26T13:30:34.981Z</time></trkpt><trkpt lat="45.6321533" lon="9.6611417"><ele>196.0</ele><time>2026-04-26T13:30:35.981Z</time></trkpt><trkpt lat="45.632095" lon="9.6613983"><ele>195.66666666666666</ele><time>2026-04-26T13:30:36.981Z</time></trkpt><trkpt lat="45.6320383" lon="9.6616533"><ele>195.33333333333331</ele><time>2026-04-26T13:30:37.982Z</time></trkpt><trkpt lat="45.6319833" lon="9.66191"><ele>195.0</ele><time>2026-04-26T13:30:38.981Z</time></trkpt><trkpt lat="45.63193" lon="9.6621717"><ele>194.66666666666669</ele><time>2026-04-26T13:30:39.981Z</time></trkpt><trkpt lat="45.631875" lon="9.6624367"><ele>194.33333333333334</ele><time>2026-04-26T13:30:40.981Z</time></trkpt><trkpt lat="45.631815" lon="9.6627083"><ele>194.0</ele><time>2026-04-26T13:30:41.981Z</time></trkpt><trkpt lat="45.6317533" lon="9.6629783"><ele>194.0</ele><time>2026-04-26T13:30:42.981Z</time></trkpt><trkpt lat="45.6316917" lon="9.66324"><ele>194.0</ele><time>2026-04-26T13:30:43.981Z</time></trkpt><trkpt lat="45.6316317" lon="9.6635083"><ele>194.0</ele><time>2026-04-26T13:30:44.981Z</time></trkpt><trkpt lat="45.63157" lon="9.663775"><ele>194.0</ele><time>2026-04-26T13:30:45.981Z</time></trkpt><trkpt lat="45.6315067" lon="9.6640433"><ele>194.0</ele><time>2026-04-26T13:30:46.981Z</time></trkpt><trkpt lat="45.63144" lon="9.66432"><ele>194.0</ele><time>2026-04-26T13:30:47.981Z</time></trkpt><trkpt lat="45.6313733" lon="9.6645867"><ele>194.0</ele><time>2026-04-26T13:30:48.981Z</time></trkpt><trkpt lat="45.6313083" lon="9.66486"><ele>194.0</ele><time>2026-04-26T13:30:49.981Z</time></trkpt><trkpt lat="45.6312417" lon="9.6651433"><ele>194.0</ele><time>2026-04-26T13:30:50.981Z</time></trkpt><trkpt lat="45.6311717" lon="9.6654183"><ele>193.66666666666669</ele><time>2026-04-26T13:30:51.981Z</time></trkpt><trkpt lat="45.6310967" lon="9.6656917"><ele>193.33333333333331</ele><time>2026-04-26T13:30:52.981Z</time></trkpt><trkpt lat="45.6310233" lon="9.66597"><ele>193.0</ele><time>2026-04-26T13:30:53.981Z</time></trkpt><trkpt lat="45.630945" lon="9.6662583"><ele>193.66666666666666</ele><time>2026-04-26T13:30:54.981Z</time></trkpt><trkpt lat="45.630865" lon="9.6665517"><ele>194.33333333333331</ele><time>2026-04-26T13:30:55.981Z</time></trkpt><trkpt lat="45.6307817" lon="9.6668467"><ele>195.0</ele><time>2026-04-26T13:30:56.982Z</time></trkpt><trkpt lat="45.6307" lon="9.6671483"><ele>195.0</ele><time>2026-04-26T13:30:57.981Z</time></trkpt><trkpt lat="45.6306217" lon="9.667455"><ele>195.0</ele><time>2026-04-26T13:30:58.981Z</time></trkpt><trkpt lat="45.6305417" lon="9.6677483"><ele>195.0</ele><time>2026-04-26T13:30:59.981Z</time></trkpt><trkpt lat="45.6304583" lon="9.6680383"><ele>195.0</ele><time>2026-04-26T13:31:00.981Z</time></trkpt><trkpt lat="45.63038" lon="9.6683283"><ele>195.0</ele><time>2026-04-26T13:31:01.981Z</time></trkpt><trkpt lat="45.6303017" lon="9.6686117"><ele>195.0</ele><time>2026-04-26T13:31:02.981Z</time></trkpt><trkpt lat="45.630225" lon="9.6688883"><ele>195.33333333333331</ele><time>2026-04-26T13:31:03.981Z</time></trkpt><trkpt lat="45.630145" lon="9.6691633"><ele>195.66666666666666</ele><time>2026-04-26T13:31:04.981Z</time></trkpt><trkpt lat="45.63006" lon="9.6694533"><ele>196.0</ele><time>2026-04-26T13:31:05.981Z</time></trkpt><trkpt lat="45.6299817" lon="9.6697417"><ele>196.0</ele><time>2026-04-26T13:31:06.981Z</time></trkpt><trkpt lat="45.6298967" lon="9.6700233"><ele>196.0</ele><time>2026-04-26T13:31:07.981Z</time></trkpt><trkpt lat="45.6298167" lon="9.6703133"><ele>196.0</ele><time>2026-04-26T13:31:08.981Z</time></trkpt><trkpt lat="45.629735" lon="9.6706083"><ele>196.0</ele><time>2026-04-26T13:31:09.981Z</time></trkpt><trkpt lat="45.6296567" lon="9.6709033"><ele>196.0</ele><time>2026-04-26T13:31:10.981Z</time></trkpt><trkpt lat="45.6295667" lon="9.671205"><ele>196.0</ele><time>2026-04-26T13:31:11.981Z</time></trkpt><trkpt lat="45.62948" lon="9.6715083"><ele>196.0</ele><time>2026-04-26T13:31:12.981Z</time></trkpt><trkpt lat="45.6293917" lon="9.67181"><ele>194.5</ele><time>2026-04-26T13:31:13.981Z</time></trkpt><trkpt lat="45.629305" lon="9.6721233"><ele>193.0</ele><time>2026-04-26T13:31:14.981Z</time></trkpt><trkpt lat="45.6292183" lon="9.6724333"><ele>193.0</ele><time>2026-04-26T13:31:15.981Z</time></trkpt><trkpt lat="45.62913" lon="9.67275"><ele>193.0</ele><time>2026-04-26T13:31:16.981Z</time></trkpt><trkpt lat="45.6290433" lon="9.6730667"><ele>193.0</ele><time>2026-04-26T13:31:17.981Z</time></trkpt><trkpt lat="45.628955" lon="9.6733883"><ele>193.0</ele><time>2026-04-26T13:31:18.981Z</time></trkpt><trkpt lat="45.6288617" lon="9.6737083"><ele>193.5</ele><time>2026-04-26T13:31:19.981Z</time></trkpt><trkpt lat="45.62877" lon="9.6740283"><ele>194.0</ele><time>2026-04-26T13:31:20.982Z</time></trkpt><trkpt lat="45.6286783" lon="9.6743483"><ele>194.0</ele><time>2026-04-26T13:31:21.981Z</time></trkpt><trkpt lat="45.6285883" lon="9.6746767"><ele>194.0</ele><time>2026-04-26T13:31:22.981Z</time></trkpt><trkpt lat="45.6284983" lon="9.6749967"><ele>193.5</ele><time>2026-04-26T13:31:23.981Z</time></trkpt><trkpt lat="45.62841" lon="9.67531"><ele>193.0</ele><time>2026-04-26T13:31:24.981Z</time></trkpt><trkpt lat="45.628325" lon="9.67563"><ele>193.0</ele><time>2026-04-26T13:31:25.981Z</time></trkpt><trkpt lat="45.6282383" lon="9.6759417"><ele>193.0</ele><time>2026-04-26T13:31:26.981Z</time></trkpt><trkpt lat="45.6281617" lon="9.6762517"><ele>192.5</ele><time>2026-04-26T13:31:27.981Z</time></trkpt><trkpt lat="45.6280933" lon="9.6765617"><ele>192.0</ele><time>2026-04-26T13:31:28.981Z</time></trkpt><trkpt lat="45.6280283" lon="9.6768733"><ele>191.0</ele><time>2026-04-26T13:31:29.981Z</time></trkpt><trkpt lat="45.6279683" lon="9.6771867"><ele>190.0</ele><time>2026-04-26T13:31:30.982Z</time></trkpt><trkpt lat="45.6279133" lon="9.6774983"><ele>190.0</ele><time>2026-04-26T13:31:31.981Z</time></trkpt><trkpt lat="45.6278617" lon="9.6778167"><ele>190.0</ele><time>2026-04-26T13:31:32.981Z</time></trkpt><trkpt lat="45.6278133" lon="9.678125"><ele>190.66666666666669</ele><time>2026-04-26T13:31:33.981Z</time></trkpt><trkpt lat="45.6277733" lon="9.6784367"><ele>191.33333333333334</ele><time>2026-04-26T13:31:34.981Z</time></trkpt><trkpt lat="45.627735" lon="9.6787483"><ele>192.0</ele><time>2026-04-26T13:31:35.981Z</time></trkpt><trkpt lat="45.627705" lon="9.6790583"><ele>192.0</ele><time>2026-04-26T13:31:36.981Z</time></trkpt><trkpt lat="45.62768" lon="9.6793733"><ele>192.0</ele><time>2026-04-26T13:31:37.981Z</time></trkpt><trkpt lat="45.62766" lon="9.67969"><ele>192.0</ele><time>2026-04-26T13:31:38.981Z</time></trkpt><trkpt lat="45.6276433" lon="9.6800017"><ele>192.0</ele><time>2026-04-26T13:31:39.981Z</time></trkpt><trkpt lat="45.6276283" lon="9.6803117"><ele>192.0</ele><time>2026-04-26T13:31:40.981Z</time></trkpt><trkpt lat="45.6276067" lon="9.6806183"><ele>192.0</ele><time>2026-04-26T13:31:41.981Z</time></trkpt><trkpt lat="45.627585" lon="9.6809133"><ele>192.0</ele><time>2026-04-26T13:31:42.981Z</time></trkpt><trkpt lat="45.6275633" lon="9.6812133"><ele>192.0</ele><time>2026-04-26T13:31:43.981Z</time></trkpt><trkpt lat="45.6275467" lon="9.6815083"><ele>192.0</ele><time>2026-04-26T13:31:44.981Z</time></trkpt><trkpt lat="45.6275267" lon="9.6817983"><ele>191.66666666666666</ele><time>2026-04-26T13:31:45.981Z</time></trkpt><trkpt lat="45.6275083" lon="9.6820867"><ele>191.33333333333331</ele><time>2026-04-26T13:31:46.981Z</time></trkpt><trkpt lat="45.6274933" lon="9.6823717"><ele>191.0</ele><time>2026-04-26T13:31:47.981Z</time></trkpt><trkpt lat="45.62748" lon="9.6826533"><ele>192.33333333333331</ele><time>2026-04-26T13:31:48.981Z</time></trkpt><trkpt lat="45.62747" lon="9.6829233"><ele>193.66666666666666</ele><time>2026-04-26T13:31:49.981Z</time></trkpt><trkpt lat="45.62746" lon="9.6831833"><ele>195.0</ele><time>2026-04-26T13:31:50.981Z</time></trkpt><trkpt lat="45.6274567" lon="9.6834433"><ele>195.0</ele><time>2026-04-26T13:31:51.981Z</time></trkpt><trkpt lat="45.62745" lon="9.6836983"><ele>195.0</ele><time>2026-04-26T13:31:52.981Z</time></trkpt><trkpt lat="45.627445" lon="9.6839483"><ele>195.0</ele><time>2026-04-26T13:31:53.981Z</time></trkpt><trkpt lat="45.627445" lon="9.684195"><ele>194.66666666666669</ele><time>2026-04-26T13:31:54.981Z</time></trkpt><trkpt lat="45.627445" lon="9.68443"><ele>194.33333333333334</ele><time>2026-04-26T13:31:55.981Z</time></trkpt><trkpt lat="45.62745" lon="9.684655"><ele>194.0</ele><time>2026-04-26T13:31:56.981Z</time></trkpt><trkpt lat="45.627455" lon="9.6848767"><ele>194.0</ele><time>2026-04-26T13:31:57.981Z</time></trkpt><trkpt lat="45.6274567" lon="9.6851"><ele>194.0</ele><time>2026-04-26T13:31:58.982Z</time></trkpt><trkpt lat="45.6274633" lon="9.68532"><ele>194.0</ele><time>2026-04-26T13:31:59.981Z</time></trkpt><trkpt lat="45.627475" lon="9.68554"><ele>193.75</ele><time>2026-04-26T13:32:00.981Z</time></trkpt><trkpt lat="45.6274933" lon="9.6857533"><ele>193.5</ele><time>2026-04-26T13:32:01.981Z</time></trkpt><trkpt lat="45.6275067" lon="9.6859533"><ele>193.25</ele><time>2026-04-26T13:32:02.981Z</time></trkpt><trkpt lat="45.627515" lon="9.6861467"><ele>193.0</ele><time>2026-04-26T13:32:03.981Z</time></trkpt><trkpt lat="45.6275317" lon="9.686335"><ele>193.0</ele><time>2026-04-26T13:32:04.981Z</time></trkpt><trkpt lat="45.6275533" lon="9.686515"><ele>193.0</ele><time>2026-04-26T13:32:05.981Z</time></trkpt><trkpt lat="45.6275733" lon="9.6866883"><ele>193.0</ele><time>2026-04-26T13:32:06.981Z</time></trkpt><trkpt lat="45.6275917" lon="9.686855"><ele>193.0</ele><time>2026-04-26T13:32:07.981Z</time></trkpt><trkpt lat="45.6276" lon="9.6870167"><ele>193.0</ele><time>2026-04-26T13:32:08.981Z</time></trkpt><trkpt lat="45.627605" lon="9.6871683"><ele>193.0</ele><time>2026-04-26T13:32:09.981Z</time></trkpt><trkpt lat="45.6275833" lon="9.6873217"><ele>193.0</ele><time>2026-04-26T13:32:10.981Z</time></trkpt><trkpt lat="45.6275433" lon="9.6874733"><ele>193.0</ele><time>2026-04-26T13:32:11.981Z</time></trkpt><trkpt lat="45.6274867" lon="9.687605"><ele>193.0</ele><time>2026-04-26T13:32:12.981Z</time></trkpt><trkpt lat="45.62743" lon="9.68774"><ele>193.0</ele><time>2026-04-26T13:32:13.981Z</time></trkpt><trkpt lat="45.62739" lon="9.6878883"><ele>193.0</ele><time>2026-04-26T13:32:14.981Z</time></trkpt><trkpt lat="45.627375" lon="9.6880483"><ele>193.0</ele><time>2026-04-26T13:32:15.982Z</time></trkpt><trkpt lat="45.6273883" lon="9.6882133"><ele>193.0</ele><time>2026-04-26T13:32:16.981Z</time></trkpt><trkpt lat="45.62742" lon="9.6883783"><ele>193.0</ele><time>2026-04-26T13:32:17.981Z</time></trkpt><trkpt lat="45.6274683" lon="9.6885183"><ele>193.0</ele><time>2026-04-26T13:32:18.981Z</time></trkpt><trkpt lat="45.6275383" lon="9.6886333"><ele>193.0</ele><time>2026-04-26T13:32:19.981Z</time></trkpt><trkpt lat="45.627625" lon="9.6887267"><ele>193.0</ele><time>2026-04-26T13:32:20.981Z</time></trkpt><trkpt lat="45.6277283" lon="9.6887817"><ele>193.0</ele><time>2026-04-26T13:32:21.981Z</time></trkpt><trkpt lat="45.62784" lon="9.6888017"><ele>193.5</ele><time>2026-04-26T13:32:22.981Z</time></trkpt><trkpt lat="45.62795" lon="9.68878"><ele>194.0</ele><time>2026-04-26T13:32:23.98Z</time></trkpt><trkpt lat="45.6280533" lon="9.6887117"><ele>194.5</ele><time>2026-04-26T13:32:24.98Z</time></trkpt><trkpt lat="45.628145" lon="9.6886067"><ele>195.0</ele><time>2026-04-26T13:32:25.98Z</time></trkpt><trkpt lat="45.6282217" lon="9.6884867"><ele>195.0</ele><time>2026-04-26T13:32:26.98Z</time></trkpt><trkpt lat="45.6282783" lon="9.6883483"><ele>195.0</ele><time>2026-04-26T13:32:27.98Z</time></trkpt><trkpt lat="45.6283133" lon="9.688195"><ele>195.0</ele><time>2026-04-26T13:32:28.98Z</time></trkpt><trkpt lat="45.6283167" lon="9.688035"><ele>195.0</ele><time>2026-04-26T13:32:29.98Z</time></trkpt><trkpt lat="45.6282883" lon="9.68787"><ele>194.75</ele><time>2026-04-26T13:32:30.98Z</time></trkpt><trkpt lat="45.628235" lon="9.68772"><ele>194.5</ele><time>2026-04-26T13:32:31.98Z</time></trkpt><trkpt lat="45.6281617" lon="9.68759"><ele>194.25</ele><time>2026-04-26T13:32:32.98Z</time></trkpt><trkpt lat="45.6280667" lon="9.6874867"><ele>194.0</ele><time>2026-04-26T13:32:33.98Z</time></trkpt><trkpt lat="45.627965" lon="9.6873883"><ele>194.0</ele><time>2026-04-26T13:32:34.98Z</time></trkpt><trkpt lat="45.6278667" lon="9.68728"><ele>194.0</ele><time>2026-04-26T13:32:35.98Z</time></trkpt><trkpt lat="45.6277783" lon="9.687145"><ele>194.0</ele><time>2026-04-26T13:32:36.98Z</time></trkpt><trkpt lat="45.62771" lon="9.68697"><ele>194.0</ele><time>2026-04-26T13:32:37.98Z</time></trkpt><trkpt lat="45.6276583" lon="9.68676"><ele>193.66666666666669</ele><time>2026-04-26T13:32:38.98Z</time></trkpt><trkpt lat="45.6276167" lon="9.686535"><ele>193.33333333333331</ele><time>2026-04-26T13:32:39.98Z</time></trkpt><trkpt lat="45.627585" lon="9.686285"><ele>193.0</ele><time>2026-04-26T13:32:40.98Z</time></trkpt><trkpt lat="45.6275633" lon="9.6860183"><ele>192.66666666666666</ele><time>2026-04-26T13:32:41.98Z</time></trkpt><trkpt lat="45.6275433" lon="9.6857383"><ele>192.33333333333331</ele><time>2026-04-26T13:32:42.98Z</time></trkpt><trkpt lat="45.6275283" lon="9.6854467"><ele>192.0</ele><time>2026-04-26T13:32:43.98Z</time></trkpt><trkpt lat="45.6275133" lon="9.6851417"><ele>192.66666666666669</ele><time>2026-04-26T13:32:44.98Z</time></trkpt><trkpt lat="45.6275033" lon="9.6848333"><ele>193.33333333333334</ele><time>2026-04-26T13:32:45.98Z</time></trkpt><trkpt lat="45.6275" lon="9.6845167"><ele>194.0</ele><time>2026-04-26T13:32:46.98Z</time></trkpt><trkpt lat="45.6274967" lon="9.6841933"><ele>194.5</ele><time>2026-04-26T13:32:47.98Z</time></trkpt><trkpt lat="45.6275017" lon="9.6838683"><ele>195.0</ele><time>2026-04-26T13:32:48.98Z</time></trkpt><trkpt lat="45.6275117" lon="9.68354"><ele>195.0</ele><time>2026-04-26T13:32:49.98Z</time></trkpt><trkpt lat="45.6275233" lon="9.68321"><ele>195.0</ele><time>2026-04-26T13:32:50.98Z</time></trkpt><trkpt lat="45.6275367" lon="9.6828817"><ele>193.0</ele><time>2026-04-26T13:32:51.98Z</time></trkpt><trkpt lat="45.6275517" lon="9.6825467"><ele>191.0</ele><time>2026-04-26T13:32:52.98Z</time></trkpt><trkpt lat="45.6275683" lon="9.6822133"><ele>191.5</ele><time>2026-04-26T13:32:53.98Z</time></trkpt><trkpt lat="45.62759" lon="9.6818717"><ele>192.0</ele><time>2026-04-26T13:32:54.98Z</time></trkpt><trkpt lat="45.6276183" lon="9.6815417"><ele>192.0</ele><time>2026-04-26T13:32:55.98Z</time></trkpt><trkpt lat="45.6276367" lon="9.6812167"><ele>192.0</ele><time>2026-04-26T13:32:56.98Z</time></trkpt><trkpt lat="45.6276517" lon="9.6808983"><ele>192.0</ele><time>2026-04-26T13:32:57.98Z</time></trkpt><trkpt lat="45.62767" lon="9.6805817"><ele>192.0</ele><time>2026-04-26T13:32:58.98Z</time></trkpt><trkpt lat="45.627685" lon="9.6802567"><ele>192.0</ele><time>2026-04-26T13:32:59.98Z</time></trkpt><trkpt lat="45.6277017" lon="9.67993"><ele>192.0</ele><time>2026-04-26T13:33:00.98Z</time></trkpt><trkpt lat="45.627725" lon="9.679605"><ele>193.0</ele><time>2026-04-26T13:33:01.98Z</time></trkpt><trkpt lat="45.6277483" lon="9.6792833"><ele>194.0</ele><time>2026-04-26T13:33:02.98Z</time></trkpt><trkpt lat="45.6277733" lon="9.6789633"><ele>194.0</ele><time>2026-04-26T13:33:03.98Z</time></trkpt><trkpt lat="45.6278033" lon="9.6786567"><ele>194.0</ele><time>2026-04-26T13:33:04.98Z</time></trkpt><trkpt lat="45.6278367" lon="9.6783467"><ele>194.0</ele><time>2026-04-26T13:33:05.98Z</time></trkpt><trkpt lat="45.6278733" lon="9.6780417"><ele>192.66666666666669</ele><time>2026-04-26T13:33:06.98Z</time></trkpt><trkpt lat="45.6279183" lon="9.6777417"><ele>191.33333333333334</ele><time>2026-04-26T13:33:07.98Z</time></trkpt><trkpt lat="45.627965" lon="9.6774417"><ele>190.0</ele><time>2026-04-26T13:33:08.98Z</time></trkpt><trkpt lat="45.6280217" lon="9.677145"><ele>190.66666666666669</ele><time>2026-04-26T13:33:09.98Z</time></trkpt><trkpt lat="45.628075" lon="9.676855"><ele>191.33333333333334</ele><time>2026-04-26T13:33:10.98Z</time></trkpt><trkpt lat="45.62814" lon="9.6765567"><ele>192.0</ele><time>2026-04-26T13:33:11.98Z</time></trkpt><trkpt lat="45.628205" lon="9.6762667"><ele>192.33333333333331</ele><time>2026-04-26T13:33:12.98Z</time></trkpt><trkpt lat="45.628275" lon="9.6759717"><ele>192.66666666666666</ele><time>2026-04-26T13:33:13.98Z</time></trkpt><trkpt lat="45.6283567" lon="9.67567"><ele>193.0</ele><time>2026-04-26T13:33:14.98Z</time></trkpt><trkpt lat="45.6284433" lon="9.67536"><ele>193.5</ele><time>2026-04-26T13:33:15.98Z</time></trkpt><trkpt lat="45.6285333" lon="9.6750467"><ele>194.0</ele><time>2026-04-26T13:33:16.98Z</time></trkpt><trkpt lat="45.628625" lon="9.6747333"><ele>194.0</ele><time>2026-04-26T13:33:17.98Z</time></trkpt><trkpt lat="45.628715" lon="9.6744167"><ele>194.0</ele><time>2026-04-26T13:33:18.98Z</time></trkpt><trkpt lat="45.6288083" lon="9.6740983"><ele>194.0</ele><time>2026-04-26T13:33:19.98Z</time></trkpt><trkpt lat="45.6288967" lon="9.6737783"><ele>194.0</ele><time>2026-04-26T13:33:20.98Z</time></trkpt><trkpt lat="45.628985" lon="9.6734617"><ele>193.5</ele><time>2026-04-26T13:33:21.98Z</time></trkpt><trkpt lat="45.6290783" lon="9.6731517"><ele>193.0</ele><time>2026-04-26T13:33:22.98Z</time></trkpt><trkpt lat="45.6291717" lon="9.6728417"><ele>193.0</ele><time>2026-04-26T13:33:23.98Z</time></trkpt><trkpt lat="45.6292583" lon="9.6725333"><ele>193.0</ele><time>2026-04-26T13:33:24.981Z</time></trkpt><trkpt lat="45.6293433" lon="9.672225"><ele>193.0</ele><time>2026-04-26T13:33:25.98Z</time></trkpt><trkpt lat="45.6294233" lon="9.671925"><ele>193.0</ele><time>2026-04-26T13:33:26.98Z</time></trkpt><trkpt lat="45.6295017" lon="9.6716233"><ele>194.5</ele><time>2026-04-26T13:33:27.98Z</time></trkpt><trkpt lat="45.6295867" lon="9.67132"><ele>196.0</ele><time>2026-04-26T13:33:28.98Z</time></trkpt><trkpt lat="45.6296817" lon="9.6710033"><ele>196.5</ele><time>2026-04-26T13:33:29.98Z</time></trkpt><trkpt lat="45.629775" lon="9.6706933"><ele>197.0</ele><time>2026-04-26T13:33:30.98Z</time></trkpt><trkpt lat="45.6298667" lon="9.6703917"><ele>196.5</ele><time>2026-04-26T13:33:31.98Z</time></trkpt><trkpt lat="45.629955" lon="9.670085"><ele>196.0</ele><time>2026-04-26T13:33:32.98Z</time></trkpt><trkpt lat="45.63004" lon="9.6697833"><ele>196.0</ele><time>2026-04-26T13:33:33.98Z</time></trkpt><trkpt lat="45.6301283" lon="9.6694817"><ele>196.0</ele><time>2026-04-26T13:33:34.98Z</time></trkpt><trkpt lat="45.6302017" lon="9.6691867"><ele>196.0</ele><time>2026-04-26T13:33:35.98Z</time></trkpt><trkpt lat="45.6302867" lon="9.66888"><ele>195.5</ele><time>2026-04-26T13:33:36.98Z</time></trkpt><trkpt lat="45.6303767" lon="9.668585"><ele>195.0</ele><time>2026-04-26T13:33:37.98Z</time></trkpt><trkpt lat="45.630465" lon="9.6682883"><ele>195.0</ele><time>2026-04-26T13:33:38.98Z</time></trkpt><trkpt lat="45.6305517" lon="9.6679867"><ele>195.0</ele><time>2026-04-26T13:33:39.98Z</time></trkpt><trkpt lat="45.6306367" lon="9.6676717"><ele>195.0</ele><time>2026-04-26T13:33:40.981Z</time></trkpt><trkpt lat="45.63072" lon="9.66737"><ele>195.0</ele><time>2026-04-26T13:33:41.98Z</time></trkpt><trkpt lat="45.6308" lon="9.66707"><ele>195.5</ele><time>2026-04-26T13:33:42.98Z</time></trkpt><trkpt lat="45.6308833" lon="9.6667667"><ele>196.0</ele><time>2026-04-26T13:33:43.98Z</time></trkpt><trkpt lat="45.6309617" lon="9.6664617"><ele>196.0</ele><time>2026-04-26T13:33:44.98Z</time></trkpt><trkpt lat="45.63104" lon="9.666155"><ele>196.0</ele><time>2026-04-26T13:33:45.98Z</time></trkpt><trkpt lat="45.6311167" lon="9.6658517"><ele>195.5</ele><time>2026-04-26T13:33:46.98Z</time></trkpt><trkpt lat="45.6312" lon="9.66554"><ele>195.0</ele><time>2026-04-26T13:33:47.98Z</time></trkpt><trkpt lat="45.631275" lon="9.6652383"><ele>194.5</ele><time>2026-04-26T13:33:48.98Z</time></trkpt><trkpt lat="45.6313517" lon="9.6649333"><ele>194.0</ele><time>2026-04-26T13:33:49.98Z</time></trkpt><trkpt lat="45.631425" lon="9.6646317"><ele>194.0</ele><time>2026-04-26T13:33:50.98Z</time></trkpt><trkpt lat="45.6314983" lon="9.6643367"><ele>194.0</ele><time>2026-04-26T13:33:51.98Z</time></trkpt><trkpt lat="45.63157" lon="9.6640417"><ele>194.0</ele><time>2026-04-26T13:33:52.98Z</time></trkpt><trkpt lat="45.63164" lon="9.66374"><ele>194.0</ele><time>2026-04-26T13:33:53.98Z</time></trkpt><trkpt lat="45.63171" lon="9.663435"><ele>194.0</ele><time>2026-04-26T13:33:54.98Z</time></trkpt><trkpt lat="45.63178" lon="9.663125"><ele>194.0</ele><time>2026-04-26T13:33:55.98Z</time></trkpt><trkpt lat="45.6318483" lon="9.6628317"><ele>194.0</ele><time>2026-04-26T13:33:56.98Z</time></trkpt><trkpt lat="45.6319083" lon="9.6625567"><ele>194.0</ele><time>2026-04-26T13:33:57.98Z</time></trkpt><trkpt lat="45.6319683" lon="9.66229"><ele>194.0</ele><time>2026-04-26T13:33:58.98Z</time></trkpt><trkpt lat="45.6320233" lon="9.6620217"><ele>194.0</ele><time>2026-04-26T13:33:59.98Z</time></trkpt><trkpt lat="45.6320767" lon="9.6617517"><ele>194.0</ele><time>2026-04-26T13:34:00.98Z</time></trkpt><trkpt lat="45.632125" lon="9.661485"><ele>194.33333333333334</ele><time>2026-04-26T13:34:01.98Z</time></trkpt><trkpt lat="45.63218" lon="9.6612267"><ele>194.66666666666669</ele><time>2026-04-26T13:34:02.98Z</time></trkpt><trkpt lat="45.6322367" lon="9.6609867"><ele>195.0</ele><time>2026-04-26T13:34:03.98Z</time></trkpt><trkpt lat="45.6322933" lon="9.660755"><ele>195.33333333333331</ele><time>2026-04-26T13:34:04.98Z</time></trkpt><trkpt lat="45.6323417" lon="9.660535"><ele>195.66666666666666</ele><time>2026-04-26T13:34:05.98Z</time></trkpt><trkpt lat="45.6323883" lon="9.66032"><ele>196.0</ele><time>2026-04-26T13:34:06.98Z</time></trkpt><trkpt lat="45.632435" lon="9.6601233"><ele>196.0</ele><time>2026-04-26T13:34:07.98Z</time></trkpt><trkpt lat="45.6324717" lon="9.6599333"><ele>196.0</ele><time>2026-04-26T13:34:08.98Z</time></trkpt><trkpt lat="45.6325067" lon="9.65978"><ele>196.0</ele><time>2026-04-26T13:34:09.98Z</time></trkpt><trkpt lat="45.6325467" lon="9.6596533"><ele>196.0</ele><time>2026-04-26T13:34:10.98Z</time></trkpt><trkpt lat="45.632585" lon="9.6595417"><ele>196.0</ele><time>2026-04-26T13:34:11.98Z</time></trkpt><trkpt lat="45.6326217" lon="9.6594517"><ele>196.0</ele><time>2026-04-26T13:34:12.98Z</time></trkpt><trkpt lat="45.6326633" lon="9.65937"><ele>196.0</ele><time>2026-04-26T13:34:13.98Z</time></trkpt><trkpt lat="45.6327117" lon="9.6592883"><ele>196.0</ele><time>2026-04-26T13:34:14.98Z</time></trkpt><trkpt lat="45.6327783" lon="9.6592067"><ele>196.0</ele><time>2026-04-26T13:34:15.98Z</time></trkpt><trkpt lat="45.632865" lon="9.6591217"><ele>196.0</ele><time>2026-04-26T13:34:16.98Z</time></trkpt><trkpt lat="45.6329667" lon="9.6590367"><ele>196.0</ele><time>2026-04-26T13:34:17.98Z</time></trkpt><trkpt lat="45.6330617" lon="9.6589167"><ele>196.0</ele><time>2026-04-26T13:34:18.98Z</time></trkpt><trkpt lat="45.6331367" lon="9.65877"><ele>196.0</ele><time>2026-04-26T13:34:19.98Z</time></trkpt><trkpt lat="45.6331933" lon="9.6586117"><ele>196.0</ele><time>2026-04-26T13:34:20.98Z</time></trkpt><trkpt lat="45.6332217" lon="9.6584333"><ele>195.5</ele><time>2026-04-26T13:34:21.98Z</time></trkpt><trkpt lat="45.6332117" lon="9.65825"><ele>195.0</ele><time>2026-04-26T13:34:22.98Z</time></trkpt><trkpt lat="45.633175" lon="9.658065"><ele>194.5</ele><time>2026-04-26T13:34:23.98Z</time></trkpt><trkpt lat="45.633115" lon="9.6578917"><ele>194.0</ele><time>2026-04-26T13:34:24.98Z</time></trkpt><trkpt lat="45.63306" lon="9.6577083"><ele>194.0</ele><time>2026-04-26T13:34:25.98Z</time></trkpt><trkpt lat="45.633035" lon="9.65751"><ele>194.0</ele><time>2026-04-26T13:34:26.98Z</time></trkpt><trkpt lat="45.6330483" lon="9.65728"><ele>194.0</ele><time>2026-04-26T13:34:27.98Z</time></trkpt><trkpt lat="45.63308" lon="9.657045"><ele>194.66666666666669</ele><time>2026-04-26T13:34:28.98Z</time></trkpt><trkpt lat="45.6331283" lon="9.6567983"><ele>195.33333333333331</ele><time>2026-04-26T13:34:29.98Z</time></trkpt><trkpt lat="45.6331867" lon="9.65654"><ele>196.0</ele><time>2026-04-26T13:34:30.98Z</time></trkpt><trkpt lat="45.63325" lon="9.6562683"><ele>196.0</ele><time>2026-04-26T13:34:31.98Z</time></trkpt><trkpt lat="45.63332" lon="9.6559917"><ele>196.0</ele><time>2026-04-26T13:34:32.98Z</time></trkpt><trkpt lat="45.6333933" lon="9.655705"><ele>196.0</ele><time>2026-04-26T13:34:33.98Z</time></trkpt><trkpt lat="45.6334733" lon="9.65541"><ele>195.5</ele><time>2026-04-26T13:34:34.98Z</time></trkpt><trkpt lat="45.63356" lon="9.655115"><ele>195.0</ele><time>2026-04-26T13:34:35.98Z</time></trkpt><trkpt lat="45.633645" lon="9.6548133"><ele>195.0</ele><time>2026-04-26T13:34:36.98Z</time></trkpt><trkpt lat="45.6337333" lon="9.6545117"><ele>195.0</ele><time>2026-04-26T13:34:37.98Z</time></trkpt><trkpt lat="45.6338283" lon="9.654215"><ele>195.0</ele><time>2026-04-26T13:34:38.98Z</time></trkpt><trkpt lat="45.6339183" lon="9.653915"><ele>195.0</ele><time>2026-04-26T13:34:39.98Z</time></trkpt><trkpt lat="45.6340117" lon="9.6536133"><ele>194.0</ele><time>2026-04-26T13:34:40.98Z</time></trkpt><trkpt lat="45.63411" lon="9.6533117"><ele>193.0</ele><time>2026-04-26T13:34:41.98Z</time></trkpt><trkpt lat="45.634215" lon="9.6530117"><ele>193.0</ele><time>2026-04-26T13:34:42.98Z</time></trkpt><trkpt lat="45.6343267" lon="9.6527183"><ele>193.0</ele><time>2026-04-26T13:34:43.98Z</time></trkpt><trkpt lat="45.6344367" lon="9.6524233"><ele>193.0</ele><time>2026-04-26T13:34:44.98Z</time></trkpt><trkpt lat="45.63455" lon="9.6521283"><ele>193.0</ele><time>2026-04-26T13:34:45.98Z</time></trkpt><trkpt lat="45.6346633" lon="9.6518317"><ele>193.0</ele><time>2026-04-26T13:34:46.98Z</time></trkpt><trkpt lat="45.6347833" lon="9.6515333"><ele>193.0</ele><time>2026-04-26T13:34:47.98Z</time></trkpt><trkpt lat="45.6349017" lon="9.6512433"><ele>193.0</ele><time>2026-04-26T13:34:48.98Z</time></trkpt><trkpt lat="45.6350217" lon="9.6509467"><ele>193.0</ele><time>2026-04-26T13:34:49.98Z</time></trkpt><trkpt lat="45.635145" lon="9.6506567"><ele>193.0</ele><time>2026-04-26T13:34:50.98Z</time></trkpt><trkpt lat="45.6352683" lon="9.6503583"><ele>193.0</ele><time>2026-04-26T13:34:51.98Z</time></trkpt><trkpt lat="45.6353917" lon="9.6500583"><ele>193.5</ele><time>2026-04-26T13:34:52.98Z</time></trkpt><trkpt lat="45.635515" lon="9.6497583"><ele>194.0</ele><time>2026-04-26T13:34:53.98Z</time></trkpt><trkpt lat="45.6356417" lon="9.6494667"><ele>193.5</ele><time>2026-04-26T13:34:54.98Z</time></trkpt><trkpt lat="45.6357617" lon="9.6491833"><ele>193.0</ele><time>2026-04-26T13:34:55.98Z</time></trkpt><trkpt lat="45.6358767" lon="9.6489117"><ele>193.0</ele><time>2026-04-26T13:34:56.98Z</time></trkpt><trkpt lat="45.6359967" lon="9.6486383"><ele>193.0</ele><time>2026-04-26T13:34:57.98Z</time></trkpt><trkpt lat="45.6361083" lon="9.6483667"><ele>193.0</ele><time>2026-04-26T13:34:58.98Z</time></trkpt><trkpt lat="45.6362183" lon="9.6481017"><ele>193.33333333333331</ele><time>2026-04-26T13:34:59.98Z</time></trkpt><trkpt lat="45.6363233" lon="9.6478467"><ele>193.66666666666669</ele><time>2026-04-26T13:35:00.98Z</time></trkpt><trkpt lat="45.6364267" lon="9.64761"><ele>194.0</ele><time>2026-04-26T13:35:01.98Z</time></trkpt><trkpt lat="45.63653" lon="9.6473667"><ele>193.33333333333334</ele><time>2026-04-26T13:35:02.98Z</time></trkpt><trkpt lat="45.6366333" lon="9.64713"><ele>192.66666666666669</ele><time>2026-04-26T13:35:03.98Z</time></trkpt><trkpt lat="45.63673" lon="9.6469"><ele>192.0</ele><time>2026-04-26T13:35:04.98Z</time></trkpt><trkpt lat="45.6368317" lon="9.646665"><ele>192.0</ele><time>2026-04-26T13:35:05.98Z</time></trkpt><trkpt lat="45.63693" lon="9.646435"><ele>192.0</ele><time>2026-04-26T13:35:06.98Z</time></trkpt><trkpt lat="45.637025" lon="9.64621"><ele>192.0</ele><time>2026-04-26T13:35:07.98Z</time></trkpt><trkpt lat="45.63712" lon="9.6459883"><ele>192.0</ele><time>2026-04-26T13:35:08.98Z</time></trkpt><trkpt lat="45.6372133" lon="9.6457583"><ele>192.0</ele><time>2026-04-26T13:35:09.98Z</time></trkpt><trkpt lat="45.637305" lon="9.6455317"><ele>192.0</ele><time>2026-04-26T13:35:10.98Z</time></trkpt><trkpt lat="45.637405" lon="9.6453117"><ele>192.0</ele><time>2026-04-26T13:35:11.98Z</time></trkpt><trkpt lat="45.6375" lon="9.6450867"><ele>192.0</ele><time>2026-04-26T13:35:12.98Z</time></trkpt><trkpt lat="45.63759" lon="9.6448683"><ele>192.0</ele><time>2026-04-26T13:35:13.98Z</time></trkpt><trkpt lat="45.6376817" lon="9.64465"><ele>192.0</ele><time>2026-04-26T13:35:14.98Z</time></trkpt><trkpt lat="45.63777" lon="9.6444283"><ele>192.0</ele><time>2026-04-26T13:35:15.98Z</time></trkpt><trkpt lat="45.6378617" lon="9.6442083"><ele>192.0</ele><time>2026-04-26T13:35:16.98Z</time></trkpt><trkpt lat="45.6379533" lon="9.6439917"><ele>192.0</ele><time>2026-04-26T13:35:17.98Z</time></trkpt><trkpt lat="45.63805" lon="9.6437717"><ele>192.0</ele><time>2026-04-26T13:35:18.98Z</time></trkpt><trkpt lat="45.6381483" lon="9.64355"><ele>192.0</ele><time>2026-04-26T13:35:19.98Z</time></trkpt><trkpt lat="45.638255" lon="9.643325"><ele>192.33333333333331</ele><time>2026-04-26T13:35:20.98Z</time></trkpt><trkpt lat="45.6383583" lon="9.6430917"><ele>192.66666666666666</ele><time>2026-04-26T13:35:21.98Z</time></trkpt><trkpt lat="45.63846" lon="9.6428517"><ele>193.0</ele><time>2026-04-26T13:35:22.98Z</time></trkpt><trkpt lat="45.6385633" lon="9.6426083"><ele>193.33333333333331</ele><time>2026-04-26T13:35:23.98Z</time></trkpt><trkpt lat="45.6386683" lon="9.6423683"><ele>193.66666666666669</ele><time>2026-04-26T13:35:24.98Z</time></trkpt><trkpt lat="45.6387733" lon="9.6421267"><ele>194.0</ele><time>2026-04-26T13:35:25.98Z</time></trkpt><trkpt lat="45.638885" lon="9.6418833"><ele>194.0</ele><time>2026-04-26T13:35:26.98Z</time></trkpt><trkpt lat="45.6389967" lon="9.64164"><ele>194.0</ele><time>2026-04-26T13:35:27.98Z</time></trkpt><trkpt lat="45.6391067" lon="9.641395"><ele>194.0</ele><time>2026-04-26T13:35:28.98Z</time></trkpt><trkpt lat="45.6392167" lon="9.6411617"><ele>194.0</ele><time>2026-04-26T13:35:29.98Z</time></trkpt><trkpt lat="45.6393233" lon="9.6409317"><ele>194.0</ele><time>2026-04-26T13:35:30.98Z</time></trkpt><trkpt lat="45.6394317" lon="9.6406983"><ele>194.0</ele><time>2026-04-26T13:35:31.98Z</time></trkpt><trkpt lat="45.6395417" lon="9.640475"><ele>195.33333333333334</ele><time>2026-04-26T13:35:32.98Z</time></trkpt><trkpt lat="45.6396517" lon="9.6402533"><ele>196.66666666666669</ele><time>2026-04-26T13:35:33.98Z</time></trkpt><trkpt lat="45.63976" lon="9.6400367"><ele>198.0</ele><time>2026-04-26T13:35:34.98Z</time></trkpt><trkpt lat="45.63987" lon="9.6398167"><ele>198.0</ele><time>2026-04-26T13:35:35.98Z</time></trkpt><trkpt lat="45.6399817" lon="9.639595"><ele>198.0</ele><time>2026-04-26T13:35:36.98Z</time></trkpt><trkpt lat="45.6400883" lon="9.6393783"><ele>198.0</ele><time>2026-04-26T13:35:37.98Z</time></trkpt><trkpt lat="45.6402033" lon="9.639155"><ele>198.0</ele><time>2026-04-26T13:35:38.98Z</time></trkpt><trkpt lat="45.6403233" lon="9.6389367"><ele>198.0</ele><time>2026-04-26T13:35:39.98Z</time></trkpt><trkpt lat="45.64044" lon="9.63871"><ele>198.0</ele><time>2026-04-26T13:35:40.98Z</time></trkpt><trkpt lat="45.6405567" lon="9.638485"><ele>198.0</ele><time>2026-04-26T13:35:41.98Z</time></trkpt><trkpt lat="45.6406717" lon="9.6382767"><ele>198.0</ele><time>2026-04-26T13:35:42.98Z</time></trkpt><trkpt lat="45.6407883" lon="9.63806"><ele>198.0</ele><time>2026-04-26T13:35:43.98Z</time></trkpt><trkpt lat="45.640905" lon="9.6378367"><ele>198.0</ele><time>2026-04-26T13:35:44.98Z</time></trkpt><trkpt lat="45.6410217" lon="9.6376133"><ele>198.0</ele><time>2026-04-26T13:35:45.98Z</time></trkpt><trkpt lat="45.64113" lon="9.6373967"><ele>198.0</ele><time>2026-04-26T13:35:46.98Z</time></trkpt><trkpt lat="45.6412467" lon="9.6371867"><ele>197.33333333333331</ele><time>2026-04-26T13:35:47.98Z</time></trkpt><trkpt lat="45.6413617" lon="9.636975"><ele>196.66666666666666</ele><time>2026-04-26T13:35:48.98Z</time></trkpt><trkpt lat="45.6414783" lon="9.6367667"><ele>196.0</ele><time>2026-04-26T13:35:49.98Z</time></trkpt><trkpt lat="45.6415983" lon="9.636565"><ele>195.66666666666666</ele><time>2026-04-26T13:35:50.98Z</time></trkpt><trkpt lat="45.64172" lon="9.636355"><ele>195.33333333333331</ele><time>2026-04-26T13:35:51.98Z</time></trkpt><trkpt lat="45.6418417" lon="9.6361417"><ele>195.0</ele><time>2026-04-26T13:35:52.98Z</time></trkpt><trkpt lat="45.64196" lon="9.6359317"><ele>194.66666666666669</ele><time>2026-04-26T13:35:53.98Z</time></trkpt><trkpt lat="45.64208" lon="9.635715"><ele>194.33333333333334</ele><time>2026-04-26T13:35:54.98Z</time></trkpt><trkpt lat="45.642205" lon="9.6355033"><ele>194.0</ele><time>2026-04-26T13:35:55.98Z</time></trkpt><trkpt lat="45.6423217" lon="9.635295"><ele>194.0</ele><time>2026-04-26T13:35:56.981Z</time></trkpt><trkpt lat="45.6424367" lon="9.635075"><ele>194.0</ele><time>2026-04-26T13:35:57.98Z</time></trkpt><trkpt lat="45.6425567" lon="9.6348517"><ele>194.0</ele><time>2026-04-26T13:35:58.98Z</time></trkpt><trkpt lat="45.6426783" lon="9.6346217"><ele>194.0</ele><time>2026-04-26T13:35:59.98Z</time></trkpt><trkpt lat="45.642815" lon="9.6343817"><ele>194.0</ele><time>2026-04-26T13:36:00.98Z</time></trkpt><trkpt lat="45.6429517" lon="9.6341433"><ele>194.0</ele><time>2026-04-26T13:36:01.98Z</time></trkpt><trkpt lat="45.6431" lon="9.633895"><ele>194.0</ele><time>2026-04-26T13:36:02.98Z</time></trkpt><trkpt lat="45.6432533" lon="9.6336483"><ele>194.0</ele><time>2026-04-26T13:36:03.98Z</time></trkpt><trkpt lat="45.6434017" lon="9.6333883"><ele>193.5</ele><time>2026-04-26T13:36:04.98Z</time></trkpt><trkpt lat="45.6435567" lon="9.6331183"><ele>193.0</ele><time>2026-04-26T13:36:05.98Z</time></trkpt><trkpt lat="45.643715" lon="9.6328517"><ele>194.0</ele><time>2026-04-26T13:36:06.98Z</time></trkpt><trkpt lat="45.6438767" lon="9.63259"><ele>195.0</ele><time>2026-04-26T13:36:07.98Z</time></trkpt><trkpt lat="45.6440367" lon="9.6323267"><ele>195.0</ele><time>2026-04-26T13:36:08.98Z</time></trkpt><trkpt lat="45.6442017" lon="9.632065"><ele>195.0</ele><time>2026-04-26T13:36:09.98Z</time></trkpt><trkpt lat="45.6443617" lon="9.631805"><ele>196.5</ele><time>2026-04-26T13:36:10.98Z</time></trkpt><trkpt lat="45.64452" lon="9.63155"><ele>198.0</ele><time>2026-04-26T13:36:11.98Z</time></trkpt><trkpt lat="45.644675" lon="9.6312817"><ele>197.5</ele><time>2026-04-26T13:36:12.98Z</time></trkpt><trkpt lat="45.64483" lon="9.6310183"><ele>197.0</ele><time>2026-04-26T13:36:13.98Z</time></trkpt><trkpt lat="45.6449833" lon="9.6307467"><ele>197.0</ele><time>2026-04-26T13:36:14.98Z</time></trkpt><trkpt lat="45.64514" lon="9.630475"><ele>197.0</ele><time>2026-04-26T13:36:15.98Z</time></trkpt><trkpt lat="45.6452933" lon="9.6302067"><ele>196.0</ele><time>2026-04-26T13:36:16.98Z</time></trkpt><trkpt lat="45.6454467" lon="9.6299367"><ele>195.0</ele><time>2026-04-26T13:36:17.98Z</time></trkpt><trkpt lat="45.6455967" lon="9.6296733"><ele>195.0</ele><time>2026-04-26T13:36:18.98Z</time></trkpt><trkpt lat="45.645755" lon="9.62941"><ele>195.0</ele><time>2026-04-26T13:36:19.98Z</time></trkpt><trkpt lat="45.6459067" lon="9.6291483"><ele>195.0</ele><time>2026-04-26T13:36:20.98Z</time></trkpt><trkpt lat="45.6460633" lon="9.6288867"><ele>195.0</ele><time>2026-04-26T13:36:21.98Z</time></trkpt><trkpt lat="45.6462133" lon="9.6286183"><ele>195.0</ele><time>2026-04-26T13:36:22.98Z</time></trkpt><trkpt lat="45.6463633" lon="9.62835"><ele>195.0</ele><time>2026-04-26T13:36:23.98Z</time></trkpt><trkpt lat="45.6465067" lon="9.6280983"><ele>195.0</ele><time>2026-04-26T13:36:24.98Z</time></trkpt><trkpt lat="45.646645" lon="9.62786"><ele>195.0</ele><time>2026-04-26T13:36:25.98Z</time></trkpt><trkpt lat="45.6467817" lon="9.62764"><ele>195.0</ele><time>2026-04-26T13:36:26.98Z</time></trkpt><trkpt lat="45.6469033" lon="9.6274267"><ele>196.0</ele><time>2026-04-26T13:36:27.98Z</time></trkpt><trkpt lat="45.6470217" lon="9.627225"><ele>197.0</ele><time>2026-04-26T13:36:28.98Z</time></trkpt><trkpt lat="45.6471367" lon="9.6270467"><ele>198.0</ele><time>2026-04-26T13:36:29.98Z</time></trkpt><trkpt lat="45.64725" lon="9.6268683"><ele>198.0</ele><time>2026-04-26T13:36:30.98Z</time></trkpt><trkpt lat="45.6473683" lon="9.6266817"><ele>198.0</ele><time>2026-04-26T13:36:31.98Z</time></trkpt><trkpt lat="45.6474817" lon="9.62649"><ele>198.0</ele><time>2026-04-26T13:36:32.98Z</time></trkpt><trkpt lat="45.6475917" lon="9.6263"><ele>198.0</ele><time>2026-04-26T13:36:33.98Z</time></trkpt><trkpt lat="45.6476967" lon="9.6261083"><ele>198.0</ele><time>2026-04-26T13:36:34.98Z</time></trkpt><trkpt lat="45.6478083" lon="9.62592"><ele>198.0</ele><time>2026-04-26T13:36:35.98Z</time></trkpt><trkpt lat="45.6479283" lon="9.6257383"><ele>198.66666666666669</ele><time>2026-04-26T13:36:36.98Z</time></trkpt><trkpt lat="45.6480617" lon="9.6255533"><ele>199.33333333333334</ele><time>2026-04-26T13:36:37.98Z</time></trkpt><trkpt lat="45.6482067" lon="9.6253717"><ele>200.0</ele><time>2026-04-26T13:36:38.98Z</time></trkpt><trkpt lat="45.6483567" lon="9.62519"><ele>200.0</ele><time>2026-04-26T13:36:39.98Z</time></trkpt><trkpt lat="45.6485133" lon="9.6249867"><ele>200.0</ele><time>2026-04-26T13:36:40.981Z</time></trkpt><trkpt lat="45.64866" lon="9.6247817"><ele>200.0</ele><time>2026-04-26T13:36:41.98Z</time></trkpt><trkpt lat="45.6488117" lon="9.6245833"><ele>200.33333333333334</ele><time>2026-04-26T13:36:42.98Z</time></trkpt><trkpt lat="45.648955" lon="9.6243783"><ele>200.66666666666669</ele><time>2026-04-26T13:36:43.98Z</time></trkpt><trkpt lat="45.6490933" lon="9.6241867"><ele>201.0</ele><time>2026-04-26T13:36:44.98Z</time></trkpt><trkpt lat="45.64924" lon="9.624"><ele>201.0</ele><time>2026-04-26T13:36:45.98Z</time></trkpt><trkpt lat="45.6493767" lon="9.6238167"><ele>201.0</ele><time>2026-04-26T13:36:46.98Z</time></trkpt><trkpt lat="45.6495117" lon="9.623645"><ele>201.0</ele><time>2026-04-26T13:36:47.981Z</time></trkpt><trkpt lat="45.64965" lon="9.6234833"><ele>201.33333333333331</ele><time>2026-04-26T13:36:48.98Z</time></trkpt><trkpt lat="45.649775" lon="9.6233283"><ele>201.66666666666666</ele><time>2026-04-26T13:36:49.98Z</time></trkpt><trkpt lat="45.6498967" lon="9.623185"><ele>202.0</ele><time>2026-04-26T13:36:50.98Z</time></trkpt><trkpt lat="45.650015" lon="9.6230433"><ele>202.0</ele><time>2026-04-26T13:36:51.98Z</time></trkpt><trkpt lat="45.65013" lon="9.6228933"><ele>202.0</ele><time>2026-04-26T13:36:52.98Z</time></trkpt><trkpt lat="45.65025" lon="9.6227433"><ele>202.0</ele><time>2026-04-26T13:36:53.98Z</time></trkpt><trkpt lat="45.6503617" lon="9.6226017"><ele>202.0</ele><time>2026-04-26T13:36:54.98Z</time></trkpt><trkpt lat="45.6504717" lon="9.62247"><ele>202.0</ele><time>2026-04-26T13:36:55.98Z</time></trkpt><trkpt lat="45.6505717" lon="9.6223483"><ele>202.0</ele><time>2026-04-26T13:36:56.98Z</time></trkpt><trkpt lat="45.650665" lon="9.62223"><ele>202.0</ele><time>2026-04-26T13:36:57.98Z</time></trkpt><trkpt lat="45.6507467" lon="9.6221267"><ele>201.99999999999997</ele><time>2026-04-26T13:36:58.98Z</time></trkpt><trkpt lat="45.6508117" lon="9.6220433"><ele>202.0</ele><time>2026-04-26T13:36:59.98Z</time></trkpt><trkpt lat="45.650875" lon="9.6219667"><ele>202.0</ele><time>2026-04-26T13:37:00.98Z</time></trkpt><trkpt lat="45.650955" lon="9.6218767"><ele>202.0</ele><time>2026-04-26T13:37:02.98Z</time></trkpt><trkpt lat="45.6510317" lon="9.621815"><ele>201.99999999999997</ele><time>2026-04-26T13:37:05.98Z</time></trkpt><trkpt lat="45.6511067" lon="9.6217583"><ele>202.0</ele><time>2026-04-26T13:37:07.98Z</time></trkpt><trkpt lat="45.65119" lon="9.6217217"><ele>201.83333333333331</ele><time>2026-04-26T13:37:13.979Z</time></trkpt><trkpt lat="45.651305" lon="9.62172"><ele>201.66666666666666</ele><time>2026-04-26T13:37:15.979Z</time></trkpt><trkpt lat="45.6513683" lon="9.6217083"><ele>201.5</ele><time>2026-04-26T13:37:16.979Z</time></trkpt><trkpt lat="45.6514383" lon="9.6216833"><ele>201.33333333333331</ele><time>2026-04-26T13:37:17.979Z</time></trkpt><trkpt lat="45.651505" lon="9.6216383"><ele>201.16666666666666</ele><time>2026-04-26T13:37:18.979Z</time></trkpt><trkpt lat="45.6515667" lon="9.6215683"><ele>201.0</ele><time>2026-04-26T13:37:19.979Z</time></trkpt><trkpt lat="45.6516133" lon="9.62149"><ele>201.0</ele><time>2026-04-26T13:37:20.979Z</time></trkpt><trkpt lat="45.6516567" lon="9.6213917"><ele>201.0</ele><time>2026-04-26T13:37:21.979Z</time></trkpt><trkpt lat="45.6516833" lon="9.6212783"><ele>201.0</ele><time>2026-04-26T13:37:22.979Z</time></trkpt><trkpt lat="45.6516983" lon="9.6211667"><ele>201.0</ele><time>2026-04-26T13:37:23.979Z</time></trkpt><trkpt lat="45.6516967" lon="9.6210483"><ele>201.0</ele><time>2026-04-26T13:37:24.979Z</time></trkpt><trkpt lat="45.65168" lon="9.620935"><ele>201.0</ele><time>2026-04-26T13:37:25.979Z</time></trkpt><trkpt lat="45.651645" lon="9.62083"><ele>200.83333333333334</ele><time>2026-04-26T13:37:26.979Z</time></trkpt><trkpt lat="45.6515917" lon="9.6207333"><ele>200.66666666666669</ele><time>2026-04-26T13:37:27.979Z</time></trkpt><trkpt lat="45.6515333" lon="9.62065"><ele>200.5</ele><time>2026-04-26T13:37:28.979Z</time></trkpt><trkpt lat="45.65146" lon="9.6206"><ele>200.33333333333334</ele><time>2026-04-26T13:37:29.979Z</time></trkpt><trkpt lat="45.65137" lon="9.6205683"><ele>200.16666666666669</ele><time>2026-04-26T13:37:30.979Z</time></trkpt><trkpt lat="45.6512783" lon="9.6205683"><ele>200.0</ele><time>2026-04-26T13:37:31.979Z</time></trkpt><trkpt lat="45.6511833" lon="9.620585"><ele>201.0</ele><time>2026-04-26T13:37:32.979Z</time></trkpt><trkpt lat="45.651085" lon="9.620615"><ele>202.0</ele><time>2026-04-26T13:37:33.979Z</time></trkpt><trkpt lat="45.6509833" lon="9.6206283"><ele>203.0</ele><time>2026-04-26T13:37:34.979Z</time></trkpt><trkpt lat="45.6508833" lon="9.62061"><ele>204.0</ele><time>2026-04-26T13:37:35.979Z</time></trkpt><trkpt lat="45.6507867" lon="9.6205717"><ele>205.0</ele><time>2026-04-26T13:37:36.979Z</time></trkpt><trkpt lat="45.6506983" lon="9.6205067"><ele>204.99999999999997</ele><time>2026-04-26T13:37:37.979Z</time></trkpt><trkpt lat="45.6506267" lon="9.6204183"><ele>205.0</ele><time>2026-04-26T13:37:38.979Z</time></trkpt><trkpt lat="45.650565" lon="9.6203333"><ele>205.0</ele><time>2026-04-26T13:37:39.979Z</time></trkpt><trkpt lat="45.65052" lon="9.620245"><ele>205.0</ele><time>2026-04-26T13:37:40.979Z</time></trkpt><trkpt lat="45.6504883" lon="9.6201533"><ele>204.99999999999997</ele><time>2026-04-26T13:37:41.979Z</time></trkpt><trkpt lat="45.65047" lon="9.6200483"><ele>205.0</ele><time>2026-04-26T13:37:42.979Z</time></trkpt><trkpt lat="45.6504683" lon="9.6199483"><ele>204.85714285714286</ele><time>2026-04-26T13:37:43.979Z</time></trkpt><trkpt lat="45.650465" lon="9.6198483"><ele>204.7142857142857</ele><time>2026-04-26T13:37:44.979Z</time></trkpt><trkpt lat="45.6504717" lon="9.61975"><ele>204.57142857142856</ele><time>2026-04-26T13:37:45.979Z</time></trkpt><trkpt lat="45.650485" lon="9.6196467"><ele>204.42857142857144</ele><time>2026-04-26T13:37:46.979Z</time></trkpt><trkpt lat="45.650505" lon="9.6195533"><ele>204.28571428571428</ele><time>2026-04-26T13:37:47.979Z</time></trkpt><trkpt lat="45.6505333" lon="9.61947"><ele>204.14285714285714</ele><time>2026-04-26T13:37:48.979Z</time></trkpt><trkpt lat="45.6505783" lon="9.6193917"><ele>204.0</ele><time>2026-04-26T13:37:49.979Z</time></trkpt><trkpt lat="45.6506433" lon="9.619325"><ele>203.33333333333334</ele><time>2026-04-26T13:37:50.979Z</time></trkpt><trkpt lat="45.650715" lon="9.6192833"><ele>202.66666666666669</ele><time>2026-04-26T13:37:51.979Z</time></trkpt><trkpt lat="45.6507867" lon="9.619255"><ele>202.0</ele><time>2026-04-26T13:37:52.979Z</time></trkpt><trkpt lat="45.6508567" lon="9.61923"><ele>201.33333333333334</ele><time>2026-04-26T13:37:53.979Z</time></trkpt><trkpt lat="45.6509267" lon="9.6191983"><ele>200.66666666666669</ele><time>2026-04-26T13:37:54.979Z</time></trkpt><trkpt lat="45.6509917" lon="9.619145"><ele>200.0</ele><time>2026-04-26T13:37:55.979Z</time></trkpt><trkpt lat="45.651055" lon="9.619075"><ele>200.0</ele><time>2026-04-26T13:37:56.979Z</time></trkpt><trkpt lat="45.6511083" lon="9.6190083"><ele>200.0</ele><time>2026-04-26T13:37:57.979Z</time></trkpt><trkpt lat="45.6511533" lon="9.618945"><ele>200.0</ele><time>2026-04-26T13:37:58.98Z</time></trkpt><trkpt lat="45.6512317" lon="9.618855"><ele>200.0</ele><time>2026-04-26T13:38:00.979Z</time></trkpt><trkpt lat="45.6513233" lon="9.61878"><ele>200.0</ele><time>2026-04-26T13:38:02.979Z</time></trkpt><trkpt lat="45.6514333" lon="9.61873"><ele>200.14285714285717</ele><time>2026-04-26T13:38:04.979Z</time></trkpt><trkpt lat="45.6515017" lon="9.61873"><ele>200.28571428571428</ele><time>2026-04-26T13:38:05.979Z</time></trkpt><trkpt lat="45.651575" lon="9.6187367"><ele>200.42857142857144</ele><time>2026-04-26T13:38:06.979Z</time></trkpt><trkpt lat="45.6516467" lon="9.618745"><ele>200.57142857142858</ele><time>2026-04-26T13:38:07.979Z</time></trkpt><trkpt lat="45.6517167" lon="9.618745"><ele>200.71428571428572</ele><time>2026-04-26T13:38:08.979Z</time></trkpt><trkpt lat="45.6517833" lon="9.618745"><ele>200.85714285714286</ele><time>2026-04-26T13:38:09.979Z</time></trkpt><trkpt lat="45.6518533" lon="9.6187417"><ele>201.0</ele><time>2026-04-26T13:38:10.979Z</time></trkpt><trkpt lat="45.6519283" lon="9.61874"><ele>201.66666666666666</ele><time>2026-04-26T13:38:11.979Z</time></trkpt><trkpt lat="45.6520117" lon="9.6187433"><ele>202.33333333333331</ele><time>2026-04-26T13:38:12.979Z</time></trkpt><trkpt lat="45.6520983" lon="9.6187467"><ele>203.0</ele><time>2026-04-26T13:38:13.979Z</time></trkpt><trkpt lat="45.652185" lon="9.618745"><ele>203.66666666666666</ele><time>2026-04-26T13:38:14.979Z</time></trkpt><trkpt lat="45.6522667" lon="9.6187433"><ele>204.33333333333331</ele><time>2026-04-26T13:38:15.979Z</time></trkpt><trkpt lat="45.65234" lon="9.61875"><ele>205.0</ele><time>2026-04-26T13:38:16.979Z</time></trkpt><trkpt lat="45.652455" lon="9.6187833"><ele>205.0</ele><time>2026-04-26T13:38:18.979Z</time></trkpt><trkpt lat="45.6525117" lon="9.6188233"><ele>205.0</ele><time>2026-04-26T13:38:19.979Z</time></trkpt><trkpt lat="45.6526417" lon="9.6188633"><ele>205.0</ele><time>2026-04-26T13:38:21.979Z</time></trkpt><trkpt lat="45.6527017" lon="9.6188283"><ele>205.0</ele><time>2026-04-26T13:38:22.979Z</time></trkpt><trkpt lat="45.6527667" lon="9.6187033"><ele>205.0</ele><time>2026-04-26T13:38:24.979Z</time></trkpt><trkpt lat="45.65275" lon="9.6185583"><ele>204.6</ele><time>2026-04-26T13:38:26.979Z</time></trkpt><trkpt lat="45.6526783" lon="9.618435"><ele>204.2</ele><time>2026-04-26T13:38:28.979Z</time></trkpt><trkpt lat="45.6526433" lon="9.618275"><ele>203.8</ele><time>2026-04-26T13:38:30.979Z</time></trkpt><trkpt lat="45.65264" lon="9.6181633"><ele>203.4</ele><time>2026-04-26T13:38:31.979Z</time></trkpt><trkpt lat="45.6526383" lon="9.6180383"><ele>203.0</ele><time>2026-04-26T13:38:32.979Z</time></trkpt><trkpt lat="45.65264" lon="9.6179167"><ele>203.33333333333334</ele><time>2026-04-26T13:38:33.979Z</time></trkpt><trkpt lat="45.6526417" lon="9.6177983"><ele>203.66666666666669</ele><time>2026-04-26T13:38:34.979Z</time></trkpt><trkpt lat="45.6526433" lon="9.6176883"><ele>204.0</ele><time>2026-04-26T13:38:35.979Z</time></trkpt><trkpt lat="45.65264" lon="9.61759"><ele>204.33333333333331</ele><time>2026-04-26T13:38:36.979Z</time></trkpt><trkpt lat="45.6526367" lon="9.617475"><ele>204.66666666666666</ele><time>2026-04-26T13:38:38.978Z</time></trkpt><trkpt lat="45.6525683" lon="9.61741"><ele>205.0</ele><time>2026-04-26T13:38:52.98Z</time></trkpt><trkpt lat="45.652505" lon="9.6174183"><ele>204.99999999999997</ele><time>2026-04-26T13:38:53.979Z</time></trkpt><trkpt lat="45.6524333" lon="9.6174267"><ele>205.0</ele><time>2026-04-26T13:38:54.979Z</time></trkpt><trkpt lat="45.6523533" lon="9.61744"><ele>205.0</ele><time>2026-04-26T13:38:55.979Z</time></trkpt><trkpt lat="45.6522633" lon="9.6174517"><ele>205.0</ele><time>2026-04-26T13:38:56.979Z</time></trkpt><trkpt lat="45.6521667" lon="9.6174617"><ele>204.99999999999997</ele><time>2026-04-26T13:38:57.979Z</time></trkpt><trkpt lat="45.6520733" lon="9.6174683"><ele>205.0</ele><time>2026-04-26T13:38:58.979Z</time></trkpt><trkpt lat="45.6519867" lon="9.61748"><ele>204.83333333333331</ele><time>2026-04-26T13:38:59.98Z</time></trkpt><trkpt lat="45.6519133" lon="9.61749"><ele>204.66666666666666</ele><time>2026-04-26T13:39:00.979Z</time></trkpt><trkpt lat="45.65184" lon="9.6174933"><ele>204.5</ele><time>2026-04-26T13:39:01.979Z</time></trkpt><trkpt lat="45.651735" lon="9.6175067"><ele>204.33333333333331</ele><time>2026-04-26T13:39:03.979Z</time></trkpt><trkpt lat="45.651665" lon="9.6175267"><ele>204.16666666666666</ele><time>2026-04-26T13:39:05.979Z</time></trkpt><trkpt lat="45.651625" lon="9.6176633"><ele>204.0</ele><time>2026-04-26T13:39:07.979Z</time></trkpt><trkpt lat="45.6516167" lon="9.61776"><ele>203.66666666666666</ele><time>2026-04-26T13:39:08.979Z</time></trkpt><trkpt lat="45.65162" lon="9.61787"><ele>203.33333333333331</ele><time>2026-04-26T13:39:09.979Z</time></trkpt><trkpt lat="45.651625" lon="9.6179883"><ele>203.0</ele><time>2026-04-26T13:39:10.979Z</time></trkpt><trkpt lat="45.6516233" lon="9.618105"><ele>202.66666666666666</ele><time>2026-04-26T13:39:11.979Z</time></trkpt><trkpt lat="45.6516183" lon="9.6182167"><ele>202.33333333333331</ele><time>2026-04-26T13:39:12.979Z</time></trkpt><trkpt lat="45.65162" lon="9.6183233"><ele>202.0</ele><time>2026-04-26T13:39:13.979Z</time></trkpt><trkpt lat="45.6516217" lon="9.6184283"><ele>201.99999999999997</ele><time>2026-04-26T13:39:14.979Z</time></trkpt><trkpt lat="45.6516267" lon="9.6185183"><ele>202.0</ele><time>2026-04-26T13:39:15.979Z</time></trkpt><trkpt lat="45.6516167" lon="9.61864"><ele>202.0</ele><time>2026-04-26T13:39:17.979Z</time></trkpt><trkpt lat="45.6516167" lon="9.6188183"><ele>202.0</ele><time>2026-04-26T13:39:19.979Z</time></trkpt><trkpt lat="45.65162" lon="9.61894"><ele>201.99999999999997</ele><time>2026-04-26T13:39:20.979Z</time></trkpt><trkpt lat="45.6516217" lon="9.6190667"><ele>202.0</ele><time>2026-04-26T13:39:21.979Z</time></trkpt><trkpt lat="45.65162" lon="9.6191817"><ele>202.0</ele><time>2026-04-26T13:39:22.979Z</time></trkpt><trkpt lat="45.65162" lon="9.619295"><ele>202.0</ele><time>2026-04-26T13:39:23.979Z</time></trkpt><trkpt lat="45.651615" lon="9.6194333"><ele>202.0</ele><time>2026-04-26T13:39:25.979Z</time></trkpt><trkpt lat="45.651525" lon="9.6194617"><ele>202.0</ele><time>2026-04-26T13:39:28.979Z</time></trkpt><trkpt lat="45.6514283" lon="9.6194617"><ele>202.0</ele><time>2026-04-26T13:39:30.979Z</time></trkpt><trkpt lat="45.651345" lon="9.6195217"><ele>201.99999999999997</ele><time>2026-04-26T13:39:32.979Z</time></trkpt><trkpt lat="45.651315" lon="9.6197033"><ele>202.0</ele><time>2026-04-26T13:39:34.979Z</time></trkpt><trkpt lat="45.6513133" lon="9.619815"><ele>202.0</ele><time>2026-04-26T13:39:35.979Z</time></trkpt><trkpt lat="45.651315" lon="9.6199083"><ele>202.0</ele><time>2026-04-26T13:39:36.979Z</time></trkpt><trkpt lat="45.6513117" lon="9.62001"><ele>201.99999999999997</ele><time>2026-04-26T13:39:38.979Z</time></trkpt><trkpt lat="45.6513183" lon="9.62011"><ele>202.0</ele><time>2026-04-26T13:39:41.979Z</time></trkpt><trkpt lat="45.6513133" lon="9.6202167"><ele>201.99999999999997</ele><time>2026-04-26T13:39:44.979Z</time></trkpt><trkpt lat="45.65123" lon="9.6202417"><ele>202.0</ele><time>2026-04-26T13:39:47.979Z</time></trkpt><trkpt lat="45.6511933" lon="9.6203167"><ele>202.0</ele><time>2026-04-26T13:39:50.979Z</time></trkpt><trkpt lat="45.6512483" lon="9.6203733"><ele>202.0</ele><time>2026-04-26T13:39:52.979Z</time></trkpt><trkpt lat="45.6513233" lon="9.620295"><ele>201.99999999999997</ele><time>2026-04-26T13:39:54.979Z</time></trkpt><trkpt lat="45.6513383" lon="9.620145"><ele>202.0</ele><time>2026-04-26T13:39:56.979Z</time></trkpt><trkpt lat="45.6512617" lon="9.6200317"><ele>201.99999999999997</ele><time>2026-04-26T13:39:58.979Z</time></trkpt><trkpt lat="45.6511933" lon="9.62002"><ele>202.0</ele><time>2026-04-26T13:39:59.98Z</time></trkpt><trkpt lat="45.6511167" lon="9.62003"><ele>202.0</ele><time>2026-04-26T13:40:00.979Z</time></trkpt><trkpt lat="45.65104" lon="9.6200417"><ele>202.0</ele><time>2026-04-26T13:40:01.979Z</time></trkpt><trkpt lat="45.6509633" lon="9.6200467"><ele>201.99999999999997</ele><time>2026-04-26T13:40:02.979Z</time></trkpt><trkpt lat="45.6508583" lon="9.6200433"><ele>202.0</ele><time>2026-04-26T13:40:04.979Z</time></trkpt><trkpt lat="45.6507833" lon="9.6200217"><ele>202.33333333333331</ele><time>2026-04-26T13:40:06.979Z</time></trkpt><trkpt lat="45.6507217" lon="9.6199317"><ele>202.66666666666666</ele><time>2026-04-26T13:40:08.979Z</time></trkpt><trkpt lat="45.6507167" lon="9.6197833"><ele>203.0</ele><time>2026-04-26T13:40:10.979Z</time></trkpt><trkpt lat="45.6507283" lon="9.6196633"><ele>203.33333333333331</ele><time>2026-04-26T13:40:12.979Z</time></trkpt><trkpt lat="45.6507033" lon="9.6195633"><ele>203.66666666666666</ele><time>2026-04-26T13:40:14.979Z</time></trkpt><trkpt lat="45.6506433" lon="9.6194983"><ele>204.0</ele><time>2026-04-26T13:40:16.979Z</time></trkpt><trkpt lat="45.6505783" lon="9.619475"><ele>204.0</ele><time>2026-04-26T13:40:18.979Z</time></trkpt><trkpt lat="45.6504883" lon="9.6195383"><ele>204.0</ele><time>2026-04-26T13:40:20.979Z</time></trkpt><trkpt lat="45.6504483" lon="9.6196367"><ele>204.0</ele><time>2026-04-26T13:40:21.979Z</time></trkpt><trkpt lat="45.6504283" lon="9.6197483"><ele>204.0</ele><time>2026-04-26T13:40:22.979Z</time></trkpt><trkpt lat="45.6504167" lon="9.61986"><ele>204.0</ele><time>2026-04-26T13:40:23.979Z</time></trkpt><trkpt lat="45.6503733" lon="9.6200017"><ele>204.0</ele><time>2026-04-26T13:40:25.979Z</time></trkpt><trkpt lat="45.65027" lon="9.6200467"><ele>203.6</ele><time>2026-04-26T13:40:27.979Z</time></trkpt><trkpt lat="45.6501983" lon="9.6200267"><ele>203.2</ele><time>2026-04-26T13:40:28.979Z</time></trkpt><trkpt lat="45.6501167" lon="9.61997"><ele>202.79999999999998</ele><time>2026-04-26T13:40:29.979Z</time></trkpt><trkpt lat="45.6500217" lon="9.61988"><ele>202.39999999999998</ele><time>2026-04-26T13:40:30.979Z</time></trkpt><trkpt lat="45.6499183" lon="9.619775"><ele>202.0</ele><time>2026-04-26T13:40:31.979Z</time></trkpt><trkpt lat="45.6498133" lon="9.6196783"><ele>202.0</ele><time>2026-04-26T13:40:32.979Z</time></trkpt><trkpt lat="45.649705" lon="9.6195833"><ele>202.0</ele><time>2026-04-26T13:40:33.979Z</time></trkpt><trkpt lat="45.6495967" lon="9.6194933"><ele>202.0</ele><time>2026-04-26T13:40:34.979Z</time></trkpt><trkpt lat="45.6494917" lon="9.6194017"><ele>202.0</ele><time>2026-04-26T13:40:35.979Z</time></trkpt><trkpt lat="45.6493833" lon="9.6193133"><ele>202.0</ele><time>2026-04-26T13:40:36.979Z</time></trkpt><trkpt lat="45.6492817" lon="9.619225"><ele>202.0</ele><time>2026-04-26T13:40:37.979Z</time></trkpt><trkpt lat="45.6491733" lon="9.6191333"><ele>202.0</ele><time>2026-04-26T13:40:38.979Z</time></trkpt><trkpt lat="45.64908" lon="9.6190433"><ele>202.0</ele><time>2026-04-26T13:40:39.979Z</time></trkpt><trkpt lat="45.6489833" lon="9.6189517"><ele>202.0</ele><time>2026-04-26T13:40:40.979Z</time></trkpt><trkpt lat="45.648895" lon="9.618875"><ele>202.0</ele><time>2026-04-26T13:40:41.979Z</time></trkpt><trkpt lat="45.64881" lon="9.6188"><ele>202.0</ele><time>2026-04-26T13:40:42.979Z</time></trkpt><trkpt lat="45.648745" lon="9.6187317"><ele>202.0</ele><time>2026-04-26T13:40:43.979Z</time></trkpt><trkpt lat="45.6486583" lon="9.6186283"><ele>202.0</ele><time>2026-04-26T13:40:45.979Z</time></trkpt><trkpt lat="45.6486067" lon="9.6184783"><ele>202.14285714285714</ele><time>2026-04-26T13:40:47.979Z</time></trkpt><trkpt lat="45.6485817" lon="9.6183933"><ele>202.28571428571428</ele><time>2026-04-26T13:40:48.979Z</time></trkpt><trkpt lat="45.6485467" lon="9.6183067"><ele>202.42857142857144</ele><time>2026-04-26T13:40:49.979Z</time></trkpt><trkpt lat="45.6484933" lon="9.6182417"><ele>202.57142857142856</ele><time>2026-04-26T13:40:50.979Z</time></trkpt><trkpt lat="45.648435" lon="9.6182"><ele>202.71428571428572</ele><time>2026-04-26T13:40:51.979Z</time></trkpt><trkpt lat="45.6483633" lon="9.6182017"><ele>202.85714285714286</ele><time>2026-04-26T13:40:52.979Z</time></trkpt><trkpt lat="45.6482917" lon="9.6182333"><ele>203.0</ele><time>2026-04-26T13:40:53.979Z</time></trkpt><trkpt lat="45.64823" lon="9.6183067"><ele>203.00000000000003</ele><time>2026-04-26T13:40:54.979Z</time></trkpt><trkpt lat="45.6481917" lon="9.6183983"><ele>203.0</ele><time>2026-04-26T13:40:55.979Z</time></trkpt><trkpt lat="45.64818" lon="9.6184967"><ele>203.0</ele><time>2026-04-26T13:40:56.979Z</time></trkpt><trkpt lat="45.6482017" lon="9.6186017"><ele>203.0</ele><time>2026-04-26T13:40:57.979Z</time></trkpt><trkpt lat="45.6482567" lon="9.6186967"><ele>203.00000000000003</ele><time>2026-04-26T13:40:58.979Z</time></trkpt><trkpt lat="45.6483533" lon="9.6187533"><ele>203.0</ele><time>2026-04-26T13:40:59.979Z</time></trkpt><trkpt lat="45.6484567" lon="9.6187817"><ele>203.0</ele><time>2026-04-26T13:41:00.979Z</time></trkpt><trkpt lat="45.64856" lon="9.6187983"><ele>203.0</ele><time>2026-04-26T13:41:01.979Z</time></trkpt><trkpt lat="45.64866" lon="9.61884"><ele>203.0</ele><time>2026-04-26T13:41:02.979Z</time></trkpt><trkpt lat="45.6487667" lon="9.618905"><ele>203.0</ele><time>2026-04-26T13:41:03.979Z</time></trkpt><trkpt lat="45.648885" lon="9.6189983"><ele>202.66666666666669</ele><time>2026-04-26T13:41:04.979Z</time></trkpt><trkpt lat="45.6490133" lon="9.6191033"><ele>202.33333333333331</ele><time>2026-04-26T13:41:05.979Z</time></trkpt><trkpt lat="45.64914" lon="9.619215"><ele>202.0</ele><time>2026-04-26T13:41:06.979Z</time></trkpt><trkpt lat="45.6492667" lon="9.619345"><ele>202.0</ele><time>2026-04-26T13:41:07.979Z</time></trkpt><trkpt lat="45.6494067" lon="9.6194683"><ele>202.0</ele><time>2026-04-26T13:41:08.979Z</time></trkpt><trkpt lat="45.6495483" lon="9.6195983"><ele>202.0</ele><time>2026-04-26T13:41:09.979Z</time></trkpt><trkpt lat="45.6496833" lon="9.61972"><ele>202.0</ele><time>2026-04-26T13:41:10.979Z</time></trkpt><trkpt lat="45.64982" lon="9.619835"><ele>202.0</ele><time>2026-04-26T13:41:11.979Z</time></trkpt><trkpt lat="45.64995" lon="9.61995"><ele>202.0</ele><time>2026-04-26T13:41:12.979Z</time></trkpt><trkpt lat="45.6500717" lon="9.6200617"><ele>202.0</ele><time>2026-04-26T13:41:13.979Z</time></trkpt><trkpt lat="45.6501883" lon="9.6201667"><ele>202.0</ele><time>2026-04-26T13:41:14.979Z</time></trkpt><trkpt lat="45.6503" lon="9.6202667"><ele>202.0</ele><time>2026-04-26T13:41:15.979Z</time></trkpt><trkpt lat="45.6504" lon="9.6203567"><ele>202.0</ele><time>2026-04-26T13:41:16.979Z</time></trkpt><trkpt lat="45.650495" lon="9.6204467"><ele>202.6</ele><time>2026-04-26T13:41:17.979Z</time></trkpt><trkpt lat="45.6505867" lon="9.6205333"><ele>203.2</ele><time>2026-04-26T13:41:18.979Z</time></trkpt><trkpt lat="45.6506667" lon="9.620625"><ele>203.8</ele><time>2026-04-26T13:41:19.979Z</time></trkpt><trkpt lat="45.6507317" lon="9.6207217"><ele>204.4</ele><time>2026-04-26T13:41:20.979Z</time></trkpt><trkpt lat="45.6507867" lon="9.6208117"><ele>205.0</ele><time>2026-04-26T13:41:21.979Z</time></trkpt><trkpt lat="45.6508367" lon="9.6208867"><ele>204.99999999999997</ele><time>2026-04-26T13:41:22.98Z</time></trkpt><trkpt lat="45.6508767" lon="9.620975"><ele>205.0</ele><time>2026-04-26T13:41:23.979Z</time></trkpt><trkpt lat="45.650915" lon="9.62109"><ele>205.0</ele><time>2026-04-26T13:41:24.979Z</time></trkpt><trkpt lat="45.6509433" lon="9.62122"><ele>205.0</ele><time>2026-04-26T13:41:25.979Z</time></trkpt><trkpt lat="45.6509767" lon="9.621345"><ele>204.99999999999997</ele><time>2026-04-26T13:41:26.979Z</time></trkpt><trkpt lat="45.6510217" lon="9.6214583"><ele>205.0</ele><time>2026-04-26T13:41:27.98Z</time></trkpt><trkpt lat="45.65109" lon="9.6215617"><ele>204.2</ele><time>2026-04-26T13:41:28.979Z</time></trkpt><trkpt lat="45.6511717" lon="9.6216267"><ele>203.4</ele><time>2026-04-26T13:41:29.979Z</time></trkpt><trkpt lat="45.6512633" lon="9.6216667"><ele>202.60000000000002</ele><time>2026-04-26T13:41:30.979Z</time></trkpt><trkpt lat="45.651355" lon="9.6216717"><ele>201.8</ele><time>2026-04-26T13:41:31.978Z</time></trkpt><trkpt lat="45.6514517" lon="9.6216417"><ele>201.0</ele><time>2026-04-26T13:41:32.978Z</time></trkpt><trkpt lat="45.6515333" lon="9.6215783"><ele>201.0</ele><time>2026-04-26T13:41:33.978Z</time></trkpt><trkpt lat="45.6515983" lon="9.6214883"><ele>201.0</ele><time>2026-04-26T13:41:34.978Z</time></trkpt><trkpt lat="45.65166" lon="9.6213683"><ele>201.0</ele><time>2026-04-26T13:41:35.978Z</time></trkpt><trkpt lat="45.6516933" lon="9.6212267"><ele>201.0</ele><time>2026-04-26T13:41:36.978Z</time></trkpt><trkpt lat="45.6517233" lon="9.6210817"><ele>201.0</ele><time>2026-04-26T13:41:37.978Z</time></trkpt><trkpt lat="45.651765" lon="9.6209467"><ele>200.8</ele><time>2026-04-26T13:41:38.979Z</time></trkpt><trkpt lat="45.651825" lon="9.6208317"><ele>200.60000000000002</ele><time>2026-04-26T13:41:39.978Z</time></trkpt><trkpt lat="45.6519" lon="9.6207383"><ele>200.4</ele><time>2026-04-26T13:41:40.978Z</time></trkpt><trkpt lat="45.6519833" lon="9.62066"><ele>200.2</ele><time>2026-04-26T13:41:41.978Z</time></trkpt><trkpt lat="45.6520767" lon="9.6205683"><ele>200.0</ele><time>2026-04-26T13:41:42.978Z</time></trkpt><trkpt lat="45.6521767" lon="9.6204567"><ele>199.75</ele><time>2026-04-26T13:41:43.978Z</time></trkpt><trkpt lat="45.6522917" lon="9.6203417"><ele>199.5</ele><time>2026-04-26T13:41:44.978Z</time></trkpt><trkpt lat="45.6523983" lon="9.6202267"><ele>199.25</ele><time>2026-04-26T13:41:45.978Z</time></trkpt><trkpt lat="45.6525133" lon="9.6200967"><ele>199.0</ele><time>2026-04-26T13:41:46.978Z</time></trkpt><trkpt lat="45.652635" lon="9.6199567"><ele>200.33333333333331</ele><time>2026-04-26T13:41:47.978Z</time></trkpt><trkpt lat="45.6527717" lon="9.61981"><ele>201.66666666666669</ele><time>2026-04-26T13:41:48.978Z</time></trkpt><trkpt lat="45.6529067" lon="9.6196633"><ele>203.0</ele><time>2026-04-26T13:41:49.978Z</time></trkpt><trkpt lat="45.65304" lon="9.6195033"><ele>203.0</ele><time>2026-04-26T13:41:50.978Z</time></trkpt><trkpt lat="45.6531717" lon="9.6193417"><ele>203.0</ele><time>2026-04-26T13:41:51.978Z</time></trkpt><trkpt lat="45.6533033" lon="9.6191733"><ele>203.0</ele><time>2026-04-26T13:41:52.978Z</time></trkpt><trkpt lat="45.6534333" lon="9.619"><ele>203.0</ele><time>2026-04-26T13:41:53.978Z</time></trkpt><trkpt lat="45.6535667" lon="9.6188317"><ele>203.0</ele><time>2026-04-26T13:41:54.978Z</time></trkpt><trkpt lat="45.6537117" lon="9.6186733"><ele>203.0</ele><time>2026-04-26T13:41:55.978Z</time></trkpt><trkpt lat="45.6538583" lon="9.6185083"><ele>204.33333333333334</ele><time>2026-04-26T13:41:56.978Z</time></trkpt><trkpt lat="45.654005" lon="9.6183167"><ele>205.66666666666669</ele><time>2026-04-26T13:41:57.978Z</time></trkpt><trkpt lat="45.65415" lon="9.6181167"><ele>207.0</ele><time>2026-04-26T13:41:58.978Z</time></trkpt><trkpt lat="45.65431" lon="9.617905"><ele>207.0</ele><time>2026-04-26T13:41:59.978Z</time></trkpt><trkpt lat="45.6544683" lon="9.6176767"><ele>207.0</ele><time>2026-04-26T13:42:00.978Z</time></trkpt><trkpt lat="45.65464" lon="9.6174467"><ele>207.0</ele><time>2026-04-26T13:42:01.978Z</time></trkpt><trkpt lat="45.6548233" lon="9.617225"><ele>207.0</ele><time>2026-04-26T13:42:02.978Z</time></trkpt><trkpt lat="45.6550117" lon="9.616995"><ele>207.0</ele><time>2026-04-26T13:42:03.978Z</time></trkpt><trkpt lat="45.6552017" lon="9.6167617"><ele>207.0</ele><time>2026-04-26T13:42:04.978Z</time></trkpt><trkpt lat="45.6553867" lon="9.6165133"><ele>205.5</ele><time>2026-04-26T13:42:05.978Z</time></trkpt><trkpt lat="45.6555717" lon="9.6162583"><ele>204.0</ele><time>2026-04-26T13:42:06.978Z</time></trkpt><trkpt lat="45.6557533" lon="9.616"><ele>204.0</ele><time>2026-04-26T13:42:07.978Z</time></trkpt><trkpt lat="45.65593" lon="9.61573"><ele>204.0</ele><time>2026-04-26T13:42:08.978Z</time></trkpt><trkpt lat="45.656115" lon="9.615465"><ele>207.5</ele><time>2026-04-26T13:42:09.978Z</time></trkpt><trkpt lat="45.6562917" lon="9.6152"><ele>211.0</ele><time>2026-04-26T13:42:10.978Z</time></trkpt><trkpt lat="45.65647" lon="9.6149417"><ele>211.0</ele><time>2026-04-26T13:42:11.978Z</time></trkpt><trkpt lat="45.6566533" lon="9.61468"><ele>211.0</ele><time>2026-04-26T13:42:12.978Z</time></trkpt><trkpt lat="45.6568383" lon="9.6144083"><ele>210.5</ele><time>2026-04-26T13:42:13.978Z</time></trkpt><trkpt lat="45.6570217" lon="9.6141367"><ele>210.0</ele><time>2026-04-26T13:42:14.978Z</time></trkpt><trkpt lat="45.6572" lon="9.6138733"><ele>210.0</ele><time>2026-04-26T13:42:15.978Z</time></trkpt><trkpt lat="45.6573817" lon="9.6136133"><ele>210.0</ele><time>2026-04-26T13:42:16.978Z</time></trkpt><trkpt lat="45.6575617" lon="9.613365"><ele>210.0</ele><time>2026-04-26T13:42:17.979Z</time></trkpt><trkpt lat="45.65775" lon="9.6131333"><ele>210.0</ele><time>2026-04-26T13:42:18.978Z</time></trkpt><trkpt lat="45.6579367" lon="9.6129117"><ele>210.0</ele><time>2026-04-26T13:42:19.978Z</time></trkpt><trkpt lat="45.6581233" lon="9.6126833"><ele>210.0</ele><time>2026-04-26T13:42:20.978Z</time></trkpt><trkpt lat="45.6583117" lon="9.612455"><ele>210.0</ele><time>2026-04-26T13:42:21.978Z</time></trkpt><trkpt lat="45.6585033" lon="9.6122333"><ele>210.0</ele><time>2026-04-26T13:42:22.978Z</time></trkpt><trkpt lat="45.65869" lon="9.6119983"><ele>211.0</ele><time>2026-04-26T13:42:23.978Z</time></trkpt><trkpt lat="45.6588817" lon="9.6117733"><ele>212.0</ele><time>2026-04-26T13:42:24.978Z</time></trkpt><trkpt lat="45.6590833" lon="9.6115417"><ele>212.0</ele><time>2026-04-26T13:42:25.978Z</time></trkpt><trkpt lat="45.65928" lon="9.6113133"><ele>212.0</ele><time>2026-04-26T13:42:26.978Z</time></trkpt><trkpt lat="45.65948" lon="9.6110833"><ele>212.5</ele><time>2026-04-26T13:42:27.978Z</time></trkpt><trkpt lat="45.6596767" lon="9.6108683"><ele>213.0</ele><time>2026-04-26T13:42:28.979Z</time></trkpt><trkpt lat="45.65988" lon="9.61065"><ele>213.0</ele><time>2026-04-26T13:42:29.978Z</time></trkpt><trkpt lat="45.6600767" lon="9.6104333"><ele>213.0</ele><time>2026-04-26T13:42:30.978Z</time></trkpt><trkpt lat="45.6602767" lon="9.6102133"><ele>211.5</ele><time>2026-04-26T13:42:31.978Z</time></trkpt><trkpt lat="45.6604767" lon="9.6099933"><ele>210.0</ele><time>2026-04-26T13:42:32.978Z</time></trkpt><trkpt lat="45.6606783" lon="9.609785"><ele>210.0</ele><time>2026-04-26T13:42:33.978Z</time></trkpt><trkpt lat="45.66088" lon="9.609595"><ele>210.0</ele><time>2026-04-26T13:42:34.978Z</time></trkpt><trkpt lat="45.6610833" lon="9.60941"><ele>211.5</ele><time>2026-04-26T13:42:35.978Z</time></trkpt><trkpt lat="45.6612833" lon="9.6092317"><ele>213.0</ele><time>2026-04-26T13:42:36.978Z</time></trkpt><trkpt lat="45.6614817" lon="9.6090517"><ele>213.0</ele><time>2026-04-26T13:42:37.978Z</time></trkpt><trkpt lat="45.6616783" lon="9.608865"><ele>213.0</ele><time>2026-04-26T13:42:38.978Z</time></trkpt><trkpt lat="45.6618683" lon="9.608685"><ele>213.0</ele><time>2026-04-26T13:42:39.978Z</time></trkpt><trkpt lat="45.6620617" lon="9.6084983"><ele>213.0</ele><time>2026-04-26T13:42:40.978Z</time></trkpt><trkpt lat="45.662255" lon="9.608315"><ele>213.0</ele><time>2026-04-26T13:42:41.978Z</time></trkpt><trkpt lat="45.6624517" lon="9.6081267"><ele>213.0</ele><time>2026-04-26T13:42:42.978Z</time></trkpt><trkpt lat="45.6626483" lon="9.60794"><ele>214.0</ele><time>2026-04-26T13:42:43.978Z</time></trkpt><trkpt lat="45.66285" lon="9.607755"><ele>215.0</ele><time>2026-04-26T13:42:44.978Z</time></trkpt><trkpt lat="45.6630467" lon="9.6075617"><ele>215.0</ele><time>2026-04-26T13:42:45.978Z</time></trkpt><trkpt lat="45.6632467" lon="9.6073617"><ele>215.0</ele><time>2026-04-26T13:42:46.978Z</time></trkpt><trkpt lat="45.6634417" lon="9.6071583"><ele>214.5</ele><time>2026-04-26T13:42:47.978Z</time></trkpt><trkpt lat="45.6636433" lon="9.6069533"><ele>214.0</ele><time>2026-04-26T13:42:48.978Z</time></trkpt><trkpt lat="45.66384" lon="9.60675"><ele>214.0</ele><time>2026-04-26T13:42:49.979Z</time></trkpt><trkpt lat="45.664035" lon="9.6065483"><ele>214.0</ele><time>2026-04-26T13:42:50.978Z</time></trkpt><trkpt lat="45.6642333" lon="9.6063433"><ele>214.0</ele><time>2026-04-26T13:42:51.978Z</time></trkpt><trkpt lat="45.6644317" lon="9.6061417"><ele>214.0</ele><time>2026-04-26T13:42:52.978Z</time></trkpt><trkpt lat="45.6646283" lon="9.6059367"><ele>215.0</ele><time>2026-04-26T13:42:53.978Z</time></trkpt><trkpt lat="45.6648267" lon="9.6057367"><ele>216.0</ele><time>2026-04-26T13:42:54.978Z</time></trkpt><trkpt lat="45.6650233" lon="9.60553"><ele>216.0</ele><time>2026-04-26T13:42:55.978Z</time></trkpt><trkpt lat="45.6652217" lon="9.6053233"><ele>216.0</ele><time>2026-04-26T13:42:56.978Z</time></trkpt><trkpt lat="45.6654183" lon="9.6051183"><ele>216.0</ele><time>2026-04-26T13:42:57.978Z</time></trkpt><trkpt lat="45.6656183" lon="9.6049233"><ele>216.0</ele><time>2026-04-26T13:42:58.978Z</time></trkpt><trkpt lat="45.665815" lon="9.6047167"><ele>216.0</ele><time>2026-04-26T13:42:59.978Z</time></trkpt><trkpt lat="45.6660133" lon="9.6045167"><ele>216.0</ele><time>2026-04-26T13:43:00.978Z</time></trkpt><trkpt lat="45.6662133" lon="9.604315"><ele>217.0</ele><time>2026-04-26T13:43:01.978Z</time></trkpt><trkpt lat="45.6664067" lon="9.6041217"><ele>218.0</ele><time>2026-04-26T13:43:02.978Z</time></trkpt><trkpt lat="45.6665983" lon="9.60393"><ele>218.0</ele><time>2026-04-26T13:43:03.978Z</time></trkpt><trkpt lat="45.6667767" lon="9.6037367"><ele>218.0</ele><time>2026-04-26T13:43:04.978Z</time></trkpt><trkpt lat="45.666955" lon="9.6035517"><ele>218.0</ele><time>2026-04-26T13:43:05.978Z</time></trkpt><trkpt lat="45.66713" lon="9.6033717"><ele>218.33333333333334</ele><time>2026-04-26T13:43:06.978Z</time></trkpt><trkpt lat="45.6673083" lon="9.6031967"><ele>218.66666666666669</ele><time>2026-04-26T13:43:07.978Z</time></trkpt><trkpt lat="45.667485" lon="9.603025"><ele>219.0</ele><time>2026-04-26T13:43:08.978Z</time></trkpt><trkpt lat="45.667655" lon="9.602865"><ele>219.66666666666669</ele><time>2026-04-26T13:43:09.978Z</time></trkpt><trkpt lat="45.6678233" lon="9.6027267"><ele>220.33333333333334</ele><time>2026-04-26T13:43:10.978Z</time></trkpt><trkpt lat="45.667985" lon="9.602595"><ele>221.0</ele><time>2026-04-26T13:43:11.978Z</time></trkpt><trkpt lat="45.6681417" lon="9.60248"><ele>221.0</ele><time>2026-04-26T13:43:12.978Z</time></trkpt><trkpt lat="45.6682967" lon="9.6023683"><ele>221.0</ele><time>2026-04-26T13:43:13.978Z</time></trkpt><trkpt lat="45.66844" lon="9.6022767"><ele>221.0</ele><time>2026-04-26T13:43:14.978Z</time></trkpt><trkpt lat="45.6685783" lon="9.6021967"><ele>221.0</ele><time>2026-04-26T13:43:15.978Z</time></trkpt><trkpt lat="45.6687133" lon="9.60213"><ele>221.0</ele><time>2026-04-26T13:43:16.978Z</time></trkpt><trkpt lat="45.66885" lon="9.6020783"><ele>221.0</ele><time>2026-04-26T13:43:17.978Z</time></trkpt><trkpt lat="45.6689917" lon="9.60203"><ele>221.0</ele><time>2026-04-26T13:43:18.978Z</time></trkpt><trkpt lat="45.6691317" lon="9.601975"><ele>221.33333333333334</ele><time>2026-04-26T13:43:19.978Z</time></trkpt><trkpt lat="45.6692783" lon="9.6019033"><ele>221.66666666666669</ele><time>2026-04-26T13:43:20.978Z</time></trkpt><trkpt lat="45.6694317" lon="9.6018417"><ele>222.0</ele><time>2026-04-26T13:43:21.978Z</time></trkpt><trkpt lat="45.6695817" lon="9.6017767"><ele>222.0</ele><time>2026-04-26T13:43:22.978Z</time></trkpt><trkpt lat="45.6697183" lon="9.6017233"><ele>222.0</ele><time>2026-04-26T13:43:23.978Z</time></trkpt><trkpt lat="45.6698467" lon="9.60168"><ele>222.0</ele><time>2026-04-26T13:43:24.978Z</time></trkpt><trkpt lat="45.669975" lon="9.6016417"><ele>222.0</ele><time>2026-04-26T13:43:25.978Z</time></trkpt><trkpt lat="45.67009" lon="9.60161"><ele>222.0</ele><time>2026-04-26T13:43:26.978Z</time></trkpt><trkpt lat="45.6701983" lon="9.6015833"><ele>222.0</ele><time>2026-04-26T13:43:27.978Z</time></trkpt><trkpt lat="45.6702883" lon="9.6015633"><ele>222.0</ele><time>2026-04-26T13:43:28.978Z</time></trkpt><trkpt lat="45.670365" lon="9.6015417"><ele>222.0</ele><time>2026-04-26T13:43:29.978Z</time></trkpt><trkpt lat="45.6704667" lon="9.6015283"><ele>222.0</ele><time>2026-04-26T13:43:31.978Z</time></trkpt><trkpt lat="45.6705283" lon="9.6016033"><ele>222.2</ele><time>2026-04-26T13:43:33.978Z</time></trkpt><trkpt lat="45.67058" lon="9.60176"><ele>222.39999999999998</ele><time>2026-04-26T13:43:35.978Z</time></trkpt><trkpt lat="45.670615" lon="9.601865"><ele>222.60000000000002</ele><time>2026-04-26T13:43:36.978Z</time></trkpt><trkpt lat="45.670655" lon="9.6019933"><ele>222.8</ele><time>2026-04-26T13:43:37.978Z</time></trkpt><trkpt lat="45.67069" lon="9.602135"><ele>223.0</ele><time>2026-04-26T13:43:38.979Z</time></trkpt><trkpt lat="45.6707183" lon="9.6022833"><ele>223.0</ele><time>2026-04-26T13:43:39.978Z</time></trkpt><trkpt lat="45.6707317" lon="9.6024317"><ele>223.0</ele><time>2026-04-26T13:43:40.978Z</time></trkpt><trkpt lat="45.670735" lon="9.60258"><ele>223.0</ele><time>2026-04-26T13:43:41.978Z</time></trkpt><trkpt lat="45.6707267" lon="9.6027217"><ele>223.0</ele><time>2026-04-26T13:43:42.978Z</time></trkpt><trkpt lat="45.6707083" lon="9.6028517"><ele>223.0</ele><time>2026-04-26T13:43:43.978Z</time></trkpt><trkpt lat="45.6706817" lon="9.6029733"><ele>222.99999999999997</ele><time>2026-04-26T13:43:44.978Z</time></trkpt><trkpt lat="45.6706633" lon="9.603085"><ele>223.0</ele><time>2026-04-26T13:43:45.978Z</time></trkpt><trkpt lat="45.6706617" lon="9.6031867"><ele>223.0</ele><time>2026-04-26T13:43:46.978Z</time></trkpt><trkpt lat="45.67067" lon="9.60328"><ele>223.0</ele><time>2026-04-26T13:43:47.978Z</time></trkpt><trkpt lat="45.6707083" lon="9.6034333"><ele>222.99999999999997</ele><time>2026-04-26T13:43:49.978Z</time></trkpt><trkpt lat="45.6707417" lon="9.603555"><ele>223.0</ele><time>2026-04-26T13:43:51.978Z</time></trkpt><trkpt lat="45.670775" lon="9.6036883"><ele>222.99999999999997</ele><time>2026-04-26T13:43:53.978Z</time></trkpt><trkpt lat="45.670805" lon="9.6037683"><ele>223.0</ele><time>2026-04-26T13:43:54.978Z</time></trkpt><trkpt lat="45.6708367" lon="9.6038483"><ele>223.0</ele><time>2026-04-26T13:43:55.978Z</time></trkpt><trkpt lat="45.6708883" lon="9.6039833"><ele>223.0</ele><time>2026-04-26T13:43:57.978Z</time></trkpt><trkpt lat="45.6709117" lon="9.6040683"><ele>222.99999999999997</ele><time>2026-04-26T13:43:58.978Z</time></trkpt><trkpt lat="45.67094" lon="9.60416"><ele>223.0</ele><time>2026-04-26T13:43:59.977Z</time></trkpt><trkpt lat="45.6709767" lon="9.6042633"><ele>222.99999999999997</ele><time>2026-04-26T13:44:00.978Z</time></trkpt><trkpt lat="45.67102" lon="9.6043683"><ele>223.0</ele><time>2026-04-26T13:44:01.978Z</time></trkpt><trkpt lat="45.6710567" lon="9.6044717"><ele>223.0</ele><time>2026-04-26T13:44:02.978Z</time></trkpt><trkpt lat="45.6710883" lon="9.6045717"><ele>223.0</ele><time>2026-04-26T13:44:03.978Z</time></trkpt><trkpt lat="45.6711217" lon="9.60467"><ele>222.99999999999997</ele><time>2026-04-26T13:44:04.978Z</time></trkpt><trkpt lat="45.6711483" lon="9.6047667"><ele>223.0</ele><time>2026-04-26T13:44:05.978Z</time></trkpt><trkpt lat="45.671185" lon="9.60486"><ele>223.0</ele><time>2026-04-26T13:44:06.978Z</time></trkpt><trkpt lat="45.6712183" lon="9.6049367"><ele>223.0</ele><time>2026-04-26T13:44:07.978Z</time></trkpt><trkpt lat="45.6712567" lon="9.605045"><ele>223.0</ele><time>2026-04-26T13:44:09.978Z</time></trkpt><trkpt lat="45.6713317" lon="9.60511"><ele>223.0</ele><time>2026-04-26T13:44:16.978Z</time></trkpt><trkpt lat="45.6714483" lon="9.6050567"><ele>223.0</ele><time>2026-04-26T13:44:18.978Z</time></trkpt><trkpt lat="45.67153" lon="9.6049967"><ele>223.0</ele><time>2026-04-26T13:44:19.978Z</time></trkpt><trkpt lat="45.6716167" lon="9.60492"><ele>223.0</ele><time>2026-04-26T13:44:20.978Z</time></trkpt><trkpt lat="45.6717133" lon="9.6048417"><ele>223.0</ele><time>2026-04-26T13:44:21.978Z</time></trkpt><trkpt lat="45.67182" lon="9.60476"><ele>223.0</ele><time>2026-04-26T13:44:22.978Z</time></trkpt><trkpt lat="45.6719267" lon="9.6046767"><ele>223.0</ele><time>2026-04-26T13:44:23.978Z</time></trkpt><trkpt lat="45.67203" lon="9.6045933"><ele>223.0</ele><time>2026-04-26T13:44:24.978Z</time></trkpt><trkpt lat="45.6721383" lon="9.604505"><ele>223.0</ele><time>2026-04-26T13:44:25.978Z</time></trkpt><trkpt lat="45.6722533" lon="9.6044217"><ele>223.0</ele><time>2026-04-26T13:44:26.978Z</time></trkpt><trkpt lat="45.6723667" lon="9.6043233"><ele>223.0</ele><time>2026-04-26T13:44:27.978Z</time></trkpt><trkpt lat="45.672485" lon="9.6042233"><ele>223.0</ele><time>2026-04-26T13:44:28.979Z</time></trkpt><trkpt lat="45.67261" lon="9.6041217"><ele>223.0</ele><time>2026-04-26T13:44:29.978Z</time></trkpt><trkpt lat="45.6727383" lon="9.6040217"><ele>223.0</ele><time>2026-04-26T13:44:30.978Z</time></trkpt><trkpt lat="45.672865" lon="9.6039317"><ele>223.25</ele><time>2026-04-26T13:44:31.978Z</time></trkpt><trkpt lat="45.672995" lon="9.603845"><ele>223.5</ele><time>2026-04-26T13:44:32.978Z</time></trkpt><trkpt lat="45.67313" lon="9.60375"><ele>223.75</ele><time>2026-04-26T13:44:33.978Z</time></trkpt><trkpt lat="45.6732667" lon="9.6036633"><ele>224.0</ele><time>2026-04-26T13:44:34.978Z</time></trkpt><trkpt lat="45.673405" lon="9.6035733"><ele>224.0</ele><time>2026-04-26T13:44:35.978Z</time></trkpt><trkpt lat="45.6735467" lon="9.603485"><ele>224.0</ele><time>2026-04-26T13:44:36.978Z</time></trkpt><trkpt lat="45.67369" lon="9.603395"><ele>224.0</ele><time>2026-04-26T13:44:37.979Z</time></trkpt><trkpt lat="45.6738333" lon="9.6033267"><ele>224.0</ele><time>2026-04-26T13:44:38.978Z</time></trkpt><trkpt lat="45.6739783" lon="9.6032467"><ele>224.0</ele><time>2026-04-26T13:44:39.978Z</time></trkpt><trkpt lat="45.6741217" lon="9.6031683"><ele>224.0</ele><time>2026-04-26T13:44:40.978Z</time></trkpt><trkpt lat="45.6742583" lon="9.6030833"><ele>224.0</ele><time>2026-04-26T13:44:41.978Z</time></trkpt><trkpt lat="45.6743867" lon="9.6030117"><ele>224.0</ele><time>2026-04-26T13:44:42.978Z</time></trkpt><trkpt lat="45.6745033" lon="9.6029533"><ele>224.0</ele><time>2026-04-26T13:44:43.978Z</time></trkpt><trkpt lat="45.674615" lon="9.6028983"><ele>224.0</ele><time>2026-04-26T13:44:44.978Z</time></trkpt><trkpt lat="45.6747217" lon="9.6028717"><ele>224.00000000000003</ele><time>2026-04-26T13:44:45.978Z</time></trkpt><trkpt lat="45.674825" lon="9.60285"><ele>224.0</ele><time>2026-04-26T13:44:46.978Z</time></trkpt><trkpt lat="45.67491" lon="9.6028267"><ele>224.0</ele><time>2026-04-26T13:44:47.978Z</time></trkpt><trkpt lat="45.6749817" lon="9.6027833"><ele>224.0</ele><time>2026-04-26T13:44:48.978Z</time></trkpt><trkpt lat="45.6750433" lon="9.6027417"><ele>224.00000000000003</ele><time>2026-04-26T13:44:49.978Z</time></trkpt><trkpt lat="45.6751483" lon="9.602705"><ele>224.0</ele><time>2026-04-26T13:44:51.978Z</time></trkpt><trkpt lat="45.67524" lon="9.60269"><ele>224.16666666666669</ele><time>2026-04-26T13:44:53.978Z</time></trkpt><trkpt lat="45.675305" lon="9.60262"><ele>224.33333333333334</ele><time>2026-04-26T13:44:55.978Z</time></trkpt><trkpt lat="45.6753067" lon="9.6024583"><ele>224.5</ele><time>2026-04-26T13:44:57.978Z</time></trkpt><trkpt lat="45.67528" lon="9.6023633"><ele>224.66666666666669</ele><time>2026-04-26T13:44:58.978Z</time></trkpt><trkpt lat="45.67524" lon="9.602255"><ele>224.83333333333334</ele><time>2026-04-26T13:44:59.978Z</time></trkpt><trkpt lat="45.6752083" lon="9.6021367"><ele>225.0</ele><time>2026-04-26T13:45:00.978Z</time></trkpt><trkpt lat="45.675175" lon="9.602"><ele>225.4</ele><time>2026-04-26T13:45:01.978Z</time></trkpt><trkpt lat="45.675135" lon="9.601865"><ele>225.8</ele><time>2026-04-26T13:45:02.978Z</time></trkpt><trkpt lat="45.6751017" lon="9.6017267"><ele>226.2</ele><time>2026-04-26T13:45:03.978Z</time></trkpt><trkpt lat="45.675065" lon="9.60159"><ele>226.6</ele><time>2026-04-26T13:45:04.978Z</time></trkpt><trkpt lat="45.675035" lon="9.60145"><ele>227.0</ele><time>2026-04-26T13:45:05.978Z</time></trkpt><trkpt lat="45.6750017" lon="9.6013133"><ele>227.0</ele><time>2026-04-26T13:45:06.978Z</time></trkpt><trkpt lat="45.6749733" lon="9.6011717"><ele>227.0</ele><time>2026-04-26T13:45:07.978Z</time></trkpt><trkpt lat="45.67494" lon="9.601025"><ele>227.0</ele><time>2026-04-26T13:45:08.978Z</time></trkpt><trkpt lat="45.6749017" lon="9.6008667"><ele>227.0</ele><time>2026-04-26T13:45:09.978Z</time></trkpt><trkpt lat="45.6748583" lon="9.6007033"><ele>226.75</ele><time>2026-04-26T13:45:10.978Z</time></trkpt><trkpt lat="45.6748117" lon="9.6005367"><ele>226.5</ele><time>2026-04-26T13:45:11.978Z</time></trkpt><trkpt lat="45.6747667" lon="9.6003633"><ele>226.25</ele><time>2026-04-26T13:45:12.978Z</time></trkpt><trkpt lat="45.6747233" lon="9.6001733"><ele>226.0</ele><time>2026-04-26T13:45:13.978Z</time></trkpt><trkpt lat="45.6746633" lon="9.5999983"><ele>225.75</ele><time>2026-04-26T13:45:14.978Z</time></trkpt><trkpt lat="45.67462" lon="9.5998283"><ele>225.5</ele><time>2026-04-26T13:45:15.978Z</time></trkpt><trkpt lat="45.674565" lon="9.59967"><ele>225.25</ele><time>2026-04-26T13:45:16.978Z</time></trkpt><trkpt lat="45.6745117" lon="9.5995033"><ele>225.0</ele><time>2026-04-26T13:45:17.978Z</time></trkpt><trkpt lat="45.674455" lon="9.5993417"><ele>224.25</ele><time>2026-04-26T13:45:18.978Z</time></trkpt><trkpt lat="45.6744067" lon="9.5991883"><ele>223.5</ele><time>2026-04-26T13:45:19.978Z</time></trkpt><trkpt lat="45.67435" lon="9.5990417"><ele>222.75</ele><time>2026-04-26T13:45:20.978Z</time></trkpt><trkpt lat="45.674295" lon="9.5989033"><ele>222.0</ele><time>2026-04-26T13:45:21.978Z</time></trkpt><trkpt lat="45.6742383" lon="9.5987617"><ele>222.39999999999998</ele><time>2026-04-26T13:45:22.978Z</time></trkpt><trkpt lat="45.67418" lon="9.5986167"><ele>222.79999999999998</ele><time>2026-04-26T13:45:23.978Z</time></trkpt><trkpt lat="45.67413" lon="9.5984683"><ele>223.2</ele><time>2026-04-26T13:45:24.978Z</time></trkpt><trkpt lat="45.6740833" lon="9.598325"><ele>223.6</ele><time>2026-04-26T13:45:25.978Z</time></trkpt><trkpt lat="45.6740367" lon="9.5981967"><ele>224.0</ele><time>2026-04-26T13:45:26.978Z</time></trkpt><trkpt lat="45.6739983" lon="9.5980767"><ele>224.00000000000003</ele><time>2026-04-26T13:45:27.978Z</time></trkpt><trkpt lat="45.67396" lon="9.5979683"><ele>224.0</ele><time>2026-04-26T13:45:28.978Z</time></trkpt><trkpt lat="45.6739283" lon="9.5978833"><ele>224.0</ele><time>2026-04-26T13:45:29.978Z</time></trkpt><trkpt lat="45.6738833" lon="9.5977583"><ele>224.0</ele><time>2026-04-26T13:45:31.978Z</time></trkpt><trkpt lat="45.6738783" lon="9.5976433"><ele>224.00000000000003</ele><time>2026-04-26T13:45:33.978Z</time></trkpt><trkpt lat="45.67386" lon="9.5975017"><ele>224.0</ele><time>2026-04-26T13:45:35.978Z</time></trkpt><trkpt lat="45.6738267" lon="9.59737"><ele>224.16666666666669</ele><time>2026-04-26T13:45:37.978Z</time></trkpt><trkpt lat="45.67379" lon="9.5972533"><ele>224.33333333333334</ele><time>2026-04-26T13:45:39.978Z</time></trkpt><trkpt lat="45.6737467" lon="9.5971267"><ele>224.5</ele><time>2026-04-26T13:45:41.978Z</time></trkpt><trkpt lat="45.67371" lon="9.5970517"><ele>224.66666666666669</ele><time>2026-04-26T13:45:42.978Z</time></trkpt><trkpt lat="45.6736517" lon="9.5969817"><ele>224.83333333333334</ele><time>2026-04-26T13:45:43.978Z</time></trkpt><trkpt lat="45.6735967" lon="9.5969217"><ele>225.0</ele><time>2026-04-26T13:45:44.979Z</time></trkpt><trkpt lat="45.6735" lon="9.59685"><ele>224.33333333333334</ele><time>2026-04-26T13:45:46.977Z</time></trkpt><trkpt lat="45.6734133" lon="9.5967867"><ele>223.66666666666669</ele><time>2026-04-26T13:45:48.977Z</time></trkpt><trkpt lat="45.6733383" lon="9.5967183"><ele>223.0</ele><time>2026-04-26T13:45:50.977Z</time></trkpt><trkpt lat="45.6732967" lon="9.59662"><ele>222.33333333333334</ele><time>2026-04-26T13:45:53.977Z</time></trkpt><trkpt lat="45.6733217" lon="9.596515"><ele>221.66666666666669</ele><time>2026-04-26T13:45:56.977Z</time></trkpt><trkpt lat="45.673425" lon="9.596495"><ele>221.0</ele><time>2026-04-26T13:45:58.977Z</time></trkpt><trkpt lat="45.6734983" lon="9.5965"><ele>221.0</ele><time>2026-04-26T13:45:59.977Z</time></trkpt><trkpt lat="45.67358" lon="9.5964917"><ele>221.00000000000003</ele><time>2026-04-26T13:46:00.977Z</time></trkpt><trkpt lat="45.6736633" lon="9.59647"><ele>221.00000000000003</ele><time>2026-04-26T13:46:01.977Z</time></trkpt><trkpt lat="45.6737517" lon="9.5964217"><ele>221.0</ele><time>2026-04-26T13:46:02.977Z</time></trkpt><trkpt lat="45.6738383" lon="9.5963467"><ele>221.0</ele><time>2026-04-26T13:46:03.977Z</time></trkpt><trkpt lat="45.6739117" lon="9.5962567"><ele>218.60000000000002</ele><time>2026-04-26T13:46:04.977Z</time></trkpt><trkpt lat="45.6739717" lon="9.5961483"><ele>216.20000000000002</ele><time>2026-04-26T13:46:05.977Z</time></trkpt><trkpt lat="45.6740083" lon="9.5960267"><ele>213.8</ele><time>2026-04-26T13:46:06.977Z</time></trkpt><trkpt lat="45.6740267" lon="9.595875"><ele>211.39999999999998</ele><time>2026-04-26T13:46:07.977Z</time></trkpt><trkpt lat="45.6740367" lon="9.59572"><ele>209.0</ele><time>2026-04-26T13:46:08.977Z</time></trkpt><trkpt lat="45.674045" lon="9.5955683"><ele>209.0</ele><time>2026-04-26T13:46:09.977Z</time></trkpt><trkpt lat="45.6740533" lon="9.5954117"><ele>209.0</ele><time>2026-04-26T13:46:10.977Z</time></trkpt><trkpt lat="45.674065" lon="9.59526"><ele>209.0</ele><time>2026-04-26T13:46:11.977Z</time></trkpt><trkpt lat="45.6740733" lon="9.5951167"><ele>209.0</ele><time>2026-04-26T13:46:12.977Z</time></trkpt><trkpt lat="45.6740783" lon="9.5949833"><ele>209.0</ele><time>2026-04-26T13:46:13.977Z</time></trkpt><trkpt lat="45.6740867" lon="9.5948633"><ele>209.00000000000003</ele><time>2026-04-26T13:46:14.977Z</time></trkpt><trkpt lat="45.674095" lon="9.5947367"><ele>209.0</ele><time>2026-04-26T13:46:15.977Z</time></trkpt><trkpt lat="45.6741" lon="9.594625"><ele>209.0</ele><time>2026-04-26T13:46:16.977Z</time></trkpt><trkpt lat="45.6741" lon="9.5945067"><ele>209.0</ele><time>2026-04-26T13:46:17.977Z</time></trkpt><trkpt lat="45.6741067" lon="9.5943767"><ele>209.00000000000003</ele><time>2026-04-26T13:46:18.977Z</time></trkpt><trkpt lat="45.6741133" lon="9.59425"><ele>209.0</ele><time>2026-04-26T13:46:19.977Z</time></trkpt><trkpt lat="45.6741217" lon="9.594125"><ele>209.00000000000003</ele><time>2026-04-26T13:46:20.977Z</time></trkpt><trkpt lat="45.6741267" lon="9.5940167"><ele>209.0</ele><time>2026-04-26T13:46:21.977Z</time></trkpt><trkpt lat="45.67413" lon="9.5939233"><ele>209.0</ele><time>2026-04-26T13:46:22.977Z</time></trkpt><trkpt lat="45.674135" lon="9.5937867"><ele>209.0</ele><time>2026-04-26T13:46:24.977Z</time></trkpt><trkpt lat="45.67409" lon="9.5936817"><ele>209.00000000000003</ele><time>2026-04-26T13:46:27.977Z</time></trkpt><trkpt lat="45.6739983" lon="9.5936767"><ele>209.0</ele><time>2026-04-26T13:46:29.977Z</time></trkpt><trkpt lat="45.6738717" lon="9.5936883"><ele>209.00000000000003</ele><time>2026-04-26T13:46:31.977Z</time></trkpt><trkpt lat="45.673795" lon="9.5936783"><ele>209.0</ele><time>2026-04-26T13:46:32.977Z</time></trkpt><trkpt lat="45.6737167" lon="9.5936633"><ele>209.0</ele><time>2026-04-26T13:46:33.977Z</time></trkpt><trkpt lat="45.673635" lon="9.593655"><ele>209.0</ele><time>2026-04-26T13:46:34.977Z</time></trkpt><trkpt lat="45.6735467" lon="9.5936483"><ele>209.00000000000003</ele><time>2026-04-26T13:46:35.977Z</time></trkpt><trkpt lat="45.67346" lon="9.5936333"><ele>209.0</ele><time>2026-04-26T13:46:36.977Z</time></trkpt><trkpt lat="45.673375" lon="9.5936083"><ele>208.79999999999998</ele><time>2026-04-26T13:46:37.977Z</time></trkpt><trkpt lat="45.6732867" lon="9.5935767"><ele>208.6</ele><time>2026-04-26T13:46:38.977Z</time></trkpt><trkpt lat="45.673195" lon="9.593535"><ele>208.4</ele><time>2026-04-26T13:46:39.977Z</time></trkpt><trkpt lat="45.6731017" lon="9.593475"><ele>208.2</ele><time>2026-04-26T13:46:40.977Z</time></trkpt><trkpt lat="45.6730067" lon="9.5933983"><ele>208.0</ele><time>2026-04-26T13:46:41.977Z</time></trkpt><trkpt lat="45.672915" lon="9.59332"><ele>208.0</ele><time>2026-04-26T13:46:42.977Z</time></trkpt><trkpt lat="45.6728117" lon="9.5932417"><ele>208.0</ele><time>2026-04-26T13:46:43.977Z</time></trkpt><trkpt lat="45.6727233" lon="9.5931633"><ele>208.0</ele><time>2026-04-26T13:46:44.977Z</time></trkpt><trkpt lat="45.6726267" lon="9.5931"><ele>208.0</ele><time>2026-04-26T13:46:45.977Z</time></trkpt><trkpt lat="45.6725367" lon="9.5930417"><ele>208.0</ele><time>2026-04-26T13:46:46.977Z</time></trkpt><trkpt lat="45.672455" lon="9.592975"><ele>207.99999999999997</ele><time>2026-04-26T13:46:47.977Z</time></trkpt><trkpt lat="45.6723767" lon="9.5929117"><ele>208.0</ele><time>2026-04-26T13:46:48.977Z</time></trkpt><trkpt lat="45.6723017" lon="9.5928533"><ele>208.0</ele><time>2026-04-26T13:46:49.977Z</time></trkpt><trkpt lat="45.6722333" lon="9.5928033"><ele>208.0</ele><time>2026-04-26T13:46:50.977Z</time></trkpt><trkpt lat="45.6721733" lon="9.5927667"><ele>207.99999999999997</ele><time>2026-04-26T13:46:51.977Z</time></trkpt><trkpt lat="45.6720683" lon="9.5927317"><ele>208.0</ele><time>2026-04-26T13:46:53.977Z</time></trkpt><trkpt lat="45.6719867" lon="9.592715"><ele>207.99999999999997</ele><time>2026-04-26T13:46:55.977Z</time></trkpt><trkpt lat="45.67192" lon="9.5926983"><ele>208.0</ele><time>2026-04-26T13:46:58.977Z</time></trkpt><trkpt lat="45.67185" lon="9.5926317"><ele>208.0</ele><time>2026-04-26T13:47:02.977Z</time></trkpt><trkpt lat="45.6718167" lon="9.59249"><ele>208.0</ele><time>2026-04-26T13:47:04.977Z</time></trkpt><trkpt lat="45.6717983" lon="9.5923917"><ele>207.99999999999997</ele><time>2026-04-26T13:47:05.977Z</time></trkpt><trkpt lat="45.671775" lon="9.5922867"><ele>208.0</ele><time>2026-04-26T13:47:06.977Z</time></trkpt><trkpt lat="45.6717517" lon="9.5921733"><ele>207.99999999999997</ele><time>2026-04-26T13:47:07.977Z</time></trkpt><trkpt lat="45.6717267" lon="9.5920667"><ele>208.0</ele><time>2026-04-26T13:47:08.977Z</time></trkpt><trkpt lat="45.6717017" lon="9.5919617"><ele>208.0</ele><time>2026-04-26T13:47:09.977Z</time></trkpt><trkpt lat="45.67168" lon="9.5918567"><ele>208.0</ele><time>2026-04-26T13:47:10.977Z</time></trkpt><trkpt lat="45.6716583" lon="9.5917567"><ele>207.99999999999997</ele><time>2026-04-26T13:47:11.977Z</time></trkpt><trkpt lat="45.67162" lon="9.5916067"><ele>208.0</ele><time>2026-04-26T13:47:13.977Z</time></trkpt><trkpt lat="45.67159" lon="9.591465"><ele>207.83333333333331</ele><time>2026-04-26T13:47:15.977Z</time></trkpt><trkpt lat="45.6715667" lon="9.591285"><ele>207.66666666666666</ele><time>2026-04-26T13:47:17.977Z</time></trkpt><trkpt lat="45.6715483" lon="9.59117"><ele>207.5</ele><time>2026-04-26T13:47:18.977Z</time></trkpt><trkpt lat="45.6715283" lon="9.5910567"><ele>207.33333333333331</ele><time>2026-04-26T13:47:19.977Z</time></trkpt><trkpt lat="45.6715117" lon="9.5909433"><ele>207.16666666666666</ele><time>2026-04-26T13:47:20.977Z</time></trkpt><trkpt lat="45.6715017" lon="9.5908433"><ele>207.0</ele><time>2026-04-26T13:47:21.977Z</time></trkpt><trkpt lat="45.6714867" lon="9.59075"><ele>206.5</ele><time>2026-04-26T13:47:22.977Z</time></trkpt><trkpt lat="45.6714667" lon="9.5906567"><ele>206.0</ele><time>2026-04-26T13:47:23.977Z</time></trkpt><trkpt lat="45.6714217" lon="9.590565"><ele>205.5</ele><time>2026-04-26T13:47:24.977Z</time></trkpt><trkpt lat="45.671355" lon="9.5904867"><ele>205.0</ele><time>2026-04-26T13:47:25.977Z</time></trkpt><trkpt lat="45.6712733" lon="9.590425"><ele>204.5</ele><time>2026-04-26T13:47:26.977Z</time></trkpt><trkpt lat="45.67119" lon="9.5903683"><ele>204.0</ele><time>2026-04-26T13:47:27.977Z</time></trkpt><trkpt lat="45.67111" lon="9.590325"><ele>203.16666666666666</ele><time>2026-04-26T13:47:28.977Z</time></trkpt><trkpt lat="45.6710383" lon="9.5902883"><ele>202.33333333333331</ele><time>2026-04-26T13:47:29.977Z</time></trkpt><trkpt lat="45.6709633" lon="9.5902567"><ele>201.5</ele><time>2026-04-26T13:47:30.977Z</time></trkpt><trkpt lat="45.6708733" lon="9.5902367"><ele>200.66666666666666</ele><time>2026-04-26T13:47:31.977Z</time></trkpt><trkpt lat="45.6707767" lon="9.5902317"><ele>199.83333333333331</ele><time>2026-04-26T13:47:32.977Z</time></trkpt><trkpt lat="45.67068" lon="9.5902467"><ele>199.0</ele><time>2026-04-26T13:47:33.977Z</time></trkpt><trkpt lat="45.6705883" lon="9.59026"><ele>198.99999999999997</ele><time>2026-04-26T13:47:34.977Z</time></trkpt><trkpt lat="45.6704983" lon="9.5902667"><ele>199.0</ele><time>2026-04-26T13:47:35.977Z</time></trkpt><trkpt lat="45.6704067" lon="9.5902733"><ele>199.0</ele><time>2026-04-26T13:47:36.977Z</time></trkpt><trkpt lat="45.6703183" lon="9.5902667"><ele>199.0</ele><time>2026-04-26T13:47:37.977Z</time></trkpt><trkpt lat="45.6702417" lon="9.5902417"><ele>198.99999999999997</ele><time>2026-04-26T13:47:38.977Z</time></trkpt><trkpt lat="45.6701717" lon="9.5902133"><ele>199.0</ele><time>2026-04-26T13:47:39.977Z</time></trkpt><trkpt lat="45.6700633" lon="9.5901533"><ele>199.49999999999997</ele><time>2026-04-26T13:47:41.978Z</time></trkpt><trkpt lat="45.6699583" lon="9.59006"><ele>200.0</ele><time>2026-04-26T13:47:43.977Z</time></trkpt><trkpt lat="45.6699033" lon="9.5900067"><ele>200.5</ele><time>2026-04-26T13:47:44.977Z</time></trkpt><trkpt lat="45.669845" lon="9.589945"><ele>201.0</ele><time>2026-04-26T13:47:45.977Z</time></trkpt><trkpt lat="45.6697817" lon="9.589865"><ele>201.49999999999997</ele><time>2026-04-26T13:47:46.977Z</time></trkpt><trkpt lat="45.669715" lon="9.589785"><ele>202.0</ele><time>2026-04-26T13:47:47.977Z</time></trkpt><trkpt lat="45.6696467" lon="9.5897083"><ele>202.0</ele><time>2026-04-26T13:47:48.977Z</time></trkpt><trkpt lat="45.6695733" lon="9.5896383"><ele>202.0</ele><time>2026-04-26T13:47:49.977Z</time></trkpt><trkpt lat="45.6694883" lon="9.58957"><ele>202.0</ele><time>2026-04-26T13:47:50.977Z</time></trkpt><trkpt lat="45.6694117" lon="9.58952"><ele>202.0</ele><time>2026-04-26T13:47:51.977Z</time></trkpt><trkpt lat="45.6693233" lon="9.5894833"><ele>202.0</ele><time>2026-04-26T13:47:52.977Z</time></trkpt><trkpt lat="45.6692317" lon="9.5894533"><ele>201.66666666666666</ele><time>2026-04-26T13:47:53.977Z</time></trkpt><trkpt lat="45.6691417" lon="9.5894333"><ele>201.33333333333331</ele><time>2026-04-26T13:47:54.977Z</time></trkpt><trkpt lat="45.6690517" lon="9.589415"><ele>201.0</ele><time>2026-04-26T13:47:55.977Z</time></trkpt><trkpt lat="45.6689617" lon="9.589395"><ele>200.66666666666669</ele><time>2026-04-26T13:47:56.977Z</time></trkpt><trkpt lat="45.66887" lon="9.5893733"><ele>200.33333333333334</ele><time>2026-04-26T13:47:57.977Z</time></trkpt><trkpt lat="45.6687883" lon="9.58936"><ele>200.0</ele><time>2026-04-26T13:47:58.977Z</time></trkpt><trkpt lat="45.6687033" lon="9.5893467"><ele>200.00000000000003</ele><time>2026-04-26T13:47:59.977Z</time></trkpt><trkpt lat="45.6686217" lon="9.5893283"><ele>200.0</ele><time>2026-04-26T13:48:00.977Z</time></trkpt><trkpt lat="45.6685533" lon="9.58932"><ele>200.0</ele><time>2026-04-26T13:48:01.977Z</time></trkpt><trkpt lat="45.6684483" lon="9.5893033"><ele>200.0</ele><time>2026-04-26T13:48:03.977Z</time></trkpt><trkpt lat="45.6683917" lon="9.5892583"><ele>200.00000000000003</ele><time>2026-04-26T13:48:05.977Z</time></trkpt><trkpt lat="45.6683383" lon="9.5891533"><ele>200.0</ele><time>2026-04-26T13:48:08.977Z</time></trkpt><trkpt lat="45.6682733" lon="9.5890733"><ele>200.2</ele><time>2026-04-26T13:48:11.977Z</time></trkpt><trkpt lat="45.6682033" lon="9.5890367"><ele>200.4</ele><time>2026-04-26T13:48:13.977Z</time></trkpt><trkpt lat="45.6680983" lon="9.5889783"><ele>200.60000000000002</ele><time>2026-04-26T13:48:15.977Z</time></trkpt><trkpt lat="45.6679917" lon="9.5889367"><ele>200.8</ele><time>2026-04-26T13:48:17.977Z</time></trkpt><trkpt lat="45.6679083" lon="9.588885"><ele>201.0</ele><time>2026-04-26T13:48:19.977Z</time></trkpt><trkpt lat="45.6678483" lon="9.5888067"><ele>201.0</ele><time>2026-04-26T13:48:21.977Z</time></trkpt><trkpt lat="45.66782" lon="9.588705"><ele>201.0</ele><time>2026-04-26T13:48:24.977Z</time></trkpt><trkpt lat="45.6678183" lon="9.5885583"><ele>201.0</ele><time>2026-04-26T13:48:27.977Z</time></trkpt><trkpt lat="45.6678167" lon="9.5884483"><ele>201.0</ele><time>2026-04-26T13:48:29.977Z</time></trkpt><trkpt lat="45.667795" lon="9.5883167"><ele>201.0</ele><time>2026-04-26T13:48:31.977Z</time></trkpt><trkpt lat="45.6677717" lon="9.5881667"><ele>201.0</ele><time>2026-04-26T13:48:33.977Z</time></trkpt><trkpt lat="45.667745" lon="9.58801"><ele>201.0</ele><time>2026-04-26T13:48:35.977Z</time></trkpt><trkpt lat="45.6677117" lon="9.5878583"><ele>201.0</ele><time>2026-04-26T13:48:37.977Z</time></trkpt><trkpt lat="45.6676883" lon="9.587755"><ele>201.0</ele><time>2026-04-26T13:48:39.977Z</time></trkpt><trkpt lat="45.6676367" lon="9.5876467"><ele>201.0</ele><time>2026-04-26T13:48:41.977Z</time></trkpt><trkpt lat="45.6675517" lon="9.587565"><ele>200.0</ele><time>2026-04-26T13:48:43.977Z</time></trkpt><trkpt lat="45.66743" lon="9.5875017"><ele>199.0</ele><time>2026-04-26T13:48:45.977Z</time></trkpt><trkpt lat="45.6673667" lon="9.5874767"><ele>198.0</ele><time>2026-04-26T13:48:46.978Z</time></trkpt><trkpt lat="45.6673033" lon="9.5874483"><ele>197.0</ele><time>2026-04-26T13:48:47.977Z</time></trkpt><trkpt lat="45.667245" lon="9.5874067"><ele>196.0</ele><time>2026-04-26T13:48:48.977Z</time></trkpt><trkpt lat="45.6671867" lon="9.5873617"><ele>195.0</ele><time>2026-04-26T13:48:49.977Z</time></trkpt><trkpt lat="45.6671267" lon="9.5873183"><ele>195.0</ele><time>2026-04-26T13:48:50.977Z</time></trkpt><trkpt lat="45.6670367" lon="9.58723"><ele>195.0</ele><time>2026-04-26T13:48:52.977Z</time></trkpt><trkpt lat="45.6669867" lon="9.587145"><ele>195.0</ele><time>2026-04-26T13:48:54.977Z</time></trkpt><trkpt lat="45.6669167" lon="9.587055"><ele>195.0</ele><time>2026-04-26T13:48:56.977Z</time></trkpt><trkpt lat="45.6668467" lon="9.58697"><ele>195.0</ele><time>2026-04-26T13:48:58.978Z</time></trkpt><trkpt lat="45.6667667" lon="9.586895"><ele>194.5</ele><time>2026-04-26T13:49:00.977Z</time></trkpt><trkpt lat="45.666655" lon="9.5868367"><ele>194.0</ele><time>2026-04-26T13:49:02.977Z</time></trkpt><trkpt lat="45.6665883" lon="9.586815"><ele>193.5</ele><time>2026-04-26T13:49:03.977Z</time></trkpt><trkpt lat="45.6665233" lon="9.5867917"><ele>193.0</ele><time>2026-04-26T13:49:04.977Z</time></trkpt><trkpt lat="45.666455" lon="9.5867667"><ele>192.5</ele><time>2026-04-26T13:49:05.977Z</time></trkpt><trkpt lat="45.6663867" lon="9.5867617"><ele>192.0</ele><time>2026-04-26T13:49:06.977Z</time></trkpt><trkpt lat="45.6663133" lon="9.5867683"><ele>192.0</ele><time>2026-04-26T13:49:07.977Z</time></trkpt><trkpt lat="45.6662383" lon="9.5867833"><ele>192.0</ele><time>2026-04-26T13:49:08.977Z</time></trkpt><trkpt lat="45.6661533" lon="9.5868167"><ele>192.0</ele><time>2026-04-26T13:49:09.977Z</time></trkpt><trkpt lat="45.6660583" lon="9.5868333"><ele>192.0</ele><time>2026-04-26T13:49:10.977Z</time></trkpt><trkpt lat="45.665965" lon="9.5868617"><ele>192.0</ele><time>2026-04-26T13:49:11.977Z</time></trkpt><trkpt lat="45.6658783" lon="9.586885"><ele>192.0</ele><time>2026-04-26T13:49:12.977Z</time></trkpt><trkpt lat="45.6657883" lon="9.5869133"><ele>192.14285714285714</ele><time>2026-04-26T13:49:13.978Z</time></trkpt><trkpt lat="45.66571" lon="9.5869333"><ele>192.28571428571428</ele><time>2026-04-26T13:49:14.977Z</time></trkpt><trkpt lat="45.6656467" lon="9.58694"><ele>192.42857142857144</ele><time>2026-04-26T13:49:15.977Z</time></trkpt><trkpt lat="45.6655783" lon="9.5869483"><ele>192.57142857142856</ele><time>2026-04-26T13:49:16.977Z</time></trkpt><trkpt lat="45.6655033" lon="9.5869417"><ele>192.71428571428572</ele><time>2026-04-26T13:49:17.977Z</time></trkpt><trkpt lat="45.6654233" lon="9.5869317"><ele>192.85714285714286</ele><time>2026-04-26T13:49:18.978Z</time></trkpt><trkpt lat="45.6653583" lon="9.5869217"><ele>193.0</ele><time>2026-04-26T13:49:19.977Z</time></trkpt><trkpt lat="45.6652917" lon="9.58691"><ele>193.0</ele><time>2026-04-26T13:49:20.977Z</time></trkpt><trkpt lat="45.665225" lon="9.5869017"><ele>193.0</ele><time>2026-04-26T13:49:21.977Z</time></trkpt><trkpt lat="45.6651617" lon="9.5868867"><ele>193.0</ele><time>2026-04-26T13:49:22.977Z</time></trkpt><trkpt lat="45.6650433" lon="9.58686"><ele>193.0</ele><time>2026-04-26T13:49:24.977Z</time></trkpt><trkpt lat="45.6649283" lon="9.586815"><ele>193.0</ele><time>2026-04-26T13:49:26.977Z</time></trkpt><trkpt lat="45.6648333" lon="9.5867567"><ele>193.0</ele><time>2026-04-26T13:49:28.977Z</time></trkpt><trkpt lat="45.6647667" lon="9.58669"><ele>193.0</ele><time>2026-04-26T13:49:30.977Z</time></trkpt><trkpt lat="45.6647217" lon="9.5865983"><ele>193.0</ele><time>2026-04-26T13:49:32.977Z</time></trkpt><trkpt lat="45.6646667" lon="9.586475"><ele>193.0</ele><time>2026-04-26T13:49:34.977Z</time></trkpt><trkpt lat="45.6646" lon="9.5863783"><ele>193.0</ele><time>2026-04-26T13:49:36.977Z</time></trkpt><trkpt lat="45.664485" lon="9.5863233"><ele>193.14285714285717</ele><time>2026-04-26T13:49:38.977Z</time></trkpt><trkpt lat="45.6644167" lon="9.5862967"><ele>193.28571428571428</ele><time>2026-04-26T13:49:39.977Z</time></trkpt><trkpt lat="45.6643467" lon="9.5862567"><ele>193.42857142857144</ele><time>2026-04-26T13:49:40.977Z</time></trkpt><trkpt lat="45.664275" lon="9.5862117"><ele>193.57142857142858</ele><time>2026-04-26T13:49:41.977Z</time></trkpt><trkpt lat="45.6642167" lon="9.5861733"><ele>193.71428571428572</ele><time>2026-04-26T13:49:42.977Z</time></trkpt><trkpt lat="45.6641533" lon="9.5861417"><ele>193.85714285714286</ele><time>2026-04-26T13:49:43.977Z</time></trkpt><trkpt lat="45.6640917" lon="9.5861133"><ele>194.0</ele><time>2026-04-26T13:49:44.977Z</time></trkpt><trkpt lat="45.664005" lon="9.58608"><ele>193.50000000000003</ele><time>2026-04-26T13:49:46.977Z</time></trkpt><trkpt lat="45.66392" lon="9.5860667"><ele>193.0</ele><time>2026-04-26T13:49:49.977Z</time></trkpt><trkpt lat="45.663875" lon="9.5859967"><ele>192.5</ele><time>2026-04-26T13:49:52.977Z</time></trkpt><trkpt lat="45.6638567" lon="9.585885"><ele>192.0</ele><time>2026-04-26T13:49:55.977Z</time></trkpt><trkpt lat="45.6638083" lon="9.5858033"><ele>191.5</ele><time>2026-04-26T13:49:57.977Z</time></trkpt><trkpt lat="45.66369" lon="9.5857217"><ele>191.0</ele><time>2026-04-26T13:49:59.977Z</time></trkpt><trkpt lat="45.663615" lon="9.5856767"><ele>191.2857142857143</ele><time>2026-04-26T13:50:00.977Z</time></trkpt><trkpt lat="45.6635417" lon="9.5856383"><ele>191.57142857142856</ele><time>2026-04-26T13:50:01.977Z</time></trkpt><trkpt lat="45.66347" lon="9.5856117"><ele>191.85714285714286</ele><time>2026-04-26T13:50:02.977Z</time></trkpt><trkpt lat="45.6633933" lon="9.5855833"><ele>192.14285714285717</ele><time>2026-04-26T13:50:03.977Z</time></trkpt><trkpt lat="45.663325" lon="9.5855667"><ele>192.42857142857144</ele><time>2026-04-26T13:50:04.976Z</time></trkpt><trkpt lat="45.6632533" lon="9.5855567"><ele>192.71428571428572</ele><time>2026-04-26T13:50:05.976Z</time></trkpt><trkpt lat="45.6631783" lon="9.5855517"><ele>193.0</ele><time>2026-04-26T13:50:06.976Z</time></trkpt><trkpt lat="45.6631067" lon="9.58557"><ele>192.99999999999997</ele><time>2026-04-26T13:50:07.976Z</time></trkpt><trkpt lat="45.66303" lon="9.5855933"><ele>193.0</ele><time>2026-04-26T13:50:08.976Z</time></trkpt><trkpt lat="45.6629467" lon="9.58562"><ele>193.0</ele><time>2026-04-26T13:50:09.976Z</time></trkpt><trkpt lat="45.6628617" lon="9.585635"><ele>193.0</ele><time>2026-04-26T13:50:10.976Z</time></trkpt><trkpt lat="45.6627783" lon="9.585635"><ele>192.99999999999997</ele><time>2026-04-26T13:50:11.976Z</time></trkpt><trkpt lat="45.6627" lon="9.5856283"><ele>193.0</ele><time>2026-04-26T13:50:12.976Z</time></trkpt><trkpt lat="45.6626333" lon="9.5856183"><ele>193.0</ele><time>2026-04-26T13:50:13.976Z</time></trkpt><trkpt lat="45.662505" lon="9.5856133"><ele>193.0</ele><time>2026-04-26T13:50:15.976Z</time></trkpt><trkpt lat="45.662385" lon="9.5856167"><ele>193.0</ele><time>2026-04-26T13:50:17.976Z</time></trkpt><trkpt lat="45.6622767" lon="9.5856117"><ele>193.0</ele><time>2026-04-26T13:50:19.976Z</time></trkpt><trkpt lat="45.662165" lon="9.5855917"><ele>192.99999999999997</ele><time>2026-04-26T13:50:21.976Z</time></trkpt><trkpt lat="45.6620483" lon="9.58559"><ele>193.0</ele><time>2026-04-26T13:50:23.976Z</time></trkpt><trkpt lat="45.6619333" lon="9.5856017"><ele>193.0</ele><time>2026-04-26T13:50:25.976Z</time></trkpt><trkpt lat="45.66187" lon="9.5856033"><ele>193.0</ele><time>2026-04-26T13:50:26.976Z</time></trkpt><trkpt lat="45.6618017" lon="9.5856"><ele>192.99999999999997</ele><time>2026-04-26T13:50:27.976Z</time></trkpt><trkpt lat="45.66173" lon="9.5855917"><ele>193.0</ele><time>2026-04-26T13:50:28.976Z</time></trkpt><trkpt lat="45.6616567" lon="9.58559"><ele>193.16666666666666</ele><time>2026-04-26T13:50:29.976Z</time></trkpt><trkpt lat="45.6615867" lon="9.58559"><ele>193.33333333333331</ele><time>2026-04-26T13:50:30.976Z</time></trkpt><trkpt lat="45.6615033" lon="9.585585"><ele>193.5</ele><time>2026-04-26T13:50:31.976Z</time></trkpt><trkpt lat="45.6614133" lon="9.5855767"><ele>193.66666666666669</ele><time>2026-04-26T13:50:32.976Z</time></trkpt><trkpt lat="45.6613183" lon="9.5855717"><ele>193.83333333333334</ele><time>2026-04-26T13:50:33.976Z</time></trkpt><trkpt lat="45.6612267" lon="9.5855667"><ele>194.0</ele><time>2026-04-26T13:50:34.977Z</time></trkpt><trkpt lat="45.661135" lon="9.585555"><ele>193.79999999999998</ele><time>2026-04-26T13:50:35.976Z</time></trkpt><trkpt lat="45.6610417" lon="9.5855483"><ele>193.6</ele><time>2026-04-26T13:50:36.976Z</time></trkpt><trkpt lat="45.660945" lon="9.5855417"><ele>193.4</ele><time>2026-04-26T13:50:37.976Z</time></trkpt><trkpt lat="45.6608533" lon="9.5855333"><ele>193.2</ele><time>2026-04-26T13:50:38.976Z</time></trkpt><trkpt lat="45.6607633" lon="9.585515"><ele>193.0</ele><time>2026-04-26T13:50:39.976Z</time></trkpt><trkpt lat="45.6606683" lon="9.585495"><ele>193.0</ele><time>2026-04-26T13:50:40.976Z</time></trkpt><trkpt lat="45.6605683" lon="9.58546"><ele>193.0</ele><time>2026-04-26T13:50:41.976Z</time></trkpt><trkpt lat="45.6604567" lon="9.5854217"><ele>193.0</ele><time>2026-04-26T13:50:42.976Z</time></trkpt><trkpt lat="45.660345" lon="9.5853733"><ele>193.0</ele><time>2026-04-26T13:50:43.976Z</time></trkpt><trkpt lat="45.6602367" lon="9.5853217"><ele>193.0</ele><time>2026-04-26T13:50:44.976Z</time></trkpt><trkpt lat="45.6601233" lon="9.5852783"><ele>191.4</ele><time>2026-04-26T13:50:45.976Z</time></trkpt><trkpt lat="45.6600117" lon="9.58523"><ele>189.8</ele><time>2026-04-26T13:50:46.976Z</time></trkpt><trkpt lat="45.65991" lon="9.5851817"><ele>188.2</ele><time>2026-04-26T13:50:47.976Z</time></trkpt><trkpt lat="45.659815" lon="9.58513"><ele>186.6</ele><time>2026-04-26T13:50:48.976Z</time></trkpt><trkpt lat="45.6597217" lon="9.58508"><ele>185.0</ele><time>2026-04-26T13:50:49.977Z</time></trkpt><trkpt lat="45.6596333" lon="9.5850383"><ele>185.0</ele><time>2026-04-26T13:50:50.976Z</time></trkpt><trkpt lat="45.6595517" lon="9.585005"><ele>185.0</ele><time>2026-04-26T13:50:51.976Z</time></trkpt><trkpt lat="45.6594717" lon="9.5849817"><ele>185.0</ele><time>2026-04-26T13:50:52.976Z</time></trkpt><trkpt lat="45.6593933" lon="9.5849733"><ele>185.0</ele><time>2026-04-26T13:50:53.976Z</time></trkpt><trkpt lat="45.659325" lon="9.58498"><ele>185.0</ele><time>2026-04-26T13:50:54.976Z</time></trkpt><trkpt lat="45.65926" lon="9.58499"><ele>185.0</ele><time>2026-04-26T13:50:55.976Z</time></trkpt><trkpt lat="45.6591867" lon="9.5850067"><ele>185.42857142857142</ele><time>2026-04-26T13:50:56.976Z</time></trkpt><trkpt lat="45.6591183" lon="9.585035"><ele>185.85714285714286</ele><time>2026-04-26T13:50:57.976Z</time></trkpt><trkpt lat="45.6590517" lon="9.58505"><ele>186.28571428571428</ele><time>2026-04-26T13:50:58.976Z</time></trkpt><trkpt lat="45.65898" lon="9.58505"><ele>186.71428571428572</ele><time>2026-04-26T13:50:59.976Z</time></trkpt><trkpt lat="45.658905" lon="9.5850367"><ele>187.14285714285714</ele><time>2026-04-26T13:51:00.976Z</time></trkpt><trkpt lat="45.6588283" lon="9.58502"><ele>187.57142857142856</ele><time>2026-04-26T13:51:01.976Z</time></trkpt><trkpt lat="45.658755" lon="9.5850017"><ele>188.0</ele><time>2026-04-26T13:51:02.976Z</time></trkpt><trkpt lat="45.6586833" lon="9.5849833"><ele>188.5</ele><time>2026-04-26T13:51:03.977Z</time></trkpt><trkpt lat="45.6586033" lon="9.5849517"><ele>189.0</ele><time>2026-04-26T13:51:04.976Z</time></trkpt><trkpt lat="45.6585233" lon="9.5849217"><ele>189.5</ele><time>2026-04-26T13:51:05.976Z</time></trkpt><trkpt lat="45.65845" lon="9.58488"><ele>190.0</ele><time>2026-04-26T13:51:06.976Z</time></trkpt><trkpt lat="45.658375" lon="9.5848367"><ele>190.5</ele><time>2026-04-26T13:51:07.976Z</time></trkpt><trkpt lat="45.6583017" lon="9.5847833"><ele>191.0</ele><time>2026-04-26T13:51:08.976Z</time></trkpt><trkpt lat="45.65823" lon="9.5847217"><ele>191.0</ele><time>2026-04-26T13:51:09.976Z</time></trkpt><trkpt lat="45.6581583" lon="9.584645"><ele>191.0</ele><time>2026-04-26T13:51:10.976Z</time></trkpt><trkpt lat="45.6580833" lon="9.58456"><ele>191.0</ele><time>2026-04-26T13:51:11.976Z</time></trkpt><trkpt lat="45.658005" lon="9.5844717"><ele>191.0</ele><time>2026-04-26T13:51:12.976Z</time></trkpt><trkpt lat="45.65793" lon="9.5843883"><ele>191.0</ele><time>2026-04-26T13:51:13.976Z</time></trkpt><trkpt lat="45.657855" lon="9.584315"><ele>190.83333333333331</ele><time>2026-04-26T13:51:14.976Z</time></trkpt><trkpt lat="45.6577817" lon="9.5842333"><ele>190.66666666666666</ele><time>2026-04-26T13:51:15.976Z</time></trkpt><trkpt lat="45.6577067" lon="9.5841517"><ele>190.5</ele><time>2026-04-26T13:51:16.976Z</time></trkpt><trkpt lat="45.6576283" lon="9.5840833"><ele>190.33333333333334</ele><time>2026-04-26T13:51:17.976Z</time></trkpt><trkpt lat="45.657555" lon="9.58402"><ele>190.16666666666669</ele><time>2026-04-26T13:51:18.976Z</time></trkpt><trkpt lat="45.6574883" lon="9.583975"><ele>190.0</ele><time>2026-04-26T13:51:19.976Z</time></trkpt><trkpt lat="45.6574267" lon="9.5839367"><ele>190.0</ele><time>2026-04-26T13:51:20.976Z</time></trkpt><trkpt lat="45.6573617" lon="9.5838867"><ele>190.0</ele><time>2026-04-26T13:51:21.976Z</time></trkpt><trkpt lat="45.6572933" lon="9.5838317"><ele>190.0</ele><time>2026-04-26T13:51:22.977Z</time></trkpt><trkpt lat="45.6572217" lon="9.5837817"><ele>190.0</ele><time>2026-04-26T13:51:23.977Z</time></trkpt><trkpt lat="45.657155" lon="9.583735"><ele>190.0</ele><time>2026-04-26T13:51:24.976Z</time></trkpt><trkpt lat="45.6570917" lon="9.5836867"><ele>190.0</ele><time>2026-04-26T13:51:25.976Z</time></trkpt><trkpt lat="45.6570217" lon="9.5836267"><ele>190.16666666666669</ele><time>2026-04-26T13:51:26.976Z</time></trkpt><trkpt lat="45.65695" lon="9.5835633"><ele>190.33333333333334</ele><time>2026-04-26T13:51:27.976Z</time></trkpt><trkpt lat="45.6568633" lon="9.5835033"><ele>190.5</ele><time>2026-04-26T13:51:28.976Z</time></trkpt><trkpt lat="45.65678" lon="9.583445"><ele>190.66666666666666</ele><time>2026-04-26T13:51:29.976Z</time></trkpt><trkpt lat="45.656705" lon="9.58339"><ele>190.83333333333331</ele><time>2026-04-26T13:51:30.976Z</time></trkpt><trkpt lat="45.6566233" lon="9.58333"><ele>191.0</ele><time>2026-04-26T13:51:31.976Z</time></trkpt><trkpt lat="45.6565483" lon="9.5832667"><ele>191.0</ele><time>2026-04-26T13:51:32.976Z</time></trkpt><trkpt lat="45.6564633" lon="9.5831933"><ele>191.0</ele><time>2026-04-26T13:51:33.976Z</time></trkpt><trkpt lat="45.6563617" lon="9.5831167"><ele>191.0</ele><time>2026-04-26T13:51:34.976Z</time></trkpt><trkpt lat="45.6562517" lon="9.5830367"><ele>191.0</ele><time>2026-04-26T13:51:35.976Z</time></trkpt><trkpt lat="45.656135" lon="9.5829467"><ele>192.0</ele><time>2026-04-26T13:51:36.976Z</time></trkpt><trkpt lat="45.65601" lon="9.5828567"><ele>193.0</ele><time>2026-04-26T13:51:37.976Z</time></trkpt><trkpt lat="45.6558933" lon="9.5827667"><ele>194.0</ele><time>2026-04-26T13:51:38.976Z</time></trkpt><trkpt lat="45.6557783" lon="9.5826817"><ele>195.0</ele><time>2026-04-26T13:51:39.976Z</time></trkpt><trkpt lat="45.6556783" lon="9.5826"><ele>194.25</ele><time>2026-04-26T13:51:40.976Z</time></trkpt><trkpt lat="45.6555683" lon="9.5825117"><ele>193.5</ele><time>2026-04-26T13:51:41.976Z</time></trkpt><trkpt lat="45.6554567" lon="9.5824267"><ele>192.75</ele><time>2026-04-26T13:51:42.976Z</time></trkpt><trkpt lat="45.6553483" lon="9.5823483"><ele>192.0</ele><time>2026-04-26T13:51:43.976Z</time></trkpt><trkpt lat="45.65525" lon="9.5822817"><ele>192.0</ele><time>2026-04-26T13:51:44.976Z</time></trkpt><trkpt lat="45.6551617" lon="9.5822217"><ele>192.0</ele><time>2026-04-26T13:51:45.976Z</time></trkpt><trkpt lat="45.655095" lon="9.582175"><ele>192.0</ele><time>2026-04-26T13:51:46.977Z</time></trkpt><trkpt lat="45.6549983" lon="9.5821017"><ele>192.0</ele><time>2026-04-26T13:51:48.976Z</time></trkpt><trkpt lat="45.65493" lon="9.5820733"><ele>192.0</ele><time>2026-04-26T13:51:50.976Z</time></trkpt><trkpt lat="45.65483" lon="9.5820583"><ele>191.39999999999998</ele><time>2026-04-26T13:51:53.976Z</time></trkpt><trkpt lat="45.654715" lon="9.5819983"><ele>190.79999999999998</ele><time>2026-04-26T13:51:55.976Z</time></trkpt><trkpt lat="45.6546367" lon="9.5819583"><ele>190.2</ele><time>2026-04-26T13:51:56.976Z</time></trkpt><trkpt lat="45.6545517" lon="9.58191"><ele>189.6</ele><time>2026-04-26T13:51:57.976Z</time></trkpt><trkpt lat="45.654465" lon="9.5818683"><ele>189.0</ele><time>2026-04-26T13:51:58.976Z</time></trkpt><trkpt lat="45.654375" lon="9.5818233"><ele>189.0</ele><time>2026-04-26T13:51:59.976Z</time></trkpt><trkpt lat="45.6542833" lon="9.5817867"><ele>189.0</ele><time>2026-04-26T13:52:00.976Z</time></trkpt><trkpt lat="45.6541967" lon="9.5817467"><ele>189.0</ele><time>2026-04-26T13:52:01.976Z</time></trkpt><trkpt lat="45.6541167" lon="9.5817067"><ele>189.0</ele><time>2026-04-26T13:52:02.976Z</time></trkpt><trkpt lat="45.654045" lon="9.581665"><ele>189.0</ele><time>2026-04-26T13:52:03.976Z</time></trkpt><trkpt lat="45.6539833" lon="9.58163"><ele>189.0</ele><time>2026-04-26T13:52:04.976Z</time></trkpt><trkpt lat="45.653915" lon="9.5816017"><ele>189.0</ele><time>2026-04-26T13:52:05.976Z</time></trkpt><trkpt lat="45.653845" lon="9.5815633"><ele>189.0</ele><time>2026-04-26T13:52:06.976Z</time></trkpt><trkpt lat="45.6537683" lon="9.5815133"><ele>189.0</ele><time>2026-04-26T13:52:07.976Z</time></trkpt><trkpt lat="45.6536833" lon="9.58146"><ele>189.0</ele><time>2026-04-26T13:52:08.976Z</time></trkpt><trkpt lat="45.6535867" lon="9.5814083"><ele>189.0</ele><time>2026-04-26T13:52:09.976Z</time></trkpt><trkpt lat="45.6534967" lon="9.5813567"><ele>189.2</ele><time>2026-04-26T13:52:10.976Z</time></trkpt><trkpt lat="45.6534017" lon="9.581305"><ele>189.39999999999998</ele><time>2026-04-26T13:52:11.976Z</time></trkpt><trkpt lat="45.653305" lon="9.5812467"><ele>189.6</ele><time>2026-04-26T13:52:12.976Z</time></trkpt><trkpt lat="45.6532083" lon="9.5811883"><ele>189.8</ele><time>2026-04-26T13:52:13.976Z</time></trkpt><trkpt lat="45.65312" lon="9.58113"><ele>190.0</ele><time>2026-04-26T13:52:14.976Z</time></trkpt><trkpt lat="45.653035" lon="9.581075"><ele>190.0</ele><time>2026-04-26T13:52:15.976Z</time></trkpt><trkpt lat="45.65295" lon="9.58102"><ele>190.0</ele><time>2026-04-26T13:52:16.976Z</time></trkpt><trkpt lat="45.65286" lon="9.580955"><ele>190.0</ele><time>2026-04-26T13:52:17.976Z</time></trkpt><trkpt lat="45.6527667" lon="9.5808933"><ele>190.0</ele><time>2026-04-26T13:52:18.976Z</time></trkpt><trkpt lat="45.6526767" lon="9.58083"><ele>190.0</ele><time>2026-04-26T13:52:19.976Z</time></trkpt><trkpt lat="45.6525967" lon="9.5807683"><ele>190.0</ele><time>2026-04-26T13:52:20.976Z</time></trkpt><trkpt lat="45.6525183" lon="9.580705"><ele>190.0</ele><time>2026-04-26T13:52:21.976Z</time></trkpt><trkpt lat="45.6524333" lon="9.5806367"><ele>190.0</ele><time>2026-04-26T13:52:22.976Z</time></trkpt><trkpt lat="45.6523583" lon="9.5805767"><ele>190.0</ele><time>2026-04-26T13:52:23.976Z</time></trkpt><trkpt lat="45.6522817" lon="9.58053"><ele>190.0</ele><time>2026-04-26T13:52:24.976Z</time></trkpt><trkpt lat="45.65222" lon="9.5804817"><ele>190.0</ele><time>2026-04-26T13:52:25.976Z</time></trkpt><trkpt lat="45.65211" lon="9.58041"><ele>190.0</ele><time>2026-04-26T13:52:27.976Z</time></trkpt><trkpt lat="45.6520083" lon="9.58035"><ele>190.0</ele><time>2026-04-26T13:52:29.976Z</time></trkpt><trkpt lat="45.6519117" lon="9.580275"><ele>190.0</ele><time>2026-04-26T13:52:31.976Z</time></trkpt><trkpt lat="45.65184" lon="9.58021"><ele>190.0</ele><time>2026-04-26T13:52:33.976Z</time></trkpt><trkpt lat="45.6517967" lon="9.5801383"><ele>190.0</ele><time>2026-04-26T13:52:35.976Z</time></trkpt><trkpt lat="45.65174" lon="9.5800967"><ele>190.0</ele><time>2026-04-26T13:52:38.976Z</time></trkpt><trkpt lat="45.651675" lon="9.5801"><ele>190.0</ele><time>2026-04-26T13:52:40.976Z</time></trkpt><trkpt lat="45.6516167" lon="9.580135"><ele>190.0</ele><time>2026-04-26T13:52:42.976Z</time></trkpt><trkpt lat="45.6515317" lon="9.5801867"><ele>190.0</ele><time>2026-04-26T13:52:44.976Z</time></trkpt><trkpt lat="45.6514317" lon="9.580185"><ele>190.0</ele><time>2026-04-26T13:52:46.976Z</time></trkpt><trkpt lat="45.6513283" lon="9.5801733"><ele>190.0</ele><time>2026-04-26T13:52:48.976Z</time></trkpt><trkpt lat="45.6512033" lon="9.5801467"><ele>190.0</ele><time>2026-04-26T13:52:50.976Z</time></trkpt><trkpt lat="45.651135" lon="9.5801433"><ele>190.0</ele><time>2026-04-26T13:52:51.976Z</time></trkpt><trkpt lat="45.6510717" lon="9.58014"><ele>190.0</ele><time>2026-04-26T13:52:52.976Z</time></trkpt><trkpt lat="45.6509567" lon="9.5801683"><ele>190.0</ele><time>2026-04-26T13:52:54.976Z</time></trkpt><trkpt lat="45.6508483" lon="9.5802"><ele>190.0</ele><time>2026-04-26T13:52:56.976Z</time></trkpt><trkpt lat="45.6507267" lon="9.5802067"><ele>191.33333333333334</ele><time>2026-04-26T13:52:58.976Z</time></trkpt><trkpt lat="45.6506567" lon="9.5802233"><ele>192.66666666666669</ele><time>2026-04-26T13:52:59.976Z</time></trkpt><trkpt lat="45.6505883" lon="9.580245"><ele>194.0</ele><time>2026-04-26T13:53:00.976Z</time></trkpt><trkpt lat="45.6505183" lon="9.5802767"><ele>195.33333333333334</ele><time>2026-04-26T13:53:01.976Z</time></trkpt><trkpt lat="45.650455" lon="9.5803033"><ele>196.66666666666666</ele><time>2026-04-26T13:53:02.976Z</time></trkpt><trkpt lat="45.650345" lon="9.58034"><ele>198.0</ele><time>2026-04-26T13:53:04.976Z</time></trkpt><trkpt lat="45.650275" lon="9.58039"><ele>199.0</ele><time>2026-04-26T13:53:06.976Z</time></trkpt><trkpt lat="45.6501917" lon="9.58039"><ele>200.0</ele><time>2026-04-26T13:53:10.976Z</time></trkpt><trkpt lat="45.6500733" lon="9.580285"><ele>201.0</ele><time>2026-04-26T13:53:12.976Z</time></trkpt><trkpt lat="45.64999" lon="9.5802283"><ele>202.0</ele><time>2026-04-26T13:53:13.976Z</time></trkpt><trkpt lat="45.649905" lon="9.580165"><ele>203.0</ele><time>2026-04-26T13:53:14.976Z</time></trkpt><trkpt lat="45.6498167" lon="9.580115"><ele>203.00000000000003</ele><time>2026-04-26T13:53:15.976Z</time></trkpt><trkpt lat="45.64974" lon="9.5800583"><ele>203.0</ele><time>2026-04-26T13:53:16.976Z</time></trkpt><trkpt lat="45.6496767" lon="9.5800067"><ele>203.0</ele><time>2026-04-26T13:53:17.976Z</time></trkpt><trkpt lat="45.64962" lon="9.57996"><ele>203.0</ele><time>2026-04-26T13:53:18.976Z</time></trkpt><trkpt lat="45.6495583" lon="9.5799067"><ele>203.00000000000003</ele><time>2026-04-26T13:53:19.976Z</time></trkpt><trkpt lat="45.6494917" lon="9.5798433"><ele>203.0</ele><time>2026-04-26T13:53:20.976Z</time></trkpt><trkpt lat="45.6494167" lon="9.57978"><ele>203.60000000000002</ele><time>2026-04-26T13:53:21.976Z</time></trkpt><trkpt lat="45.6493367" lon="9.579715"><ele>204.20000000000002</ele><time>2026-04-26T13:53:22.976Z</time></trkpt><trkpt lat="45.6492517" lon="9.5796533"><ele>204.8</ele><time>2026-04-26T13:53:23.976Z</time></trkpt><trkpt lat="45.649165" lon="9.5795783"><ele>205.4</ele><time>2026-04-26T13:53:24.976Z</time></trkpt><trkpt lat="45.6490767" lon="9.57951"><ele>206.0</ele><time>2026-04-26T13:53:25.976Z</time></trkpt><trkpt lat="45.6489867" lon="9.5794433"><ele>205.20000000000002</ele><time>2026-04-26T13:53:26.976Z</time></trkpt><trkpt lat="45.6488967" lon="9.5793667"><ele>204.4</ele><time>2026-04-26T13:53:27.976Z</time></trkpt><trkpt lat="45.6488083" lon="9.57929"><ele>203.6</ele><time>2026-04-26T13:53:28.976Z</time></trkpt><trkpt lat="45.64872" lon="9.5792167"><ele>202.8</ele><time>2026-04-26T13:53:29.976Z</time></trkpt><trkpt lat="45.64864" lon="9.57914"><ele>202.0</ele><time>2026-04-26T13:53:30.976Z</time></trkpt><trkpt lat="45.6485567" lon="9.5790617"><ele>202.0</ele><time>2026-04-26T13:53:31.977Z</time></trkpt><trkpt lat="45.64848" lon="9.5789717"><ele>202.0</ele><time>2026-04-26T13:53:32.976Z</time></trkpt><trkpt lat="45.648395" lon="9.5788833"><ele>202.0</ele><time>2026-04-26T13:53:33.976Z</time></trkpt><trkpt lat="45.648305" lon="9.5788"><ele>202.0</ele><time>2026-04-26T13:53:34.976Z</time></trkpt><trkpt lat="45.6482217" lon="9.5787133"><ele>202.0</ele><time>2026-04-26T13:53:35.976Z</time></trkpt><trkpt lat="45.6481367" lon="9.578635"><ele>201.0</ele><time>2026-04-26T13:53:36.976Z</time></trkpt><trkpt lat="45.648045" lon="9.578555"><ele>200.0</ele><time>2026-04-26T13:53:37.976Z</time></trkpt><trkpt lat="45.6479483" lon="9.5784917"><ele>199.0</ele><time>2026-04-26T13:53:38.976Z</time></trkpt><trkpt lat="45.647845" lon="9.578435"><ele>198.0</ele><time>2026-04-26T13:53:39.976Z</time></trkpt><trkpt lat="45.647735" lon="9.578385"><ele>197.0</ele><time>2026-04-26T13:53:40.976Z</time></trkpt><trkpt lat="45.6476283" lon="9.57833"><ele>197.0</ele><time>2026-04-26T13:53:41.976Z</time></trkpt><trkpt lat="45.6475217" lon="9.5782817"><ele>197.0</ele><time>2026-04-26T13:53:42.976Z</time></trkpt><trkpt lat="45.6474233" lon="9.5782367"><ele>197.0</ele><time>2026-04-26T13:53:43.976Z</time></trkpt><trkpt lat="45.6473267" lon="9.578195"><ele>197.0</ele><time>2026-04-26T13:53:44.976Z</time></trkpt><trkpt lat="45.6472383" lon="9.5781517"><ele>197.0</ele><time>2026-04-26T13:53:45.976Z</time></trkpt><trkpt lat="45.6471533" lon="9.5781133"><ele>197.0</ele><time>2026-04-26T13:53:46.976Z</time></trkpt><trkpt lat="45.64706" lon="9.578075"><ele>197.0</ele><time>2026-04-26T13:53:47.976Z</time></trkpt><trkpt lat="45.6469733" lon="9.5780467"><ele>197.0</ele><time>2026-04-26T13:53:48.976Z</time></trkpt><trkpt lat="45.6468933" lon="9.5780333"><ele>197.0</ele><time>2026-04-26T13:53:49.976Z</time></trkpt><trkpt lat="45.6468167" lon="9.5780217"><ele>197.0</ele><time>2026-04-26T13:53:50.976Z</time></trkpt><trkpt lat="45.6467083" lon="9.5779983"><ele>197.16666666666669</ele><time>2026-04-26T13:53:52.976Z</time></trkpt><trkpt lat="45.6466267" lon="9.5779683"><ele>197.33333333333334</ele><time>2026-04-26T13:53:55.976Z</time></trkpt><trkpt lat="45.6465433" lon="9.5778683"><ele>197.5</ele><time>2026-04-26T13:53:58.977Z</time></trkpt><trkpt lat="45.6464933" lon="9.5778117"><ele>197.66666666666669</ele><time>2026-04-26T13:53:59.976Z</time></trkpt><trkpt lat="45.6464333" lon="9.57775"><ele>197.83333333333334</ele><time>2026-04-26T13:54:00.976Z</time></trkpt><trkpt lat="45.646365" lon="9.5776733"><ele>198.0</ele><time>2026-04-26T13:54:01.976Z</time></trkpt><trkpt lat="45.646285" lon="9.5775967"><ele>198.0</ele><time>2026-04-26T13:54:02.976Z</time></trkpt><trkpt lat="45.6461917" lon="9.5775167"><ele>198.0</ele><time>2026-04-26T13:54:03.976Z</time></trkpt><trkpt lat="45.6461033" lon="9.5774433"><ele>198.0</ele><time>2026-04-26T13:54:04.976Z</time></trkpt><trkpt lat="45.6460067" lon="9.5773733"><ele>198.0</ele><time>2026-04-26T13:54:05.976Z</time></trkpt><trkpt lat="45.6459083" lon="9.5773067"><ele>198.0</ele><time>2026-04-26T13:54:06.976Z</time></trkpt><trkpt lat="45.6458083" lon="9.5772483"><ele>198.0</ele><time>2026-04-26T13:54:07.976Z</time></trkpt><trkpt lat="45.6457067" lon="9.5771883"><ele>198.0</ele><time>2026-04-26T13:54:08.976Z</time></trkpt><trkpt lat="45.6456067" lon="9.5771117"><ele>198.0</ele><time>2026-04-26T13:54:09.976Z</time></trkpt><trkpt lat="45.6455033" lon="9.57704"><ele>198.0</ele><time>2026-04-26T13:54:10.976Z</time></trkpt><trkpt lat="45.645405" lon="9.5769633"><ele>198.0</ele><time>2026-04-26T13:54:11.976Z</time></trkpt><trkpt lat="45.6453117" lon="9.57689"><ele>198.0</ele><time>2026-04-26T13:54:12.976Z</time></trkpt><trkpt lat="45.6452233" lon="9.576815"><ele>198.0</ele><time>2026-04-26T13:54:13.976Z</time></trkpt><trkpt lat="45.6451433" lon="9.5767433"><ele>198.0</ele><time>2026-04-26T13:54:14.976Z</time></trkpt><trkpt lat="45.6450633" lon="9.57667"><ele>198.0</ele><time>2026-04-26T13:54:15.976Z</time></trkpt><trkpt lat="45.64499" lon="9.5766017"><ele>198.0</ele><time>2026-04-26T13:54:16.976Z</time></trkpt><trkpt lat="45.6449233" lon="9.5765367"><ele>198.0</ele><time>2026-04-26T13:54:17.976Z</time></trkpt><trkpt lat="45.64486" lon="9.5764767"><ele>198.0</ele><time>2026-04-26T13:54:18.976Z</time></trkpt><trkpt lat="45.6447967" lon="9.576425"><ele>198.0</ele><time>2026-04-26T13:54:19.976Z</time></trkpt><trkpt lat="45.6447383" lon="9.5763717"><ele>198.0</ele><time>2026-04-26T13:54:20.976Z</time></trkpt><trkpt lat="45.6446817" lon="9.5763167"><ele>198.0</ele><time>2026-04-26T13:54:21.976Z</time></trkpt><trkpt lat="45.644625" lon="9.5762683"><ele>198.0</ele><time>2026-04-26T13:54:22.976Z</time></trkpt><trkpt lat="45.64456" lon="9.57622"><ele>198.0</ele><time>2026-04-26T13:54:23.976Z</time></trkpt><trkpt lat="45.6445017" lon="9.5761583"><ele>198.0</ele><time>2026-04-26T13:54:24.976Z</time></trkpt><trkpt lat="45.6444383" lon="9.57609"><ele>198.0</ele><time>2026-04-26T13:54:25.976Z</time></trkpt><trkpt lat="45.6443767" lon="9.5760233"><ele>198.0</ele><time>2026-04-26T13:54:26.976Z</time></trkpt><trkpt lat="45.6443067" lon="9.5759633"><ele>198.0</ele><time>2026-04-26T13:54:27.976Z</time></trkpt><trkpt lat="45.6442467" lon="9.575905"><ele>198.0</ele><time>2026-04-26T13:54:28.976Z</time></trkpt><trkpt lat="45.644185" lon="9.5758467"><ele>198.0</ele><time>2026-04-26T13:54:29.976Z</time></trkpt><trkpt lat="45.6441267" lon="9.5757767"><ele>198.0</ele><time>2026-04-26T13:54:30.976Z</time></trkpt><trkpt lat="45.644065" lon="9.5757067"><ele>198.0</ele><time>2026-04-26T13:54:31.976Z</time></trkpt><trkpt lat="45.644" lon="9.575635"><ele>198.0</ele><time>2026-04-26T13:54:32.976Z</time></trkpt><trkpt lat="45.64394" lon="9.575555"><ele>198.0</ele><time>2026-04-26T13:54:33.975Z</time></trkpt><trkpt lat="45.6438817" lon="9.5754733"><ele>198.0</ele><time>2026-04-26T13:54:34.975Z</time></trkpt><trkpt lat="45.6438233" lon="9.5753917"><ele>198.0</ele><time>2026-04-26T13:54:35.975Z</time></trkpt><trkpt lat="45.643765" lon="9.57531"><ele>198.0</ele><time>2026-04-26T13:54:36.975Z</time></trkpt><trkpt lat="45.64371" lon="9.5752367"><ele>198.0</ele><time>2026-04-26T13:54:37.975Z</time></trkpt><trkpt lat="45.6436433" lon="9.5751717"><ele>198.0</ele><time>2026-04-26T13:54:38.975Z</time></trkpt><trkpt lat="45.6435767" lon="9.5751017"><ele>198.0</ele><time>2026-04-26T13:54:39.975Z</time></trkpt><trkpt lat="45.6435133" lon="9.5750267"><ele>198.0</ele><time>2026-04-26T13:54:40.975Z</time></trkpt><trkpt lat="45.6434483" lon="9.57495"><ele>198.0</ele><time>2026-04-26T13:54:41.975Z</time></trkpt><trkpt lat="45.6433867" lon="9.57487"><ele>198.0</ele><time>2026-04-26T13:54:42.975Z</time></trkpt><trkpt lat="45.6433267" lon="9.5747883"><ele>198.0</ele><time>2026-04-26T13:54:43.975Z</time></trkpt><trkpt lat="45.6432583" lon="9.574725"><ele>198.0</ele><time>2026-04-26T13:54:44.975Z</time></trkpt><trkpt lat="45.64319" lon="9.57466"><ele>198.0</ele><time>2026-04-26T13:54:45.975Z</time></trkpt><trkpt lat="45.6431217" lon="9.5746017"><ele>198.0</ele><time>2026-04-26T13:54:46.975Z</time></trkpt><trkpt lat="45.64305" lon="9.574545"><ele>197.33333333333334</ele><time>2026-04-26T13:54:47.975Z</time></trkpt><trkpt lat="45.64297" lon="9.5744783"><ele>196.66666666666669</ele><time>2026-04-26T13:54:48.975Z</time></trkpt><trkpt lat="45.6428933" lon="9.574415"><ele>196.0</ele><time>2026-04-26T13:54:49.975Z</time></trkpt><trkpt lat="45.6428183" lon="9.57436"><ele>195.33333333333334</ele><time>2026-04-26T13:54:50.976Z</time></trkpt><trkpt lat="45.6427433" lon="9.5742983"><ele>194.66666666666669</ele><time>2026-04-26T13:54:51.975Z</time></trkpt><trkpt lat="45.6426667" lon="9.5742383"><ele>194.0</ele><time>2026-04-26T13:54:52.976Z</time></trkpt><trkpt lat="45.6425933" lon="9.5741867"><ele>194.0</ele><time>2026-04-26T13:54:53.975Z</time></trkpt><trkpt lat="45.6425283" lon="9.5741333"><ele>194.0</ele><time>2026-04-26T13:54:54.975Z</time></trkpt><trkpt lat="45.6424767" lon="9.5740817"><ele>194.0</ele><time>2026-04-26T13:54:55.975Z</time></trkpt><trkpt lat="45.6423817" lon="9.5739833"><ele>194.0</ele><time>2026-04-26T13:54:57.975Z</time></trkpt><trkpt lat="45.6422733" lon="9.573925"><ele>194.0</ele><time>2026-04-26T13:54:59.975Z</time></trkpt><trkpt lat="45.64218" lon="9.5738417"><ele>194.0</ele><time>2026-04-26T13:55:01.975Z</time></trkpt><trkpt lat="45.6421283" lon="9.57379"><ele>194.0</ele><time>2026-04-26T13:55:02.975Z</time></trkpt><trkpt lat="45.6420767" lon="9.5737267"><ele>194.0</ele><time>2026-04-26T13:55:03.975Z</time></trkpt><trkpt lat="45.6420217" lon="9.5736667"><ele>194.0</ele><time>2026-04-26T13:55:04.975Z</time></trkpt><trkpt lat="45.6419667" lon="9.5736017"><ele>194.0</ele><time>2026-04-26T13:55:05.975Z</time></trkpt><trkpt lat="45.6419033" lon="9.5735317"><ele>194.0</ele><time>2026-04-26T13:55:06.975Z</time></trkpt><trkpt lat="45.6418383" lon="9.5734583"><ele>194.0</ele><time>2026-04-26T13:55:07.975Z</time></trkpt><trkpt lat="45.6417717" lon="9.5733867"><ele>194.14285714285714</ele><time>2026-04-26T13:55:08.975Z</time></trkpt><trkpt lat="45.6417083" lon="9.5733117"><ele>194.2857142857143</ele><time>2026-04-26T13:55:09.975Z</time></trkpt><trkpt lat="45.6416517" lon="9.5732417"><ele>194.42857142857144</ele><time>2026-04-26T13:55:10.975Z</time></trkpt><trkpt lat="45.6415967" lon="9.5731817"><ele>194.57142857142856</ele><time>2026-04-26T13:55:11.975Z</time></trkpt><trkpt lat="45.6415383" lon="9.57312"><ele>194.71428571428572</ele><time>2026-04-26T13:55:12.975Z</time></trkpt><trkpt lat="45.64148" lon="9.5730617"><ele>194.85714285714286</ele><time>2026-04-26T13:55:13.975Z</time></trkpt><trkpt lat="45.6414317" lon="9.573"><ele>195.0</ele><time>2026-04-26T13:55:14.975Z</time></trkpt><trkpt lat="45.6413833" lon="9.5729333"><ele>194.83333333333334</ele><time>2026-04-26T13:55:15.975Z</time></trkpt><trkpt lat="45.641305" lon="9.5728233"><ele>194.66666666666669</ele><time>2026-04-26T13:55:17.975Z</time></trkpt><trkpt lat="45.6412483" lon="9.572755"><ele>194.5</ele><time>2026-04-26T13:55:19.975Z</time></trkpt><trkpt lat="45.64119" lon="9.5726933"><ele>194.33333333333334</ele><time>2026-04-26T13:55:23.975Z</time></trkpt><trkpt lat="45.6411583" lon="9.572615"><ele>194.16666666666669</ele><time>2026-04-26T13:55:25.975Z</time></trkpt><trkpt lat="45.6411133" lon="9.572515"><ele>194.0</ele><time>2026-04-26T13:55:27.975Z</time></trkpt><trkpt lat="45.64107" lon="9.5724333"><ele>194.00000000000003</ele><time>2026-04-26T13:55:29.975Z</time></trkpt><trkpt lat="45.6410133" lon="9.57234"><ele>194.0</ele><time>2026-04-26T13:55:31.975Z</time></trkpt><trkpt lat="45.640945" lon="9.5722517"><ele>194.0</ele><time>2026-04-26T13:55:33.975Z</time></trkpt><trkpt lat="45.6408417" lon="9.5721833"><ele>194.0</ele><time>2026-04-26T13:55:35.975Z</time></trkpt><trkpt lat="45.6407733" lon="9.5721533"><ele>194.00000000000003</ele><time>2026-04-26T13:55:36.975Z</time></trkpt><trkpt lat="45.6406967" lon="9.5721367"><ele>194.0</ele><time>2026-04-26T13:55:37.975Z</time></trkpt><trkpt lat="45.6406167" lon="9.5721167"><ele>194.0</ele><time>2026-04-26T13:55:38.975Z</time></trkpt><trkpt lat="45.6405267" lon="9.5720933"><ele>194.0</ele><time>2026-04-26T13:55:39.975Z</time></trkpt><trkpt lat="45.6404417" lon="9.572065"><ele>194.0</ele><time>2026-04-26T13:55:40.975Z</time></trkpt><trkpt lat="45.6403667" lon="9.572045"><ele>194.0</ele><time>2026-04-26T13:55:41.975Z</time></trkpt><trkpt lat="45.6402983" lon="9.5720317"><ele>194.0</ele><time>2026-04-26T13:55:42.975Z</time></trkpt><trkpt lat="45.6401717" lon="9.571985"><ele>193.33333333333334</ele><time>2026-04-26T13:55:44.975Z</time></trkpt><trkpt lat="45.64011" lon="9.5719383"><ele>192.66666666666669</ele><time>2026-04-26T13:55:45.975Z</time></trkpt><trkpt lat="45.6400467" lon="9.5718667"><ele>192.0</ele><time>2026-04-26T13:55:46.975Z</time></trkpt><trkpt lat="45.6399817" lon="9.5717983"><ele>191.33333333333334</ele><time>2026-04-26T13:55:47.975Z</time></trkpt><trkpt lat="45.6399133" lon="9.5717217"><ele>190.66666666666669</ele><time>2026-04-26T13:55:48.975Z</time></trkpt><trkpt lat="45.639845" lon="9.5716367"><ele>190.0</ele><time>2026-04-26T13:55:49.975Z</time></trkpt><trkpt lat="45.6397783" lon="9.5715717"><ele>190.0</ele><time>2026-04-26T13:55:50.975Z</time></trkpt><trkpt lat="45.6397133" lon="9.57151"><ele>190.0</ele><time>2026-04-26T13:55:51.975Z</time></trkpt><trkpt lat="45.6396517" lon="9.57146"><ele>190.0</ele><time>2026-04-26T13:55:52.975Z</time></trkpt><trkpt lat="45.63956" lon="9.571365"><ele>190.0</ele><time>2026-04-26T13:55:54.975Z</time></trkpt><trkpt lat="45.6394833" lon="9.57129"><ele>190.0</ele><time>2026-04-26T13:55:56.975Z</time></trkpt><trkpt lat="45.6394267" lon="9.57117"><ele>190.2</ele><time>2026-04-26T13:55:58.975Z</time></trkpt><trkpt lat="45.6393717" lon="9.5710333"><ele>190.4</ele><time>2026-04-26T13:56:00.975Z</time></trkpt><trkpt lat="45.6393317" lon="9.5708833"><ele>190.60000000000002</ele><time>2026-04-26T13:56:02.975Z</time></trkpt><trkpt lat="45.6392967" lon="9.5707417"><ele>190.8</ele><time>2026-04-26T13:56:04.975Z</time></trkpt><trkpt lat="45.6392567" lon="9.5706267"><ele>191.0</ele><time>2026-04-26T13:56:06.975Z</time></trkpt><trkpt lat="45.6392133" lon="9.5705083"><ele>191.0</ele><time>2026-04-26T13:56:08.975Z</time></trkpt><trkpt lat="45.6391717" lon="9.570395"><ele>191.0</ele><time>2026-04-26T13:56:10.975Z</time></trkpt><trkpt lat="45.6391267" lon="9.5702717"><ele>191.0</ele><time>2026-04-26T13:56:12.975Z</time></trkpt><trkpt lat="45.63908" lon="9.5701483"><ele>191.0</ele><time>2026-04-26T13:56:14.975Z</time></trkpt><trkpt lat="45.63903" lon="9.57002"><ele>191.0</ele><time>2026-04-26T13:56:16.975Z</time></trkpt><trkpt lat="45.63897" lon="9.5699067"><ele>190.83333333333331</ele><time>2026-04-26T13:56:18.975Z</time></trkpt><trkpt lat="45.6389167" lon="9.5698183"><ele>190.66666666666666</ele><time>2026-04-26T13:56:20.975Z</time></trkpt><trkpt lat="45.6388383" lon="9.5697867"><ele>190.5</ele><time>2026-04-26T13:56:22.975Z</time></trkpt><trkpt lat="45.6387417" lon="9.56977"><ele>190.33333333333334</ele><time>2026-04-26T13:56:24.975Z</time></trkpt><trkpt lat="45.6386483" lon="9.56974"><ele>190.16666666666669</ele><time>2026-04-26T13:56:26.975Z</time></trkpt><trkpt lat="45.6385683" lon="9.56972"><ele>190.0</ele><time>2026-04-26T13:56:28.975Z</time></trkpt><trkpt lat="45.638485" lon="9.56972"><ele>190.0</ele><time>2026-04-26T13:56:30.975Z</time></trkpt><trkpt lat="45.6383967" lon="9.5697233"><ele>190.0</ele><time>2026-04-26T13:56:32.975Z</time></trkpt><trkpt lat="45.6383233" lon="9.569735"><ele>190.0</ele><time>2026-04-26T13:56:34.975Z</time></trkpt><trkpt lat="45.6382383" lon="9.5697283"><ele>190.0</ele><time>2026-04-26T13:56:36.975Z</time></trkpt><trkpt lat="45.63816" lon="9.5697183"><ele>190.0</ele><time>2026-04-26T13:56:38.975Z</time></trkpt><trkpt lat="45.638055" lon="9.5696867"><ele>190.0</ele><time>2026-04-26T13:56:40.975Z</time></trkpt><trkpt lat="45.6379583" lon="9.5696333"><ele>190.0</ele><time>2026-04-26T13:56:42.975Z</time></trkpt><trkpt lat="45.637885" lon="9.569585"><ele>190.0</ele><time>2026-04-26T13:56:44.975Z</time></trkpt><trkpt lat="45.6378" lon="9.569535"><ele>190.0</ele><time>2026-04-26T13:56:46.975Z</time></trkpt><trkpt lat="45.637705" lon="9.5694617"><ele>190.0</ele><time>2026-04-26T13:56:48.975Z</time></trkpt><trkpt lat="45.6375967" lon="9.569385"><ele>190.0</ele><time>2026-04-26T13:56:50.975Z</time></trkpt><trkpt lat="45.6374917" lon="9.5693"><ele>189.5</ele><time>2026-04-26T13:56:52.975Z</time></trkpt><trkpt lat="45.6373783" lon="9.569215"><ele>189.0</ele><time>2026-04-26T13:56:54.975Z</time></trkpt><trkpt lat="45.6373183" lon="9.5691617"><ele>188.5</ele><time>2026-04-26T13:56:55.975Z</time></trkpt><trkpt lat="45.6372567" lon="9.569105"><ele>188.0</ele><time>2026-04-26T13:56:56.975Z</time></trkpt><trkpt lat="45.6372" lon="9.569045"><ele>187.5</ele><time>2026-04-26T13:56:57.975Z</time></trkpt><trkpt lat="45.6371517" lon="9.5689767"><ele>187.0</ele><time>2026-04-26T13:56:58.975Z</time></trkpt><trkpt lat="45.6371083" lon="9.5688967"><ele>187.0</ele><time>2026-04-26T13:56:59.975Z</time></trkpt><trkpt lat="45.637065" lon="9.5688217"><ele>187.0</ele><time>2026-04-26T13:57:00.975Z</time></trkpt><trkpt lat="45.6370217" lon="9.5687433"><ele>187.0</ele><time>2026-04-26T13:57:01.975Z</time></trkpt><trkpt lat="45.636975" lon="9.56867"><ele>187.0</ele><time>2026-04-26T13:57:02.975Z</time></trkpt><trkpt lat="45.6369267" lon="9.5685867"><ele>187.0</ele><time>2026-04-26T13:57:03.976Z</time></trkpt><trkpt lat="45.63687" lon="9.5685083"><ele>187.0</ele><time>2026-04-26T13:57:04.975Z</time></trkpt><trkpt lat="45.6368067" lon="9.5684183"><ele>186.66666666666669</ele><time>2026-04-26T13:57:05.975Z</time></trkpt><trkpt lat="45.6367383" lon="9.5683333"><ele>186.33333333333334</ele><time>2026-04-26T13:57:06.975Z</time></trkpt><trkpt lat="45.6366717" lon="9.568255"><ele>186.0</ele><time>2026-04-26T13:57:07.975Z</time></trkpt><trkpt lat="45.6366017" lon="9.568185"><ele>185.66666666666666</ele><time>2026-04-26T13:57:08.975Z</time></trkpt><trkpt lat="45.6365267" lon="9.5681017"><ele>185.33333333333331</ele><time>2026-04-26T13:57:09.975Z</time></trkpt><trkpt lat="45.63646" lon="9.5680367"><ele>185.0</ele><time>2026-04-26T13:57:10.975Z</time></trkpt><trkpt lat="45.6363933" lon="9.5679733"><ele>185.0</ele><time>2026-04-26T13:57:11.975Z</time></trkpt><trkpt lat="45.6363233" lon="9.5679083"><ele>185.0</ele><time>2026-04-26T13:57:12.975Z</time></trkpt><trkpt lat="45.6362633" lon="9.5678583"><ele>185.0</ele><time>2026-04-26T13:57:13.975Z</time></trkpt><trkpt lat="45.6361683" lon="9.5677667"><ele>185.0</ele><time>2026-04-26T13:57:15.975Z</time></trkpt><trkpt lat="45.6360933" lon="9.56769"><ele>185.0</ele><time>2026-04-26T13:57:17.975Z</time></trkpt><trkpt lat="45.6360183" lon="9.5676117"><ele>185.2</ele><time>2026-04-26T13:57:19.975Z</time></trkpt><trkpt lat="45.6359583" lon="9.5675317"><ele>185.4</ele><time>2026-04-26T13:57:21.975Z</time></trkpt><trkpt lat="45.6359183" lon="9.5674133"><ele>185.60000000000002</ele><time>2026-04-26T13:57:23.975Z</time></trkpt><trkpt lat="45.6358883" lon="9.5672733"><ele>185.8</ele><time>2026-04-26T13:57:25.975Z</time></trkpt><trkpt lat="45.635865" lon="9.5671067"><ele>186.0</ele><time>2026-04-26T13:57:27.975Z</time></trkpt><trkpt lat="45.6358433" lon="9.567015"><ele>185.33333333333334</ele><time>2026-04-26T13:57:28.975Z</time></trkpt><trkpt lat="45.6358183" lon="9.5669133"><ele>184.66666666666666</ele><time>2026-04-26T13:57:29.975Z</time></trkpt><trkpt lat="45.635795" lon="9.5668083"><ele>184.0</ele><time>2026-04-26T13:57:30.975Z</time></trkpt><trkpt lat="45.6357767" lon="9.5667"><ele>183.33333333333331</ele><time>2026-04-26T13:57:31.975Z</time></trkpt><trkpt lat="45.6357633" lon="9.566595"><ele>182.66666666666666</ele><time>2026-04-26T13:57:32.975Z</time></trkpt><trkpt lat="45.6357583" lon="9.5664883"><ele>182.0</ele><time>2026-04-26T13:57:33.975Z</time></trkpt><trkpt lat="45.6357517" lon="9.56638"><ele>182.0</ele><time>2026-04-26T13:57:34.975Z</time></trkpt><trkpt lat="45.6357383" lon="9.5662683"><ele>182.0</ele><time>2026-04-26T13:57:35.975Z</time></trkpt><trkpt lat="45.63573" lon="9.5661633"><ele>182.0</ele><time>2026-04-26T13:57:36.975Z</time></trkpt><trkpt lat="45.6357167" lon="9.56606"><ele>182.0</ele><time>2026-04-26T13:57:37.975Z</time></trkpt><trkpt lat="45.6356983" lon="9.565965"><ele>182.0</ele><time>2026-04-26T13:57:38.975Z</time></trkpt><trkpt lat="45.6356783" lon="9.5658767"><ele>182.0</ele><time>2026-04-26T13:57:39.975Z</time></trkpt><trkpt lat="45.6356533" lon="9.5657933"><ele>182.0</ele><time>2026-04-26T13:57:40.975Z</time></trkpt><trkpt lat="45.6356183" lon="9.565715"><ele>181.83333333333331</ele><time>2026-04-26T13:57:41.975Z</time></trkpt><trkpt lat="45.63555" lon="9.5655817"><ele>181.66666666666666</ele><time>2026-04-26T13:57:43.975Z</time></trkpt><trkpt lat="45.6354567" lon="9.5654633"><ele>181.5</ele><time>2026-04-26T13:57:45.975Z</time></trkpt><trkpt lat="45.6354017" lon="9.56541"><ele>181.33333333333334</ele><time>2026-04-26T13:57:46.975Z</time></trkpt><trkpt lat="45.6353433" lon="9.5653667"><ele>181.16666666666669</ele><time>2026-04-26T13:57:47.975Z</time></trkpt><trkpt lat="45.635285" lon="9.5653317"><ele>181.0</ele><time>2026-04-26T13:57:48.975Z</time></trkpt><trkpt lat="45.6352233" lon="9.5652833"><ele>181.33333333333334</ele><time>2026-04-26T13:57:49.975Z</time></trkpt><trkpt lat="45.63515" lon="9.5652367"><ele>181.66666666666669</ele><time>2026-04-26T13:57:50.975Z</time></trkpt><trkpt lat="45.63507" lon="9.565185"><ele>182.0</ele><time>2026-04-26T13:57:51.975Z</time></trkpt><trkpt lat="45.63499" lon="9.5651367"><ele>182.33333333333334</ele><time>2026-04-26T13:57:52.975Z</time></trkpt><trkpt lat="45.6349133" lon="9.565085"><ele>182.66666666666666</ele><time>2026-04-26T13:57:53.975Z</time></trkpt><trkpt lat="45.6348367" lon="9.5650267"><ele>183.0</ele><time>2026-04-26T13:57:54.975Z</time></trkpt><trkpt lat="45.63477" lon="9.564985"><ele>183.0</ele><time>2026-04-26T13:57:55.975Z</time></trkpt><trkpt lat="45.63466" lon="9.5649167"><ele>183.0</ele><time>2026-04-26T13:57:57.975Z</time></trkpt><trkpt lat="45.634575" lon="9.5648483"><ele>183.0</ele><time>2026-04-26T13:57:59.975Z</time></trkpt><trkpt lat="45.6345017" lon="9.564805"><ele>183.0</ele><time>2026-04-26T13:58:01.975Z</time></trkpt><trkpt lat="45.6344433" lon="9.56475"><ele>183.0</ele><time>2026-04-26T13:58:04.975Z</time></trkpt><trkpt lat="45.634385" lon="9.5647133"><ele>183.0</ele><time>2026-04-26T13:58:06.975Z</time></trkpt><trkpt lat="45.6342867" lon="9.564645"><ele>183.33333333333334</ele><time>2026-04-26T13:58:08.975Z</time></trkpt><trkpt lat="45.63423" lon="9.5646017"><ele>183.66666666666666</ele><time>2026-04-26T13:58:09.975Z</time></trkpt><trkpt lat="45.6341683" lon="9.564555"><ele>184.0</ele><time>2026-04-26T13:58:10.975Z</time></trkpt><trkpt lat="45.6341017" lon="9.56452"><ele>184.33333333333331</ele><time>2026-04-26T13:58:11.975Z</time></trkpt><trkpt lat="45.6340383" lon="9.564485"><ele>184.66666666666666</ele><time>2026-04-26T13:58:12.975Z</time></trkpt><trkpt lat="45.6339233" lon="9.564435"><ele>185.0</ele><time>2026-04-26T13:58:14.975Z</time></trkpt><trkpt lat="45.6338317" lon="9.56439"><ele>184.5</ele><time>2026-04-26T13:58:16.975Z</time></trkpt><trkpt lat="45.633755" lon="9.56434"><ele>184.0</ele><time>2026-04-26T13:58:18.975Z</time></trkpt><trkpt lat="45.6336583" lon="9.564265"><ele>183.5</ele><time>2026-04-26T13:58:20.975Z</time></trkpt><trkpt lat="45.6336017" lon="9.56422"><ele>183.0</ele><time>2026-04-26T13:58:21.975Z</time></trkpt><trkpt lat="45.63354" lon="9.564165"><ele>182.5</ele><time>2026-04-26T13:58:22.975Z</time></trkpt><trkpt lat="45.63347" lon="9.5641083"><ele>182.0</ele><time>2026-04-26T13:58:23.975Z</time></trkpt><trkpt lat="45.63339" lon="9.56405"><ele>182.0</ele><time>2026-04-26T13:58:24.975Z</time></trkpt><trkpt lat="45.633305" lon="9.56399"><ele>182.0</ele><time>2026-04-26T13:58:25.975Z</time></trkpt><trkpt lat="45.633215" lon="9.5639383"><ele>182.0</ele><time>2026-04-26T13:58:26.975Z</time></trkpt><trkpt lat="45.633125" lon="9.5638917"><ele>182.0</ele><time>2026-04-26T13:58:27.975Z</time></trkpt><trkpt lat="45.63304" lon="9.5638467"><ele>182.0</ele><time>2026-04-26T13:58:28.975Z</time></trkpt><trkpt lat="45.632965" lon="9.5638017"><ele>182.0</ele><time>2026-04-26T13:58:29.975Z</time></trkpt><trkpt lat="45.632895" lon="9.563765"><ele>182.0</ele><time>2026-04-26T13:58:30.975Z</time></trkpt><trkpt lat="45.632825" lon="9.5637283"><ele>182.0</ele><time>2026-04-26T13:58:31.975Z</time></trkpt><trkpt lat="45.6327583" lon="9.5636933"><ele>182.0</ele><time>2026-04-26T13:58:32.975Z</time></trkpt><trkpt lat="45.632685" lon="9.5636767"><ele>182.0</ele><time>2026-04-26T13:58:33.975Z</time></trkpt><trkpt lat="45.6326083" lon="9.5636717"><ele>182.0</ele><time>2026-04-26T13:58:34.975Z</time></trkpt><trkpt lat="45.63253" lon="9.5636933"><ele>182.0</ele><time>2026-04-26T13:58:35.975Z</time></trkpt><trkpt lat="45.6324417" lon="9.5637183"><ele>182.0</ele><time>2026-04-26T13:58:36.975Z</time></trkpt><trkpt lat="45.6323567" lon="9.5637433"><ele>182.0</ele><time>2026-04-26T13:58:37.975Z</time></trkpt><trkpt lat="45.6322717" lon="9.5637717"><ele>182.0</ele><time>2026-04-26T13:58:38.975Z</time></trkpt><trkpt lat="45.6321783" lon="9.5637967"><ele>182.0</ele><time>2026-04-26T13:58:39.975Z</time></trkpt><trkpt lat="45.63208" lon="9.5638"><ele>182.0</ele><time>2026-04-26T13:58:40.975Z</time></trkpt><trkpt lat="45.6319833" lon="9.5638067"><ele>182.0</ele><time>2026-04-26T13:58:41.975Z</time></trkpt><trkpt lat="45.63188" lon="9.5638233"><ele>182.0</ele><time>2026-04-26T13:58:42.975Z</time></trkpt><trkpt lat="45.6317733" lon="9.5638417"><ele>182.0</ele><time>2026-04-26T13:58:43.976Z</time></trkpt><trkpt lat="45.6316633" lon="9.56385"><ele>182.0</ele><time>2026-04-26T13:58:44.975Z</time></trkpt><trkpt lat="45.6315433" lon="9.5638633"><ele>182.0</ele><time>2026-04-26T13:58:45.975Z</time></trkpt><trkpt lat="45.6314167" lon="9.5638767"><ele>182.0</ele><time>2026-04-26T13:58:46.975Z</time></trkpt><trkpt lat="45.6312917" lon="9.5638933"><ele>182.0</ele><time>2026-04-26T13:58:47.975Z</time></trkpt><trkpt lat="45.6311617" lon="9.5639133"><ele>182.0</ele><time>2026-04-26T13:58:48.975Z</time></trkpt><trkpt lat="45.631035" lon="9.5639283"><ele>182.25</ele><time>2026-04-26T13:58:49.975Z</time></trkpt><trkpt lat="45.6309083" lon="9.5639417"><ele>182.5</ele><time>2026-04-26T13:58:50.975Z</time></trkpt><trkpt lat="45.630785" lon="9.5639567"><ele>182.75</ele><time>2026-04-26T13:58:51.975Z</time></trkpt><trkpt lat="45.6306567" lon="9.5639783"><ele>183.0</ele><time>2026-04-26T13:58:52.975Z</time></trkpt><trkpt lat="45.6305333" lon="9.5639983"><ele>183.0</ele><time>2026-04-26T13:58:53.975Z</time></trkpt><trkpt lat="45.6304233" lon="9.5640067"><ele>183.0</ele><time>2026-04-26T13:58:54.975Z</time></trkpt><trkpt lat="45.6303217" lon="9.564015"><ele>183.0</ele><time>2026-04-26T13:58:55.975Z</time></trkpt><trkpt lat="45.6302233" lon="9.5640383"><ele>183.0</ele><time>2026-04-26T13:58:56.975Z</time></trkpt><trkpt lat="45.6301317" lon="9.564055"><ele>183.0</ele><time>2026-04-26T13:58:57.975Z</time></trkpt><trkpt lat="45.630055" lon="9.5640617"><ele>182.5</ele><time>2026-04-26T13:58:58.975Z</time></trkpt><trkpt lat="45.62998" lon="9.56407"><ele>182.0</ele><time>2026-04-26T13:58:59.975Z</time></trkpt><trkpt lat="45.6299" lon="9.5640833"><ele>181.5</ele><time>2026-04-26T13:59:00.975Z</time></trkpt><trkpt lat="45.6298267" lon="9.5640967"><ele>181.0</ele><time>2026-04-26T13:59:01.975Z</time></trkpt><trkpt lat="45.6297583" lon="9.5641167"><ele>180.5</ele><time>2026-04-26T13:59:02.975Z</time></trkpt><trkpt lat="45.62968" lon="9.56414"><ele>180.0</ele><time>2026-04-26T13:59:03.975Z</time></trkpt><trkpt lat="45.6296033" lon="9.5641567"><ele>180.0</ele><time>2026-04-26T13:59:04.975Z</time></trkpt><trkpt lat="45.6295283" lon="9.56418"><ele>180.0</ele><time>2026-04-26T13:59:05.975Z</time></trkpt><trkpt lat="45.6294567" lon="9.5642067"><ele>180.0</ele><time>2026-04-26T13:59:06.975Z</time></trkpt><trkpt lat="45.6293783" lon="9.5642383"><ele>180.0</ele><time>2026-04-26T13:59:07.975Z</time></trkpt><trkpt lat="45.629305" lon="9.5642667"><ele>180.0</ele><time>2026-04-26T13:59:08.975Z</time></trkpt><trkpt lat="45.629235" lon="9.5643067"><ele>180.0</ele><time>2026-04-26T13:59:09.975Z</time></trkpt><trkpt lat="45.6291617" lon="9.5643417"><ele>179.85714285714286</ele><time>2026-04-26T13:59:10.975Z</time></trkpt><trkpt lat="45.629085" lon="9.5643667"><ele>179.71428571428572</ele><time>2026-04-26T13:59:11.975Z</time></trkpt><trkpt lat="45.6290133" lon="9.5643883"><ele>179.57142857142858</ele><time>2026-04-26T13:59:12.975Z</time></trkpt><trkpt lat="45.6289417" lon="9.56442"><ele>179.42857142857144</ele><time>2026-04-26T13:59:13.975Z</time></trkpt><trkpt lat="45.6288717" lon="9.5644483"><ele>179.28571428571428</ele><time>2026-04-26T13:59:14.975Z</time></trkpt><trkpt lat="45.628805" lon="9.564475"><ele>179.14285714285717</ele><time>2026-04-26T13:59:15.975Z</time></trkpt><trkpt lat="45.6287433" lon="9.5645067"><ele>179.0</ele><time>2026-04-26T13:59:16.975Z</time></trkpt><trkpt lat="45.6286417" lon="9.5645683"><ele>179.0</ele><time>2026-04-26T13:59:18.975Z</time></trkpt><trkpt lat="45.6285433" lon="9.5646383"><ele>179.0</ele><time>2026-04-26T13:59:20.975Z</time></trkpt><trkpt lat="45.6284217" lon="9.5647067"><ele>179.0</ele><time>2026-04-26T13:59:22.975Z</time></trkpt><trkpt lat="45.6283517" lon="9.5647517"><ele>179.0</ele><time>2026-04-26T13:59:23.975Z</time></trkpt><trkpt lat="45.6282833" lon="9.5648067"><ele>179.0</ele><time>2026-04-26T13:59:24.975Z</time></trkpt><trkpt lat="45.6282233" lon="9.564875"><ele>179.0</ele><time>2026-04-26T13:59:25.975Z</time></trkpt><trkpt lat="45.6281717" lon="9.5649417"><ele>179.0</ele><time>2026-04-26T13:59:26.975Z</time></trkpt><trkpt lat="45.6280633" lon="9.56501"><ele>179.0</ele><time>2026-04-26T13:59:28.974Z</time></trkpt><trkpt lat="45.6279333" lon="9.5649567"><ele>179.0</ele><time>2026-04-26T13:59:30.974Z</time></trkpt><trkpt lat="45.6278567" lon="9.5649067"><ele>179.0</ele><time>2026-04-26T13:59:31.974Z</time></trkpt><trkpt lat="45.6277633" lon="9.5648483"><ele>179.5</ele><time>2026-04-26T13:59:32.974Z</time></trkpt><trkpt lat="45.627675" lon="9.5648067"><ele>180.0</ele><time>2026-04-26T13:59:33.974Z</time></trkpt><trkpt lat="45.6275933" lon="9.5647683"><ele>180.5</ele><time>2026-04-26T13:59:34.974Z</time></trkpt><trkpt lat="45.6275233" lon="9.564725"><ele>181.0</ele><time>2026-04-26T13:59:35.974Z</time></trkpt><trkpt lat="45.62746" lon="9.5646833"><ele>181.5</ele><time>2026-04-26T13:59:36.974Z</time></trkpt><trkpt lat="45.6274" lon="9.5646417"><ele>182.0</ele><time>2026-04-26T13:59:37.974Z</time></trkpt><trkpt lat="45.627335" lon="9.5646"><ele>182.0</ele><time>2026-04-26T13:59:38.974Z</time></trkpt><trkpt lat="45.6272617" lon="9.5645567"><ele>182.0</ele><time>2026-04-26T13:59:39.974Z</time></trkpt><trkpt lat="45.62719" lon="9.56451"><ele>182.0</ele><time>2026-04-26T13:59:40.974Z</time></trkpt><trkpt lat="45.6271167" lon="9.5644617"><ele>182.0</ele><time>2026-04-26T13:59:41.974Z</time></trkpt><trkpt lat="45.6270483" lon="9.56442"><ele>182.0</ele><time>2026-04-26T13:59:42.974Z</time></trkpt><trkpt lat="45.6269833" lon="9.5643833"><ele>182.0</ele><time>2026-04-26T13:59:43.974Z</time></trkpt><trkpt lat="45.626925" lon="9.5643483"><ele>182.0</ele><time>2026-04-26T13:59:44.974Z</time></trkpt><trkpt lat="45.6268667" lon="9.5643117"><ele>181.5</ele><time>2026-04-26T13:59:45.974Z</time></trkpt><trkpt lat="45.6267667" lon="9.5642483"><ele>181.0</ele><time>2026-04-26T13:59:47.974Z</time></trkpt><trkpt lat="45.62669" lon="9.5642033"><ele>180.5</ele><time>2026-04-26T13:59:49.974Z</time></trkpt><trkpt lat="45.6266233" lon="9.5641717"><ele>180.0</ele><time>2026-04-26T13:59:51.974Z</time></trkpt><trkpt lat="45.62657" lon="9.5641"><ele>179.5</ele><time>2026-04-26T13:59:56.974Z</time></trkpt><trkpt lat="45.6265883" lon="9.5640083"><ele>179.0</ele><time>2026-04-26T13:59:58.974Z</time></trkpt><trkpt lat="45.6266217" lon="9.5639"><ele>179.0</ele><time>2026-04-26T14:00:00.974Z</time></trkpt><trkpt lat="45.6266583" lon="9.5637633"><ele>179.0</ele><time>2026-04-26T14:00:02.974Z</time></trkpt><trkpt lat="45.6266867" lon="9.5635967"><ele>179.0</ele><time>2026-04-26T14:00:04.974Z</time></trkpt><trkpt lat="45.626705" lon="9.56341"><ele>179.0</ele><time>2026-04-26T14:00:06.974Z</time></trkpt><trkpt lat="45.626705" lon="9.5632967"><ele>179.0</ele><time>2026-04-26T14:00:07.974Z</time></trkpt><trkpt lat="45.626705" lon="9.56318"><ele>178.66666666666666</ele><time>2026-04-26T14:00:08.974Z</time></trkpt><trkpt lat="45.6267033" lon="9.56306"><ele>178.33333333333331</ele><time>2026-04-26T14:00:09.974Z</time></trkpt><trkpt lat="45.6267083" lon="9.5629333"><ele>178.0</ele><time>2026-04-26T14:00:10.974Z</time></trkpt><trkpt lat="45.626705" lon="9.5628183"><ele>177.66666666666666</ele><time>2026-04-26T14:00:11.974Z</time></trkpt><trkpt lat="45.6266967" lon="9.5627117"><ele>177.33333333333334</ele><time>2026-04-26T14:00:12.974Z</time></trkpt><trkpt lat="45.6266917" lon="9.56259"><ele>177.0</ele><time>2026-04-26T14:00:13.974Z</time></trkpt><trkpt lat="45.6266817" lon="9.5624733"><ele>177.0</ele><time>2026-04-26T14:00:14.974Z</time></trkpt><trkpt lat="45.6266717" lon="9.5623733"><ele>177.0</ele><time>2026-04-26T14:00:15.974Z</time></trkpt><trkpt lat="45.6266683" lon="9.5622817"><ele>177.0</ele><time>2026-04-26T14:00:16.974Z</time></trkpt><trkpt lat="45.6266517" lon="9.5621367"><ele>177.0</ele><time>2026-04-26T14:00:18.974Z</time></trkpt><trkpt lat="45.6266083" lon="9.562035"><ele>177.0</ele><time>2026-04-26T14:00:20.974Z</time></trkpt><trkpt lat="45.6265267" lon="9.5619933"><ele>177.0</ele><time>2026-04-26T14:00:22.974Z</time></trkpt><trkpt lat="45.6264167" lon="9.562005"><ele>177.0</ele><time>2026-04-26T14:00:24.974Z</time></trkpt><trkpt lat="45.62635" lon="9.5620183"><ele>177.0</ele><time>2026-04-26T14:00:25.974Z</time></trkpt><trkpt lat="45.6262833" lon="9.5620417"><ele>177.0</ele><time>2026-04-26T14:00:26.974Z</time></trkpt><trkpt lat="45.626165" lon="9.56207"><ele>177.0</ele><time>2026-04-26T14:00:28.974Z</time></trkpt><trkpt lat="45.6261" lon="9.5620817"><ele>177.0</ele><time>2026-04-26T14:00:29.974Z</time></trkpt><trkpt lat="45.626" lon="9.5620933"><ele>177.0</ele><time>2026-04-26T14:00:31.974Z</time></trkpt><trkpt lat="45.6258983" lon="9.5621083"><ele>177.0</ele><time>2026-04-26T14:00:33.974Z</time></trkpt><trkpt lat="45.6258017" lon="9.56212"><ele>177.0</ele><time>2026-04-26T14:00:35.974Z</time></trkpt><trkpt lat="45.6256867" lon="9.5621283"><ele>177.0</ele><time>2026-04-26T14:00:37.974Z</time></trkpt><trkpt lat="45.6255733" lon="9.56214"><ele>177.0</ele><time>2026-04-26T14:00:39.974Z</time></trkpt><trkpt lat="45.6254733" lon="9.5621633"><ele>177.0</ele><time>2026-04-26T14:00:41.973Z</time></trkpt><trkpt lat="45.6253583" lon="9.5621767"><ele>176.6</ele><time>2026-04-26T14:00:43.974Z</time></trkpt><trkpt lat="45.6252533" lon="9.5621967"><ele>176.2</ele><time>2026-04-26T14:00:45.974Z</time></trkpt><trkpt lat="45.6251533" lon="9.562215"><ele>175.8</ele><time>2026-04-26T14:00:47.974Z</time></trkpt><trkpt lat="45.6250617" lon="9.5622283"><ele>175.4</ele><time>2026-04-26T14:00:49.974Z</time></trkpt><trkpt lat="45.6249617" lon="9.5622467"><ele>175.0</ele><time>2026-04-26T14:00:51.974Z</time></trkpt><trkpt lat="45.6248683" lon="9.5622617"><ele>175.0</ele><time>2026-04-26T14:00:53.975Z</time></trkpt><trkpt lat="45.6247633" lon="9.5622733"><ele>175.0</ele><time>2026-04-26T14:00:55.974Z</time></trkpt><trkpt lat="45.624655" lon="9.5622833"><ele>175.0</ele><time>2026-04-26T14:00:57.974Z</time></trkpt><trkpt lat="45.6245367" lon="9.5622917"><ele>175.0</ele><time>2026-04-26T14:00:59.974Z</time></trkpt><trkpt lat="45.6244333" lon="9.5623117"><ele>175.0</ele><time>2026-04-26T14:01:01.974Z</time></trkpt><trkpt lat="45.624325" lon="9.5623367"><ele>175.2</ele><time>2026-04-26T14:01:03.974Z</time></trkpt><trkpt lat="45.624215" lon="9.5623633"><ele>175.4</ele><time>2026-04-26T14:01:05.974Z</time></trkpt><trkpt lat="45.6241183" lon="9.562385"><ele>175.60000000000002</ele><time>2026-04-26T14:01:07.974Z</time></trkpt><trkpt lat="45.62402" lon="9.5624067"><ele>175.8</ele><time>2026-04-26T14:01:09.974Z</time></trkpt><trkpt lat="45.623925" lon="9.5624217"><ele>176.0</ele><time>2026-04-26T14:01:11.974Z</time></trkpt><trkpt lat="45.6238383" lon="9.56244"><ele>176.0</ele><time>2026-04-26T14:01:13.974Z</time></trkpt><trkpt lat="45.6237617" lon="9.562455"><ele>176.0</ele><time>2026-04-26T14:01:15.974Z</time></trkpt><trkpt lat="45.623685" lon="9.5624717"><ele>176.0</ele><time>2026-04-26T14:01:17.974Z</time></trkpt><trkpt lat="45.62362" lon="9.562485"><ele>176.0</ele><time>2026-04-26T14:01:19.974Z</time></trkpt><trkpt lat="45.6235533" lon="9.5625033"><ele>176.0</ele><time>2026-04-26T14:01:21.974Z</time></trkpt><trkpt lat="45.6234717" lon="9.56253"><ele>176.0</ele><time>2026-04-26T14:01:23.974Z</time></trkpt><trkpt lat="45.6233683" lon="9.56257"><ele>176.0</ele><time>2026-04-26T14:01:25.974Z</time></trkpt><trkpt lat="45.6232517" lon="9.562615"><ele>176.0</ele><time>2026-04-26T14:01:27.975Z</time></trkpt><trkpt lat="45.62313" lon="9.5626683"><ele>176.0</ele><time>2026-04-26T14:01:29.975Z</time></trkpt><trkpt lat="45.6230217" lon="9.56272"><ele>176.0</ele><time>2026-04-26T14:01:31.974Z</time></trkpt><trkpt lat="45.622915" lon="9.5627633"><ele>176.0</ele><time>2026-04-26T14:01:33.974Z</time></trkpt><trkpt lat="45.6228133" lon="9.5628067"><ele>176.0</ele><time>2026-04-26T14:01:35.974Z</time></trkpt><trkpt lat="45.6227117" lon="9.562855"><ele>176.0</ele><time>2026-04-26T14:01:37.974Z</time></trkpt><trkpt lat="45.6226133" lon="9.5628933"><ele>176.0</ele><time>2026-04-26T14:01:39.974Z</time></trkpt><trkpt lat="45.6225183" lon="9.5629483"><ele>176.0</ele><time>2026-04-26T14:01:41.974Z</time></trkpt><trkpt lat="45.6224133" lon="9.5629967"><ele>176.0</ele><time>2026-04-26T14:01:43.974Z</time></trkpt><trkpt lat="45.6223217" lon="9.5630517"><ele>176.0</ele><time>2026-04-26T14:01:45.974Z</time></trkpt><trkpt lat="45.6222217" lon="9.563095"><ele>176.0</ele><time>2026-04-26T14:01:47.974Z</time></trkpt><trkpt lat="45.6221083" lon="9.563095"><ele>176.0</ele><time>2026-04-26T14:01:49.974Z</time></trkpt><trkpt lat="45.6219917" lon="9.56307"><ele>176.0</ele><time>2026-04-26T14:01:51.974Z</time></trkpt><trkpt lat="45.6218783" lon="9.56304"><ele>176.4</ele><time>2026-04-26T14:01:53.974Z</time></trkpt><trkpt lat="45.621775" lon="9.5630017"><ele>176.8</ele><time>2026-04-26T14:01:55.974Z</time></trkpt><trkpt lat="45.621675" lon="9.5629683"><ele>177.20000000000002</ele><time>2026-04-26T14:01:57.974Z</time></trkpt><trkpt lat="45.6215667" lon="9.5629433"><ele>177.60000000000002</ele><time>2026-04-26T14:01:59.974Z</time></trkpt><trkpt lat="45.6214567" lon="9.5629183"><ele>178.0</ele><time>2026-04-26T14:02:01.974Z</time></trkpt><trkpt lat="45.6213467" lon="9.56288"><ele>177.60000000000002</ele><time>2026-04-26T14:02:03.974Z</time></trkpt><trkpt lat="45.6212467" lon="9.5628467"><ele>177.20000000000002</ele><time>2026-04-26T14:02:05.974Z</time></trkpt><trkpt lat="45.6211333" lon="9.5628083"><ele>176.8</ele><time>2026-04-26T14:02:07.974Z</time></trkpt><trkpt lat="45.62102" lon="9.5627733"><ele>176.4</ele><time>2026-04-26T14:02:09.974Z</time></trkpt><trkpt lat="45.6209517" lon="9.562745"><ele>176.0</ele><time>2026-04-26T14:02:10.974Z</time></trkpt><trkpt lat="45.620835" lon="9.56268"><ele>176.0</ele><time>2026-04-26T14:02:12.974Z</time></trkpt><trkpt lat="45.620725" lon="9.5626233"><ele>176.0</ele><time>2026-04-26T14:02:14.974Z</time></trkpt><trkpt lat="45.6206167" lon="9.562575"><ele>176.0</ele><time>2026-04-26T14:02:16.974Z</time></trkpt><trkpt lat="45.6205533" lon="9.5625533"><ele>176.0</ele><time>2026-04-26T14:02:17.974Z</time></trkpt><trkpt lat="45.6204883" lon="9.56252"><ele>176.0</ele><time>2026-04-26T14:02:18.974Z</time></trkpt><trkpt lat="45.6204183" lon="9.562485"><ele>176.0</ele><time>2026-04-26T14:02:19.974Z</time></trkpt><trkpt lat="45.62035" lon="9.5624533"><ele>176.28571428571428</ele><time>2026-04-26T14:02:20.974Z</time></trkpt><trkpt lat="45.6202817" lon="9.5624317"><ele>176.57142857142856</ele><time>2026-04-26T14:02:21.974Z</time></trkpt><trkpt lat="45.6202133" lon="9.5624133"><ele>176.85714285714283</ele><time>2026-04-26T14:02:22.974Z</time></trkpt><trkpt lat="45.6201433" lon="9.5623983"><ele>177.14285714285714</ele><time>2026-04-26T14:02:23.974Z</time></trkpt><trkpt lat="45.62008" lon="9.56239"><ele>177.42857142857142</ele><time>2026-04-26T14:02:24.974Z</time></trkpt><trkpt lat="45.62001" lon="9.5623783"><ele>177.7142857142857</ele><time>2026-04-26T14:02:25.974Z</time></trkpt><trkpt lat="45.6199417" lon="9.5623667"><ele>178.0</ele><time>2026-04-26T14:02:26.974Z</time></trkpt><trkpt lat="45.6198767" lon="9.56235"><ele>178.0</ele><time>2026-04-26T14:02:27.974Z</time></trkpt><trkpt lat="45.6198117" lon="9.5623383"><ele>178.0</ele><time>2026-04-26T14:02:28.974Z</time></trkpt><trkpt lat="45.6197517" lon="9.56231"><ele>178.0</ele><time>2026-04-26T14:02:29.974Z</time></trkpt><trkpt lat="45.6196917" lon="9.5622767"><ele>178.0</ele><time>2026-04-26T14:02:30.974Z</time></trkpt><trkpt lat="45.61959" lon="9.562185"><ele>178.0</ele><time>2026-04-26T14:02:32.974Z</time></trkpt><trkpt lat="45.6195283" lon="9.5621367"><ele>178.0</ele><time>2026-04-26T14:02:33.974Z</time></trkpt><trkpt lat="45.6194667" lon="9.5621"><ele>178.14285714285714</ele><time>2026-04-26T14:02:34.974Z</time></trkpt><trkpt lat="45.6194083" lon="9.5620517"><ele>178.28571428571428</ele><time>2026-04-26T14:02:35.974Z</time></trkpt><trkpt lat="45.6193533" lon="9.5620067"><ele>178.42857142857144</ele><time>2026-04-26T14:02:36.974Z</time></trkpt><trkpt lat="45.6192933" lon="9.5619617"><ele>178.57142857142856</ele><time>2026-04-26T14:02:37.974Z</time></trkpt><trkpt lat="45.6192283" lon="9.5619133"><ele>178.71428571428572</ele><time>2026-04-26T14:02:38.974Z</time></trkpt><trkpt lat="45.6191667" lon="9.561855"><ele>178.85714285714286</ele><time>2026-04-26T14:02:39.974Z</time></trkpt><trkpt lat="45.619105" lon="9.561805"><ele>179.0</ele><time>2026-04-26T14:02:40.974Z</time></trkpt><trkpt lat="45.61898" lon="9.5617067"><ele>179.0</ele><time>2026-04-26T14:02:42.974Z</time></trkpt><trkpt lat="45.61891" lon="9.5616383"><ele>179.0</ele><time>2026-04-26T14:02:43.974Z</time></trkpt><trkpt lat="45.6188433" lon="9.56158"><ele>179.0</ele><time>2026-04-26T14:02:44.974Z</time></trkpt><trkpt lat="45.6187767" lon="9.5615217"><ele>179.0</ele><time>2026-04-26T14:02:45.974Z</time></trkpt><trkpt lat="45.618715" lon="9.5614733"><ele>179.0</ele><time>2026-04-26T14:02:46.974Z</time></trkpt><trkpt lat="45.6186133" lon="9.5613917"><ele>179.0</ele><time>2026-04-26T14:02:48.974Z</time></trkpt><trkpt lat="45.618515" lon="9.5613"><ele>179.0</ele><time>2026-04-26T14:02:50.975Z</time></trkpt><trkpt lat="45.6184067" lon="9.5612017"><ele>179.0</ele><time>2026-04-26T14:02:52.974Z</time></trkpt><trkpt lat="45.618345" lon="9.5611567"><ele>179.0</ele><time>2026-04-26T14:02:53.974Z</time></trkpt><trkpt lat="45.6182567" lon="9.5610683"><ele>179.0</ele><time>2026-04-26T14:02:55.974Z</time></trkpt><trkpt lat="45.6181783" lon="9.5609933"><ele>179.0</ele><time>2026-04-26T14:02:57.974Z</time></trkpt><trkpt lat="45.618095" lon="9.5609267"><ele>178.2</ele><time>2026-04-26T14:02:59.974Z</time></trkpt><trkpt lat="45.618025" lon="9.5608867"><ele>177.39999999999998</ele><time>2026-04-26T14:03:01.974Z</time></trkpt><trkpt lat="45.6179283" lon="9.56083"><ele>176.6</ele><time>2026-04-26T14:03:03.974Z</time></trkpt><trkpt lat="45.61781" lon="9.5608083"><ele>175.8</ele><time>2026-04-26T14:03:05.974Z</time></trkpt><trkpt lat="45.6176967" lon="9.5607983"><ele>175.0</ele><time>2026-04-26T14:03:07.974Z</time></trkpt><trkpt lat="45.6176233" lon="9.560765"><ele>175.0</ele><time>2026-04-26T14:03:09.974Z</time></trkpt><trkpt lat="45.617555" lon="9.5607167"><ele>175.0</ele><time>2026-04-26T14:03:11.974Z</time></trkpt><trkpt lat="45.61746" lon="9.560645"><ele>175.0</ele><time>2026-04-26T14:03:13.974Z</time></trkpt><trkpt lat="45.617345" lon="9.5605733"><ele>175.0</ele><time>2026-04-26T14:03:15.974Z</time></trkpt><trkpt lat="45.617275" lon="9.560545"><ele>175.0</ele><time>2026-04-26T14:03:16.974Z</time></trkpt><trkpt lat="45.6171617" lon="9.5604983"><ele>175.0</ele><time>2026-04-26T14:03:18.974Z</time></trkpt><trkpt lat="45.6170633" lon="9.5604683"><ele>175.0</ele><time>2026-04-26T14:03:20.974Z</time></trkpt><trkpt lat="45.61696" lon="9.5604383"><ele>175.0</ele><time>2026-04-26T14:03:22.974Z</time></trkpt><trkpt lat="45.616845" lon="9.5604117"><ele>175.0</ele><time>2026-04-26T14:03:24.974Z</time></trkpt><trkpt lat="45.6167683" lon="9.5603817"><ele>175.0</ele><time>2026-04-26T14:03:26.974Z</time></trkpt><trkpt lat="45.6166917" lon="9.56035"><ele>174.14285714285714</ele><time>2026-04-26T14:03:28.974Z</time></trkpt><trkpt lat="45.616615" lon="9.56033"><ele>173.28571428571428</ele><time>2026-04-26T14:03:30.974Z</time></trkpt><trkpt lat="45.6165417" lon="9.5603183"><ele>172.42857142857144</ele><time>2026-04-26T14:03:32.974Z</time></trkpt><trkpt lat="45.6164733" lon="9.56031"><ele>171.57142857142856</ele><time>2026-04-26T14:03:35.974Z</time></trkpt><trkpt lat="45.6163883" lon="9.560305"><ele>170.71428571428572</ele><time>2026-04-26T14:03:40.974Z</time></trkpt><trkpt lat="45.616325" lon="9.5602983"><ele>169.85714285714286</ele><time>2026-04-26T14:03:42.974Z</time></trkpt><trkpt lat="45.616255" lon="9.5602583"><ele>169.0</ele><time>2026-04-26T14:03:44.974Z</time></trkpt><trkpt lat="45.6161783" lon="9.5602"><ele>169.39999999999998</ele><time>2026-04-26T14:03:46.974Z</time></trkpt><trkpt lat="45.6160783" lon="9.560155"><ele>169.8</ele><time>2026-04-26T14:03:48.974Z</time></trkpt><trkpt lat="45.6159767" lon="9.5601017"><ele>170.2</ele><time>2026-04-26T14:03:50.974Z</time></trkpt><trkpt lat="45.6158917" lon="9.560055"><ele>170.60000000000002</ele><time>2026-04-26T14:03:52.974Z</time></trkpt><trkpt lat="45.615815" lon="9.5599967"><ele>171.0</ele><time>2026-04-26T14:03:54.974Z</time></trkpt><trkpt lat="45.615745" lon="9.5599417"><ele>171.0</ele><time>2026-04-26T14:03:56.974Z</time></trkpt><trkpt lat="45.6156883" lon="9.5599"><ele>171.0</ele><time>2026-04-26T14:03:58.974Z</time></trkpt><trkpt lat="45.6156017" lon="9.559935"><ele>171.0</ele><time>2026-04-26T14:04:03.974Z</time></trkpt><trkpt lat="45.6155183" lon="9.56001"><ele>171.0</ele><time>2026-04-26T14:04:06.974Z</time></trkpt><trkpt lat="45.61542" lon="9.559985"><ele>171.0</ele><time>2026-04-26T14:04:07.974Z</time></trkpt><trkpt lat="45.6153333" lon="9.5600283"><ele>171.0</ele><time>2026-04-26T14:04:08.974Z</time></trkpt><trkpt lat="45.6152167" lon="9.56007"><ele>170.83333333333334</ele><time>2026-04-26T14:04:09.974Z</time></trkpt><trkpt lat="45.6151217" lon="9.5601317"><ele>170.66666666666666</ele><time>2026-04-26T14:04:10.974Z</time></trkpt><trkpt lat="45.6150567" lon="9.5601833"><ele>170.5</ele><time>2026-04-26T14:04:11.974Z</time></trkpt><trkpt lat="45.61498" lon="9.5602367"><ele>170.33333333333331</ele><time>2026-04-26T14:04:13.974Z</time></trkpt><trkpt lat="45.61492" lon="9.5603333"><ele>170.16666666666666</ele><time>2026-04-26T14:04:15.974Z</time></trkpt><trkpt lat="45.61487" lon="9.5604233"><ele>170.0</ele><time>2026-04-26T14:04:17.974Z</time></trkpt><trkpt lat="45.6148033" lon="9.5604817"><ele>170.0</ele><time>2026-04-26T14:04:20.973Z</time></trkpt><trkpt lat="45.61474" lon="9.5604733"><ele>170.0</ele><time>2026-04-26T14:04:22.973Z</time></trkpt><trkpt lat="45.6146367" lon="9.5604267"><ele>170.0</ele><time>2026-04-26T14:04:24.973Z</time></trkpt><trkpt lat="45.6145183" lon="9.5603933"><ele>170.0</ele><time>2026-04-26T14:04:26.973Z</time></trkpt><trkpt lat="45.6144517" lon="9.5603933"><ele>170.0</ele><time>2026-04-26T14:04:27.973Z</time></trkpt><trkpt lat="45.6143833" lon="9.560405"><ele>170.0</ele><time>2026-04-26T14:04:28.973Z</time></trkpt><trkpt lat="45.614315" lon="9.5604217"><ele>169.83333333333331</ele><time>2026-04-26T14:04:29.973Z</time></trkpt><trkpt lat="45.6142367" lon="9.5604517"><ele>169.66666666666666</ele><time>2026-04-26T14:04:30.974Z</time></trkpt><trkpt lat="45.614155" lon="9.5604783"><ele>169.5</ele><time>2026-04-26T14:04:31.973Z</time></trkpt><trkpt lat="45.61407" lon="9.56051"><ele>169.33333333333334</ele><time>2026-04-26T14:04:32.973Z</time></trkpt><trkpt lat="45.6139867" lon="9.5605233"><ele>169.16666666666669</ele><time>2026-04-26T14:04:33.973Z</time></trkpt><trkpt lat="45.6139167" lon="9.560535"><ele>169.0</ele><time>2026-04-26T14:04:34.973Z</time></trkpt><trkpt lat="45.6138033" lon="9.5605517"><ele>169.0</ele><time>2026-04-26T14:04:36.973Z</time></trkpt><trkpt lat="45.6136983" lon="9.560585"><ele>169.0</ele><time>2026-04-26T14:04:38.973Z</time></trkpt><trkpt lat="45.6135733" lon="9.5606417"><ele>169.0</ele><time>2026-04-26T14:04:40.973Z</time></trkpt><trkpt lat="45.6135" lon="9.560685"><ele>169.0</ele><time>2026-04-26T14:04:41.973Z</time></trkpt><trkpt lat="45.613425" lon="9.56073"><ele>169.0</ele><time>2026-04-26T14:04:42.973Z</time></trkpt><trkpt lat="45.6133517" lon="9.5607783"><ele>168.83333333333334</ele><time>2026-04-26T14:04:43.974Z</time></trkpt><trkpt lat="45.6132733" lon="9.560825"><ele>168.66666666666669</ele><time>2026-04-26T14:04:44.973Z</time></trkpt><trkpt lat="45.6131983" lon="9.5608733"><ele>168.5</ele><time>2026-04-26T14:04:45.973Z</time></trkpt><trkpt lat="45.6131217" lon="9.5609217"><ele>168.33333333333334</ele><time>2026-04-26T14:04:46.973Z</time></trkpt><trkpt lat="45.6130467" lon="9.5609733"><ele>168.16666666666666</ele><time>2026-04-26T14:04:47.973Z</time></trkpt><trkpt lat="45.61297" lon="9.5610233"><ele>168.0</ele><time>2026-04-26T14:04:48.973Z</time></trkpt><trkpt lat="45.612895" lon="9.5610667"><ele>168.0</ele><time>2026-04-26T14:04:49.973Z</time></trkpt><trkpt lat="45.6128233" lon="9.5611117"><ele>168.0</ele><time>2026-04-26T14:04:50.973Z</time></trkpt><trkpt lat="45.6127533" lon="9.5611633"><ele>168.0</ele><time>2026-04-26T14:04:51.973Z</time></trkpt><trkpt lat="45.6126817" lon="9.5612167"><ele>168.0</ele><time>2026-04-26T14:04:52.973Z</time></trkpt><trkpt lat="45.61261" lon="9.5612683"><ele>168.0</ele><time>2026-04-26T14:04:53.973Z</time></trkpt><trkpt lat="45.6125433" lon="9.5613083"><ele>168.0</ele><time>2026-04-26T14:04:54.973Z</time></trkpt><trkpt lat="45.61247" lon="9.5613533"><ele>168.14285714285714</ele><time>2026-04-26T14:04:55.973Z</time></trkpt><trkpt lat="45.6124083" lon="9.5613983"><ele>168.28571428571428</ele><time>2026-04-26T14:04:56.973Z</time></trkpt><trkpt lat="45.6123467" lon="9.5614483"><ele>168.42857142857144</ele><time>2026-04-26T14:04:57.973Z</time></trkpt><trkpt lat="45.612275" lon="9.561505"><ele>168.57142857142856</ele><time>2026-04-26T14:04:58.973Z</time></trkpt><trkpt lat="45.6122033" lon="9.561555"><ele>168.71428571428572</ele><time>2026-04-26T14:04:59.973Z</time></trkpt><trkpt lat="45.6121417" lon="9.561605"><ele>168.85714285714286</ele><time>2026-04-26T14:05:00.973Z</time></trkpt><trkpt lat="45.6120883" lon="9.561655"><ele>169.0</ele><time>2026-04-26T14:05:01.973Z</time></trkpt><trkpt lat="45.6119683" lon="9.5617167"><ele>167.33333333333334</ele><time>2026-04-26T14:05:03.973Z</time></trkpt><trkpt lat="45.6119" lon="9.5617367"><ele>165.66666666666669</ele><time>2026-04-26T14:05:04.973Z</time></trkpt><trkpt lat="45.6118283" lon="9.5617417"><ele>164.0</ele><time>2026-04-26T14:05:05.973Z</time></trkpt><trkpt lat="45.6117433" lon="9.5617633"><ele>162.33333333333334</ele><time>2026-04-26T14:05:06.973Z</time></trkpt><trkpt lat="45.6116733" lon="9.5617867"><ele>160.66666666666666</ele><time>2026-04-26T14:05:07.973Z</time></trkpt><trkpt lat="45.6115517" lon="9.5618167"><ele>159.0</ele><time>2026-04-26T14:05:09.973Z</time></trkpt><trkpt lat="45.6114883" lon="9.5618333"><ele>159.0</ele><time>2026-04-26T14:05:10.973Z</time></trkpt><trkpt lat="45.611425" lon="9.5618567"><ele>159.0</ele><time>2026-04-26T14:05:11.973Z</time></trkpt><trkpt lat="45.6113583" lon="9.5618983"><ele>159.0</ele><time>2026-04-26T14:05:12.973Z</time></trkpt><trkpt lat="45.6112917" lon="9.561955"><ele>159.0</ele><time>2026-04-26T14:05:13.973Z</time></trkpt><trkpt lat="45.61123" lon="9.56201"><ele>159.0</ele><time>2026-04-26T14:05:14.973Z</time></trkpt><trkpt lat="45.6111517" lon="9.5620417"><ele>159.0</ele><time>2026-04-26T14:05:15.973Z</time></trkpt><trkpt lat="45.6110683" lon="9.56209"><ele>159.66666666666666</ele><time>2026-04-26T14:05:16.973Z</time></trkpt><trkpt lat="45.6109917" lon="9.56214"><ele>160.33333333333334</ele><time>2026-04-26T14:05:17.973Z</time></trkpt><trkpt lat="45.6109117" lon="9.5621933"><ele>161.0</ele><time>2026-04-26T14:05:18.973Z</time></trkpt><trkpt lat="45.6108517" lon="9.5622467"><ele>161.66666666666669</ele><time>2026-04-26T14:05:19.973Z</time></trkpt><trkpt lat="45.6107867" lon="9.5622983"><ele>162.33333333333334</ele><time>2026-04-26T14:05:20.973Z</time></trkpt><trkpt lat="45.6107167" lon="9.5623433"><ele>163.0</ele><time>2026-04-26T14:05:21.973Z</time></trkpt><trkpt lat="45.6106483" lon="9.56238"><ele>163.0</ele><time>2026-04-26T14:05:22.973Z</time></trkpt><trkpt lat="45.6105833" lon="9.562415"><ele>163.0</ele><time>2026-04-26T14:05:23.973Z</time></trkpt><trkpt lat="45.6105183" lon="9.5624417"><ele>163.0</ele><time>2026-04-26T14:05:24.973Z</time></trkpt><trkpt lat="45.6104467" lon="9.5624583"><ele>163.0</ele><time>2026-04-26T14:05:25.973Z</time></trkpt><trkpt lat="45.6103683" lon="9.56246"><ele>163.0</ele><time>2026-04-26T14:05:26.973Z</time></trkpt><trkpt lat="45.610285" lon="9.562465"><ele>163.0</ele><time>2026-04-26T14:05:27.973Z</time></trkpt><trkpt lat="45.6102133" lon="9.562465"><ele>163.0</ele><time>2026-04-26T14:05:28.973Z</time></trkpt><trkpt lat="45.6101417" lon="9.5624683"><ele>162.8</ele><time>2026-04-26T14:05:29.973Z</time></trkpt><trkpt lat="45.6100783" lon="9.5624767"><ele>162.60000000000002</ele><time>2026-04-26T14:05:30.973Z</time></trkpt><trkpt lat="45.6099583" lon="9.562505"><ele>162.39999999999998</ele><time>2026-04-26T14:05:32.973Z</time></trkpt><trkpt lat="45.60986" lon="9.5625633"><ele>162.2</ele><time>2026-04-26T14:05:34.973Z</time></trkpt><trkpt lat="45.6097717" lon="9.56266"><ele>162.0</ele><time>2026-04-26T14:05:36.973Z</time></trkpt><trkpt lat="45.609705" lon="9.562735"><ele>162.0</ele><time>2026-04-26T14:05:38.973Z</time></trkpt><trkpt lat="45.6096233" lon="9.5628367"><ele>162.0</ele><time>2026-04-26T14:06:00.973Z</time></trkpt><trkpt lat="45.6095567" lon="9.5629083"><ele>162.0</ele><time>2026-04-26T14:06:02.973Z</time></trkpt><trkpt lat="45.6094833" lon="9.5629483"><ele>162.0</ele><time>2026-04-26T14:06:05.973Z</time></trkpt><trkpt lat="45.609415" lon="9.5629683"><ele>162.0</ele><time>2026-04-26T14:06:08.973Z</time></trkpt><trkpt lat="45.6093367" lon="9.562985"><ele>162.0</ele><time>2026-04-26T14:06:11.973Z</time></trkpt><trkpt lat="45.60926" lon="9.56299"><ele>161.8</ele><time>2026-04-26T14:06:15.973Z</time></trkpt><trkpt lat="45.6091567" lon="9.56296"><ele>161.6</ele><time>2026-04-26T14:06:18.973Z</time></trkpt><trkpt lat="45.609075" lon="9.5629267"><ele>161.4</ele><time>2026-04-26T14:06:20.973Z</time></trkpt><trkpt lat="45.6089917" lon="9.562895"><ele>161.20000000000002</ele><time>2026-04-26T14:06:22.973Z</time></trkpt><trkpt lat="45.6088817" lon="9.5628617"><ele>161.0</ele><time>2026-04-26T14:06:24.973Z</time></trkpt><trkpt lat="45.6087633" lon="9.5628533"><ele>161.0</ele><time>2026-04-26T14:06:26.973Z</time></trkpt><trkpt lat="45.6086517" lon="9.56287"><ele>161.0</ele><time>2026-04-26T14:06:28.973Z</time></trkpt><trkpt lat="45.6085583" lon="9.5628817"><ele>161.0</ele><time>2026-04-26T14:06:30.973Z</time></trkpt><trkpt lat="45.6084317" lon="9.56286"><ele>161.0</ele><time>2026-04-26T14:06:32.973Z</time></trkpt><trkpt lat="45.6083533" lon="9.562855"><ele>161.0</ele><time>2026-04-26T14:06:33.973Z</time></trkpt><trkpt lat="45.6082733" lon="9.562845"><ele>161.0</ele><time>2026-04-26T14:06:34.973Z</time></trkpt><trkpt lat="45.6081917" lon="9.5628283"><ele>161.0</ele><time>2026-04-26T14:06:35.973Z</time></trkpt><trkpt lat="45.6081067" lon="9.562815"><ele>161.0</ele><time>2026-04-26T14:06:36.973Z</time></trkpt><trkpt lat="45.6080267" lon="9.56279"><ele>161.0</ele><time>2026-04-26T14:06:37.973Z</time></trkpt><trkpt lat="45.6079517" lon="9.5627767"><ele>161.0</ele><time>2026-04-26T14:06:38.973Z</time></trkpt><trkpt lat="45.607875" lon="9.56278"><ele>161.0</ele><time>2026-04-26T14:06:39.973Z</time></trkpt><trkpt lat="45.6078067" lon="9.56278"><ele>161.16666666666666</ele><time>2026-04-26T14:06:40.973Z</time></trkpt><trkpt lat="45.60769" lon="9.5627783"><ele>161.33333333333331</ele><time>2026-04-26T14:06:42.973Z</time></trkpt><trkpt lat="45.6076217" lon="9.5627817"><ele>161.5</ele><time>2026-04-26T14:06:43.973Z</time></trkpt><trkpt lat="45.6075467" lon="9.5627883"><ele>161.66666666666666</ele><time>2026-04-26T14:06:44.973Z</time></trkpt><trkpt lat="45.6074667" lon="9.56279"><ele>161.83333333333334</ele><time>2026-04-26T14:06:45.973Z</time></trkpt><trkpt lat="45.6074" lon="9.5627867"><ele>162.0</ele><time>2026-04-26T14:06:46.974Z</time></trkpt><trkpt lat="45.607335" lon="9.5627783"><ele>162.0</ele><time>2026-04-26T14:06:47.973Z</time></trkpt><trkpt lat="45.60727" lon="9.5627667"><ele>162.0</ele><time>2026-04-26T14:06:48.973Z</time></trkpt><trkpt lat="45.6072083" lon="9.5627483"><ele>162.0</ele><time>2026-04-26T14:06:49.973Z</time></trkpt><trkpt lat="45.6070917" lon="9.5626833"><ele>162.0</ele><time>2026-04-26T14:06:51.973Z</time></trkpt><trkpt lat="45.6069917" lon="9.5626133"><ele>162.0</ele><time>2026-04-26T14:06:53.973Z</time></trkpt><trkpt lat="45.606925" lon="9.56258"><ele>162.0</ele><time>2026-04-26T14:06:55.973Z</time></trkpt><trkpt lat="45.60687" lon="9.5625217"><ele>162.14285714285714</ele><time>2026-04-26T14:06:58.973Z</time></trkpt><trkpt lat="45.606835" lon="9.562385"><ele>162.28571428571428</ele><time>2026-04-26T14:07:00.973Z</time></trkpt><trkpt lat="45.60682" lon="9.5622967"><ele>162.42857142857144</ele><time>2026-04-26T14:07:01.973Z</time></trkpt><trkpt lat="45.6067967" lon="9.56221"><ele>162.57142857142856</ele><time>2026-04-26T14:07:02.973Z</time></trkpt><trkpt lat="45.6067767" lon="9.562115"><ele>162.7142857142857</ele><time>2026-04-26T14:07:03.973Z</time></trkpt><trkpt lat="45.6067533" lon="9.5620167"><ele>162.85714285714286</ele><time>2026-04-26T14:07:04.973Z</time></trkpt><trkpt lat="45.6067267" lon="9.5619167"><ele>163.0</ele><time>2026-04-26T14:07:05.973Z</time></trkpt><trkpt lat="45.6066933" lon="9.5618233"><ele>162.33333333333334</ele><time>2026-04-26T14:07:06.973Z</time></trkpt><trkpt lat="45.6066667" lon="9.56173"><ele>161.66666666666669</ele><time>2026-04-26T14:07:07.973Z</time></trkpt><trkpt lat="45.6066383" lon="9.561635"><ele>161.0</ele><time>2026-04-26T14:07:08.973Z</time></trkpt><trkpt lat="45.6066117" lon="9.5615317"><ele>160.33333333333334</ele><time>2026-04-26T14:07:09.973Z</time></trkpt><trkpt lat="45.6065867" lon="9.5614283"><ele>159.66666666666666</ele><time>2026-04-26T14:07:10.973Z</time></trkpt><trkpt lat="45.606545" lon="9.561325"><ele>159.0</ele><time>2026-04-26T14:07:11.973Z</time></trkpt><trkpt lat="45.60648" lon="9.5612317"><ele>158.2</ele><time>2026-04-26T14:07:12.973Z</time></trkpt><trkpt lat="45.6064133" lon="9.5611483"><ele>157.4</ele><time>2026-04-26T14:07:13.973Z</time></trkpt><trkpt lat="45.606345" lon="9.5610767"><ele>156.6</ele><time>2026-04-26T14:07:14.973Z</time></trkpt><trkpt lat="45.6062667" lon="9.5610067"><ele>155.8</ele><time>2026-04-26T14:07:15.973Z</time></trkpt><trkpt lat="45.6061883" lon="9.5609367"><ele>155.0</ele><time>2026-04-26T14:07:16.973Z</time></trkpt><trkpt lat="45.6061083" lon="9.5608617"><ele>156.33333333333331</ele><time>2026-04-26T14:07:17.973Z</time></trkpt><trkpt lat="45.6060283" lon="9.5607983"><ele>157.66666666666666</ele><time>2026-04-26T14:07:18.973Z</time></trkpt><trkpt lat="45.6059583" lon="9.56073"><ele>159.0</ele><time>2026-04-26T14:07:19.973Z</time></trkpt><trkpt lat="45.605885" lon="9.5606583"><ele>160.33333333333334</ele><time>2026-04-26T14:07:20.973Z</time></trkpt><trkpt lat="45.6058183" lon="9.560595"><ele>161.66666666666669</ele><time>2026-04-26T14:07:21.973Z</time></trkpt><trkpt lat="45.6057567" lon="9.5605483"><ele>163.0</ele><time>2026-04-26T14:07:22.973Z</time></trkpt><trkpt lat="45.60564" lon="9.560465"><ele>163.0</ele><time>2026-04-26T14:07:24.973Z</time></trkpt><trkpt lat="45.6055767" lon="9.560425"><ele>163.0</ele><time>2026-04-26T14:07:25.973Z</time></trkpt><trkpt lat="45.60547" lon="9.560335"><ele>163.0</ele><time>2026-04-26T14:07:27.973Z</time></trkpt><trkpt lat="45.6053983" lon="9.5602717"><ele>163.0</ele><time>2026-04-26T14:07:28.973Z</time></trkpt><trkpt lat="45.6053217" lon="9.5601917"><ele>163.0</ele><time>2026-04-26T14:07:29.973Z</time></trkpt><trkpt lat="45.6052483" lon="9.5601233"><ele>163.14285714285714</ele><time>2026-04-26T14:07:30.973Z</time></trkpt><trkpt lat="45.6051883" lon="9.5600633"><ele>163.28571428571428</ele><time>2026-04-26T14:07:31.973Z</time></trkpt><trkpt lat="45.60513" lon="9.5600067"><ele>163.42857142857142</ele><time>2026-04-26T14:07:32.973Z</time></trkpt><trkpt lat="45.605075" lon="9.55995"><ele>163.57142857142856</ele><time>2026-04-26T14:07:33.973Z</time></trkpt><trkpt lat="45.605015" lon="9.5599067"><ele>163.71428571428572</ele><time>2026-04-26T14:07:34.973Z</time></trkpt><trkpt lat="45.60495" lon="9.5598617"><ele>163.85714285714283</ele><time>2026-04-26T14:07:35.973Z</time></trkpt><trkpt lat="45.6048983" lon="9.5597917"><ele>164.0</ele><time>2026-04-26T14:07:36.973Z</time></trkpt><trkpt lat="45.6048517" lon="9.5597067"><ele>164.0</ele><time>2026-04-26T14:07:37.973Z</time></trkpt><trkpt lat="45.6048017" lon="9.55962"><ele>164.0</ele><time>2026-04-26T14:07:38.973Z</time></trkpt><trkpt lat="45.604745" lon="9.559535"><ele>164.0</ele><time>2026-04-26T14:07:39.973Z</time></trkpt><trkpt lat="45.6046883" lon="9.55945"><ele>164.0</ele><time>2026-04-26T14:07:40.973Z</time></trkpt><trkpt lat="45.6046233" lon="9.559385"><ele>164.0</ele><time>2026-04-26T14:07:41.973Z</time></trkpt><trkpt lat="45.6045517" lon="9.559335"><ele>164.0</ele><time>2026-04-26T14:07:42.973Z</time></trkpt><trkpt lat="45.6044833" lon="9.5593017"><ele>164.0</ele><time>2026-04-26T14:07:43.973Z</time></trkpt><trkpt lat="45.6044167" lon="9.5592683"><ele>164.0</ele><time>2026-04-26T14:07:44.973Z</time></trkpt><trkpt lat="45.604325" lon="9.5592117"><ele>164.0</ele><time>2026-04-26T14:07:46.973Z</time></trkpt><trkpt lat="45.604255" lon="9.559235"><ele>164.0</ele><time>2026-04-26T14:07:48.973Z</time></trkpt><trkpt lat="45.6042" lon="9.5593917"><ele>164.0</ele><time>2026-04-26T14:07:50.973Z</time></trkpt><trkpt lat="45.60419" lon="9.5595033"><ele>164.0</ele><time>2026-04-26T14:07:51.973Z</time></trkpt><trkpt lat="45.6041883" lon="9.5596267"><ele>164.0</ele><time>2026-04-26T14:07:52.973Z</time></trkpt><trkpt lat="45.6041867" lon="9.5597617"><ele>164.0</ele><time>2026-04-26T14:07:53.973Z</time></trkpt><trkpt lat="45.6041867" lon="9.55988"><ele>164.0</ele><time>2026-04-26T14:07:54.973Z</time></trkpt><trkpt lat="45.6041933" lon="9.55998"><ele>164.0</ele><time>2026-04-26T14:07:55.973Z</time></trkpt><trkpt lat="45.6041967" lon="9.560125"><ele>164.0</ele><time>2026-04-26T14:07:57.973Z</time></trkpt><trkpt lat="45.6041667" lon="9.5602283"><ele>164.0</ele><time>2026-04-26T14:07:59.974Z</time></trkpt><trkpt lat="45.604075" lon="9.5602233"><ele>164.0</ele><time>2026-04-26T14:08:01.973Z</time></trkpt><trkpt lat="45.6039733" lon="9.5601733"><ele>164.0</ele><time>2026-04-26T14:08:03.973Z</time></trkpt><trkpt lat="45.6039117" lon="9.5601483"><ele>164.0</ele><time>2026-04-26T14:08:04.973Z</time></trkpt><trkpt lat="45.6038367" lon="9.56011"><ele>164.0</ele><time>2026-04-26T14:08:05.973Z</time></trkpt><trkpt lat="45.6037617" lon="9.5600717"><ele>164.0</ele><time>2026-04-26T14:08:06.973Z</time></trkpt><trkpt lat="45.6036833" lon="9.5600317"><ele>164.0</ele><time>2026-04-26T14:08:07.973Z</time></trkpt><trkpt lat="45.6036017" lon="9.5600033"><ele>163.6</ele><time>2026-04-26T14:08:08.973Z</time></trkpt><trkpt lat="45.60353" lon="9.5599717"><ele>163.2</ele><time>2026-04-26T14:08:09.973Z</time></trkpt><trkpt lat="45.6034283" lon="9.5599267"><ele>162.79999999999998</ele><time>2026-04-26T14:08:11.973Z</time></trkpt><trkpt lat="45.6033567" lon="9.5599017"><ele>162.39999999999998</ele><time>2026-04-26T14:08:14.973Z</time></trkpt><trkpt lat="45.6032883" lon="9.55986"><ele>162.0</ele><time>2026-04-26T14:08:16.973Z</time></trkpt><trkpt lat="45.6031717" lon="9.5598017"><ele>162.0</ele><time>2026-04-26T14:08:18.973Z</time></trkpt><trkpt lat="45.6030667" lon="9.5597517"><ele>162.0</ele><time>2026-04-26T14:08:20.973Z</time></trkpt><trkpt lat="45.60295" lon="9.55972"><ele>162.0</ele><time>2026-04-26T14:08:22.973Z</time></trkpt><trkpt lat="45.6028733" lon="9.55969"><ele>162.0</ele><time>2026-04-26T14:08:23.973Z</time></trkpt><trkpt lat="45.60279" lon="9.5596567"><ele>162.0</ele><time>2026-04-26T14:08:24.973Z</time></trkpt><trkpt lat="45.6027017" lon="9.559605"><ele>162.0</ele><time>2026-04-26T14:08:25.974Z</time></trkpt><trkpt lat="45.6026083" lon="9.5595617"><ele>162.0</ele><time>2026-04-26T14:08:26.973Z</time></trkpt><trkpt lat="45.6025167" lon="9.5595183"><ele>162.0</ele><time>2026-04-26T14:08:27.973Z</time></trkpt><trkpt lat="45.6024267" lon="9.55948"><ele>162.0</ele><time>2026-04-26T14:08:28.973Z</time></trkpt><trkpt lat="45.6023283" lon="9.5594383"><ele>162.0</ele><time>2026-04-26T14:08:29.973Z</time></trkpt><trkpt lat="45.602235" lon="9.559395"><ele>161.75</ele><time>2026-04-26T14:08:30.973Z</time></trkpt><trkpt lat="45.60212" lon="9.5593467"><ele>161.5</ele><time>2026-04-26T14:08:31.973Z</time></trkpt><trkpt lat="45.6020033" lon="9.55928"><ele>161.25</ele><time>2026-04-26T14:08:32.973Z</time></trkpt><trkpt lat="45.6018883" lon="9.5592"><ele>161.0</ele><time>2026-04-26T14:08:33.973Z</time></trkpt><trkpt lat="45.601765" lon="9.5591383"><ele>161.0</ele><time>2026-04-26T14:08:34.973Z</time></trkpt><trkpt lat="45.6016517" lon="9.5590733"><ele>161.0</ele><time>2026-04-26T14:08:35.973Z</time></trkpt><trkpt lat="45.601535" lon="9.559005"><ele>161.0</ele><time>2026-04-26T14:08:36.973Z</time></trkpt><trkpt lat="45.60142" lon="9.5589517"><ele>161.0</ele><time>2026-04-26T14:08:37.973Z</time></trkpt><trkpt lat="45.60131" lon="9.5588833"><ele>161.0</ele><time>2026-04-26T14:08:38.973Z</time></trkpt><trkpt lat="45.6011983" lon="9.558835"><ele>161.0</ele><time>2026-04-26T14:08:39.972Z</time></trkpt><trkpt lat="45.601085" lon="9.5587933"><ele>161.0</ele><time>2026-04-26T14:08:40.972Z</time></trkpt><trkpt lat="45.6009783" lon="9.558765"><ele>161.0</ele><time>2026-04-26T14:08:41.972Z</time></trkpt><trkpt lat="45.6008767" lon="9.5587383"><ele>161.0</ele><time>2026-04-26T14:08:42.972Z</time></trkpt><trkpt lat="45.6007767" lon="9.5587117"><ele>160.75</ele><time>2026-04-26T14:08:43.972Z</time></trkpt><trkpt lat="45.6006683" lon="9.558695"><ele>160.5</ele><time>2026-04-26T14:08:44.973Z</time></trkpt><trkpt lat="45.6005517" lon="9.5586933"><ele>160.25</ele><time>2026-04-26T14:08:45.972Z</time></trkpt><trkpt lat="45.6004367" lon="9.5587083"><ele>160.0</ele><time>2026-04-26T14:08:46.972Z</time></trkpt><trkpt lat="45.6003283" lon="9.558725"><ele>160.0</ele><time>2026-04-26T14:08:47.972Z</time></trkpt><trkpt lat="45.60023" lon="9.55875"><ele>160.0</ele><time>2026-04-26T14:08:48.972Z</time></trkpt><trkpt lat="45.6001417" lon="9.5587767"><ele>160.0</ele><time>2026-04-26T14:08:49.972Z</time></trkpt><trkpt lat="45.600075" lon="9.5588117"><ele>160.0</ele><time>2026-04-26T14:08:50.972Z</time></trkpt><trkpt lat="45.5999817" lon="9.5588483"><ele>160.0</ele><time>2026-04-26T14:08:52.972Z</time></trkpt><trkpt lat="45.5999217" lon="9.5587867"><ele>160.0</ele><time>2026-04-26T14:08:54.972Z</time></trkpt><trkpt lat="45.59992" lon="9.5586133"><ele>159.8</ele><time>2026-04-26T14:08:56.972Z</time></trkpt><trkpt lat="45.5999317" lon="9.558485"><ele>159.6</ele><time>2026-04-26T14:08:57.972Z</time></trkpt><trkpt lat="45.5999483" lon="9.55834"><ele>159.4</ele><time>2026-04-26T14:08:58.972Z</time></trkpt><trkpt lat="45.5999633" lon="9.5581883"><ele>159.2</ele><time>2026-04-26T14:08:59.972Z</time></trkpt><trkpt lat="45.599975" lon="9.5580433"><ele>159.0</ele><time>2026-04-26T14:09:00.972Z</time></trkpt><trkpt lat="45.5999917" lon="9.5579167"><ele>158.2</ele><time>2026-04-26T14:09:01.972Z</time></trkpt><trkpt lat="45.6000033" lon="9.5578083"><ele>157.4</ele><time>2026-04-26T14:09:02.972Z</time></trkpt><trkpt lat="45.6000233" lon="9.5576717"><ele>156.6</ele><time>2026-04-26T14:09:04.972Z</time></trkpt><trkpt lat="45.60003" lon="9.5575767"><ele>155.8</ele><time>2026-04-26T14:09:07.972Z</time></trkpt><trkpt lat="45.599965" lon="9.55751"><ele>155.0</ele><time>2026-04-26T14:09:09.972Z</time></trkpt><trkpt lat="45.5998367" lon="9.5574733"><ele>155.0</ele><time>2026-04-26T14:09:11.972Z</time></trkpt><trkpt lat="45.5997467" lon="9.5574533"><ele>155.0</ele><time>2026-04-26T14:09:12.972Z</time></trkpt><trkpt lat="45.5996433" lon="9.5574267"><ele>155.0</ele><time>2026-04-26T14:09:13.972Z</time></trkpt><trkpt lat="45.5995317" lon="9.5574017"><ele>155.0</ele><time>2026-04-26T14:09:14.972Z</time></trkpt><trkpt lat="45.59941" lon="9.5573867"><ele>155.0</ele><time>2026-04-26T14:09:15.972Z</time></trkpt><trkpt lat="45.5992867" lon="9.5573783"><ele>153.5</ele><time>2026-04-26T14:09:16.972Z</time></trkpt><trkpt lat="45.5991617" lon="9.5573733"><ele>152.0</ele><time>2026-04-26T14:09:17.972Z</time></trkpt><trkpt lat="45.599015" lon="9.5573717"><ele>150.5</ele><time>2026-04-26T14:09:18.972Z</time></trkpt><trkpt lat="45.5988583" lon="9.5573767"><ele>149.0</ele><time>2026-04-26T14:09:19.972Z</time></trkpt><trkpt lat="45.5987033" lon="9.5573767"><ele>149.0</ele><time>2026-04-26T14:09:20.972Z</time></trkpt><trkpt lat="45.5985567" lon="9.557375"><ele>149.0</ele><time>2026-04-26T14:09:21.972Z</time></trkpt><trkpt lat="45.5984283" lon="9.5573717"><ele>149.0</ele><time>2026-04-26T14:09:22.972Z</time></trkpt><trkpt lat="45.5983017" lon="9.5573667"><ele>149.0</ele><time>2026-04-26T14:09:23.972Z</time></trkpt><trkpt lat="45.5981817" lon="9.5573633"><ele>149.0</ele><time>2026-04-26T14:09:24.972Z</time></trkpt><trkpt lat="45.598065" lon="9.557375"><ele>149.0</ele><time>2026-04-26T14:09:25.972Z</time></trkpt><trkpt lat="45.5979483" lon="9.55739"><ele>149.0</ele><time>2026-04-26T14:09:26.972Z</time></trkpt><trkpt lat="45.59782" lon="9.5574117"><ele>149.0</ele><time>2026-04-26T14:09:27.972Z</time></trkpt><trkpt lat="45.597685" lon="9.5574483"><ele>149.0</ele><time>2026-04-26T14:09:28.972Z</time></trkpt><trkpt lat="45.597545" lon="9.5574933"><ele>149.0</ele><time>2026-04-26T14:09:29.972Z</time></trkpt><trkpt lat="45.5973983" lon="9.557545"><ele>149.0</ele><time>2026-04-26T14:09:30.972Z</time></trkpt><trkpt lat="45.5972433" lon="9.5575917"><ele>149.0</ele><time>2026-04-26T14:09:31.972Z</time></trkpt><trkpt lat="45.597095" lon="9.5576383"><ele>149.0</ele><time>2026-04-26T14:09:32.972Z</time></trkpt><trkpt lat="45.5969483" lon="9.5576817"><ele>149.0</ele><time>2026-04-26T14:09:33.972Z</time></trkpt><trkpt lat="45.59682" lon="9.5577267"><ele>149.0</ele><time>2026-04-26T14:09:34.972Z</time></trkpt><trkpt lat="45.5966983" lon="9.5577617"><ele>148.75</ele><time>2026-04-26T14:09:35.972Z</time></trkpt><trkpt lat="45.59658" lon="9.557795"><ele>148.5</ele><time>2026-04-26T14:09:36.972Z</time></trkpt><trkpt lat="45.5964617" lon="9.5578367"><ele>148.25</ele><time>2026-04-26T14:09:37.972Z</time></trkpt><trkpt lat="45.596335" lon="9.5579017"><ele>148.0</ele><time>2026-04-26T14:09:38.972Z</time></trkpt><trkpt lat="45.5961933" lon="9.5579617"><ele>147.0</ele><time>2026-04-26T14:09:39.972Z</time></trkpt><trkpt lat="45.59603" lon="9.5580267"><ele>146.0</ele><time>2026-04-26T14:09:40.972Z</time></trkpt><trkpt lat="45.5958617" lon="9.558095"><ele>145.0</ele><time>2026-04-26T14:09:41.972Z</time></trkpt><trkpt lat="45.595695" lon="9.5581667"><ele>145.0</ele><time>2026-04-26T14:09:42.972Z</time></trkpt><trkpt lat="45.5955383" lon="9.558235"><ele>145.0</ele><time>2026-04-26T14:09:43.972Z</time></trkpt><trkpt lat="45.5953917" lon="9.5582883"><ele>145.0</ele><time>2026-04-26T14:09:44.972Z</time></trkpt><trkpt lat="45.595265" lon="9.5583417"><ele>145.0</ele><time>2026-04-26T14:09:45.972Z</time></trkpt><trkpt lat="45.5951583" lon="9.55838"><ele>144.6</ele><time>2026-04-26T14:09:46.972Z</time></trkpt><trkpt lat="45.5950667" lon="9.5584183"><ele>144.2</ele><time>2026-04-26T14:09:47.972Z</time></trkpt><trkpt lat="45.594985" lon="9.5584233"><ele>143.8</ele><time>2026-04-26T14:09:48.972Z</time></trkpt><trkpt lat="45.5949067" lon="9.5584067"><ele>143.4</ele><time>2026-04-26T14:09:49.972Z</time></trkpt><trkpt lat="45.5948283" lon="9.5583483"><ele>143.0</ele><time>2026-04-26T14:09:50.972Z</time></trkpt><trkpt lat="45.594735" lon="9.558265"><ele>143.0</ele><time>2026-04-26T14:09:51.972Z</time></trkpt><trkpt lat="45.59462" lon="9.558195"><ele>143.0</ele><time>2026-04-26T14:09:52.972Z</time></trkpt><trkpt lat="45.5945133" lon="9.558135"><ele>143.0</ele><time>2026-04-26T14:09:53.972Z</time></trkpt><trkpt lat="45.5944033" lon="9.55807"><ele>143.0</ele><time>2026-04-26T14:09:54.972Z</time></trkpt><trkpt lat="45.5942883" lon="9.5579967"><ele>143.0</ele><time>2026-04-26T14:09:55.972Z</time></trkpt><trkpt lat="45.59417" lon="9.5579267"><ele>143.0</ele><time>2026-04-26T14:09:56.972Z</time></trkpt><trkpt lat="45.59405" lon="9.5578683"><ele>143.0</ele><time>2026-04-26T14:09:57.972Z</time></trkpt><trkpt lat="45.593935" lon="9.5578033"><ele>143.0</ele><time>2026-04-26T14:09:58.972Z</time></trkpt><trkpt lat="45.5938217" lon="9.5577317"><ele>143.0</ele><time>2026-04-26T14:09:59.972Z</time></trkpt><trkpt lat="45.5937067" lon="9.5576617"><ele>143.0</ele><time>2026-04-26T14:10:00.972Z</time></trkpt><trkpt lat="45.5935883" lon="9.5575983"><ele>143.0</ele><time>2026-04-26T14:10:01.972Z</time></trkpt><trkpt lat="45.5934717" lon="9.557535"><ele>143.0</ele><time>2026-04-26T14:10:02.972Z</time></trkpt><trkpt lat="45.593365" lon="9.5574717"><ele>143.6</ele><time>2026-04-26T14:10:03.972Z</time></trkpt><trkpt lat="45.5932633" lon="9.55742"><ele>144.20000000000002</ele><time>2026-04-26T14:10:04.972Z</time></trkpt><trkpt lat="45.593165" lon="9.5573817"><ele>144.8</ele><time>2026-04-26T14:10:05.972Z</time></trkpt><trkpt lat="45.5930767" lon="9.5573383"><ele>145.4</ele><time>2026-04-26T14:10:06.972Z</time></trkpt><trkpt lat="45.5929983" lon="9.557295"><ele>146.0</ele><time>2026-04-26T14:10:07.972Z</time></trkpt><trkpt lat="45.5929233" lon="9.5572433"><ele>146.0</ele><time>2026-04-26T14:10:08.972Z</time></trkpt><trkpt lat="45.5928517" lon="9.5571533"><ele>146.0</ele><time>2026-04-26T14:10:09.972Z</time></trkpt><trkpt lat="45.5927817" lon="9.5570683"><ele>146.0</ele><time>2026-04-26T14:10:10.972Z</time></trkpt><trkpt lat="45.5927067" lon="9.5570017"><ele>146.0</ele><time>2026-04-26T14:10:11.972Z</time></trkpt><trkpt lat="45.5926033" lon="9.5569517"><ele>146.0</ele><time>2026-04-26T14:10:12.972Z</time></trkpt><trkpt lat="45.5924833" lon="9.5569117"><ele>145.5</ele><time>2026-04-26T14:10:13.972Z</time></trkpt><trkpt lat="45.592355" lon="9.5568567"><ele>145.0</ele><time>2026-04-26T14:10:14.972Z</time></trkpt><trkpt lat="45.5922317" lon="9.55681"><ele>144.5</ele><time>2026-04-26T14:10:15.973Z</time></trkpt><trkpt lat="45.5921117" lon="9.556775"><ele>144.0</ele><time>2026-04-26T14:10:16.972Z</time></trkpt><trkpt lat="45.5919867" lon="9.5567483"><ele>143.5</ele><time>2026-04-26T14:10:17.972Z</time></trkpt><trkpt lat="45.5918617" lon="9.55671"><ele>143.0</ele><time>2026-04-26T14:10:18.972Z</time></trkpt><trkpt lat="45.5917333" lon="9.55667"><ele>142.5</ele><time>2026-04-26T14:10:19.972Z</time></trkpt><trkpt lat="45.5916117" lon="9.5566233"><ele>142.0</ele><time>2026-04-26T14:10:20.972Z</time></trkpt><trkpt lat="45.59148" lon="9.5565583"><ele>142.0</ele><time>2026-04-26T14:10:21.972Z</time></trkpt><trkpt lat="45.5913467" lon="9.5565"><ele>142.0</ele><time>2026-04-26T14:10:22.972Z</time></trkpt><trkpt lat="45.5912133" lon="9.5564483"><ele>142.0</ele><time>2026-04-26T14:10:23.972Z</time></trkpt><trkpt lat="45.59108" lon="9.5564133"><ele>142.0</ele><time>2026-04-26T14:10:24.972Z</time></trkpt><trkpt lat="45.590955" lon="9.5563633"><ele>142.0</ele><time>2026-04-26T14:10:25.972Z</time></trkpt><trkpt lat="45.590835" lon="9.55632"><ele>142.0</ele><time>2026-04-26T14:10:26.972Z</time></trkpt><trkpt lat="45.5907217" lon="9.55628"><ele>142.0</ele><time>2026-04-26T14:10:27.972Z</time></trkpt><trkpt lat="45.5906033" lon="9.55624"><ele>142.0</ele><time>2026-04-26T14:10:28.972Z</time></trkpt><trkpt lat="45.5904733" lon="9.5562017"><ele>141.75</ele><time>2026-04-26T14:10:29.972Z</time></trkpt><trkpt lat="45.590345" lon="9.5561517"><ele>141.5</ele><time>2026-04-26T14:10:30.972Z</time></trkpt><trkpt lat="45.5902117" lon="9.556095"><ele>141.25</ele><time>2026-04-26T14:10:31.972Z</time></trkpt><trkpt lat="45.59008" lon="9.5560417"><ele>141.0</ele><time>2026-04-26T14:10:32.972Z</time></trkpt><trkpt lat="45.5899517" lon="9.556"><ele>141.0</ele><time>2026-04-26T14:10:33.972Z</time></trkpt><trkpt lat="45.58984" lon="9.5559533"><ele>141.0</ele><time>2026-04-26T14:10:34.972Z</time></trkpt><trkpt lat="45.589735" lon="9.5559"><ele>141.0</ele><time>2026-04-26T14:10:35.972Z</time></trkpt><trkpt lat="45.5896417" lon="9.5558533"><ele>141.0</ele><time>2026-04-26T14:10:36.972Z</time></trkpt><trkpt lat="45.5895533" lon="9.5558183"><ele>141.0</ele><time>2026-04-26T14:10:37.972Z</time></trkpt><trkpt lat="45.5894783" lon="9.5557817"><ele>141.33333333333334</ele><time>2026-04-26T14:10:38.972Z</time></trkpt><trkpt lat="45.589405" lon="9.5557583"><ele>141.66666666666666</ele><time>2026-04-26T14:10:39.972Z</time></trkpt><trkpt lat="45.5893" lon="9.55571"><ele>142.0</ele><time>2026-04-26T14:10:41.972Z</time></trkpt><trkpt lat="45.5892133" lon="9.5556633"><ele>142.33333333333331</ele><time>2026-04-26T14:10:43.972Z</time></trkpt><trkpt lat="45.58913" lon="9.5556217"><ele>142.66666666666666</ele><time>2026-04-26T14:10:45.972Z</time></trkpt><trkpt lat="45.5890617" lon="9.555645"><ele>143.0</ele><time>2026-04-26T14:10:48.972Z</time></trkpt><trkpt lat="45.589155" lon="9.5557133"><ele>143.0</ele><time>2026-04-26T14:10:52.972Z</time></trkpt><trkpt lat="45.5892183" lon="9.5557333"><ele>143.0</ele><time>2026-04-26T14:10:53.972Z</time></trkpt><trkpt lat="45.5892867" lon="9.5557583"><ele>143.0</ele><time>2026-04-26T14:10:54.972Z</time></trkpt><trkpt lat="45.589395" lon="9.5558033"><ele>143.0</ele><time>2026-04-26T14:10:56.972Z</time></trkpt><trkpt lat="45.58946" lon="9.5558283"><ele>143.0</ele><time>2026-04-26T14:10:58.972Z</time></trkpt><trkpt lat="45.5895283" lon="9.5558133"><ele>143.0</ele><time>2026-04-26T14:11:03.972Z</time></trkpt><trkpt lat="45.5895617" lon="9.55571"><ele>143.0</ele><time>2026-04-26T14:11:06.972Z</time></trkpt><trkpt lat="45.5895783" lon="9.5556067"><ele>143.0</ele><time>2026-04-26T14:11:09.972Z</time></trkpt><trkpt lat="45.5896083" lon="9.5555067"><ele>143.0</ele><time>2026-04-26T14:11:38.972Z</time></trkpt><trkpt lat="45.5896367" lon="9.55539"><ele>143.0</ele><time>2026-04-26T14:11:40.972Z</time></trkpt><trkpt lat="45.5896533" lon="9.555225"><ele>143.0</ele><time>2026-04-26T14:11:42.972Z</time></trkpt><trkpt lat="45.5896483" lon="9.555055"><ele>143.0</ele><time>2026-04-26T14:11:44.972Z</time></trkpt><trkpt lat="45.5896483" lon="9.5548983"><ele>143.0</ele><time>2026-04-26T14:11:46.972Z</time></trkpt><trkpt lat="45.5896533" lon="9.5547183"><ele>143.0</ele><time>2026-04-26T14:11:48.972Z</time></trkpt><trkpt lat="45.58965" lon="9.5546267"><ele>143.0</ele><time>2026-04-26T14:11:49.972Z</time></trkpt><trkpt lat="45.5896467" lon="9.5544533"><ele>143.0</ele><time>2026-04-26T14:11:51.972Z</time></trkpt><trkpt lat="45.5896517" lon="9.5543483"><ele>142.7142857142857</ele><time>2026-04-26T14:11:52.972Z</time></trkpt><trkpt lat="45.5896533" lon="9.5542467"><ele>142.42857142857142</ele><time>2026-04-26T14:11:53.972Z</time></trkpt><trkpt lat="45.5896467" lon="9.554145"><ele>142.14285714285714</ele><time>2026-04-26T14:11:54.972Z</time></trkpt><trkpt lat="45.5896417" lon="9.55404"><ele>141.85714285714283</ele><time>2026-04-26T14:11:55.972Z</time></trkpt><trkpt lat="45.5896367" lon="9.5539233"><ele>141.57142857142856</ele><time>2026-04-26T14:11:56.972Z</time></trkpt><trkpt lat="45.58963" lon="9.553815"><ele>141.28571428571428</ele><time>2026-04-26T14:11:57.972Z</time></trkpt><trkpt lat="45.5896267" lon="9.5537167"><ele>141.0</ele><time>2026-04-26T14:11:58.972Z</time></trkpt><trkpt lat="45.5896217" lon="9.553625"><ele>140.83333333333334</ele><time>2026-04-26T14:11:59.972Z</time></trkpt><trkpt lat="45.5896183" lon="9.55353"><ele>140.66666666666666</ele><time>2026-04-26T14:12:00.972Z</time></trkpt><trkpt lat="45.5896133" lon="9.553435"><ele>140.5</ele><time>2026-04-26T14:12:01.972Z</time></trkpt><trkpt lat="45.5896083" lon="9.553345"><ele>140.33333333333331</ele><time>2026-04-26T14:12:02.972Z</time></trkpt><trkpt lat="45.5896033" lon="9.5531867"><ele>140.16666666666666</ele><time>2026-04-26T14:12:04.972Z</time></trkpt><trkpt lat="45.5896017" lon="9.5530367"><ele>140.0</ele><time>2026-04-26T14:12:06.972Z</time></trkpt><trkpt lat="45.5896014" lon="9.5529033"><ele>139.83333333333331</ele><time>2026-04-26T14:12:08.972Z</time></trkpt><trkpt lat="45.5896071" lon="9.5527862"><ele>139.66666666666666</ele><time>2026-04-26T14:12:10.972Z</time></trkpt><trkpt lat="45.5896231" lon="9.552681"><ele>139.5</ele><time>2026-04-26T14:12:12.972Z</time></trkpt><trkpt lat="45.5896415" lon="9.5525848"><ele>139.33333333333334</ele><time>2026-04-26T14:12:14.972Z</time></trkpt><trkpt lat="45.5896225" lon="9.5524806"><ele>139.16666666666669</ele><time>2026-04-26T14:12:16.972Z</time></trkpt><trkpt lat="45.5895567" lon="9.5523769"><ele>139.0</ele><time>2026-04-26T14:12:18.972Z</time></trkpt><trkpt lat="45.5894759" lon="9.5522873"><ele>139.0</ele><time>2026-04-26T14:12:20.972Z</time></trkpt><trkpt lat="45.5893906" lon="9.5521759"><ele>139.0</ele><time>2026-04-26T14:12:22.972Z</time></trkpt><trkpt lat="45.5893059" lon="9.5520634"><ele>139.0</ele><time>2026-04-26T14:12:24.972Z</time></trkpt><trkpt lat="45.5892288" lon="9.5519403"><ele>139.0</ele><time>2026-04-26T14:12:26.972Z</time></trkpt><trkpt lat="45.5891686" lon="9.5518159"><ele>139.0</ele><time>2026-04-26T14:12:28.972Z</time></trkpt><trkpt lat="45.5891217" lon="9.5516851"><ele>139.0</ele><time>2026-04-26T14:12:30.972Z</time></trkpt><trkpt lat="45.5890786" lon="9.5515748"><ele>139.0</ele><time>2026-04-26T14:12:32.972Z</time></trkpt><trkpt lat="45.5890296" lon="9.5514843"><ele>139.0</ele><time>2026-04-26T14:12:35.972Z</time></trkpt><trkpt lat="45.5889934" lon="9.5513663"><ele>139.0</ele><time>2026-04-26T14:12:38.972Z</time></trkpt><trkpt lat="45.5889658" lon="9.5512793"><ele>139.0</ele><time>2026-04-26T14:12:40.972Z</time></trkpt><trkpt lat="45.5889346" lon="9.5511759"><ele>139.0</ele><time>2026-04-26T14:12:43.972Z</time></trkpt><trkpt lat="45.5888959" lon="9.5511045"><ele>139.0</ele><time>2026-04-26T14:12:46.972Z</time></trkpt><trkpt lat="45.5888822" lon="9.551002"><ele>139.0</ele><time>2026-04-26T14:13:03.972Z</time></trkpt><trkpt lat="45.588853" lon="9.5509135"><ele>139.0</ele><time>2026-04-26T14:13:24.972Z</time></trkpt><trkpt lat="45.5888867" lon="9.55112"><ele>139.0</ele><time>2026-04-26T14:19:32.97Z</time></trkpt><trkpt lat="45.5889233" lon="9.5512017"><ele>139.0</ele><time>2026-04-26T14:19:35.97Z</time></trkpt><trkpt lat="45.588955" lon="9.551295"><ele>139.0</ele><time>2026-04-26T14:19:38.97Z</time></trkpt><trkpt lat="45.588985" lon="9.5514"><ele>139.0</ele><time>2026-04-26T14:19:41.97Z</time></trkpt><trkpt lat="45.5890217" lon="9.5515167"><ele>139.0</ele><time>2026-04-26T14:19:44.97Z</time></trkpt><trkpt lat="45.58906" lon="9.5515983"><ele>139.0</ele><time>2026-04-26T14:19:46.97Z</time></trkpt><trkpt lat="45.5891183" lon="9.5517267"><ele>139.0</ele><time>2026-04-26T14:19:49.97Z</time></trkpt><trkpt lat="45.5891667" lon="9.5518183"><ele>139.0</ele><time>2026-04-26T14:19:51.97Z</time></trkpt><trkpt lat="45.5892067" lon="9.5519"><ele>139.0</ele><time>2026-04-26T14:19:53.97Z</time></trkpt><trkpt lat="45.589265" lon="9.552"><ele>139.0</ele><time>2026-04-26T14:20:27.97Z</time></trkpt><trkpt lat="45.5893183" lon="9.5520733"><ele>139.0</ele><time>2026-04-26T14:20:29.97Z</time></trkpt><trkpt lat="45.589375" lon="9.552165"><ele>139.0</ele><time>2026-04-26T14:20:31.97Z</time></trkpt><trkpt lat="45.5894333" lon="9.552245"><ele>139.0</ele><time>2026-04-26T14:20:33.97Z</time></trkpt><trkpt lat="45.5894917" lon="9.5523117"><ele>139.0</ele><time>2026-04-26T14:20:35.97Z</time></trkpt><trkpt lat="45.58956" lon="9.55239"><ele>139.16666666666669</ele><time>2026-04-26T14:20:38.97Z</time></trkpt><trkpt lat="45.5896167" lon="9.5524683"><ele>139.33333333333334</ele><time>2026-04-26T14:20:41.97Z</time></trkpt><trkpt lat="45.5896417" lon="9.5525667"><ele>139.5</ele><time>2026-04-26T14:20:44.97Z</time></trkpt><trkpt lat="45.5896117" lon="9.5526917"><ele>139.66666666666666</ele><time>2026-04-26T14:20:47.97Z</time></trkpt><trkpt lat="45.589575" lon="9.552815"><ele>139.83333333333331</ele><time>2026-04-26T14:20:50.969Z</time></trkpt><trkpt lat="45.58957" lon="9.5529117"><ele>140.0</ele><time>2026-04-26T14:20:52.969Z</time></trkpt><trkpt lat="45.5895733" lon="9.5530283"><ele>140.0</ele><time>2026-04-26T14:20:54.969Z</time></trkpt><trkpt lat="45.58958" lon="9.5531833"><ele>140.0</ele><time>2026-04-26T14:20:56.97Z</time></trkpt><trkpt lat="45.5895883" lon="9.5533717"><ele>140.0</ele><time>2026-04-26T14:20:58.969Z</time></trkpt><trkpt lat="45.5895967" lon="9.5534767"><ele>140.0</ele><time>2026-04-26T14:20:59.969Z</time></trkpt><trkpt lat="45.5896083" lon="9.5536583"><ele>140.0</ele><time>2026-04-26T14:21:01.969Z</time></trkpt><trkpt lat="45.58961" lon="9.5537617"><ele>140.14285714285714</ele><time>2026-04-26T14:21:02.969Z</time></trkpt><trkpt lat="45.5896133" lon="9.5538583"><ele>140.28571428571428</ele><time>2026-04-26T14:21:03.969Z</time></trkpt><trkpt lat="45.5896167" lon="9.553955"><ele>140.42857142857144</ele><time>2026-04-26T14:21:04.969Z</time></trkpt><trkpt lat="45.5896183" lon="9.5540533"><ele>140.57142857142856</ele><time>2026-04-26T14:21:05.969Z</time></trkpt><trkpt lat="45.58962" lon="9.5541467"><ele>140.71428571428572</ele><time>2026-04-26T14:21:06.97Z</time></trkpt><trkpt lat="45.5896233" lon="9.554245"><ele>140.85714285714286</ele><time>2026-04-26T14:21:07.969Z</time></trkpt><trkpt lat="45.5896217" lon="9.5543367"><ele>141.0</ele><time>2026-04-26T14:21:08.969Z</time></trkpt><trkpt lat="45.5896133" lon="9.55451"><ele>141.4</ele><time>2026-04-26T14:21:10.969Z</time></trkpt><trkpt lat="45.5896167" lon="9.5546517"><ele>141.8</ele><time>2026-04-26T14:21:12.969Z</time></trkpt><trkpt lat="45.5896133" lon="9.5547833"><ele>142.20000000000002</ele><time>2026-04-26T14:21:14.969Z</time></trkpt><trkpt lat="45.5896167" lon="9.55492"><ele>142.6</ele><time>2026-04-26T14:21:16.969Z</time></trkpt><trkpt lat="45.58962" lon="9.55508"><ele>143.0</ele><time>2026-04-26T14:21:18.969Z</time></trkpt><trkpt lat="45.58962" lon="9.5552183"><ele>143.0</ele><time>2026-04-26T14:21:20.969Z</time></trkpt><trkpt lat="45.58961" lon="9.5553233"><ele>143.0</ele><time>2026-04-26T14:21:22.969Z</time></trkpt><trkpt lat="45.5895983" lon="9.5554117"><ele>143.0</ele><time>2026-04-26T14:21:24.969Z</time></trkpt><trkpt lat="45.5895583" lon="9.5555367"><ele>143.0</ele><time>2026-04-26T14:21:44.969Z</time></trkpt><trkpt lat="45.589535" lon="9.5556417"><ele>143.0</ele><time>2026-04-26T14:21:46.969Z</time></trkpt><trkpt lat="45.5895" lon="9.55577"><ele>143.0</ele><time>2026-04-26T14:23:22.969Z</time></trkpt><trkpt lat="45.58942" lon="9.55575"><ele>143.0</ele><time>2026-04-26T14:23:24.969Z</time></trkpt><trkpt lat="45.589305" lon="9.555695"><ele>143.0</ele><time>2026-04-26T14:23:26.969Z</time></trkpt><trkpt lat="45.5892417" lon="9.5556683"><ele>143.0</ele><time>2026-04-26T14:23:27.969Z</time></trkpt><trkpt lat="45.589175" lon="9.555635"><ele>143.0</ele><time>2026-04-26T14:23:28.969Z</time></trkpt><trkpt lat="45.589105" lon="9.5555867"><ele>143.0</ele><time>2026-04-26T14:23:29.969Z</time></trkpt><trkpt lat="45.589025" lon="9.5555417"><ele>143.0</ele><time>2026-04-26T14:23:30.969Z</time></trkpt><trkpt lat="45.5889367" lon="9.5555117"><ele>143.0</ele><time>2026-04-26T14:23:31.969Z</time></trkpt><trkpt lat="45.5888533" lon="9.55546"><ele>143.0</ele><time>2026-04-26T14:23:32.969Z</time></trkpt><trkpt lat="45.58878" lon="9.5554033"><ele>143.0</ele><time>2026-04-26T14:23:33.969Z</time></trkpt><trkpt lat="45.5887017" lon="9.5553317"><ele>143.0</ele><time>2026-04-26T14:23:34.969Z</time></trkpt><trkpt lat="45.5886167" lon="9.5552583"><ele>143.0</ele><time>2026-04-26T14:23:35.969Z</time></trkpt><trkpt lat="45.58853" lon="9.5551817"><ele>142.8</ele><time>2026-04-26T14:23:36.969Z</time></trkpt><trkpt lat="45.58845" lon="9.5551017"><ele>142.60000000000002</ele><time>2026-04-26T14:23:37.969Z</time></trkpt><trkpt lat="45.588375" lon="9.5550167"><ele>142.39999999999998</ele><time>2026-04-26T14:23:38.969Z</time></trkpt><trkpt lat="45.5883083" lon="9.5549167"><ele>142.2</ele><time>2026-04-26T14:23:39.969Z</time></trkpt><trkpt lat="45.588255" lon="9.55481"><ele>142.0</ele><time>2026-04-26T14:23:40.969Z</time></trkpt><trkpt lat="45.5881983" lon="9.5547017"><ele>142.0</ele><time>2026-04-26T14:23:41.969Z</time></trkpt><trkpt lat="45.5881417" lon="9.5545917"><ele>142.0</ele><time>2026-04-26T14:23:42.969Z</time></trkpt><trkpt lat="45.5880883" lon="9.5544833"><ele>142.0</ele><time>2026-04-26T14:23:43.969Z</time></trkpt><trkpt lat="45.5880333" lon="9.5543817"><ele>142.0</ele><time>2026-04-26T14:23:44.969Z</time></trkpt><trkpt lat="45.58798" lon="9.5543"><ele>142.0</ele><time>2026-04-26T14:23:45.969Z</time></trkpt><trkpt lat="45.58793" lon="9.5542367"><ele>142.0</ele><time>2026-04-26T14:23:46.969Z</time></trkpt><trkpt lat="45.587875" lon="9.5541783"><ele>141.79999999999998</ele><time>2026-04-26T14:23:47.969Z</time></trkpt><trkpt lat="45.5878" lon="9.554135"><ele>141.6</ele><time>2026-04-26T14:23:48.969Z</time></trkpt><trkpt lat="45.5877133" lon="9.554085"><ele>141.39999999999998</ele><time>2026-04-26T14:23:49.969Z</time></trkpt><trkpt lat="45.587625" lon="9.5540233"><ele>141.2</ele><time>2026-04-26T14:23:50.969Z</time></trkpt><trkpt lat="45.5875333" lon="9.5539533"><ele>141.0</ele><time>2026-04-26T14:23:51.969Z</time></trkpt><trkpt lat="45.5874467" lon="9.55389"><ele>141.0</ele><time>2026-04-26T14:23:52.969Z</time></trkpt><trkpt lat="45.5873633" lon="9.5538283"><ele>141.0</ele><time>2026-04-26T14:23:53.969Z</time></trkpt><trkpt lat="45.58728" lon="9.5537667"><ele>141.0</ele><time>2026-04-26T14:23:54.969Z</time></trkpt><trkpt lat="45.5872" lon="9.55371"><ele>141.0</ele><time>2026-04-26T14:23:55.969Z</time></trkpt><trkpt lat="45.5871133" lon="9.5536633"><ele>141.0</ele><time>2026-04-26T14:23:56.969Z</time></trkpt><trkpt lat="45.587035" lon="9.5536183"><ele>141.0</ele><time>2026-04-26T14:23:57.969Z</time></trkpt><trkpt lat="45.5869667" lon="9.5535717"><ele>141.0</ele><time>2026-04-26T14:23:58.969Z</time></trkpt><trkpt lat="45.5869083" lon="9.5535267"><ele>141.0</ele><time>2026-04-26T14:23:59.969Z</time></trkpt><trkpt lat="45.5868117" lon="9.55346"><ele>141.0</ele><time>2026-04-26T14:24:01.969Z</time></trkpt><trkpt lat="45.58674" lon="9.5534133"><ele>141.0</ele><time>2026-04-26T14:24:03.969Z</time></trkpt><trkpt lat="45.5867083" lon="9.553315"><ele>141.0</ele><time>2026-04-26T14:24:06.969Z</time></trkpt><trkpt lat="45.5867433" lon="9.5532283"><ele>141.0</ele><time>2026-04-26T14:24:09.969Z</time></trkpt><trkpt lat="45.5868017" lon="9.5531567"><ele>141.0</ele><time>2026-04-26T14:24:13.968Z</time></trkpt><trkpt lat="45.58673" lon="9.553235"><ele>141.0</ele><time>2026-04-26T14:24:25.968Z</time></trkpt><trkpt lat="45.5866767" lon="9.5533167"><ele>141.0</ele><time>2026-04-26T14:24:28.968Z</time></trkpt><trkpt lat="45.586595" lon="9.5533183"><ele>141.0</ele><time>2026-04-26T14:24:36.968Z</time></trkpt><trkpt lat="45.5865083" lon="9.55329"><ele>141.0</ele><time>2026-04-26T14:24:37.968Z</time></trkpt><trkpt lat="45.58641" lon="9.5532567"><ele>141.0</ele><time>2026-04-26T14:24:38.968Z</time></trkpt><trkpt lat="45.5862983" lon="9.55324"><ele>141.0</ele><time>2026-04-26T14:24:39.968Z</time></trkpt><trkpt lat="45.586185" lon="9.55323"><ele>141.0</ele><time>2026-04-26T14:24:40.968Z</time></trkpt><trkpt lat="45.5860667" lon="9.5532183"><ele>141.0</ele><time>2026-04-26T14:24:41.968Z</time></trkpt><trkpt lat="45.5859583" lon="9.5532083"><ele>141.2</ele><time>2026-04-26T14:24:42.968Z</time></trkpt><trkpt lat="45.5858517" lon="9.553185"><ele>141.39999999999998</ele><time>2026-04-26T14:24:43.968Z</time></trkpt><trkpt lat="45.58574" lon="9.5531567"><ele>141.6</ele><time>2026-04-26T14:24:44.968Z</time></trkpt><trkpt lat="45.585645" lon="9.55313"><ele>141.79999999999998</ele><time>2026-04-26T14:24:45.968Z</time></trkpt><trkpt lat="45.585545" lon="9.5531033"><ele>142.0</ele><time>2026-04-26T14:24:46.968Z</time></trkpt><trkpt lat="45.5854567" lon="9.55308"><ele>142.0</ele><time>2026-04-26T14:24:47.968Z</time></trkpt><trkpt lat="45.5853733" lon="9.5530517"><ele>142.0</ele><time>2026-04-26T14:24:48.968Z</time></trkpt><trkpt lat="45.5853117" lon="9.5530167"><ele>142.0</ele><time>2026-04-26T14:24:49.968Z</time></trkpt><trkpt lat="45.5852317" lon="9.5529267"><ele>142.0</ele><time>2026-04-26T14:24:51.968Z</time></trkpt><trkpt lat="45.5851717" lon="9.5528217"><ele>142.0</ele><time>2026-04-26T14:24:53.968Z</time></trkpt><trkpt lat="45.5851267" lon="9.55275"><ele>142.0</ele><time>2026-04-26T14:24:54.968Z</time></trkpt><trkpt lat="45.585075" lon="9.55267"><ele>141.33333333333334</ele><time>2026-04-26T14:24:55.968Z</time></trkpt><trkpt lat="45.5850133" lon="9.5525817"><ele>140.66666666666669</ele><time>2026-04-26T14:24:56.968Z</time></trkpt><trkpt lat="45.5849517" lon="9.5525"><ele>140.0</ele><time>2026-04-26T14:24:57.968Z</time></trkpt><trkpt lat="45.5848933" lon="9.5524217"><ele>139.33333333333334</ele><time>2026-04-26T14:24:58.968Z</time></trkpt><trkpt lat="45.58484" lon="9.5523517"><ele>138.66666666666666</ele><time>2026-04-26T14:24:59.968Z</time></trkpt><trkpt lat="45.5847883" lon="9.5522817"><ele>138.0</ele><time>2026-04-26T14:25:00.968Z</time></trkpt><trkpt lat="45.5847367" lon="9.552215"><ele>138.0</ele><time>2026-04-26T14:25:01.968Z</time></trkpt><trkpt lat="45.58469" lon="9.5521417"><ele>138.0</ele><time>2026-04-26T14:25:02.968Z</time></trkpt><trkpt lat="45.5846383" lon="9.55207"><ele>138.0</ele><time>2026-04-26T14:25:03.968Z</time></trkpt><trkpt lat="45.58459" lon="9.5519933"><ele>138.0</ele><time>2026-04-26T14:25:04.968Z</time></trkpt><trkpt lat="45.5845383" lon="9.551915"><ele>138.0</ele><time>2026-04-26T14:25:05.968Z</time></trkpt><trkpt lat="45.5844883" lon="9.5518467"><ele>138.0</ele><time>2026-04-26T14:25:06.968Z</time></trkpt><trkpt lat="45.5844333" lon="9.5517717"><ele>138.0</ele><time>2026-04-26T14:25:07.968Z</time></trkpt><trkpt lat="45.5843767" lon="9.5517017"><ele>138.0</ele><time>2026-04-26T14:25:08.968Z</time></trkpt><trkpt lat="45.5843083" lon="9.5516217"><ele>138.0</ele><time>2026-04-26T14:25:09.968Z</time></trkpt><trkpt lat="45.5842417" lon="9.55153"><ele>138.0</ele><time>2026-04-26T14:25:10.968Z</time></trkpt><trkpt lat="45.5841767" lon="9.551435"><ele>138.0</ele><time>2026-04-26T14:25:11.968Z</time></trkpt><trkpt lat="45.584115" lon="9.5513483"><ele>138.0</ele><time>2026-04-26T14:25:12.968Z</time></trkpt><trkpt lat="45.5840567" lon="9.55126"><ele>138.0</ele><time>2026-04-26T14:25:13.968Z</time></trkpt><trkpt lat="45.584005" lon="9.5511667"><ele>138.16666666666666</ele><time>2026-04-26T14:25:14.968Z</time></trkpt><trkpt lat="45.5839517" lon="9.5510883"><ele>138.33333333333334</ele><time>2026-04-26T14:25:15.968Z</time></trkpt><trkpt lat="45.583895" lon="9.551015"><ele>138.5</ele><time>2026-04-26T14:25:16.968Z</time></trkpt><trkpt lat="45.583835" lon="9.5509317"><ele>138.66666666666669</ele><time>2026-04-26T14:25:17.968Z</time></trkpt><trkpt lat="45.5837683" lon="9.5508333"><ele>138.83333333333334</ele><time>2026-04-26T14:25:18.968Z</time></trkpt><trkpt lat="45.5837017" lon="9.5507383"><ele>139.0</ele><time>2026-04-26T14:25:19.969Z</time></trkpt><trkpt lat="45.58363" lon="9.55064"><ele>139.2</ele><time>2026-04-26T14:25:20.968Z</time></trkpt><trkpt lat="45.5835567" lon="9.55054"><ele>139.4</ele><time>2026-04-26T14:25:21.969Z</time></trkpt><trkpt lat="45.5834817" lon="9.5504283"><ele>139.6</ele><time>2026-04-26T14:25:22.968Z</time></trkpt><trkpt lat="45.5834033" lon="9.5503167"><ele>139.8</ele><time>2026-04-26T14:25:23.968Z</time></trkpt><trkpt lat="45.5833233" lon="9.5501967"><ele>140.0</ele><time>2026-04-26T14:25:24.968Z</time></trkpt><trkpt lat="45.58324" lon="9.5500767"><ele>139.5</ele><time>2026-04-26T14:25:25.968Z</time></trkpt><trkpt lat="45.5831467" lon="9.54995"><ele>139.0</ele><time>2026-04-26T14:25:26.968Z</time></trkpt><trkpt lat="45.58306" lon="9.5498233"><ele>138.5</ele><time>2026-04-26T14:25:27.968Z</time></trkpt><trkpt lat="45.582975" lon="9.5496983"><ele>138.0</ele><time>2026-04-26T14:25:28.968Z</time></trkpt><trkpt lat="45.582895" lon="9.5495917"><ele>138.0</ele><time>2026-04-26T14:25:29.968Z</time></trkpt><trkpt lat="45.582825" lon="9.5494933"><ele>138.0</ele><time>2026-04-26T14:25:30.968Z</time></trkpt><trkpt lat="45.5827583" lon="9.549395"><ele>138.0</ele><time>2026-04-26T14:25:31.968Z</time></trkpt><trkpt lat="45.5826883" lon="9.5492933"><ele>138.0</ele><time>2026-04-26T14:25:32.968Z</time></trkpt><trkpt lat="45.5826083" lon="9.5491817"><ele>138.0</ele><time>2026-04-26T14:25:33.968Z</time></trkpt><trkpt lat="45.58252" lon="9.5490617"><ele>138.0</ele><time>2026-04-26T14:25:34.969Z</time></trkpt><trkpt lat="45.5824217" lon="9.5489333"><ele>138.0</ele><time>2026-04-26T14:25:35.968Z</time></trkpt><trkpt lat="45.58233" lon="9.5487917"><ele>138.0</ele><time>2026-04-26T14:25:36.968Z</time></trkpt><trkpt lat="45.582235" lon="9.548655"><ele>138.0</ele><time>2026-04-26T14:25:37.968Z</time></trkpt><trkpt lat="45.5821433" lon="9.5485267"><ele>138.0</ele><time>2026-04-26T14:25:38.968Z</time></trkpt><trkpt lat="45.58205" lon="9.548405"><ele>138.0</ele><time>2026-04-26T14:25:39.968Z</time></trkpt><trkpt lat="45.5819633" lon="9.5482667"><ele>138.0</ele><time>2026-04-26T14:25:40.968Z</time></trkpt><trkpt lat="45.5818883" lon="9.54811"><ele>138.0</ele><time>2026-04-26T14:25:41.968Z</time></trkpt><trkpt lat="45.5818217" lon="9.5479467"><ele>138.5</ele><time>2026-04-26T14:25:42.968Z</time></trkpt><trkpt lat="45.5817517" lon="9.547785"><ele>139.0</ele><time>2026-04-26T14:25:43.968Z</time></trkpt><trkpt lat="45.5816883" lon="9.54763"><ele>139.5</ele><time>2026-04-26T14:25:44.968Z</time></trkpt><trkpt lat="45.5816233" lon="9.5474917"><ele>140.0</ele><time>2026-04-26T14:25:45.968Z</time></trkpt><trkpt lat="45.5815683" lon="9.5473617"><ele>140.0</ele><time>2026-04-26T14:25:46.968Z</time></trkpt><trkpt lat="45.5815133" lon="9.5472283"><ele>140.0</ele><time>2026-04-26T14:25:47.968Z</time></trkpt><trkpt lat="45.5814583" lon="9.5471017"><ele>140.0</ele><time>2026-04-26T14:25:48.968Z</time></trkpt><trkpt lat="45.581395" lon="9.5469967"><ele>140.0</ele><time>2026-04-26T14:25:49.968Z</time></trkpt><trkpt lat="45.5813083" lon="9.5468933"><ele>140.0</ele><time>2026-04-26T14:25:50.968Z</time></trkpt><trkpt lat="45.5812183" lon="9.5468133"><ele>139.8</ele><time>2026-04-26T14:25:51.968Z</time></trkpt><trkpt lat="45.581135" lon="9.5467483"><ele>139.6</ele><time>2026-04-26T14:25:52.968Z</time></trkpt><trkpt lat="45.5810517" lon="9.5466917"><ele>139.4</ele><time>2026-04-26T14:25:53.968Z</time></trkpt><trkpt lat="45.580965" lon="9.5466367"><ele>139.2</ele><time>2026-04-26T14:25:54.968Z</time></trkpt><trkpt lat="45.5808767" lon="9.5465733"><ele>139.0</ele><time>2026-04-26T14:25:55.968Z</time></trkpt><trkpt lat="45.5807867" lon="9.5465333"><ele>139.0</ele><time>2026-04-26T14:25:56.968Z</time></trkpt><trkpt lat="45.580695" lon="9.5464817"><ele>139.0</ele><time>2026-04-26T14:25:57.968Z</time></trkpt><trkpt lat="45.5805967" lon="9.5464283"><ele>139.0</ele><time>2026-04-26T14:25:58.968Z</time></trkpt><trkpt lat="45.580495" lon="9.5463717"><ele>139.0</ele><time>2026-04-26T14:25:59.968Z</time></trkpt><trkpt lat="45.5803967" lon="9.5463083"><ele>139.0</ele><time>2026-04-26T14:26:00.968Z</time></trkpt><trkpt lat="45.5803" lon="9.5462383"><ele>139.0</ele><time>2026-04-26T14:26:01.968Z</time></trkpt><trkpt lat="45.5802083" lon="9.54619"><ele>139.0</ele><time>2026-04-26T14:26:02.968Z</time></trkpt><trkpt lat="45.5801217" lon="9.54613"><ele>139.0</ele><time>2026-04-26T14:26:03.968Z</time></trkpt><trkpt lat="45.5800317" lon="9.5460617"><ele>139.0</ele><time>2026-04-26T14:26:04.968Z</time></trkpt><trkpt lat="45.5799333" lon="9.5460133"><ele>139.0</ele><time>2026-04-26T14:26:05.968Z</time></trkpt><trkpt lat="45.57984" lon="9.545955"><ele>139.0</ele><time>2026-04-26T14:26:06.968Z</time></trkpt><trkpt lat="45.5797517" lon="9.54591"><ele>139.0</ele><time>2026-04-26T14:26:07.968Z</time></trkpt><trkpt lat="45.57967" lon="9.5458367"><ele>139.0</ele><time>2026-04-26T14:26:08.968Z</time></trkpt><trkpt lat="45.579585" lon="9.5457583"><ele>139.0</ele><time>2026-04-26T14:26:09.968Z</time></trkpt><trkpt lat="45.579475" lon="9.545695"><ele>139.0</ele><time>2026-04-26T14:26:10.968Z</time></trkpt><trkpt lat="45.5793517" lon="9.5456317"><ele>139.0</ele><time>2026-04-26T14:26:11.968Z</time></trkpt><trkpt lat="45.579235" lon="9.5455483"><ele>139.0</ele><time>2026-04-26T14:26:12.968Z</time></trkpt><trkpt lat="45.5791183" lon="9.54548"><ele>139.0</ele><time>2026-04-26T14:26:13.968Z</time></trkpt><trkpt lat="45.5790067" lon="9.5454167"><ele>139.0</ele><time>2026-04-26T14:26:14.968Z</time></trkpt><trkpt lat="45.5789067" lon="9.545355"><ele>138.8</ele><time>2026-04-26T14:26:15.968Z</time></trkpt><trkpt lat="45.57882" lon="9.5453117"><ele>138.60000000000002</ele><time>2026-04-26T14:26:16.968Z</time></trkpt><trkpt lat="45.5787467" lon="9.5452367"><ele>138.4</ele><time>2026-04-26T14:26:17.968Z</time></trkpt><trkpt lat="45.5786783" lon="9.5451367"><ele>138.20000000000002</ele><time>2026-04-26T14:26:18.968Z</time></trkpt><trkpt lat="45.5786267" lon="9.5450317"><ele>138.0</ele><time>2026-04-26T14:26:19.968Z</time></trkpt><trkpt lat="45.5785833" lon="9.5449283"><ele>138.20000000000002</ele><time>2026-04-26T14:26:20.968Z</time></trkpt><trkpt lat="45.578545" lon="9.5448017"><ele>138.4</ele><time>2026-04-26T14:26:21.968Z</time></trkpt><trkpt lat="45.5785017" lon="9.5446683"><ele>138.60000000000002</ele><time>2026-04-26T14:26:22.968Z</time></trkpt><trkpt lat="45.5784483" lon="9.5445267"><ele>138.8</ele><time>2026-04-26T14:26:23.968Z</time></trkpt><trkpt lat="45.57839" lon="9.5443833"><ele>139.0</ele><time>2026-04-26T14:26:24.968Z</time></trkpt><trkpt lat="45.57832" lon="9.5442483"><ele>139.0</ele><time>2026-04-26T14:26:25.968Z</time></trkpt><trkpt lat="45.578255" lon="9.5441233"><ele>139.0</ele><time>2026-04-26T14:26:26.968Z</time></trkpt><trkpt lat="45.5782017" lon="9.5439967"><ele>139.0</ele><time>2026-04-26T14:26:27.968Z</time></trkpt><trkpt lat="45.5781617" lon="9.5438633"><ele>139.0</ele><time>2026-04-26T14:26:28.968Z</time></trkpt><trkpt lat="45.5781483" lon="9.5437233"><ele>139.0</ele><time>2026-04-26T14:26:29.968Z</time></trkpt><trkpt lat="45.5781433" lon="9.543585"><ele>138.66666666666669</ele><time>2026-04-26T14:26:30.968Z</time></trkpt><trkpt lat="45.5781433" lon="9.54345"><ele>138.33333333333334</ele><time>2026-04-26T14:26:31.968Z</time></trkpt><trkpt lat="45.5781433" lon="9.5433267"><ele>138.0</ele><time>2026-04-26T14:26:32.968Z</time></trkpt><trkpt lat="45.5781383" lon="9.5432183"><ele>137.66666666666666</ele><time>2026-04-26T14:26:33.968Z</time></trkpt><trkpt lat="45.57813" lon="9.5431217"><ele>137.33333333333331</ele><time>2026-04-26T14:26:34.968Z</time></trkpt><trkpt lat="45.5781" lon="9.5430317"><ele>137.0</ele><time>2026-04-26T14:26:35.968Z</time></trkpt><trkpt lat="45.57799" lon="9.542935"><ele>137.0</ele><time>2026-04-26T14:26:37.968Z</time></trkpt><trkpt lat="45.577905" lon="9.5429133"><ele>137.0</ele><time>2026-04-26T14:26:38.968Z</time></trkpt><trkpt lat="45.577815" lon="9.5429067"><ele>137.0</ele><time>2026-04-26T14:26:39.968Z</time></trkpt><trkpt lat="45.5777367" lon="9.54289"><ele>137.0</ele><time>2026-04-26T14:26:40.968Z</time></trkpt><trkpt lat="45.5776683" lon="9.542865"><ele>137.0</ele><time>2026-04-26T14:26:41.968Z</time></trkpt><trkpt lat="45.577565" lon="9.5427933"><ele>137.0</ele><time>2026-04-26T14:26:43.968Z</time></trkpt><trkpt lat="45.57751" lon="9.5427217"><ele>137.33333333333331</ele><time>2026-04-26T14:26:46.968Z</time></trkpt><trkpt lat="45.5774567" lon="9.542635"><ele>137.66666666666666</ele><time>2026-04-26T14:26:50.968Z</time></trkpt><trkpt lat="45.577435" lon="9.5425467"><ele>138.0</ele><time>2026-04-26T14:27:03.968Z</time></trkpt><trkpt lat="45.5774133" lon="9.542445"><ele>138.33333333333334</ele><time>2026-04-26T14:27:04.968Z</time></trkpt><trkpt lat="45.5773917" lon="9.5423233"><ele>138.66666666666669</ele><time>2026-04-26T14:27:05.969Z</time></trkpt><trkpt lat="45.5773783" lon="9.5421883"><ele>139.0</ele><time>2026-04-26T14:27:06.968Z</time></trkpt><trkpt lat="45.5773633" lon="9.5420417"><ele>139.0</ele><time>2026-04-26T14:27:07.968Z</time></trkpt><trkpt lat="45.5773417" lon="9.5418933"><ele>139.0</ele><time>2026-04-26T14:27:08.968Z</time></trkpt><trkpt lat="45.577325" lon="9.5417567"><ele>139.0</ele><time>2026-04-26T14:27:09.968Z</time></trkpt><trkpt lat="45.57731" lon="9.5416267"><ele>139.0</ele><time>2026-04-26T14:27:10.968Z</time></trkpt><trkpt lat="45.5772933" lon="9.5415"><ele>139.0</ele><time>2026-04-26T14:27:11.968Z</time></trkpt><trkpt lat="45.5772783" lon="9.541385"><ele>139.0</ele><time>2026-04-26T14:27:12.968Z</time></trkpt><trkpt lat="45.577265" lon="9.5412633"><ele>139.0</ele><time>2026-04-26T14:27:13.968Z</time></trkpt><trkpt lat="45.57724" lon="9.5411367"><ele>139.0</ele><time>2026-04-26T14:27:14.968Z</time></trkpt><trkpt lat="45.5772183" lon="9.5410083"><ele>139.0</ele><time>2026-04-26T14:27:15.968Z</time></trkpt><trkpt lat="45.577195" lon="9.54088"><ele>139.0</ele><time>2026-04-26T14:27:16.968Z</time></trkpt><trkpt lat="45.577175" lon="9.54074"><ele>139.0</ele><time>2026-04-26T14:27:17.968Z</time></trkpt><trkpt lat="45.577165" lon="9.540605"><ele>139.0</ele><time>2026-04-26T14:27:18.968Z</time></trkpt><trkpt lat="45.5771567" lon="9.5404883"><ele>139.0</ele><time>2026-04-26T14:27:19.968Z</time></trkpt><trkpt lat="45.5771433" lon="9.5403817"><ele>139.0</ele><time>2026-04-26T14:27:20.968Z</time></trkpt><trkpt lat="45.57713" lon="9.5402833"><ele>139.0</ele><time>2026-04-26T14:27:21.968Z</time></trkpt><trkpt lat="45.5771167" lon="9.5401917"><ele>139.0</ele><time>2026-04-26T14:27:22.968Z</time></trkpt><trkpt lat="45.5771083" lon="9.540085"><ele>139.0</ele><time>2026-04-26T14:27:23.968Z</time></trkpt><trkpt lat="45.5770983" lon="9.5399717"><ele>139.0</ele><time>2026-04-26T14:27:24.968Z</time></trkpt><trkpt lat="45.5770867" lon="9.5398683"><ele>139.0</ele><time>2026-04-26T14:27:25.968Z</time></trkpt><trkpt lat="45.57707" lon="9.539775"><ele>139.0</ele><time>2026-04-26T14:27:26.968Z</time></trkpt><trkpt lat="45.577045" lon="9.53965"><ele>139.0</ele><time>2026-04-26T14:27:28.968Z</time></trkpt><trkpt lat="45.5770233" lon="9.539545"><ele>139.0</ele><time>2026-04-26T14:27:32.968Z</time></trkpt><trkpt lat="45.5770133" lon="9.5394267"><ele>139.0</ele><time>2026-04-26T14:27:35.968Z</time></trkpt><trkpt lat="45.5770067" lon="9.53929"><ele>139.0</ele><time>2026-04-26T14:27:38.968Z</time></trkpt><trkpt lat="45.57698" lon="9.53918"><ele>139.0</ele><time>2026-04-26T14:27:40.968Z</time></trkpt><trkpt lat="45.5769683" lon="9.5390483"><ele>139.0</ele><time>2026-04-26T14:27:42.968Z</time></trkpt><trkpt lat="45.5770083" lon="9.5389033"><ele>139.0</ele><time>2026-04-26T14:27:44.968Z</time></trkpt><trkpt lat="45.5770367" lon="9.5387383"><ele>138.8</ele><time>2026-04-26T14:27:46.968Z</time></trkpt><trkpt lat="45.5769683" lon="9.5386083"><ele>138.60000000000002</ele><time>2026-04-26T14:27:48.968Z</time></trkpt><trkpt lat="45.57686" lon="9.538595"><ele>138.4</ele><time>2026-04-26T14:27:50.967Z</time></trkpt><trkpt lat="45.576785" lon="9.538605"><ele>138.20000000000002</ele><time>2026-04-26T14:27:51.967Z</time></trkpt><trkpt lat="45.5766967" lon="9.5385917"><ele>138.0</ele><time>2026-04-26T14:27:52.967Z</time></trkpt><trkpt lat="45.5766017" lon="9.5385617"><ele>138.0</ele><time>2026-04-26T14:27:53.967Z</time></trkpt><trkpt lat="45.5764983" lon="9.53854"><ele>138.0</ele><time>2026-04-26T14:27:54.967Z</time></trkpt><trkpt lat="45.57641" lon="9.5385217"><ele>138.0</ele><time>2026-04-26T14:27:55.967Z</time></trkpt><trkpt lat="45.576325" lon="9.5385083"><ele>138.0</ele><time>2026-04-26T14:27:56.967Z</time></trkpt><trkpt lat="45.576245" lon="9.53849"><ele>138.0</ele><time>2026-04-26T14:27:57.967Z</time></trkpt><trkpt lat="45.5761567" lon="9.53848"><ele>138.0</ele><time>2026-04-26T14:27:58.967Z</time></trkpt><trkpt lat="45.5760833" lon="9.53847"><ele>138.0</ele><time>2026-04-26T14:27:59.967Z</time></trkpt><trkpt lat="45.575975" lon="9.5384583"><ele>138.0</ele><time>2026-04-26T14:28:01.967Z</time></trkpt><trkpt lat="45.5759033" lon="9.5384433"><ele>138.0</ele><time>2026-04-26T14:28:03.967Z</time></trkpt><trkpt lat="45.575825" lon="9.53844"><ele>138.0</ele><time>2026-04-26T14:28:05.967Z</time></trkpt><trkpt lat="45.5756933" lon="9.538435"><ele>138.0</ele><time>2026-04-26T14:28:07.967Z</time></trkpt><trkpt lat="45.5756133" lon="9.5384367"><ele>138.0</ele><time>2026-04-26T14:28:08.968Z</time></trkpt><trkpt lat="45.575525" lon="9.5384317"><ele>138.0</ele><time>2026-04-26T14:28:09.967Z</time></trkpt><trkpt lat="45.5754317" lon="9.538425"><ele>138.0</ele><time>2026-04-26T14:28:10.967Z</time></trkpt><trkpt lat="45.5753383" lon="9.53842"><ele>138.0</ele><time>2026-04-26T14:28:11.967Z</time></trkpt><trkpt lat="45.5752483" lon="9.5384233"><ele>138.0</ele><time>2026-04-26T14:28:12.967Z</time></trkpt><trkpt lat="45.57517" lon="9.5384117"><ele>138.0</ele><time>2026-04-26T14:28:13.967Z</time></trkpt><trkpt lat="45.5750933" lon="9.5383983"><ele>138.0</ele><time>2026-04-26T14:28:14.967Z</time></trkpt><trkpt lat="45.5750217" lon="9.5383833"><ele>138.0</ele><time>2026-04-26T14:28:15.967Z</time></trkpt><trkpt lat="45.574945" lon="9.5383333"><ele>138.0</ele><time>2026-04-26T14:28:16.967Z</time></trkpt><trkpt lat="45.5748867" lon="9.5382367"><ele>138.0</ele><time>2026-04-26T14:28:17.967Z</time></trkpt><trkpt lat="45.5748483" lon="9.5381383"><ele>138.0</ele><time>2026-04-26T14:28:18.967Z</time></trkpt><trkpt lat="45.5748233" lon="9.5380217"><ele>138.0</ele><time>2026-04-26T14:28:19.967Z</time></trkpt><trkpt lat="45.57481" lon="9.5379083"><ele>138.0</ele><time>2026-04-26T14:28:20.967Z</time></trkpt><trkpt lat="45.5748083" lon="9.5377933"><ele>138.0</ele><time>2026-04-26T14:28:21.967Z</time></trkpt><trkpt lat="45.57481" lon="9.5376833"><ele>138.0</ele><time>2026-04-26T14:28:22.967Z</time></trkpt><trkpt lat="45.5748117" lon="9.537585"><ele>138.0</ele><time>2026-04-26T14:28:23.967Z</time></trkpt><trkpt lat="45.574815" lon="9.5374383"><ele>138.0</ele><time>2026-04-26T14:28:25.967Z</time></trkpt><trkpt lat="45.5748233" lon="9.5373417"><ele>138.0</ele><time>2026-04-26T14:28:27.967Z</time></trkpt><trkpt lat="45.5747917" lon="9.5372617"><ele>138.0</ele><time>2026-04-26T14:28:30.967Z</time></trkpt><trkpt lat="45.5747133" lon="9.5372767"><ele>138.0</ele><time>2026-04-26T14:28:39.967Z</time></trkpt><trkpt lat="45.5747317" lon="9.53746"><ele>138.0</ele><time>2026-04-26T14:28:41.967Z</time></trkpt><trkpt lat="45.5747367" lon="9.537595"><ele>138.0</ele><time>2026-04-26T14:28:42.967Z</time></trkpt><trkpt lat="45.5747367" lon="9.537745"><ele>138.0</ele><time>2026-04-26T14:28:43.967Z</time></trkpt><trkpt lat="45.5747467" lon="9.537905"><ele>138.0</ele><time>2026-04-26T14:28:44.967Z</time></trkpt><trkpt lat="45.5747733" lon="9.5380433"><ele>138.0</ele><time>2026-04-26T14:28:45.967Z</time></trkpt><trkpt lat="45.5748083" lon="9.5381817"><ele>138.0</ele><time>2026-04-26T14:28:46.967Z</time></trkpt><trkpt lat="45.574865" lon="9.5382983"><ele>138.0</ele><time>2026-04-26T14:28:47.967Z</time></trkpt><trkpt lat="45.5749333" lon="9.5383817"><ele>138.0</ele><time>2026-04-26T14:28:48.967Z</time></trkpt><trkpt lat="45.5750133" lon="9.5384483"><ele>138.0</ele><time>2026-04-26T14:28:49.967Z</time></trkpt><trkpt lat="45.5751017" lon="9.5384883"><ele>138.0</ele><time>2026-04-26T14:28:50.967Z</time></trkpt><trkpt lat="45.5752033" lon="9.53852"><ele>138.0</ele><time>2026-04-26T14:28:51.967Z</time></trkpt><trkpt lat="45.5753133" lon="9.5385433"><ele>138.0</ele><time>2026-04-26T14:28:52.967Z</time></trkpt><trkpt lat="45.575415" lon="9.5385517"><ele>138.0</ele><time>2026-04-26T14:28:53.967Z</time></trkpt><trkpt lat="45.57553" lon="9.538545"><ele>138.0</ele><time>2026-04-26T14:28:54.967Z</time></trkpt><trkpt lat="45.5756517" lon="9.5385433"><ele>138.0</ele><time>2026-04-26T14:28:55.967Z</time></trkpt><trkpt lat="45.5757683" lon="9.5385567"><ele>138.0</ele><time>2026-04-26T14:28:56.967Z</time></trkpt><trkpt lat="45.5758783" lon="9.5385533"><ele>138.0</ele><time>2026-04-26T14:28:57.967Z</time></trkpt><trkpt lat="45.57599" lon="9.5385467"><ele>138.0</ele><time>2026-04-26T14:28:58.967Z</time></trkpt><trkpt lat="45.5760933" lon="9.5385583"><ele>138.0</ele><time>2026-04-26T14:28:59.967Z</time></trkpt><trkpt lat="45.5762" lon="9.5385717"><ele>138.0</ele><time>2026-04-26T14:29:00.967Z</time></trkpt><trkpt lat="45.5763133" lon="9.5385783"><ele>138.0</ele><time>2026-04-26T14:29:01.967Z</time></trkpt><trkpt lat="45.5764183" lon="9.5385967"><ele>138.0</ele><time>2026-04-26T14:29:02.967Z</time></trkpt><trkpt lat="45.57651" lon="9.53861"><ele>138.0</ele><time>2026-04-26T14:29:03.967Z</time></trkpt><trkpt lat="45.57659" lon="9.5386367"><ele>138.0</ele><time>2026-04-26T14:29:04.967Z</time></trkpt><trkpt lat="45.57667" lon="9.5386717"><ele>138.0</ele><time>2026-04-26T14:29:05.967Z</time></trkpt><trkpt lat="45.5767283" lon="9.5387167"><ele>138.0</ele><time>2026-04-26T14:29:06.967Z</time></trkpt><trkpt lat="45.576825" lon="9.5388083"><ele>138.0</ele><time>2026-04-26T14:29:08.968Z</time></trkpt><trkpt lat="45.5769217" lon="9.5388867"><ele>138.0</ele><time>2026-04-26T14:29:10.967Z</time></trkpt><trkpt lat="45.5770167" lon="9.53885"><ele>138.0</ele><time>2026-04-26T14:29:12.967Z</time></trkpt><trkpt lat="45.577035" lon="9.5386917"><ele>138.0</ele><time>2026-04-26T14:29:14.967Z</time></trkpt><trkpt lat="45.5770083" lon="9.5386033"><ele>138.0</ele><time>2026-04-26T14:29:15.967Z</time></trkpt><trkpt lat="45.576975" lon="9.5385017"><ele>138.0</ele><time>2026-04-26T14:29:16.967Z</time></trkpt><trkpt lat="45.5769583" lon="9.5383867"><ele>138.0</ele><time>2026-04-26T14:29:17.967Z</time></trkpt><trkpt lat="45.57695" lon="9.5382533"><ele>138.0</ele><time>2026-04-26T14:29:18.967Z</time></trkpt><trkpt lat="45.5769467" lon="9.538115"><ele>138.0</ele><time>2026-04-26T14:29:19.967Z</time></trkpt><trkpt lat="45.5769517" lon="9.5379767"><ele>138.0</ele><time>2026-04-26T14:29:20.967Z</time></trkpt><trkpt lat="45.5769517" lon="9.53783"><ele>138.0</ele><time>2026-04-26T14:29:21.967Z</time></trkpt><trkpt lat="45.5769517" lon="9.5376883"><ele>138.0</ele><time>2026-04-26T14:29:22.967Z</time></trkpt><trkpt lat="45.5769483" lon="9.5375367"><ele>138.16666666666666</ele><time>2026-04-26T14:29:23.967Z</time></trkpt><trkpt lat="45.5769467" lon="9.5373917"><ele>138.33333333333334</ele><time>2026-04-26T14:29:24.967Z</time></trkpt><trkpt lat="45.57695" lon="9.5372583"><ele>138.5</ele><time>2026-04-26T14:29:25.967Z</time></trkpt><trkpt lat="45.57695" lon="9.5371283"><ele>138.66666666666669</ele><time>2026-04-26T14:29:26.967Z</time></trkpt><trkpt lat="45.57696" lon="9.5370133"><ele>138.83333333333334</ele><time>2026-04-26T14:29:27.967Z</time></trkpt><trkpt lat="45.5769717" lon="9.5369017"><ele>139.0</ele><time>2026-04-26T14:29:28.967Z</time></trkpt><trkpt lat="45.5769883" lon="9.5367983"><ele>139.0</ele><time>2026-04-26T14:29:29.967Z</time></trkpt><trkpt lat="45.5770067" lon="9.5367083"><ele>139.0</ele><time>2026-04-26T14:29:30.967Z</time></trkpt><trkpt lat="45.5770333" lon="9.53654"><ele>139.0</ele><time>2026-04-26T14:29:32.967Z</time></trkpt><trkpt lat="45.5770433" lon="9.53639"><ele>139.0</ele><time>2026-04-26T14:29:34.967Z</time></trkpt><trkpt lat="45.577055" lon="9.5362583"><ele>139.0</ele><time>2026-04-26T14:29:36.967Z</time></trkpt><trkpt lat="45.5770633" lon="9.5361683"><ele>139.0</ele><time>2026-04-26T14:29:38.967Z</time></trkpt><trkpt lat="45.5770717" lon="9.536075"><ele>138.2</ele><time>2026-04-26T14:29:40.967Z</time></trkpt><trkpt lat="45.57709" lon="9.5359517"><ele>137.4</ele><time>2026-04-26T14:29:42.967Z</time></trkpt><trkpt lat="45.5770917" lon="9.5358"><ele>136.6</ele><time>2026-04-26T14:29:44.967Z</time></trkpt><trkpt lat="45.5770983" lon="9.5356283"><ele>135.8</ele><time>2026-04-26T14:29:46.967Z</time></trkpt><trkpt lat="45.577115" lon="9.53554"><ele>135.0</ele><time>2026-04-26T14:29:47.967Z</time></trkpt><trkpt lat="45.5771283" lon="9.5353683"><ele>134.5</ele><time>2026-04-26T14:29:49.967Z</time></trkpt><trkpt lat="45.5771517" lon="9.5351833"><ele>134.0</ele><time>2026-04-26T14:29:51.967Z</time></trkpt><trkpt lat="45.5771567" lon="9.53509"><ele>133.5</ele><time>2026-04-26T14:29:52.967Z</time></trkpt><trkpt lat="45.5771617" lon="9.5349933"><ele>133.0</ele><time>2026-04-26T14:29:53.967Z</time></trkpt><trkpt lat="45.5771683" lon="9.5348933"><ele>132.5</ele><time>2026-04-26T14:29:54.967Z</time></trkpt><trkpt lat="45.577175" lon="9.534795"><ele>132.0</ele><time>2026-04-26T14:29:55.967Z</time></trkpt><trkpt lat="45.57718" lon="9.5346983"><ele>133.2</ele><time>2026-04-26T14:29:56.967Z</time></trkpt><trkpt lat="45.5771933" lon="9.5345533"><ele>134.39999999999998</ele><time>2026-04-26T14:29:58.967Z</time></trkpt><trkpt lat="45.5771733" lon="9.53439"><ele>135.60000000000002</ele><time>2026-04-26T14:30:00.967Z</time></trkpt><trkpt lat="45.5770883" lon="9.5343"><ele>136.8</ele><time>2026-04-26T14:30:02.967Z</time></trkpt><trkpt lat="45.5770167" lon="9.53422"><ele>138.0</ele><time>2026-04-26T14:30:04.967Z</time></trkpt><trkpt lat="45.5769617" lon="9.5341733"><ele>138.0</ele><time>2026-04-26T14:30:06.967Z</time></trkpt><trkpt lat="45.5768717" lon="9.5341083"><ele>138.0</ele><time>2026-04-26T14:30:28.967Z</time></trkpt><trkpt lat="45.5767633" lon="9.5340167"><ele>138.0</ele><time>2026-04-26T14:30:30.967Z</time></trkpt><trkpt lat="45.5766917" lon="9.53398"><ele>138.0</ele><time>2026-04-26T14:30:31.967Z</time></trkpt><trkpt lat="45.5766117" lon="9.5339417"><ele>138.0</ele><time>2026-04-26T14:30:32.967Z</time></trkpt><trkpt lat="45.5765183" lon="9.53391"><ele>138.0</ele><time>2026-04-26T14:30:33.967Z</time></trkpt><trkpt lat="45.5764217" lon="9.5338717"><ele>138.0</ele><time>2026-04-26T14:30:34.967Z</time></trkpt><trkpt lat="45.576335" lon="9.53383"><ele>138.0</ele><time>2026-04-26T14:30:35.967Z</time></trkpt><trkpt lat="45.576255" lon="9.5338017"><ele>138.0</ele><time>2026-04-26T14:30:36.967Z</time></trkpt><trkpt lat="45.57619" lon="9.5337717"><ele>138.0</ele><time>2026-04-26T14:30:37.967Z</time></trkpt><trkpt lat="45.576125" lon="9.5337617"><ele>138.0</ele><time>2026-04-26T14:30:38.967Z</time></trkpt><trkpt lat="45.5760617" lon="9.533745"><ele>137.0</ele><time>2026-04-26T14:30:39.967Z</time></trkpt><trkpt lat="45.5759467" lon="9.533725"><ele>136.0</ele><time>2026-04-26T14:30:41.967Z</time></trkpt><trkpt lat="45.575825" lon="9.5337383"><ele>135.0</ele><time>2026-04-26T14:30:43.967Z</time></trkpt><trkpt lat="45.5756833" lon="9.5337817"><ele>134.0</ele><time>2026-04-26T14:30:45.967Z</time></trkpt><trkpt lat="45.57562" lon="9.5338233"><ele>134.0</ele><time>2026-04-26T14:30:46.967Z</time></trkpt><trkpt lat="45.5755567" lon="9.5338683"><ele>134.0</ele><time>2026-04-26T14:30:47.967Z</time></trkpt><trkpt lat="45.5754967" lon="9.5339"><ele>134.0</ele><time>2026-04-26T14:30:48.967Z</time></trkpt><trkpt lat="45.575435" lon="9.53393"><ele>134.0</ele><time>2026-04-26T14:30:49.967Z</time></trkpt><trkpt lat="45.5753267" lon="9.5339517"><ele>134.0</ele><time>2026-04-26T14:30:51.967Z</time></trkpt><trkpt lat="45.5752283" lon="9.5339367"><ele>134.0</ele><time>2026-04-26T14:30:53.967Z</time></trkpt><trkpt lat="45.575135" lon="9.5339133"><ele>134.2</ele><time>2026-04-26T14:30:55.967Z</time></trkpt><trkpt lat="45.575045" lon="9.5339017"><ele>134.4</ele><time>2026-04-26T14:30:57.967Z</time></trkpt><trkpt lat="45.5749517" lon="9.533895"><ele>134.6</ele><time>2026-04-26T14:30:59.967Z</time></trkpt><trkpt lat="45.5748383" lon="9.5339083"><ele>134.8</ele><time>2026-04-26T14:31:01.968Z</time></trkpt><trkpt lat="45.5747067" lon="9.5339333"><ele>135.0</ele><time>2026-04-26T14:31:03.967Z</time></trkpt><trkpt lat="45.574635" lon="9.53394"><ele>135.0</ele><time>2026-04-26T14:31:04.967Z</time></trkpt><trkpt lat="45.5745683" lon="9.5339483"><ele>135.0</ele><time>2026-04-26T14:31:05.967Z</time></trkpt><trkpt lat="45.5744983" lon="9.5339583"><ele>135.0</ele><time>2026-04-26T14:31:06.968Z</time></trkpt><trkpt lat="45.5743783" lon="9.5339583"><ele>135.0</ele><time>2026-04-26T14:31:08.967Z</time></trkpt><trkpt lat="45.5742617" lon="9.53393"><ele>135.0</ele><time>2026-04-26T14:31:10.967Z</time></trkpt><trkpt lat="45.57414" lon="9.5338867"><ele>134.83333333333334</ele><time>2026-04-26T14:31:12.967Z</time></trkpt><trkpt lat="45.574075" lon="9.5338583"><ele>134.66666666666666</ele><time>2026-04-26T14:31:13.967Z</time></trkpt><trkpt lat="45.5740083" lon="9.5338533"><ele>134.5</ele><time>2026-04-26T14:31:14.967Z</time></trkpt><trkpt lat="45.57389" lon="9.5338433"><ele>134.33333333333331</ele><time>2026-04-26T14:31:16.967Z</time></trkpt><trkpt lat="45.5737967" lon="9.533825"><ele>134.16666666666666</ele><time>2026-04-26T14:31:18.967Z</time></trkpt><trkpt lat="45.5737317" lon="9.533825"><ele>134.0</ele><time>2026-04-26T14:31:20.968Z</time></trkpt><trkpt lat="45.5736683" lon="9.5337967"><ele>134.8</ele><time>2026-04-26T14:31:22.967Z</time></trkpt><trkpt lat="45.573615" lon="9.533725"><ele>135.60000000000002</ele><time>2026-04-26T14:31:24.967Z</time></trkpt><trkpt lat="45.573565" lon="9.533605"><ele>136.4</ele><time>2026-04-26T14:31:26.967Z</time></trkpt><trkpt lat="45.5735383" lon="9.53349"><ele>137.20000000000002</ele><time>2026-04-26T14:31:28.967Z</time></trkpt><trkpt lat="45.5734567" lon="9.5334517"><ele>138.0</ele><time>2026-04-26T14:31:30.967Z</time></trkpt><trkpt lat="45.573365" lon="9.533535"><ele>138.0</ele><time>2026-04-26T14:31:32.967Z</time></trkpt><trkpt lat="45.5733283" lon="9.5336317"><ele>138.0</ele><time>2026-04-26T14:31:33.967Z</time></trkpt><trkpt lat="45.5732983" lon="9.5337233"><ele>138.0</ele><time>2026-04-26T14:31:34.967Z</time></trkpt><trkpt lat="45.5732367" lon="9.5338517"><ele>138.0</ele><time>2026-04-26T14:31:36.967Z</time></trkpt><trkpt lat="45.5731717" lon="9.5338467"><ele>138.0</ele><time>2026-04-26T14:31:38.966Z</time></trkpt><trkpt lat="45.573075" lon="9.5337517"><ele>138.0</ele><time>2026-04-26T14:31:40.966Z</time></trkpt><trkpt lat="45.5730183" lon="9.5336983"><ele>138.0</ele><time>2026-04-26T14:31:41.966Z</time></trkpt><trkpt lat="45.572965" lon="9.5336467"><ele>138.0</ele><time>2026-04-26T14:31:42.966Z</time></trkpt><trkpt lat="45.5729083" lon="9.5336"><ele>138.0</ele><time>2026-04-26T14:31:43.966Z</time></trkpt><trkpt lat="45.5728367" lon="9.5335333"><ele>138.0</ele><time>2026-04-26T14:31:44.966Z</time></trkpt><trkpt lat="45.5727633" lon="9.5334617"><ele>138.0</ele><time>2026-04-26T14:31:45.966Z</time></trkpt><trkpt lat="45.57268" lon="9.533405"><ele>138.0</ele><time>2026-04-26T14:31:46.966Z</time></trkpt><trkpt lat="45.5725883" lon="9.53334"><ele>137.8</ele><time>2026-04-26T14:31:47.966Z</time></trkpt><trkpt lat="45.5724933" lon="9.5332617"><ele>137.60000000000002</ele><time>2026-04-26T14:31:48.966Z</time></trkpt><trkpt lat="45.5724117" lon="9.53319"><ele>137.39999999999998</ele><time>2026-04-26T14:31:49.966Z</time></trkpt><trkpt lat="45.5723367" lon="9.5331217"><ele>137.2</ele><time>2026-04-26T14:31:50.966Z</time></trkpt><trkpt lat="45.5722583" lon="9.53306"><ele>137.0</ele><time>2026-04-26T14:31:51.966Z</time></trkpt><trkpt lat="45.5721717" lon="9.5329867"><ele>137.0</ele><time>2026-04-26T14:31:52.966Z</time></trkpt><trkpt lat="45.5720817" lon="9.5329083"><ele>137.0</ele><time>2026-04-26T14:31:53.966Z</time></trkpt><trkpt lat="45.5719867" lon="9.5328267"><ele>137.0</ele><time>2026-04-26T14:31:54.966Z</time></trkpt><trkpt lat="45.5718883" lon="9.5327433"><ele>137.0</ele><time>2026-04-26T14:31:55.966Z</time></trkpt><trkpt lat="45.571795" lon="9.532665"><ele>137.0</ele><time>2026-04-26T14:31:56.966Z</time></trkpt><trkpt lat="45.5716933" lon="9.5325783"><ele>136.4</ele><time>2026-04-26T14:31:57.966Z</time></trkpt><trkpt lat="45.5715883" lon="9.5324933"><ele>135.79999999999998</ele><time>2026-04-26T14:31:58.966Z</time></trkpt><trkpt lat="45.5714917" lon="9.5324083"><ele>135.2</ele><time>2026-04-26T14:31:59.966Z</time></trkpt><trkpt lat="45.5713983" lon="9.532335"><ele>134.6</ele><time>2026-04-26T14:32:00.966Z</time></trkpt><trkpt lat="45.5713033" lon="9.532265"><ele>134.0</ele><time>2026-04-26T14:32:01.966Z</time></trkpt><trkpt lat="45.5712083" lon="9.5321883"><ele>133.8</ele><time>2026-04-26T14:32:02.966Z</time></trkpt><trkpt lat="45.571125" lon="9.5321017"><ele>133.60000000000002</ele><time>2026-04-26T14:32:03.967Z</time></trkpt><trkpt lat="45.571035" lon="9.532025"><ele>133.4</ele><time>2026-04-26T14:32:04.966Z</time></trkpt><trkpt lat="45.5709417" lon="9.5319583"><ele>133.20000000000002</ele><time>2026-04-26T14:32:05.966Z</time></trkpt><trkpt lat="45.5708483" lon="9.53189"><ele>133.0</ele><time>2026-04-26T14:32:06.966Z</time></trkpt><trkpt lat="45.5707517" lon="9.5318367"><ele>133.0</ele><time>2026-04-26T14:32:07.966Z</time></trkpt><trkpt lat="45.5706583" lon="9.5317883"><ele>133.0</ele><time>2026-04-26T14:32:08.966Z</time></trkpt><trkpt lat="45.5705633" lon="9.5317567"><ele>133.0</ele><time>2026-04-26T14:32:09.966Z</time></trkpt><trkpt lat="45.570475" lon="9.531715"><ele>133.0</ele><time>2026-04-26T14:32:10.966Z</time></trkpt><trkpt lat="45.5703867" lon="9.531665"><ele>133.0</ele><time>2026-04-26T14:32:11.966Z</time></trkpt><trkpt lat="45.570295" lon="9.531605"><ele>132.66666666666669</ele><time>2026-04-26T14:32:12.966Z</time></trkpt><trkpt lat="45.570215" lon="9.5315283"><ele>132.33333333333334</ele><time>2026-04-26T14:32:13.966Z</time></trkpt><trkpt lat="45.5701333" lon="9.53146"><ele>132.0</ele><time>2026-04-26T14:32:14.966Z</time></trkpt><trkpt lat="45.5700567" lon="9.5313967"><ele>131.66666666666666</ele><time>2026-04-26T14:32:15.966Z</time></trkpt><trkpt lat="45.5699883" lon="9.531345"><ele>131.33333333333331</ele><time>2026-04-26T14:32:16.966Z</time></trkpt><trkpt lat="45.569925" lon="9.5313083"><ele>131.0</ele><time>2026-04-26T14:32:17.966Z</time></trkpt><trkpt lat="45.5698533" lon="9.531275"><ele>131.0</ele><time>2026-04-26T14:32:18.966Z</time></trkpt><trkpt lat="45.5697767" lon="9.5312333"><ele>131.0</ele><time>2026-04-26T14:32:19.966Z</time></trkpt><trkpt lat="45.5697017" lon="9.5311883"><ele>131.0</ele><time>2026-04-26T14:32:20.966Z</time></trkpt><trkpt lat="45.5696217" lon="9.5311483"><ele>131.0</ele><time>2026-04-26T14:32:21.966Z</time></trkpt><trkpt lat="45.5695467" lon="9.5311183"><ele>131.0</ele><time>2026-04-26T14:32:22.966Z</time></trkpt><trkpt lat="45.56948" lon="9.5310967"><ele>131.0</ele><time>2026-04-26T14:32:23.966Z</time></trkpt><trkpt lat="45.5694083" lon="9.531095"><ele>130.8</ele><time>2026-04-26T14:32:24.966Z</time></trkpt><trkpt lat="45.5693367" lon="9.5310933"><ele>130.6</ele><time>2026-04-26T14:32:25.966Z</time></trkpt><trkpt lat="45.5692217" lon="9.5311"><ele>130.4</ele><time>2026-04-26T14:32:27.966Z</time></trkpt><trkpt lat="45.5691133" lon="9.5311467"><ele>130.2</ele><time>2026-04-26T14:32:29.966Z</time></trkpt><trkpt lat="45.569055" lon="9.5311817"><ele>130.0</ele><time>2026-04-26T14:32:30.966Z</time></trkpt><trkpt lat="45.5689633" lon="9.53124"><ele>130.0</ele><time>2026-04-26T14:32:32.966Z</time></trkpt><trkpt lat="45.568885" lon="9.5312783"><ele>130.0</ele><time>2026-04-26T14:32:34.966Z</time></trkpt><trkpt lat="45.568795" lon="9.5312683"><ele>130.0</ele><time>2026-04-26T14:32:36.966Z</time></trkpt><trkpt lat="45.56871" lon="9.5311917"><ele>130.0</ele><time>2026-04-26T14:32:38.966Z</time></trkpt><trkpt lat="45.5686417" lon="9.5311367"><ele>130.0</ele><time>2026-04-26T14:32:40.966Z</time></trkpt><trkpt lat="45.56858" lon="9.531065"><ele>130.0</ele><time>2026-04-26T14:32:42.966Z</time></trkpt><trkpt lat="45.5685267" lon="9.5309783"><ele>129.66666666666669</ele><time>2026-04-26T14:32:44.966Z</time></trkpt><trkpt lat="45.56847" lon="9.5309017"><ele>129.33333333333334</ele><time>2026-04-26T14:32:46.966Z</time></trkpt><trkpt lat="45.568405" lon="9.5308383"><ele>129.0</ele><time>2026-04-26T14:32:48.966Z</time></trkpt><trkpt lat="45.5683333" lon="9.5307483"><ele>128.66666666666666</ele><time>2026-04-26T14:32:50.966Z</time></trkpt><trkpt lat="45.56827" lon="9.5306517"><ele>128.33333333333331</ele><time>2026-04-26T14:32:52.966Z</time></trkpt><trkpt lat="45.568205" lon="9.53057"><ele>128.0</ele><time>2026-04-26T14:32:54.966Z</time></trkpt><trkpt lat="45.5681433" lon="9.5304883"><ele>127.99999999999999</ele><time>2026-04-26T14:32:56.967Z</time></trkpt><trkpt lat="45.5680867" lon="9.5304167"><ele>128.0</ele><time>2026-04-26T14:32:58.966Z</time></trkpt><trkpt lat="45.5680267" lon="9.5303417"><ele>128.0</ele><time>2026-04-26T14:33:00.966Z</time></trkpt><trkpt lat="45.567975" lon="9.5302517"><ele>128.0</ele><time>2026-04-26T14:33:02.966Z</time></trkpt><trkpt lat="45.5679133" lon="9.530165"><ele>127.99999999999999</ele><time>2026-04-26T14:33:04.966Z</time></trkpt><trkpt lat="45.56786" lon="9.5300917"><ele>128.0</ele><time>2026-04-26T14:33:06.966Z</time></trkpt><trkpt lat="45.5678" lon="9.53001"><ele>128.0</ele><time>2026-04-26T14:33:08.966Z</time></trkpt><trkpt lat="45.5677333" lon="9.5299317"><ele>128.0</ele><time>2026-04-26T14:33:10.966Z</time></trkpt><trkpt lat="45.56764" lon="9.5298133"><ele>128.0</ele><time>2026-04-26T14:33:12.966Z</time></trkpt><trkpt lat="45.5675567" lon="9.5296917"><ele>128.0</ele><time>2026-04-26T14:33:14.966Z</time></trkpt><trkpt lat="45.5675083" lon="9.5296267"><ele>128.0</ele><time>2026-04-26T14:33:15.966Z</time></trkpt><trkpt lat="45.567415" lon="9.5294933"><ele>127.66666666666666</ele><time>2026-04-26T14:33:17.966Z</time></trkpt><trkpt lat="45.5673617" lon="9.5294233"><ele>127.33333333333333</ele><time>2026-04-26T14:33:18.966Z</time></trkpt><trkpt lat="45.5673117" lon="9.529345"><ele>127.0</ele><time>2026-04-26T14:33:19.966Z</time></trkpt><trkpt lat="45.5672583" lon="9.52927"><ele>126.66666666666666</ele><time>2026-04-26T14:33:20.966Z</time></trkpt><trkpt lat="45.567205" lon="9.5291933"><ele>126.33333333333333</ele><time>2026-04-26T14:33:21.966Z</time></trkpt><trkpt lat="45.567145" lon="9.5291083"><ele>126.0</ele><time>2026-04-26T14:33:22.966Z</time></trkpt><trkpt lat="45.56709" lon="9.5290367"><ele>126.0</ele><time>2026-04-26T14:33:23.966Z</time></trkpt><trkpt lat="45.5670433" lon="9.5289667"><ele>126.0</ele><time>2026-04-26T14:33:24.966Z</time></trkpt><trkpt lat="45.5669617" lon="9.528845"><ele>126.0</ele><time>2026-04-26T14:33:26.966Z</time></trkpt><trkpt lat="45.5668917" lon="9.5287367"><ele>126.0</ele><time>2026-04-26T14:33:28.966Z</time></trkpt><trkpt lat="45.5668233" lon="9.5286533"><ele>126.0</ele><time>2026-04-26T14:33:30.966Z</time></trkpt><trkpt lat="45.566755" lon="9.528585"><ele>125.83333333333333</ele><time>2026-04-26T14:33:32.966Z</time></trkpt><trkpt lat="45.56669" lon="9.5285083"><ele>125.66666666666666</ele><time>2026-04-26T14:33:34.966Z</time></trkpt><trkpt lat="45.56663" lon="9.5284267"><ele>125.5</ele><time>2026-04-26T14:33:36.966Z</time></trkpt><trkpt lat="45.5665767" lon="9.5283633"><ele>125.33333333333333</ele><time>2026-04-26T14:33:38.966Z</time></trkpt><trkpt lat="45.566525" lon="9.5283"><ele>125.16666666666666</ele><time>2026-04-26T14:33:40.966Z</time></trkpt><trkpt lat="45.5664583" lon="9.5282233"><ele>125.0</ele><time>2026-04-26T14:33:42.966Z</time></trkpt><trkpt lat="45.56637" lon="9.5281283"><ele>124.99999999999999</ele><time>2026-04-26T14:33:44.966Z</time></trkpt><trkpt lat="45.5662717" lon="9.52802"><ele>125.0</ele><time>2026-04-26T14:33:46.966Z</time></trkpt><trkpt lat="45.5661767" lon="9.527895"><ele>125.0</ele><time>2026-04-26T14:33:48.966Z</time></trkpt><trkpt lat="45.5661267" lon="9.527835"><ele>125.0</ele><time>2026-04-26T14:33:49.966Z</time></trkpt><trkpt lat="45.5660767" lon="9.5277717"><ele>124.99999999999999</ele><time>2026-04-26T14:33:50.966Z</time></trkpt><trkpt lat="45.5660283" lon="9.5277117"><ele>125.0</ele><time>2026-04-26T14:33:51.966Z</time></trkpt><trkpt lat="45.5659833" lon="9.527645"><ele>125.57142857142857</ele><time>2026-04-26T14:33:52.966Z</time></trkpt><trkpt lat="45.5659367" lon="9.5275733"><ele>126.14285714285714</ele><time>2026-04-26T14:33:53.966Z</time></trkpt><trkpt lat="45.56589" lon="9.5274917"><ele>126.71428571428571</ele><time>2026-04-26T14:33:54.966Z</time></trkpt><trkpt lat="45.5658517" lon="9.527405"><ele>127.28571428571428</ele><time>2026-04-26T14:33:55.966Z</time></trkpt><trkpt lat="45.5657983" lon="9.5273217"><ele>127.85714285714286</ele><time>2026-04-26T14:33:56.966Z</time></trkpt><trkpt lat="45.56575" lon="9.52723"><ele>128.42857142857142</ele><time>2026-04-26T14:33:57.966Z</time></trkpt><trkpt lat="45.5657083" lon="9.52714"><ele>129.0</ele><time>2026-04-26T14:33:58.966Z</time></trkpt><trkpt lat="45.565675" lon="9.5270467"><ele>129.0</ele><time>2026-04-26T14:33:59.966Z</time></trkpt><trkpt lat="45.56564" lon="9.52695"><ele>129.0</ele><time>2026-04-26T14:34:00.966Z</time></trkpt><trkpt lat="45.5656033" lon="9.5268517"><ele>129.0</ele><time>2026-04-26T14:34:01.966Z</time></trkpt><trkpt lat="45.5655683" lon="9.5267533"><ele>129.0</ele><time>2026-04-26T14:34:02.966Z</time></trkpt><trkpt lat="45.565525" lon="9.5266517"><ele>129.0</ele><time>2026-04-26T14:34:03.966Z</time></trkpt><trkpt lat="45.5654833" lon="9.5265533"><ele>129.0</ele><time>2026-04-26T14:34:04.966Z</time></trkpt><trkpt lat="45.5654333" lon="9.5264633"><ele>129.0</ele><time>2026-04-26T14:34:05.967Z</time></trkpt><trkpt lat="45.56539" lon="9.5263733"><ele>129.0</ele><time>2026-04-26T14:34:06.966Z</time></trkpt><trkpt lat="45.56534" lon="9.5262933"><ele>129.0</ele><time>2026-04-26T14:34:07.966Z</time></trkpt><trkpt lat="45.5652933" lon="9.52621"><ele>129.0</ele><time>2026-04-26T14:34:08.966Z</time></trkpt><trkpt lat="45.5652367" lon="9.52614"><ele>129.0</ele><time>2026-04-26T14:34:09.966Z</time></trkpt><trkpt lat="45.5651817" lon="9.5260633"><ele>129.0</ele><time>2026-04-26T14:34:10.966Z</time></trkpt><trkpt lat="45.5651183" lon="9.5259917"><ele>128.5</ele><time>2026-04-26T14:34:11.966Z</time></trkpt><trkpt lat="45.56506" lon="9.5259183"><ele>128.0</ele><time>2026-04-26T14:34:12.966Z</time></trkpt><trkpt lat="45.5650067" lon="9.5258583"><ele>127.5</ele><time>2026-04-26T14:34:13.966Z</time></trkpt><trkpt lat="45.564945" lon="9.5257933"><ele>127.0</ele><time>2026-04-26T14:34:14.966Z</time></trkpt><trkpt lat="45.56489" lon="9.525735"><ele>126.5</ele><time>2026-04-26T14:34:15.966Z</time></trkpt><trkpt lat="45.5647867" lon="9.52563"><ele>126.0</ele><time>2026-04-26T14:34:17.966Z</time></trkpt><trkpt lat="45.5646817" lon="9.525535"><ele>126.0</ele><time>2026-04-26T14:34:19.966Z</time></trkpt><trkpt lat="45.5645867" lon="9.52544"><ele>126.0</ele><time>2026-04-26T14:34:21.966Z</time></trkpt><trkpt lat="45.564505" lon="9.52534"><ele>126.0</ele><time>2026-04-26T14:34:23.966Z</time></trkpt><trkpt lat="45.564405" lon="9.5252317"><ele>126.0</ele><time>2026-04-26T14:34:25.966Z</time></trkpt><trkpt lat="45.5643483" lon="9.5251867"><ele>126.0</ele><time>2026-04-26T14:34:26.966Z</time></trkpt><trkpt lat="45.5642817" lon="9.52514"><ele>126.83333333333333</ele><time>2026-04-26T14:34:27.966Z</time></trkpt><trkpt lat="45.564215" lon="9.5251017"><ele>127.66666666666666</ele><time>2026-04-26T14:34:28.966Z</time></trkpt><trkpt lat="45.564135" lon="9.5250567"><ele>128.5</ele><time>2026-04-26T14:34:29.966Z</time></trkpt><trkpt lat="45.564055" lon="9.5250183"><ele>129.33333333333331</ele><time>2026-04-26T14:34:30.966Z</time></trkpt><trkpt lat="45.5639817" lon="9.5249833"><ele>130.16666666666666</ele><time>2026-04-26T14:34:31.967Z</time></trkpt><trkpt lat="45.5639183" lon="9.5249433"><ele>131.0</ele><time>2026-04-26T14:34:32.966Z</time></trkpt><trkpt lat="45.56386" lon="9.5249067"><ele>131.0</ele><time>2026-04-26T14:34:33.966Z</time></trkpt><trkpt lat="45.563795" lon="9.52487"><ele>131.0</ele><time>2026-04-26T14:34:34.966Z</time></trkpt><trkpt lat="45.5637283" lon="9.5248583"><ele>131.0</ele><time>2026-04-26T14:34:35.966Z</time></trkpt><trkpt lat="45.5636617" lon="9.5248617"><ele>131.0</ele><time>2026-04-26T14:34:36.966Z</time></trkpt><trkpt lat="45.5636" lon="9.5248817"><ele>131.0</ele><time>2026-04-26T14:34:37.966Z</time></trkpt><trkpt lat="45.5634967" lon="9.5249183"><ele>131.0</ele><time>2026-04-26T14:34:39.966Z</time></trkpt><trkpt lat="45.563425" lon="9.5249517"><ele>131.0</ele><time>2026-04-26T14:34:42.967Z</time></trkpt><trkpt lat="45.5633583" lon="9.5249367"><ele>130.66666666666666</ele><time>2026-04-26T14:35:11.966Z</time></trkpt><trkpt lat="45.5632867" lon="9.5249433"><ele>130.33333333333331</ele><time>2026-04-26T14:35:14.966Z</time></trkpt><trkpt lat="45.5632017" lon="9.5249833"><ele>130.0</ele><time>2026-04-26T14:35:17.966Z</time></trkpt><trkpt lat="45.5631233" lon="9.5250467"><ele>129.66666666666666</ele><time>2026-04-26T14:39:19.964Z</time></trkpt><trkpt lat="45.5631967" lon="9.5250367"><ele>129.33333333333334</ele><time>2026-04-26T14:39:31.964Z</time></trkpt><trkpt lat="45.5632883" lon="9.525035"><ele>129.0</ele><time>2026-04-26T14:39:45.964Z</time></trkpt><trkpt lat="45.5633667" lon="9.5250217"><ele>129.0</ele><time>2026-04-26T14:39:48.964Z</time></trkpt><trkpt lat="45.5634667" lon="9.5249933"><ele>129.0</ele><time>2026-04-26T14:39:51.964Z</time></trkpt><trkpt lat="45.56354" lon="9.524975"><ele>129.0</ele><time>2026-04-26T14:39:53.964Z</time></trkpt><trkpt lat="45.5636217" lon="9.5249433"><ele>129.0</ele><time>2026-04-26T14:39:56.965Z</time></trkpt><trkpt lat="45.5636883" lon="9.5249367"><ele>129.0</ele><time>2026-04-26T14:39:59.964Z</time></trkpt><trkpt lat="45.5637767" lon="9.5249433"><ele>129.0</ele><time>2026-04-26T14:40:02.964Z</time></trkpt><trkpt lat="45.5638567" lon="9.5249683"><ele>129.4</ele><time>2026-04-26T14:40:05.964Z</time></trkpt><trkpt lat="45.56392" lon="9.5249983"><ele>129.8</ele><time>2026-04-26T14:40:08.964Z</time></trkpt><trkpt lat="45.5640067" lon="9.5250467"><ele>130.2</ele><time>2026-04-26T14:40:11.964Z</time></trkpt><trkpt lat="45.564115" lon="9.52509"><ele>130.6</ele><time>2026-04-26T14:40:13.964Z</time></trkpt><trkpt lat="45.5642383" lon="9.52516"><ele>131.0</ele><time>2026-04-26T14:40:15.964Z</time></trkpt><trkpt lat="45.5643017" lon="9.525195"><ele>131.0</ele><time>2026-04-26T14:40:16.964Z</time></trkpt><trkpt lat="45.5643617" lon="9.525235"><ele>131.0</ele><time>2026-04-26T14:40:17.964Z</time></trkpt><trkpt lat="45.5644317" lon="9.5252933"><ele>131.0</ele><time>2026-04-26T14:40:18.964Z</time></trkpt><trkpt lat="45.5645017" lon="9.52536"><ele>131.0</ele><time>2026-04-26T14:40:19.964Z</time></trkpt><trkpt lat="45.5645667" lon="9.525425"><ele>131.0</ele><time>2026-04-26T14:40:20.964Z</time></trkpt><trkpt lat="45.564655" lon="9.5255283"><ele>131.0</ele><time>2026-04-26T14:40:22.964Z</time></trkpt><trkpt lat="45.5647033" lon="9.5255867"><ele>130.0</ele><time>2026-04-26T14:40:23.964Z</time></trkpt><trkpt lat="45.564755" lon="9.5256383"><ele>129.0</ele><time>2026-04-26T14:40:24.964Z</time></trkpt><trkpt lat="45.56485" lon="9.5257267"><ele>128.0</ele><time>2026-04-26T14:40:26.964Z</time></trkpt><trkpt lat="45.5649433" lon="9.525815"><ele>127.0</ele><time>2026-04-26T14:40:28.964Z</time></trkpt><trkpt lat="45.56505" lon="9.5259417"><ele>126.0</ele><time>2026-04-26T14:40:30.964Z</time></trkpt><trkpt lat="45.565115" lon="9.5260183"><ele>126.0</ele><time>2026-04-26T14:40:31.964Z</time></trkpt><trkpt lat="45.5651833" lon="9.5260917"><ele>126.0</ele><time>2026-04-26T14:40:32.964Z</time></trkpt><trkpt lat="45.565245" lon="9.5261617"><ele>126.0</ele><time>2026-04-26T14:40:33.964Z</time></trkpt><trkpt lat="45.56529" lon="9.5262383"><ele>126.0</ele><time>2026-04-26T14:40:34.964Z</time></trkpt><trkpt lat="45.5653333" lon="9.5263167"><ele>126.0</ele><time>2026-04-26T14:40:35.964Z</time></trkpt><trkpt lat="45.56538" lon="9.5263883"><ele>126.0</ele><time>2026-04-26T14:40:36.964Z</time></trkpt><trkpt lat="45.565425" lon="9.5264783"><ele>126.5</ele><time>2026-04-26T14:40:37.964Z</time></trkpt><trkpt lat="45.5654667" lon="9.5265683"><ele>127.0</ele><time>2026-04-26T14:40:38.964Z</time></trkpt><trkpt lat="45.565505" lon="9.5266683"><ele>127.5</ele><time>2026-04-26T14:40:39.964Z</time></trkpt><trkpt lat="45.56555" lon="9.5267717"><ele>128.0</ele><time>2026-04-26T14:40:40.964Z</time></trkpt><trkpt lat="45.5655867" lon="9.5268583"><ele>128.5</ele><time>2026-04-26T14:40:41.964Z</time></trkpt><trkpt lat="45.56564" lon="9.5270267"><ele>129.0</ele><time>2026-04-26T14:40:43.964Z</time></trkpt><trkpt lat="45.5656783" lon="9.5271267"><ele>129.0</ele><time>2026-04-26T14:40:44.964Z</time></trkpt><trkpt lat="45.5657167" lon="9.5272317"><ele>129.0</ele><time>2026-04-26T14:40:45.964Z</time></trkpt><trkpt lat="45.56576" lon="9.52733"><ele>129.0</ele><time>2026-04-26T14:40:46.964Z</time></trkpt><trkpt lat="45.565805" lon="9.5274167"><ele>129.0</ele><time>2026-04-26T14:40:47.964Z</time></trkpt><trkpt lat="45.565855" lon="9.527485"><ele>129.0</ele><time>2026-04-26T14:40:48.964Z</time></trkpt><trkpt lat="45.5659033" lon="9.5275567"><ele>129.0</ele><time>2026-04-26T14:40:49.964Z</time></trkpt><trkpt lat="45.565955" lon="9.5276367"><ele>129.0</ele><time>2026-04-26T14:40:50.964Z</time></trkpt><trkpt lat="45.56601" lon="9.5277033"><ele>129.0</ele><time>2026-04-26T14:40:51.964Z</time></trkpt><trkpt lat="45.566105" lon="9.52783"><ele>129.0</ele><time>2026-04-26T14:40:53.964Z</time></trkpt><trkpt lat="45.566195" lon="9.5279317"><ele>129.0</ele><time>2026-04-26T14:40:55.964Z</time></trkpt><trkpt lat="45.5662867" lon="9.5280517"><ele>129.0</ele><time>2026-04-26T14:40:57.964Z</time></trkpt><trkpt lat="45.5663767" lon="9.5281667"><ele>128.33333333333334</ele><time>2026-04-26T14:40:59.964Z</time></trkpt><trkpt lat="45.5664633" lon="9.52828"><ele>127.66666666666666</ele><time>2026-04-26T14:41:01.964Z</time></trkpt><trkpt lat="45.566545" lon="9.5283867"><ele>127.0</ele><time>2026-04-26T14:41:03.964Z</time></trkpt><trkpt lat="45.5665983" lon="9.52845"><ele>126.33333333333333</ele><time>2026-04-26T14:41:04.964Z</time></trkpt><trkpt lat="45.5666533" lon="9.5285167"><ele>125.66666666666666</ele><time>2026-04-26T14:41:05.964Z</time></trkpt><trkpt lat="45.5667133" lon="9.528585"><ele>125.0</ele><time>2026-04-26T14:41:06.964Z</time></trkpt><trkpt lat="45.56677" lon="9.52865"><ele>125.0</ele><time>2026-04-26T14:41:07.964Z</time></trkpt><trkpt lat="45.5668233" lon="9.5287067"><ele>125.0</ele><time>2026-04-26T14:41:08.965Z</time></trkpt><trkpt lat="45.5668817" lon="9.5287633"><ele>125.0</ele><time>2026-04-26T14:41:09.964Z</time></trkpt><trkpt lat="45.56693" lon="9.528835"><ele>125.0</ele><time>2026-04-26T14:41:10.964Z</time></trkpt><trkpt lat="45.566985" lon="9.528915"><ele>125.0</ele><time>2026-04-26T14:41:11.964Z</time></trkpt><trkpt lat="45.5670433" lon="9.528995"><ele>125.0</ele><time>2026-04-26T14:41:12.964Z</time></trkpt><trkpt lat="45.5670933" lon="9.5290767"><ele>125.0</ele><time>2026-04-26T14:41:13.964Z</time></trkpt><trkpt lat="45.5671583" lon="9.5291633"><ele>125.16666666666666</ele><time>2026-04-26T14:41:14.964Z</time></trkpt><trkpt lat="45.567215" lon="9.5292433"><ele>125.33333333333333</ele><time>2026-04-26T14:41:15.964Z</time></trkpt><trkpt lat="45.5672733" lon="9.529325"><ele>125.5</ele><time>2026-04-26T14:41:16.964Z</time></trkpt><trkpt lat="45.5673267" lon="9.5294033"><ele>125.66666666666666</ele><time>2026-04-26T14:41:17.964Z</time></trkpt><trkpt lat="45.5673817" lon="9.5294883"><ele>125.83333333333333</ele><time>2026-04-26T14:41:18.964Z</time></trkpt><trkpt lat="45.5674367" lon="9.52958"><ele>126.0</ele><time>2026-04-26T14:41:19.964Z</time></trkpt><trkpt lat="45.5674933" lon="9.52966"><ele>126.28571428571428</ele><time>2026-04-26T14:41:20.964Z</time></trkpt><trkpt lat="45.5675583" lon="9.5297433"><ele>126.57142857142857</ele><time>2026-04-26T14:41:21.964Z</time></trkpt><trkpt lat="45.5676183" lon="9.529815"><ele>126.85714285714286</ele><time>2026-04-26T14:41:22.964Z</time></trkpt><trkpt lat="45.5676683" lon="9.5298917"><ele>127.14285714285714</ele><time>2026-04-26T14:41:23.964Z</time></trkpt><trkpt lat="45.567715" lon="9.5299617"><ele>127.42857142857142</ele><time>2026-04-26T14:41:24.964Z</time></trkpt><trkpt lat="45.5677633" lon="9.530035"><ele>127.71428571428571</ele><time>2026-04-26T14:41:25.964Z</time></trkpt><trkpt lat="45.5678183" lon="9.5301"><ele>128.0</ele><time>2026-04-26T14:41:26.964Z</time></trkpt><trkpt lat="45.567875" lon="9.53017"><ele>128.0</ele><time>2026-04-26T14:41:27.964Z</time></trkpt><trkpt lat="45.5679317" lon="9.5302483"><ele>127.99999999999999</ele><time>2026-04-26T14:41:28.964Z</time></trkpt><trkpt lat="45.5679867" lon="9.5303267"><ele>128.0</ele><time>2026-04-26T14:41:29.964Z</time></trkpt><trkpt lat="45.56804" lon="9.5303983"><ele>128.0</ele><time>2026-04-26T14:41:30.964Z</time></trkpt><trkpt lat="45.56809" lon="9.5304717"><ele>127.99999999999999</ele><time>2026-04-26T14:41:31.964Z</time></trkpt><trkpt lat="45.5681333" lon="9.5305417"><ele>128.0</ele><time>2026-04-26T14:41:32.964Z</time></trkpt><trkpt lat="45.5681833" lon="9.5306067"><ele>128.0</ele><time>2026-04-26T14:41:33.964Z</time></trkpt><trkpt lat="45.5682333" lon="9.5306617"><ele>128.0</ele><time>2026-04-26T14:41:34.964Z</time></trkpt><trkpt lat="45.5683267" lon="9.5307683"><ele>128.0</ele><time>2026-04-26T14:41:36.964Z</time></trkpt><trkpt lat="45.5684067" lon="9.5308617"><ele>128.0</ele><time>2026-04-26T14:41:38.964Z</time></trkpt><trkpt lat="45.56849" lon="9.5309533"><ele>128.0</ele><time>2026-04-26T14:41:40.964Z</time></trkpt><trkpt lat="45.5685717" lon="9.5310717"><ele>128.0</ele><time>2026-04-26T14:41:42.964Z</time></trkpt><trkpt lat="45.5686467" lon="9.5311933"><ele>128.33333333333331</ele><time>2026-04-26T14:41:44.964Z</time></trkpt><trkpt lat="45.5687267" lon="9.5312833"><ele>128.66666666666666</ele><time>2026-04-26T14:41:46.964Z</time></trkpt><trkpt lat="45.56881" lon="9.5313417"><ele>129.0</ele><time>2026-04-26T14:41:48.964Z</time></trkpt><trkpt lat="45.568885" lon="9.53135"><ele>129.33333333333334</ele><time>2026-04-26T14:41:50.964Z</time></trkpt><trkpt lat="45.5689633" lon="9.5313217"><ele>129.66666666666669</ele><time>2026-04-26T14:41:52.964Z</time></trkpt><trkpt lat="45.56904" lon="9.5312733"><ele>130.0</ele><time>2026-04-26T14:41:54.964Z</time></trkpt><trkpt lat="45.5691083" lon="9.5312167"><ele>130.0</ele><time>2026-04-26T14:41:56.964Z</time></trkpt><trkpt lat="45.5691767" lon="9.5311667"><ele>130.0</ele><time>2026-04-26T14:41:58.964Z</time></trkpt><trkpt lat="45.5692417" lon="9.5311667"><ele>130.0</ele><time>2026-04-26T14:42:00.964Z</time></trkpt><trkpt lat="45.5693033" lon="9.5311883"><ele>130.0</ele><time>2026-04-26T14:42:02.965Z</time></trkpt><trkpt lat="45.5693967" lon="9.53119"><ele>130.0</ele><time>2026-04-26T14:42:05.964Z</time></trkpt><trkpt lat="45.5694817" lon="9.531175"><ele>130.0</ele><time>2026-04-26T14:42:07.964Z</time></trkpt><trkpt lat="45.569585" lon="9.5311833"><ele>130.2</ele><time>2026-04-26T14:42:09.964Z</time></trkpt><trkpt lat="45.5697033" lon="9.53123"><ele>130.4</ele><time>2026-04-26T14:42:11.964Z</time></trkpt><trkpt lat="45.5697667" lon="9.5312583"><ele>130.6</ele><time>2026-04-26T14:42:12.964Z</time></trkpt><trkpt lat="45.5698833" lon="9.531315"><ele>130.8</ele><time>2026-04-26T14:42:14.964Z</time></trkpt><trkpt lat="45.5699633" lon="9.5313567"><ele>131.0</ele><time>2026-04-26T14:42:16.964Z</time></trkpt><trkpt lat="45.5700467" lon="9.5314067"><ele>131.0</ele><time>2026-04-26T14:42:18.964Z</time></trkpt><trkpt lat="45.57016" lon="9.531505"><ele>131.0</ele><time>2026-04-26T14:42:20.964Z</time></trkpt><trkpt lat="45.5702267" lon="9.53158"><ele>131.0</ele><time>2026-04-26T14:42:21.964Z</time></trkpt><trkpt lat="45.5703" lon="9.5316517"><ele>131.0</ele><time>2026-04-26T14:42:22.964Z</time></trkpt><trkpt lat="45.5703767" lon="9.5317183"><ele>131.0</ele><time>2026-04-26T14:42:23.964Z</time></trkpt><trkpt lat="45.5704467" lon="9.5317633"><ele>131.33333333333331</ele><time>2026-04-26T14:42:24.964Z</time></trkpt><trkpt lat="45.5705167" lon="9.5317983"><ele>131.66666666666666</ele><time>2026-04-26T14:42:25.964Z</time></trkpt><trkpt lat="45.5705817" lon="9.5318317"><ele>132.0</ele><time>2026-04-26T14:42:26.964Z</time></trkpt><trkpt lat="45.5707017" lon="9.531875"><ele>132.33333333333334</ele><time>2026-04-26T14:42:28.964Z</time></trkpt><trkpt lat="45.5707667" lon="9.531915"><ele>132.66666666666669</ele><time>2026-04-26T14:42:29.964Z</time></trkpt><trkpt lat="45.570825" lon="9.53196"><ele>133.0</ele><time>2026-04-26T14:42:30.964Z</time></trkpt><trkpt lat="45.5708933" lon="9.5320167"><ele>132.85714285714286</ele><time>2026-04-26T14:42:31.964Z</time></trkpt><trkpt lat="45.57096" lon="9.53207"><ele>132.71428571428572</ele><time>2026-04-26T14:42:32.964Z</time></trkpt><trkpt lat="45.571025" lon="9.53212"><ele>132.57142857142856</ele><time>2026-04-26T14:42:33.964Z</time></trkpt><trkpt lat="45.5710917" lon="9.5321717"><ele>132.42857142857144</ele><time>2026-04-26T14:42:34.964Z</time></trkpt><trkpt lat="45.57116" lon="9.5322283"><ele>132.28571428571428</ele><time>2026-04-26T14:42:35.964Z</time></trkpt><trkpt lat="45.571225" lon="9.53228"><ele>132.14285714285714</ele><time>2026-04-26T14:42:36.964Z</time></trkpt><trkpt lat="45.5712833" lon="9.53233"><ele>132.0</ele><time>2026-04-26T14:42:37.964Z</time></trkpt><trkpt lat="45.571385" lon="9.5324117"><ele>134.0</ele><time>2026-04-26T14:42:39.964Z</time></trkpt><trkpt lat="45.5714583" lon="9.5324933"><ele>134.0</ele><time>2026-04-26T14:42:41.964Z</time></trkpt><trkpt lat="45.5715233" lon="9.5325533"><ele>134.0</ele><time>2026-04-26T14:42:44.964Z</time></trkpt></trkseg></trk></gpx>